# Wetter Temperatur Luftdruck Luftfeuchtigkeit Sichtweite Windgeschwindigkeit Windrichtung Zeit
1 Clouds 15 1010 83 10000 6.17 170 15:00 07.10.2022
2 Clouds 15 1010 83 10000 5.66 180 13:23 07.10.2022
3 Clouds 15 1010 81 10000 5.66 180 11:19 07.10.2022
4 Clouds 16 1011 79 10000 4.63 180 09:25 07.10.2022
5 Clouds 16 1011 78 10000 4.12 160 08:19 07.10.2022
6 Clouds 18 1012 65 10000 4.12 240 02:29 07.10.2022
7 Clouds 22 1012 49 10000 3.6 240 22:53 06.10.2022
8 Clear 23 1012 47 10000 6.17 220 21:52 06.10.2022
9 Clear 23 1012 47 10000 6.17 220 21:30 06.10.2022
10 Clear 22 1012 51 10000 5.66 230 20:38 06.10.2022
11 Clear 20 1013 62 10000 6.17 230 18:56 06.10.2022
12 Clear 20 1013 63 10000 6.17 230 18:31 06.10.2022
13 Clear 14 1013 80 10000 4.12 230 15:38 06.10.2022
14 Clear 11 1013 82 10000 3.09 230 12:49 06.10.2022
15 Clear 11 1013 72 10000 2.57 220 08:51 06.10.2022
16 Clear 13 1014 63 10000 2.06 230 04:42 06.10.2022
17 Clear 17 1014 51 10000 2.06 170 00:51 06.10.2022
18 Clear 21 1015 35 10000 2.06 260 21:54 05.10.2022
19 Clear 19 1016 45 10000 1.03 0 19:44 05.10.2022
20 Clear 16 1017 58 10000 1.54 250 17:37 05.10.2022
21 Clear 14 1018 68 10000 1.03 60 16:45 05.10.2022
22 Clear 8 1018 87 10000 1.03 0 14:59 05.10.2022
23 Clear 7 1018 87 10000 1.03 0 14:37 05.10.2022
24 Clear 5 1018 90 10000 0.51 220 12:45 05.10.2022
25 Clear 4 1018 84 10000 0.51 280 11:38 05.10.2022
26 Clear 6 1018 80 10000 1.03 20 08:25 05.10.2022
27 Clear 7 1019 80 10000 1.54 80 07:19 05.10.2022
28 Mist 8 1019 72 9656 1.54 140 05:31 05.10.2022
29 Clear 10 1020 68 10000 1.03 240 02:31 05.10.2022
30 Clear 15 1019 50 10000 2.06 260 00:28 05.10.2022
31 Clear 17 1020 42 10000 2.06 220 23:22 04.10.2022
32 Clouds 18 1021 37 10000 2.57 240 21:22 04.10.2022
33 Clear 17 1022 44 10000 1.54 0 19:56 04.10.2022
34 Clear 15 1023 50 10000 1.03 360 18:55 04.10.2022
35 Clear 14 1023 56 10000 1.54 340 17:57 04.10.2022
36 Clear 12 1024 67 10000 1.54 10 16:56 04.10.2022
37 Clear 6 1024 88 10000 1.03 40 14:31 04.10.2022
38 Clear 4 1024 84 10000 0.51 250 10:23 04.10.2022
39 Clear 4 1025 82 10000 1.03 250 08:28 04.10.2022
40 Clear 6 1025 78 10000 0 0 04:48 04.10.2022
41 Clear 14 1026 48 10000 2.06 330 23:59 03.10.2022
42 Clear 15 1026 43 10000 1.54 20 22:45 03.10.2022
43 Clear 15 1027 43 10000 2.57 340 21:41 03.10.2022
44 Clear 14 1028 47 10000 3.09 360 20:36 03.10.2022
45 Clear 13 1029 54 10000 2.06 0 18:52 03.10.2022
46 Clear 11 1030 62 10000 2.57 30 17:35 03.10.2022
47 Clear 9 1030 72 10000 3.6 20 16:22 03.10.2022
48 Clear 4 1029 81 10000 2.57 340 14:30 03.10.2022
49 Clear 2 1029 86 10000 2.06 340 12:46 03.10.2022
50 Clear 2 1029 86 10000 2.06 10 11:37 03.10.2022
51 Clear 2 1028 88 10000 1.03 20 09:59 03.10.2022
52 Clear 3 1029 86 10000 2.06 340 08:47 03.10.2022
53 Clear 5 1029 79 10000 2.57 350 04:45 03.10.2022
54 Clear 12 1028 47 10000 5.14 30 23:51 02.10.2022
55 Clear 13 1028 43 10000 4.63 10 22:19 02.10.2022
56 Clear 12 1029 45 10000 8.23 20 20:18 02.10.2022
57 Clear 10 1030 54 10000 7.2 40 17:58 02.10.2022
58 Clear 10 1030 58 10000 7.2 40 17:20 02.10.2022
59 Clear 9 1030 61 10000 6.69 40 16:33 02.10.2022
60 Clear 7 1030 65 10000 7.2 20 15:39 02.10.2022
61 Clear 5 1029 75 10000 7.72 20 13:46 02.10.2022
62 Clear 5 1028 75 10000 7.2 30 12:42 02.10.2022
63 Clear 5 1028 74 10000 7.2 30 12:23 02.10.2022
64 Clear 5 1028 72 10000 7.72 20 11:34 02.10.2022
65 Clear 6 1027 70 10000 8.23 20 10:29 02.10.2022
66 Clear 7 1027 70 10000 8.23 30 08:31 02.10.2022
67 Clouds 10 1026 66 10000 7.72 30 05:23 02.10.2022
68 Clear 12 1024 76 10000 3.6 40 02:49 02.10.2022
69 Clouds 15 1023 72 10000 4.63 50 00:39 02.10.2022
70 Clouds 15 1023 72 10000 4.63 50 00:39 02.10.2022
71 Clouds 16 1022 69 10000 5.14 20 23:36 01.10.2022
72 Clear 17 1021 64 10000 4.63 30 22:24 01.10.2022
73 Clear 16 1022 63 10000 2.57 10 19:31 01.10.2022
74 Clear 15 1022 71 10000 1.54 130 17:46 01.10.2022
75 Clear 12 1022 80 10000 1.03 20 16:24 01.10.2022
76 Clear 9 1022 91 10000 1.54 240 14:19 01.10.2022
77 Clear 8 1022 90 10000 2.57 240 12:35 01.10.2022
78 Clear 8 1021 88 10000 1.54 220 11:57 01.10.2022
79 Clear 8 1021 88 10000 1.54 220 11:18 01.10.2022
80 Clear 9 1021 87 10000 2.06 250 10:30 01.10.2022
81 Clear 9 1021 85 10000 3.09 250 09:26 01.10.2022
82 Clear 9 1022 84 10000 3.09 240 08:40 01.10.2022
83 Clear 12 1023 69 10000 3.09 200 03:52 01.10.2022
84 Clear 12 1023 67 10000 3.09 200 03:28 01.10.2022
85 Clear 17 1024 47 10000 4.63 200 23:30 30.09.2022
86 Clear 18 1024 46 10000 5.14 180 22:19 30.09.2022
87 Clear 18 1024 46 10000 5.14 180 22:19 30.09.2022
88 Clear 18 1025 49 10000 5.14 190 21:22 30.09.2022
89 Clear 17 1026 52 10000 5.14 220 20:42 30.09.2022
90 Clear 16 1027 55 10000 4.63 210 19:30 30.09.2022
91 Clear 14 1028 65 10000 3.6 270 17:27 30.09.2022
92 Clear 8 1029 87 10000 1.54 150 14:55 30.09.2022
93 Clear 4 1029 91 10000 1.03 90 13:24 30.09.2022
94 Clear 5 1029 89 10000 1.54 240 11:56 30.09.2022
95 Clear 6 1029 88 10000 1.54 130 10:18 30.09.2022
96 Clear 6 1029 86 10000 1.03 110 08:21 30.09.2022
97 Clear 8 1030 77 10000 2.57 250 04:55 30.09.2022
98 Clear 10 1029 72 10000 2.57 240 02:27 30.09.2022
99 Clear 14 1029 54 10000 4.12 190 22:24 29.09.2022
100 Clear 14 1030 55 10000 3.09 280 21:26 29.09.2022
101 Clouds 13 1030 58 10000 3.6 250 20:31 29.09.2022
102 Clouds 11 1031 64 10000 4.12 290 18:32 29.09.2022
103 Clouds 10 1031 66 10000 3.6 320 17:22 29.09.2022
104 Clouds 10 1031 69 10000 4.12 350 16:28 29.09.2022
105 Clouds 9 1031 74 10000 4.12 310 15:35 29.09.2022
106 Clouds 8 1030 81 10000 3.6 310 14:24 29.09.2022
107 Clouds 10 1027 73 10000 4.63 340 09:21 29.09.2022
108 Clouds 11 1026 77 10000 3.6 290 06:45 29.09.2022
109 Clouds 13 1023 72 10000 6.17 310 02:45 29.09.2022
110 Clouds 16 1021 66 10000 6.17 290 23:54 28.09.2022
111 Clouds 16 1020 62 10000 5.66 300 22:32 28.09.2022
112 Clouds 17 1020 62 10000 5.14 310 21:29 28.09.2022
113 Clouds 17 1019 64 10000 4.63 310 20:22 28.09.2022
114 Clouds 16 1018 71 10000 4.63 330 18:20 28.09.2022
115 Clouds 13 1015 92 10000 2.57 300 14:51 28.09.2022
116 Clouds 12 1013 93 10000 2.57 300 12:49 28.09.2022
117 Clouds 12 1012 94 10000 2.57 280 10:51 28.09.2022
118 Clouds 12 1011 93 10000 2.57 250 08:33 28.09.2022
119 Clear 12 1010 93 10000 4.12 230 06:50 28.09.2022
120 Clouds 13 1008 87 10000 1.54 170 01:56 28.09.2022
121 Clouds 14 1008 86 10000 1.54 170 01:33 28.09.2022
122 Clouds 16 1007 80 10000 5.14 250 23:20 27.09.2022
123 Clouds 15 1006 89 10000 6.17 250 21:42 27.09.2022
124 Mist 14 1005 89 4828 7.2 220 20:38 27.09.2022
125 Clouds 14 1005 89 10000 6.17 230 19:47 27.09.2022
126 Clouds 14 1004 90 10000 6.69 190 18:40 27.09.2022
127 Clouds 13 1004 94 10000 5.14 160 17:44 27.09.2022
128 Rain 12 1004 92 8047 4.63 170 15:31 27.09.2022
129 Clouds 12 1004 92 10000 3.6 140 14:55 27.09.2022
130 Clouds 12 1003 91 10000 3.09 150 12:50 27.09.2022
131 Clouds 12 1003 93 10000 3.09 170 11:32 27.09.2022
132 Clouds 13 1004 90 10000 4.63 170 08:50 27.09.2022
133 Mist 13 1003 91 9656 5.14 160 06:46 27.09.2022
134 Clouds 14 1002 92 10000 3.09 240 01:57 27.09.2022
135 Clouds 14 1002 92 10000 2.57 230 01:29 27.09.2022
136 Rain 16 1000 84 10000 2.57 340 23:26 26.09.2022
137 Mist 17 1000 79 10000 2.06 50 22:38 26.09.2022
138 Clouds 18 1000 77 10000 2.06 80 20:46 26.09.2022
139 Clouds 17 1001 79 10000 3.6 0 19:32 26.09.2022
140 Clouds 16 1001 86 10000 3.09 130 18:32 26.09.2022
141 Drizzle 14 1001 88 10000 1.54 110 16:36 26.09.2022
142 Clouds 13 1000 91 10000 1.54 330 14:37 26.09.2022
143 Mist 12 999 94 3219 2.57 10 11:35 26.09.2022
144 Mist 12 999 92 4023 3.6 360 10:41 26.09.2022
145 Mist 13 999 93 4023 3.6 360 10:21 26.09.2022
146 Mist 13 999 92 4023 2.06 360 09:55 26.09.2022
147 Mist 13 999 92 4828 2.06 350 09:24 26.09.2022
148 Mist 13 999 92 4023 2.57 20 08:57 26.09.2022
149 Clouds 13 1001 86 10000 3.09 120 02:57 26.09.2022
150 Clouds 14 1001 77 10000 4.63 130 00:35 26.09.2022
151 Clouds 16 1002 72 10000 4.12 160 22:59 25.09.2022
152 Clouds 17 1002 65 10000 4.63 120 21:41 25.09.2022
153 Clouds 18 1003 64 10000 4.63 150 20:49 25.09.2022
154 Clouds 18 1004 65 10000 4.63 140 19:55 25.09.2022
155 Clouds 17 1004 70 10000 3.09 200 18:43 25.09.2022
156 Clouds 17 1004 69 10000 3.09 200 18:20 25.09.2022
157 Clouds 14 1006 79 10000 3.09 190 16:49 25.09.2022
158 Clouds 13 1006 84 10000 1.54 170 15:45 25.09.2022
159 Clouds 11 1006 88 10000 2.06 170 14:30 25.09.2022
160 Clouds 11 1006 88 10000 3.6 170 13:19 25.09.2022
161 Clouds 11 1007 88 10000 3.6 210 10:36 25.09.2022
162 Clouds 11 1008 84 10000 4.12 240 08:25 25.09.2022
163 Clear 12 1009 77 10000 5.66 250 06:24 25.09.2022
164 Clear 14 1009 63 10000 5.14 260 03:20 25.09.2022
165 Clear 19 1010 48 10000 7.72 260 23:23 24.09.2022
166 Clouds 19 1011 51 10000 7.72 260 21:19 24.09.2022
167 Clear 18 1012 54 10000 8.23 270 19:23 24.09.2022
168 Clear 17 1013 58 10000 5.14 240 18:25 24.09.2022
169 Clear 13 1014 65 10000 5.66 280 16:36 24.09.2022
170 Clear 10 1014 73 10000 6.17 270 15:23 24.09.2022
171 Clear 8 1014 79 10000 6.69 280 14:18 24.09.2022
172 Clear 7 1014 84 10000 5.66 270 12:59 24.09.2022
173 Clear 6 1014 84 10000 5.66 270 12:20 24.09.2022
174 Clear 7 1015 78 10000 4.12 280 09:57 24.09.2022
175 Clear 7 1015 76 10000 3.6 280 08:50 24.09.2022
176 Clear 7 1015 75 10000 3.09 280 07:39 24.09.2022
177 Clear 9 1016 69 10000 4.12 290 04:50 24.09.2022
178 Clear 9 1015 67 10000 4.12 290 03:44 24.09.2022
179 Clear 14 1014 45 10000 7.2 300 22:48 23.09.2022
180 Clouds 14 1014 48 10000 7.2 300 21:32 23.09.2022
181 Clouds 13 1014 50 10000 5.66 280 20:57 23.09.2022
182 Clouds 13 1014 51 10000 5.66 280 20:26 23.09.2022
183 Clouds 12 1014 54 10000 7.72 290 19:19 23.09.2022
184 Clouds 8 1015 67 10000 6.17 300 15:29 23.09.2022
185 Clouds 7 1012 72 10000 5.14 310 11:47 23.09.2022
186 Clouds 9 1010 67 10000 7.2 340 09:36 23.09.2022
187 Clouds 9 1009 72 10000 6.17 310 06:39 23.09.2022
188 Clouds 14 1003 58 10000 7.2 350 00:42 23.09.2022
189 Clouds 15 1002 63 10000 6.69 310 23:23 22.09.2022
190 Clouds 15 1001 66 10000 7.72 320 22:27 22.09.2022
191 Clouds 16 1000 66 10000 7.2 310 21:19 22.09.2022
192 Clouds 15 1000 80 10000 5.66 330 19:58 22.09.2022
193 Clouds 18 1000 70 10000 6.17 290 17:41 22.09.2022
194 Clouds 16 999 92 10000 5.14 250 13:38 22.09.2022
195 Clouds 18 998 93 10000 4.63 210 10:37 22.09.2022
196 Clouds 18 998 93 10000 4.63 210 10:18 22.09.2022
197 Thunderstorm 18 999 88 8047 3.09 200 07:36 22.09.2022
198 Clear 18 1002 85 10000 5.14 170 04:37 22.09.2022
199 Clear 18 1007 78 10000 4.63 120 23:33 21.09.2022
200 Clouds 18 1008 75 10000 3.09 190 22:26 21.09.2022
201 Clouds 17 1010 78 10000 4.63 170 20:54 21.09.2022
202 Clouds 15 1014 82 10000 2.57 180 17:55 21.09.2022
203 Clouds 15 1014 82 10000 2.57 180 17:22 21.09.2022
204 Clouds 13 1014 90 10000 1.03 150 15:18 21.09.2022
205 Clouds 12 1015 94 10000 1.54 40 13:38 21.09.2022
206 Clouds 11 1014 93 10000 2.06 10 11:34 21.09.2022
207 Clouds 11 1014 94 10000 2.06 20 10:50 21.09.2022
208 Clouds 11 1014 94 10000 2.06 20 10:50 21.09.2022
209 Clouds 11 1014 93 10000 2.57 350 09:38 21.09.2022
210 Clouds 12 1015 94 10000 2.57 20 08:23 21.09.2022
211 Mist 13 1015 95 9656 4.63 20 02:51 21.09.2022
212 Mist 13 1015 95 9656 4.63 20 02:51 21.09.2022
213 Mist 13 1015 95 4828 4.63 20 02:33 21.09.2022
214 Mist 13 1015 94 4023 4.63 360 01:49 21.09.2022
215 Clouds 14 1013 89 10000 4.12 350 23:50 20.09.2022
216 Clouds 14 1013 91 10000 5.14 340 21:33 20.09.2022
217 Mist 13 1013 92 4828 4.12 330 20:23 20.09.2022
218 Clouds 13 1012 94 10000 4.63 360 17:41 20.09.2022
219 Mist 12 1011 97 9656 4.12 10 14:59 20.09.2022
220 Mist 12 1010 97 9656 3.09 360 13:59 20.09.2022
221 Mist 11 1010 98 2414 2.06 350 11:24 20.09.2022
222 Mist 11 1009 98 4828 4.63 360 08:29 20.09.2022
223 Mist 11 1009 98 2414 5.14 340 07:31 20.09.2022
224 Mist 13 1008 98 2816 4.12 360 04:30 20.09.2022
225 Clouds 13 1008 96 10000 4.12 350 01:28 20.09.2022
226 Mist 13 1008 96 10000 6.17 40 22:33 19.09.2022
227 Rain 12 1009 95 10000 6.17 40 21:28 19.09.2022
228 Mist 12 1009 95 10000 6.17 20 20:39 19.09.2022
229 Clouds 12 1011 95 10000 4.12 10 18:42 19.09.2022
230 Clouds 11 1012 95 10000 6.69 20 16:37 19.09.2022
231 Clouds 10 1013 91 10000 4.63 50 13:45 19.09.2022
232 Mist 11 1013 89 10000 6.17 60 11:43 19.09.2022
233 Clouds 11 1014 87 10000 3.6 10 09:35 19.09.2022
234 Clouds 12 1014 88 10000 4.63 30 08:20 19.09.2022
235 Clouds 13 1014 94 10000 5.14 30 03:28 19.09.2022
236 Rain 13 1013 94 4828 6.69 30 23:39 18.09.2022
237 Clouds 13 1014 94 10000 5.66 40 22:32 18.09.2022
238 Clouds 13 1014 93 10000 3.09 40 20:47 18.09.2022
239 Mist 13 1015 91 10000 5.14 30 19:33 18.09.2022
240 Clouds 13 1015 91 10000 5.66 40 17:51 18.09.2022
241 Mist 13 1015 93 8047 6.69 20 16:46 18.09.2022
242 Clouds 14 1014 89 10000 4.63 30 14:44 18.09.2022
243 Clouds 14 1013 87 10000 4.12 20 13:34 18.09.2022
244 Clouds 15 1013 86 10000 1.54 180 11:55 18.09.2022
245 Clouds 15 1014 81 10000 1.54 180 09:25 18.09.2022
246 Clouds 17 1019 59 10000 3.09 130 01:43 18.09.2022
247 Clouds 17 1019 57 10000 3.09 130 01:19 18.09.2022
248 Clouds 20 1021 48 10000 2.57 210 22:56 17.09.2022
249 Clear 19 1023 46 10000 2.06 0 20:53 17.09.2022
250 Clear 19 1024 49 10000 2.57 240 19:37 17.09.2022
251 Clear 17 1025 56 10000 2.57 150 17:44 17.09.2022
252 Clear 9 1026 82 10000 2.57 30 14:22 17.09.2022
253 Clear 7 1026 87 10000 1.54 70 13:26 17.09.2022
254 Clear 8 1025 87 10000 1.03 280 10:49 17.09.2022
255 Clear 10 1024 78 10000 1.54 40 06:53 17.09.2022
256 Clear 11 1024 78 10000 1.54 40 06:19 17.09.2022
257 Clouds 17 1022 53 10000 4.12 220 23:41 16.09.2022
258 Clouds 18 1022 49 10000 3.6 250 22:19 16.09.2022
259 Clouds 18 1022 51 10000 4.12 360 20:53 16.09.2022
260 Clouds 16 1023 54 10000 4.63 280 19:29 16.09.2022
261 Clear 15 1023 59 10000 5.14 10 16:24 16.09.2022
262 Clear 13 1023 67 10000 2.57 310 14:52 16.09.2022
263 Clouds 12 1022 73 10000 3.09 300 13:21 16.09.2022
264 Clouds 12 1022 70 10000 3.09 290 10:24 16.09.2022
265 Clouds 13 1022 66 10000 3.09 280 07:26 16.09.2022
266 Clouds 13 1022 66 10000 3.6 280 06:48 16.09.2022
267 Clouds 13 1021 64 10000 2.06 310 05:57 16.09.2022
268 Clear 14 1021 57 10000 3.6 300 02:30 16.09.2022
269 Clear 17 1021 45 10000 5.66 270 21:47 15.09.2022
270 Clear 17 1022 46 10000 6.69 290 20:38 15.09.2022
271 Clear 16 1023 50 10000 5.66 330 19:31 15.09.2022
272 Clear 13 1023 55 10000 5.66 10 17:58 15.09.2022
273 Clear 13 1023 56 10000 5.66 10 17:28 15.09.2022
274 Clouds 12 1023 65 10000 6.17 340 15:47 15.09.2022
275 Clear 9 1021 82 10000 4.63 300 12:51 15.09.2022
276 Clear 9 1020 81 10000 4.12 310 11:48 15.09.2022
277 Clouds 10 1019 79 10000 4.63 310 09:46 15.09.2022
278 Clouds 11 1018 73 10000 4.63 290 07:44 15.09.2022
279 Clouds 14 1016 62 10000 7.2 350 03:48 15.09.2022
280 Clouds 19 1012 68 10000 8.75 310 23:22 14.09.2022
281 Clouds 23 1011 60 10000 8.23 280 20:47 14.09.2022
282 Clouds 23 1010 58 10000 7.72 290 19:33 14.09.2022
283 Clouds 22 1009 66 10000 7.72 300 17:48 14.09.2022
284 Clouds 21 1008 76 10000 8.75 290 16:37 14.09.2022
285 Clouds 20 1007 86 10000 6.69 270 15:27 14.09.2022
286 Mist 17 1004 94 9656 6.17 250 12:50 14.09.2022
287 Clouds 17 1004 92 10000 6.69 240 09:53 14.09.2022
288 Clouds 17 1004 93 10000 7.2 250 08:38 14.09.2022
289 Clouds 17 1005 91 10000 6.69 260 06:50 14.09.2022
290 Clouds 17 1005 92 10000 6.69 260 06:30 14.09.2022
291 Clouds 17 1005 92 10000 6.69 260 06:30 14.09.2022
292 Mist 18 1005 95 6437 7.2 250 02:58 14.09.2022
293 Mist 18 1004 94 9656 6.17 290 01:36 14.09.2022
294 Rain 19 1004 94 10000 5.14 300 00:53 14.09.2022
295 Rain 20 1004 94 10000 7.2 290 23:55 13.09.2022
296 Rain 20 1004 94 3219 6.69 190 23:37 13.09.2022
297 Mist 21 1004 95 2816 3.6 310 23:19 13.09.2022
298 Clouds 21 1004 94 10000 1.54 320 22:29 13.09.2022
299 Clouds 21 1005 94 10000 1.54 350 21:39 13.09.2022
300 Rain 20 1007 96 9656 2.06 160 19:26 13.09.2022
301 Clouds 22 1007 83 10000 2.57 170 16:45 13.09.2022
302 Clouds 21 1007 84 10000 2.06 120 15:38 13.09.2022
303 Clouds 20 1007 84 10000 2.06 100 13:41 13.09.2022
304 Clouds 20 1007 81 10000 1.54 90 11:23 13.09.2022
305 Clouds 21 1008 77 10000 2.06 90 08:20 13.09.2022
306 Clear 22 1008 72 10000 1.54 50 02:58 13.09.2022
307 Clear 28 1008 54 10000 3.6 120 23:23 12.09.2022
308 Clear 27 1009 56 10000 1.54 120 22:45 12.09.2022
309 Clear 27 1009 57 10000 3.6 170 21:35 12.09.2022
310 Clouds 27 1010 58 10000 3.09 120 20:23 12.09.2022
311 Clear 26 1011 62 10000 1.54 200 18:40 12.09.2022
312 Clear 22 1012 79 10000 2.06 260 15:53 12.09.2022
313 Clouds 18 1013 91 10000 1.03 140 12:57 12.09.2022
314 Clouds 19 1013 89 10000 2.57 240 10:34 12.09.2022
315 Clouds 19 1013 89 10000 2.06 220 09:33 12.09.2022
316 Clouds 22 1015 72 10000 5.66 270 04:42 12.09.2022
317 Clouds 24 1015 63 10000 4.63 250 02:57 12.09.2022
318 Clouds 28 1016 50 10000 4.63 180 22:51 11.09.2022
319 Clouds 29 1016 50 10000 2.06 200 21:40 11.09.2022
320 Clouds 29 1017 49 10000 3.09 170 20:44 11.09.2022
321 Clear 28 1018 51 10000 3.09 200 19:46 11.09.2022
322 Clear 28 1018 52 10000 3.09 200 19:22 11.09.2022
323 Clear 27 1019 56 10000 2.57 170 17:57 11.09.2022
324 Clear 24 1019 66 10000 1.54 150 16:23 11.09.2022
325 Clear 19 1020 89 10000 1.03 130 14:18 11.09.2022
326 Clear 17 1020 91 10000 1.54 190 12:32 11.09.2022
327 Clouds 19 1021 84 10000 1.54 240 08:27 11.09.2022
328 Clear 20 1021 78 10000 1.54 180 06:33 11.09.2022
329 Clear 27 1020 56 10000 4.12 210 00:49 11.09.2022
330 Clear 29 1020 53 10000 4.63 240 22:26 10.09.2022
331 Clear 29 1021 55 10000 4.12 230 20:55 10.09.2022
332 Clear 28 1022 57 10000 4.12 190 19:46 10.09.2022
333 Clear 27 1022 58 10000 4.12 190 19:27 10.09.2022
334 Clear 26 1022 63 10000 4.63 220 17:59 10.09.2022
335 Clear 22 1022 81 10000 2.06 150 15:49 10.09.2022
336 Clear 19 1022 89 10000 2.06 120 14:40 10.09.2022
337 Clear 16 1021 94 10000 1.54 130 12:52 10.09.2022
338 Clear 17 1020 91 10000 1.54 150 10:35 10.09.2022
339 Clear 18 1020 90 10000 2.06 140 09:24 10.09.2022
340 Clear 19 1020 87 10000 2.06 200 08:27 10.09.2022
341 Clear 20 1019 82 10000 1.54 200 05:50 10.09.2022
342 Clear 26 1017 54 10000 4.12 220 00:19 10.09.2022
343 Clear 27 1017 53 10000 4.12 210 23:31 09.09.2022
344 Clear 28 1017 53 10000 5.14 190 21:38 09.09.2022
345 Clear 27 1017 56 10000 4.12 220 20:31 09.09.2022
346 Clear 26 1017 62 10000 4.12 220 19:24 09.09.2022
347 Clear 26 1018 66 10000 4.12 240 18:38 09.09.2022
348 Clear 22 1018 75 10000 2.57 190 16:23 09.09.2022
349 Clear 16 1016 91 10000 2.06 130 13:48 09.09.2022
350 Clear 15 1016 89 10000 2.06 250 11:58 09.09.2022
351 Clear 16 1015 86 10000 2.57 230 09:53 09.09.2022
352 Clear 20 1013 71 10000 3.6 240 04:57 09.09.2022
353 Clear 22 1013 65 10000 3.09 220 02:54 09.09.2022
354 Clear 28 1012 50 10000 5.14 190 21:52 08.09.2022
355 Clear 27 1013 51 10000 3.6 180 20:51 08.09.2022
356 Clear 27 1013 53 10000 3.6 180 20:31 08.09.2022
357 Clear 26 1013 57 10000 3.6 210 19:49 08.09.2022
358 Clear 24 1014 70 10000 2.57 180 17:48 08.09.2022
359 Clear 22 1014 76 10000 2.57 200 16:19 08.09.2022
360 Clear 17 1014 88 10000 2.57 250 14:40 08.09.2022
361 Clear 15 1014 92 10000 2.06 170 13:26 08.09.2022
362 Clear 15 1014 91 10000 2.06 210 11:39 08.09.2022
363 Clear 15 1014 90 10000 1.54 200 10:52 08.09.2022
364 Clear 16 1014 89 10000 2.06 140 08:21 08.09.2022
365 Clear 17 1015 85 10000 1.03 250 06:41 08.09.2022
366 Clear 20 1015 72 10000 1.54 170 02:37 08.09.2022
367 Clear 20 1015 70 10000 1.54 170 02:18 08.09.2022
368 Clear 24 1015 56 10000 2.57 220 00:56 08.09.2022
369 Clear 26 1016 52 10000 2.57 160 22:44 07.09.2022
370 Clear 25 1016 54 10000 3.09 220 21:42 07.09.2022
371 Clear 25 1017 57 10000 2.57 0 20:49 07.09.2022
372 Clear 24 1018 60 10000 2.06 10 19:40 07.09.2022
373 Clear 22 1019 69 10000 2.06 40 17:49 07.09.2022
374 Fog 14 1019 94 604 2.06 340 12:52 07.09.2022
375 Clouds 15 1019 93 10000 2.06 360 10:48 07.09.2022
376 Clouds 16 1019 91 10000 2.06 10 09:19 07.09.2022
377 Clouds 17 1020 89 10000 3.09 10 07:23 07.09.2022
378 Clouds 20 1020 78 10000 4.12 40 03:19 07.09.2022
379 Clouds 21 1020 75 10000 5.66 40 22:59 06.09.2022
380 Clouds 21 1020 72 10000 5.14 60 21:41 06.09.2022
381 Clouds 20 1021 73 10000 5.66 40 20:24 06.09.2022
382 Clouds 18 1021 78 10000 5.66 50 18:45 06.09.2022
383 Clouds 18 1021 80 10000 5.66 50 18:22 06.09.2022
384 Clouds 16 1022 82 10000 6.69 20 17:22 06.09.2022
385 Clouds 15 1022 85 10000 6.69 30 16:37 06.09.2022
386 Clouds 14 1022 84 10000 7.72 30 15:22 06.09.2022
387 Clouds 13 1021 86 10000 7.2 30 13:45 06.09.2022
388 Clouds 12 1021 86 10000 7.2 30 13:23 06.09.2022
389 Clouds 13 1020 89 10000 5.66 20 11:57 06.09.2022
390 Clouds 13 1020 89 10000 5.66 20 10:41 06.09.2022
391 Clouds 13 1021 86 10000 5.14 40 08:50 06.09.2022
392 Clouds 14 1021 84 10000 6.17 50 07:37 06.09.2022
393 Clear 17 1021 81 10000 3.09 60 02:44 06.09.2022
394 Clouds 19 1021 70 10000 4.12 40 23:23 05.09.2022
395 Clouds 19 1022 70 10000 4.12 60 21:53 05.09.2022
396 Clouds 19 1022 69 10000 4.63 70 20:33 05.09.2022
397 Clouds 19 1022 68 10000 5.14 50 19:20 05.09.2022
398 Clouds 18 1022 69 10000 5.14 50 18:45 05.09.2022
399 Clouds 18 1022 70 10000 5.14 50 18:21 05.09.2022
400 Clouds 15 1023 76 10000 5.66 30 16:37 05.09.2022
401 Clouds 14 1023 79 10000 5.14 30 15:47 05.09.2022
402 Clouds 12 1022 88 10000 5.66 10 13:26 05.09.2022
403 Clouds 12 1022 89 10000 4.63 20 12:27 05.09.2022
404 Clouds 12 1022 83 10000 4.12 20 09:44 05.09.2022
405 Clear 13 1023 80 10000 5.14 30 06:41 05.09.2022
406 Clear 16 1022 70 10000 3.09 70 02:19 05.09.2022
407 Clear 19 1022 60 10000 4.63 60 23:18 04.09.2022
408 Clouds 19 1022 64 10000 2.57 70 22:27 04.09.2022
409 Clouds 16 1023 66 10000 3.09 30 20:50 04.09.2022
410 Clouds 15 1023 73 10000 4.12 30 19:32 04.09.2022
411 Clouds 14 1024 75 10000 4.12 30 18:19 04.09.2022
412 Clouds 14 1024 80 10000 5.14 360 16:44 04.09.2022
413 Clouds 13 1023 87 10000 4.12 20 14:30 04.09.2022
414 Mist 13 1022 88 10000 4.63 40 13:49 04.09.2022
415 Clouds 15 1021 83 10000 8.75 20 11:54 04.09.2022
416 Clouds 16 1020 86 10000 8.23 20 10:47 04.09.2022
417 Clouds 20 1019 91 10000 2.57 250 08:20 04.09.2022
418 Clouds 21 1019 86 10000 2.06 320 05:35 04.09.2022
419 Clear 26 1018 61 10000 5.66 170 00:50 04.09.2022
420 Clear 28 1019 57 10000 5.66 170 22:24 03.09.2022
421 Clear 28 1020 57 10000 4.63 170 21:23 03.09.2022
422 Clear 28 1020 57 10000 4.63 170 21:23 03.09.2022
423 Clear 27 1021 59 10000 4.12 170 19:42 03.09.2022
424 Clear 24 1022 64 10000 5.14 180 17:28 03.09.2022
425 Clear 23 1022 66 10000 5.66 170 16:33 03.09.2022
426 Clear 19 1022 77 10000 3.6 170 14:46 03.09.2022
427 Clear 19 1022 78 10000 3.6 170 14:26 03.09.2022
428 Clear 16 1023 85 10000 2.06 140 12:32 03.09.2022
429 Clear 17 1023 83 10000 2.06 140 10:49 03.09.2022
430 Clear 17 1022 79 10000 3.09 170 08:30 03.09.2022
431 Clear 17 1022 79 10000 3.09 170 08:30 03.09.2022
432 Clear 18 1022 74 10000 2.57 150 06:58 03.09.2022
433 Clear 19 1023 69 10000 2.57 180 04:38 03.09.2022
434 Clear 24 1022 52 10000 5.66 170 00:32 03.09.2022
435 Clear 24 1022 56 10000 4.63 160 23:20 02.09.2022
436 Clear 24 1022 57 10000 6.69 150 21:19 02.09.2022
437 Clear 24 1023 56 10000 4.63 200 20:39 02.09.2022
438 Clear 23 1023 56 10000 4.63 210 19:30 02.09.2022
439 Clouds 22 1023 59 10000 4.63 200 18:43 02.09.2022
440 Clouds 22 1023 59 10000 4.63 200 18:24 02.09.2022
441 Clouds 19 1024 68 10000 4.63 210 16:49 02.09.2022
442 Clear 17 1023 73 10000 3.09 190 15:35 02.09.2022
443 Clear 10 1022 89 10000 1.03 190 12:43 02.09.2022
444 Clear 10 1020 86 10000 2.06 130 10:25 02.09.2022
445 Clear 11 1020 86 10000 3.09 190 09:41 02.09.2022
446 Clear 12 1019 83 10000 3.09 200 07:54 02.09.2022
447 Clear 12 1019 80 10000 2.57 240 06:41 02.09.2022
448 Clear 13 1018 71 10000 2.57 280 03:53 02.09.2022
449 Clouds 16 1015 57 10000 7.2 270 22:54 01.09.2022
450 Clouds 17 1015 55 10000 6.69 270 21:45 01.09.2022
451 Clouds 17 1015 55 10000 6.69 270 21:25 01.09.2022
452 Clouds 17 1014 56 10000 7.2 280 20:46 01.09.2022
453 Clouds 16 1013 55 10000 7.72 270 19:20 01.09.2022
454 Clouds 15 1012 62 10000 8.23 290 17:48 01.09.2022
455 Clouds 15 1012 69 10000 5.14 270 16:29 01.09.2022
456 Clear 14 1010 77 10000 7.2 280 14:33 01.09.2022
457 Clouds 14 1008 85 10000 5.14 270 12:59 01.09.2022
458 Clouds 14 1008 85 10000 4.63 290 11:55 01.09.2022
459 Clouds 14 1008 85 10000 4.63 290 11:36 01.09.2022
460 Clouds 14 1007 83 10000 4.12 280 10:45 01.09.2022
461 Clouds 15 1005 89 10000 4.63 240 08:31 01.09.2022
462 Clouds 16 1005 83 10000 3.09 200 06:23 01.09.2022
463 Clear 21 1004 55 10000 9.77 220 01:34 01.09.2022
464 Clouds 22 1004 58 10000 9.26 230 00:18 01.09.2022
465 Clouds 22 1004 58 10000 7.2 240 21:44 31.08.2022
466 Clouds 22 1005 54 10000 9.26 260 19:59 31.08.2022
467 Clouds 21 1005 68 10000 10.29 240 18:19 31.08.2022
468 Clouds 20 1005 77 10000 11.32 240 16:31 31.08.2022
469 Clouds 19 1004 86 10000 6.69 250 14:36 31.08.2022
470 Clouds 19 1003 92 10000 4.63 200 12:24 31.08.2022
471 Clouds 19 1003 91 10000 7.72 240 11:29 31.08.2022
472 Clouds 19 1003 92 10000 5.14 180 09:20 31.08.2022
473 Clouds 19 1004 93 10000 4.63 190 06:18 31.08.2022
474 Clouds 27 1004 69 10000 7.72 240 23:21 30.08.2022
475 Clouds 29 1005 61 10000 6.69 230 21:43 30.08.2022
476 Clouds 29 1006 62 10000 7.2 230 20:57 30.08.2022
477 Clouds 29 1007 68 10000 7.2 230 18:32 30.08.2022
478 Clouds 25 1008 82 10000 7.72 220 15:29 30.08.2022
479 Clouds 23 1008 90 10000 4.12 200 13:24 30.08.2022
480 Clear 22 1008 91 10000 3.09 180 11:22 30.08.2022
481 Clouds 22 1008 90 10000 4.12 190 10:57 30.08.2022
482 Clouds 23 1009 91 10000 3.6 190 07:46 30.08.2022
483 Clouds 27 1009 73 10000 6.17 170 02:34 30.08.2022
484 Clear 31 1010 64 10000 6.69 170 23:22 29.08.2022
485 Clear 31 1011 62 10000 7.2 180 22:32 29.08.2022
486 Clear 31 1012 62 10000 7.2 160 21:27 29.08.2022
487 Clouds 30 1013 64 10000 5.66 200 20:19 29.08.2022
488 Clouds 28 1015 69 10000 5.14 220 17:58 29.08.2022
489 Clouds 27 1015 69 10000 5.14 220 17:25 29.08.2022
490 Clear 26 1015 72 10000 5.14 180 16:40 29.08.2022
491 Clear 24 1016 80 10000 4.63 180 15:18 29.08.2022
492 Clouds 20 1016 88 10000 4.63 180 13:23 29.08.2022
493 Clouds 20 1016 86 10000 2.57 180 11:20 29.08.2022
494 Clouds 19 1016 85 10000 2.06 100 10:19 29.08.2022
495 Clear 19 1016 82 10000 2.06 170 08:38 29.08.2022
496 Clear 20 1017 76 10000 2.06 150 05:52 29.08.2022
497 Clear 25 1018 61 10000 3.09 170 01:24 29.08.2022
498 Clear 26 1019 50 10000 4.12 230 22:50 28.08.2022
499 Clear 27 1019 50 10000 2.57 170 21:44 28.08.2022
500 Clear 26 1020 50 10000 1.54 260 20:56 28.08.2022
501 Clear 25 1021 55 10000 2.06 0 19:29 28.08.2022
502 Clear 24 1021 59 10000 3.09 110 18:21 28.08.2022
503 Clear 23 1022 63 10000 4.63 140 17:25 28.08.2022
504 Clear 21 1022 73 10000 3.09 140 16:28 28.08.2022
505 Clouds 17 1022 86 10000 1.54 140 14:44 28.08.2022
506 Mist 13 1021 94 9656 1.54 110 12:48 28.08.2022
507 Mist 14 1021 92 8047 1.03 210 10:51 28.08.2022
508 Mist 14 1021 89 8047 1.54 140 09:56 28.08.2022
509 Clear 15 1021 88 10000 2.06 160 08:38 28.08.2022
510 Clear 15 1021 87 10000 1.03 210 07:45 28.08.2022
511 Clear 18 1019 74 10000 2.06 130 02:59 28.08.2022
512 Clear 22 1019 59 10000 2.06 350 00:29 28.08.2022
513 Clear 22 1019 62 10000 1.54 340 22:38 27.08.2022
514 Clouds 21 1019 65 10000 1.54 100 21:40 27.08.2022
515 Clouds 20 1020 73 10000 5.14 20 19:57 27.08.2022
516 Clouds 19 1020 76 10000 2.06 10 18:27 27.08.2022
517 Clouds 17 1019 85 10000 3.6 60 15:53 27.08.2022
518 Drizzle 17 1019 86 10000 4.63 40 15:25 27.08.2022
519 Clouds 16 1017 91 10000 1.54 30 12:31 27.08.2022
520 Clouds 16 1016 91 10000 1.54 20 11:47 27.08.2022
521 Clouds 16 1016 87 10000 3.09 350 09:50 27.08.2022
522 Clouds 16 1016 87 10000 2.06 10 08:45 27.08.2022
523 Clouds 17 1014 83 10000 5.14 30 03:58 27.08.2022
524 Clouds 18 1012 83 10000 5.14 360 00:20 27.08.2022
525 Clouds 19 1011 81 10000 5.14 360 23:23 26.08.2022
526 Clouds 20 1011 79 10000 4.63 20 21:39 26.08.2022
527 Clouds 18 1012 84 10000 6.69 20 19:24 26.08.2022
528 Clouds 20 1012 73 10000 3.09 130 17:25 26.08.2022
529 Clouds 19 1013 73 10000 5.14 80 15:35 26.08.2022
530 Clouds 18 1014 78 10000 4.63 50 14:42 26.08.2022
531 Clouds 17 1015 76 10000 4.63 50 12:54 26.08.2022
532 Clouds 18 1015 75 10000 3.6 40 11:37 26.08.2022
533 Clouds 18 1015 75 10000 4.63 40 10:47 26.08.2022
534 Clouds 19 1017 69 10000 1.03 190 07:32 26.08.2022
535 Clouds 21 1018 60 10000 3.6 150 02:31 26.08.2022
536 Clear 23 1018 52 10000 2.06 180 23:44 25.08.2022
537 Clear 24 1018 49 10000 2.06 0 21:46 25.08.2022
538 Clouds 24 1019 50 10000 3.6 50 20:51 25.08.2022
539 Clouds 23 1019 50 10000 3.6 20 19:25 25.08.2022
540 Clear 23 1019 56 10000 3.6 10 18:28 25.08.2022
541 Clear 22 1020 61 10000 3.6 30 17:31 25.08.2022
542 Clouds 20 1019 65 10000 4.12 20 16:25 25.08.2022
543 Clouds 19 1019 69 10000 5.14 30 15:27 25.08.2022
544 Clouds 18 1018 70 10000 3.09 20 12:56 25.08.2022
545 Clouds 19 1017 69 10000 4.63 10 10:49 25.08.2022
546 Clouds 19 1016 70 10000 4.12 360 09:44 25.08.2022
547 Rain 21 1016 74 10000 3.6 10 06:45 25.08.2022
548 Clear 26 1013 55 10000 6.17 290 01:57 25.08.2022
549 Clouds 28 1012 58 10000 5.14 270 23:28 24.08.2022
550 Clouds 28 1012 57 10000 6.17 230 22:43 24.08.2022
551 Clear 28 1012 62 10000 6.69 220 21:37 24.08.2022
552 Clear 27 1013 63 10000 5.66 240 20:56 24.08.2022
553 Clouds 27 1013 67 10000 5.66 190 19:34 24.08.2022
554 Clouds 24 1013 76 10000 3.6 260 16:49 24.08.2022
555 Clear 22 1013 83 10000 2.57 290 15:52 24.08.2022
556 Mist 19 1012 95 9656 2.06 260 13:48 24.08.2022
557 Mist 18 1011 95 8047 1.54 340 11:59 24.08.2022
558 Mist 19 1011 94 9656 2.06 320 11:18 24.08.2022
559 Clouds 19 1010 94 10000 2.06 330 08:28 24.08.2022
560 Rain 21 1010 90 10000 3.6 10 03:44 24.08.2022
561 Clouds 24 1008 83 10000 2.57 100 23:47 23.08.2022
562 Clouds 23 1009 83 10000 2.57 80 22:33 23.08.2022
563 Clouds 23 1008 86 10000 3.6 50 21:46 23.08.2022
564 Clouds 22 1009 87 10000 3.6 70 20:33 23.08.2022
565 Rain 21 1010 95 10000 21.09 50 18:53 23.08.2022
566 Rain 20 1010 95 4828 22.64 40 17:51 23.08.2022
567 Rain 20 1010 94 2414 22.64 40 17:18 23.08.2022
568 Rain 20 1010 94 2414 22.64 40 17:18 23.08.2022
569 Rain 20 1010 95 2816 22.64 50 15:49 23.08.2022
570 Rain 20 1010 94 9656 2.57 70 13:36 23.08.2022
571 Rain 20 1010 93 10000 2.57 260 12:45 23.08.2022
572 Rain 21 1010 94 10000 1.54 60 10:53 23.08.2022
573 Mist 21 1010 93 10000 1.54 60 10:32 23.08.2022
574 Rain 21 1010 93 10000 1.54 60 10:32 23.08.2022
575 Clouds 21 1010 93 10000 3.6 30 08:55 23.08.2022
576 Clouds 21 1010 92 10000 3.6 30 08:22 23.08.2022
577 Clouds 21 1011 91 10000 3.6 20 07:48 23.08.2022
578 Clouds 21 1011 90 10000 4.63 20 06:58 23.08.2022
579 Clouds 21 1011 89 10000 4.63 20 06:19 23.08.2022
580 Clouds 25 1011 59 10000 2.06 160 01:42 23.08.2022
581 Clouds 26 1011 57 10000 2.57 150 00:26 23.08.2022
582 Clouds 26 1011 58 10000 2.57 120 23:30 22.08.2022
583 Clouds 27 1012 63 10000 4.12 110 22:19 22.08.2022
584 Clouds 26 1013 70 10000 3.09 140 19:56 22.08.2022
585 Clouds 27 1013 70 10000 3.09 140 19:36 22.08.2022
586 Clouds 26 1014 73 10000 3.09 110 18:36 22.08.2022
587 Clouds 24 1014 81 10000 4.12 170 15:45 22.08.2022
588 Clouds 22 1015 88 10000 1.54 70 14:48 22.08.2022
589 Clouds 20 1014 93 10000 2.06 150 11:20 22.08.2022
590 Clouds 20 1015 93 10000 3.09 180 09:24 22.08.2022
591 Rain 21 1015 91 10000 5.14 210 05:44 22.08.2022
592 Clouds 22 1015 88 10000 2.06 50 00:56 22.08.2022
593 Clouds 22 1015 88 10000 1.54 300 00:36 22.08.2022
594 Thunderstorm 22 1016 88 9656 3.6 340 22:57 21.08.2022
595 Rain 24 1016 79 10000 9.77 240 21:55 21.08.2022
596 Thunderstorm 28 1016 66 10000 6.17 230 21:18 21.08.2022
597 Clear 30 1016 57 10000 4.12 160 19:42 21.08.2022
598 Clouds 29 1017 54 10000 3.6 230 18:35 21.08.2022
599 Clear 27 1018 60 10000 3.6 170 16:48 21.08.2022
600 Clouds 26 1018 69 10000 2.06 170 15:52 21.08.2022
601 Clouds 23 1018 75 10000 3.09 190 14:41 21.08.2022
602 Clouds 21 1018 78 10000 2.06 150 13:48 21.08.2022
603 Clear 20 1018 82 10000 1.54 150 12:55 21.08.2022
604 Clouds 21 1017 78 10000 2.06 120 10:36 21.08.2022
605 Clouds 22 1017 72 10000 1.54 110 08:57 21.08.2022
606 Clouds 22 1017 71 10000 1.54 110 08:39 21.08.2022
607 Clouds 22 1017 72 10000 1.54 110 07:53 21.08.2022
608 Haze 23 1018 64 9656 2.06 100 06:33 21.08.2022
609 Clear 28 1018 49 10000 4.12 150 01:47 21.08.2022
610 Clear 31 1018 44 10000 3.6 140 23:32 20.08.2022
611 Clear 31 1019 42 10000 3.6 260 21:51 20.08.2022
612 Clear 30 1020 46 10000 3.6 200 20:51 20.08.2022
613 Clear 30 1020 49 10000 3.6 210 19:42 20.08.2022
614 Clear 29 1020 53 10000 3.09 220 18:48 20.08.2022
615 Clear 28 1020 54 10000 3.09 220 18:26 20.08.2022
616 Clear 27 1021 58 10000 3.09 250 17:21 20.08.2022
617 Clear 24 1020 64 10000 4.12 230 15:57 20.08.2022
618 Clear 21 1020 73 10000 2.06 220 14:20 20.08.2022
619 Clear 18 1019 80 10000 4.12 170 11:58 20.08.2022
620 Clear 18 1019 80 10000 4.12 170 11:37 20.08.2022
621 Clear 20 1018 78 10000 3.09 230 09:20 20.08.2022
622 Clear 21 1018 74 10000 4.12 220 07:30 20.08.2022
623 Clear 23 1017 69 10000 3.09 220 04:50 20.08.2022
624 Clear 28 1015 50 10000 5.66 260 00:58 20.08.2022
625 Clouds 29 1015 48 10000 6.69 270 23:45 19.08.2022
626 Clouds 30 1014 46 10000 6.17 250 22:45 19.08.2022
627 Clouds 30 1014 47 10000 7.2 250 21:20 19.08.2022
628 Clear 27 1015 58 10000 5.66 240 18:59 19.08.2022
629 Clear 27 1015 58 10000 5.66 240 18:59 19.08.2022
630 Clear 27 1015 58 10000 5.66 240 18:59 19.08.2022
631 Clear 27 1015 58 10000 5.66 240 18:59 19.08.2022
632 Clear 23 1015 67 10000 4.12 250 16:23 19.08.2022
633 Clouds 18 1013 88 10000 2.57 240 13:44 19.08.2022
634 Clouds 17 1012 89 10000 0.51 250 11:51 19.08.2022
635 Clouds 17 1012 90 10000 1.54 150 10:33 19.08.2022
636 Clouds 18 1012 87 10000 1.54 80 08:43 19.08.2022
637 Clouds 18 1011 85 10000 2.57 250 04:39 19.08.2022
638 Clouds 20 1010 80 10000 5.66 30 00:40 19.08.2022
639 Clouds 20 1010 79 10000 5.66 30 00:19 19.08.2022
640 Rain 21 1009 71 10000 4.12 20 22:57 18.08.2022
641 Rain 21 1009 70 10000 3.09 20 22:23 18.08.2022
642 Rain 21 1009 68 10000 5.66 360 21:49 18.08.2022
643 Clouds 22 1009 60 10000 5.66 330 20:47 18.08.2022
644 Clouds 22 1009 56 10000 5.66 360 19:35 18.08.2022
645 Clouds 22 1009 51 10000 4.12 320 18:43 18.08.2022
646 Clouds 22 1009 54 10000 3.09 10 17:32 18.08.2022
647 Clouds 20 1010 67 10000 3.09 330 15:53 18.08.2022
648 Clouds 19 1010 81 10000 0.45 348 14:21 18.08.2022
649 Clouds 19 1010 84 10000 3.09 300 13:44 18.08.2022
650 Clouds 18 1010 87 10000 1.54 310 12:28 18.08.2022
651 Clouds 18 1011 86 10000 2.06 360 11:20 18.08.2022
652 Rain 19 1012 80 10000 2.57 310 09:43 18.08.2022
653 Clouds 19 1013 78 10000 2.57 320 07:27 18.08.2022
654 Clouds 20 1014 77 10000 2.06 360 06:30 18.08.2022
655 Clear 24 1015 54 10000 6.17 50 01:44 18.08.2022
656 Clear 26 1016 52 10000 6.17 70 22:45 17.08.2022
657 Clear 26 1017 60 10000 5.66 30 20:21 17.08.2022
658 Clear 26 1018 62 10000 5.66 10 19:58 17.08.2022
659 Clear 24 1018 67 10000 4.12 20 18:33 17.08.2022
660 Clouds 21 1019 73 10000 4.63 20 16:52 17.08.2022
661 Clouds 20 1020 75 10000 5.14 20 15:46 17.08.2022
662 Clear 18 1020 77 10000 5.14 20 14:40 17.08.2022
663 Clear 17 1019 76 10000 5.14 20 12:29 17.08.2022
664 Clear 17 1019 72 10000 5.14 30 11:23 17.08.2022
665 Clear 19 1019 72 10000 4.12 30 09:19 17.08.2022
666 Clouds 21 1019 72 10000 4.63 50 06:29 17.08.2022
667 Clouds 23 1019 65 10000 3.09 90 01:22 17.08.2022
668 Clouds 25 1019 54 10000 7.2 80 23:27 16.08.2022
669 Clouds 27 1019 50 10000 4.12 70 21:32 16.08.2022
670 Clear 28 1019 54 10000 3.09 60 20:20 16.08.2022
671 Clear 27 1019 57 10000 4.63 60 19:26 16.08.2022
672 Clear 25 1020 63 10000 4.12 60 17:55 16.08.2022
673 Clear 23 1019 69 10000 4.63 40 16:48 16.08.2022
674 Clear 21 1019 73 10000 4.63 20 15:45 16.08.2022
675 Clear 20 1019 76 10000 5.14 20 14:54 16.08.2022
676 Clear 19 1019 78 10000 5.14 20 14:36 16.08.2022
677 Clear 17 1018 81 10000 2.57 350 12:33 16.08.2022
678 Clouds 17 1018 77 10000 2.57 20 10:23 16.08.2022
679 Clouds 18 1018 75 10000 4.12 20 08:54 16.08.2022
680 Clouds 18 1018 75 10000 4.12 20 08:26 16.08.2022
681 Clear 18 1018 72 10000 3.6 20 06:48 16.08.2022
682 Clouds 27 1016 41 10000 2.06 50 00:32 16.08.2022
683 Clear 27 1016 43 10000 3.09 200 22:24 15.08.2022
684 Clear 27 1016 42 10000 2.57 190 21:51 15.08.2022
685 Clear 27 1016 42 10000 3.6 210 20:35 15.08.2022
686 Clear 27 1017 42 10000 3.09 200 19:59 15.08.2022
687 Haze 25 1017 52 9656 1.54 0 18:00 15.08.2022
688 Clear 23 1017 60 10000 1.54 0 16:25 15.08.2022
689 Clear 22 1017 66 10000 1.54 20 15:54 15.08.2022
690 Clear 17 1017 80 10000 1.54 140 13:54 15.08.2022
691 Clear 16 1016 85 10000 1.54 190 11:25 15.08.2022
692 Clear 16 1017 81 10000 1.54 140 09:42 15.08.2022
693 Clear 17 1017 74 10000 1.54 10 07:44 15.08.2022
694 Clear 20 1017 63 10000 2.06 240 04:35 15.08.2022
695 Clear 26 1016 40 10000 4.63 200 00:54 15.08.2022
696 Clear 27 1016 38 10000 5.14 220 22:38 14.08.2022
697 Clear 27 1016 38 10000 5.14 220 21:37 14.08.2022
698 Haze 26 1017 47 9656 2.57 210 19:48 14.08.2022
699 Clear 26 1017 53 10000 2.57 230 18:58 14.08.2022
700 Clear 25 1017 55 10000 2.57 230 18:18 14.08.2022
701 Clear 22 1018 62 10000 2.06 180 16:52 14.08.2022
702 Clear 20 1018 68 10000 1.03 270 15:48 14.08.2022
703 Clear 17 1018 79 10000 2.57 260 14:27 14.08.2022
704 Clear 16 1018 84 10000 2.06 130 13:50 14.08.2022
705 Clear 15 1018 86 10000 2.06 130 13:19 14.08.2022
706 Clear 13 1018 88 10000 1.54 130 12:23 14.08.2022
707 Clear 14 1018 85 10000 2.06 240 10:49 14.08.2022
708 Clear 15 1018 77 10000 2.57 230 08:51 14.08.2022
709 Clear 17 1018 73 10000 1.54 260 06:22 14.08.2022
710 Clear 20 1018 57 10000 3.09 210 02:49 14.08.2022
711 Clear 24 1018 44 10000 4.63 230 23:53 13.08.2022
712 Clouds 25 1019 44 10000 3.6 190 22:52 13.08.2022
713 Haze 24 1020 44 8047 2.57 0 20:58 13.08.2022
714 Clouds 24 1020 44 10000 2.57 0 20:33 13.08.2022
715 Clear 23 1020 46 10000 2.06 310 19:37 13.08.2022
716 Clear 22 1021 55 10000 2.57 320 17:42 13.08.2022
717 Clear 19 1021 68 10000 1.54 340 15:31 13.08.2022
718 Clear 16 1021 76 10000 2.06 10 14:28 13.08.2022
719 Clear 15 1021 81 10000 2.06 320 13:40 13.08.2022
720 Clouds 13 1020 88 10000 1.03 340 11:52 13.08.2022
721 Clouds 14 1019 86 10000 1.54 350 10:31 13.08.2022
722 Clear 16 1019 80 10000 3.6 300 08:45 13.08.2022
723 Clouds 18 1020 72 10000 2.06 280 05:34 13.08.2022
724 Clouds 20 1018 60 10000 4.12 300 23:58 12.08.2022
725 Clouds 20 1018 61 10000 3.09 300 21:46 12.08.2022
726 Clouds 20 1018 61 10000 3.09 290 20:54 12.08.2022
727 Clouds 19 1018 62 10000 3.09 350 19:42 12.08.2022
728 Clouds 19 1018 63 10000 3.09 320 18:48 12.08.2022
729 Clouds 18 1018 62 10000 4.12 310 17:25 12.08.2022
730 Clouds 18 1018 69 10000 3.6 310 15:52 12.08.2022
731 Clouds 16 1018 74 10000 3.6 300 14:44 12.08.2022
732 Clouds 15 1017 74 10000 2.06 320 12:55 12.08.2022
733 Clouds 15 1016 77 10000 2.57 310 11:19 12.08.2022
734 Clear 15 1016 76 10000 1.54 330 08:31 12.08.2022
735 Clear 17 1016 69 10000 3.6 350 06:56 12.08.2022
736 Clear 20 1014 58 10000 5.66 320 03:20 12.08.2022
737 Clear 24 1011 59 10000 6.17 290 00:27 12.08.2022
738 Clouds 25 1011 64 10000 3.09 0 23:35 11.08.2022
739 Clear 24 1011 70 10000 4.12 230 22:28 11.08.2022
740 Clouds 24 1011 64 10000 3.6 270 21:43 11.08.2022
741 Thunderstorm 23 1011 70 10000 4.63 250 21:19 11.08.2022
742 Clouds 25 1011 70 10000 5.14 180 20:27 11.08.2022
743 Clouds 25 1011 70 10000 5.14 230 19:33 11.08.2022
744 Clouds 23 1012 73 10000 3.6 210 18:36 11.08.2022
745 Clouds 21 1012 78 10000 3.09 230 16:38 11.08.2022
746 Clouds 20 1012 81 10000 4.63 220 15:37 11.08.2022
747 Clouds 19 1012 85 10000 2.06 210 13:51 11.08.2022
748 Clear 18 1012 83 10000 6.69 220 11:26 11.08.2022
749 Clear 19 1014 83 10000 4.63 200 07:56 11.08.2022
750 Clouds 20 1014 74 10000 2.45 183 04:44 11.08.2022
751 Clouds 23 1014 66 10000 1.73 211 01:54 11.08.2022
752 Clouds 25 1016 58 10000 0.89 237 22:54 10.08.2022
753 Clouds 24 1017 62 10000 0.89 229 21:44 10.08.2022
754 Clouds 23 1017 66 10000 1.34 239 20:56 10.08.2022
755 Clouds 23 1017 69 10000 1.34 209 19:58 10.08.2022
756 Clouds 23 1018 68 10000 0.45 271 18:45 10.08.2022
757 Clouds 22 1019 72 10000 0.89 268 17:20 10.08.2022
758 Clouds 17 1019 89 10000 1.03 0 13:49 10.08.2022
759 Clouds 17 1018 90 10000 0.51 320 12:50 10.08.2022
760 Clouds 17 1018 89 10000 1.54 320 10:21 10.08.2022
761 Clouds 17 1018 88 10000 1.03 300 08:37 10.08.2022
762 Clouds 17 1018 87 10000 1.54 300 07:21 10.08.2022
763 Clouds 18 1018 84 10000 2.06 360 04:49 10.08.2022
764 Clouds 19 1016 79 10000 3.6 20 00:50 10.08.2022
765 Clouds 19 1016 79 10000 5.14 10 23:27 09.08.2022
766 Clouds 18 1016 83 10000 5.66 10 21:38 09.08.2022
767 Drizzle 18 1016 86 10000 5.14 340 20:56 09.08.2022
768 Clouds 17 1015 89 10000 4.63 360 18:56 09.08.2022
769 Drizzle 16 1014 91 10000 5.14 10 17:31 09.08.2022
770 Drizzle 16 1014 91 10000 5.14 10 17:31 09.08.2022
771 Drizzle 16 1014 92 10000 4.12 10 16:43 09.08.2022
772 Drizzle 15 1013 94 10000 5.14 20 15:59 09.08.2022
773 Mist 15 1012 95 10000 4.12 40 14:43 09.08.2022
774 Clouds 14 1009 97 10000 5.14 20 10:53 09.08.2022
775 Rain 14 1007 97 2816 6.17 30 08:52 09.08.2022
776 Mist 15 1008 96 9656 6.17 20 07:57 09.08.2022
777 Clouds 15 1009 95 10000 8.23 20 04:49 09.08.2022
778 Clouds 17 1009 89 10000 4.63 50 00:36 09.08.2022
779 Clouds 17 1010 90 10000 5.66 40 23:24 08.08.2022
780 Clouds 17 1011 90 10000 7.2 40 22:40 08.08.2022
781 Clouds 17 1012 91 10000 5.66 50 21:44 08.08.2022
782 Mist 16 1013 93 9656 6.17 40 20:34 08.08.2022
783 Mist 16 1014 93 8047 6.69 50 19:35 08.08.2022
784 Clouds 16 1014 92 10000 5.66 50 18:18 08.08.2022
785 Drizzle 16 1015 92 10000 5.66 30 15:48 08.08.2022
786 Clouds 16 1015 92 10000 6.17 20 15:28 08.08.2022
787 Clouds 16 1015 93 10000 6.17 20 12:30 08.08.2022
788 Rain 16 1015 91 8047 7.72 20 10:28 08.08.2022
789 Clouds 19 1015 85 10000 5.66 60 07:51 08.08.2022
790 Clouds 23 1015 85 10000 5.14 30 03:45 08.08.2022
791 Clouds 28 1013 67 10000 7.2 10 23:28 07.08.2022
792 Clouds 32 1013 62 10000 9.26 230 21:41 07.08.2022
793 Clouds 32 1013 60 10000 8.75 220 20:55 07.08.2022
794 Clouds 32 1013 62 10000 8.75 220 20:18 07.08.2022
795 Clouds 32 1014 64 10000 9.26 220 19:51 07.08.2022
796 Clear 31 1015 66 10000 7.2 220 18:49 07.08.2022
797 Clouds 30 1016 68 10000 6.17 250 17:31 07.08.2022
798 Clouds 29 1016 72 10000 6.17 230 16:52 07.08.2022
799 Clouds 27 1016 75 10000 6.17 240 15:29 07.08.2022
800 Clear 25 1017 80 10000 6.17 240 13:58 07.08.2022
801 Clear 24 1016 83 10000 4.63 230 12:40 07.08.2022
802 Clear 25 1016 80 10000 5.66 240 10:48 07.08.2022
803 Clear 25 1016 79 10000 5.66 240 10:20 07.08.2022
804 Clear 27 1017 74 10000 4.12 220 04:37 07.08.2022
805 Clouds 29 1016 68 10000 5.66 180 02:18 07.08.2022
806 Clear 32 1017 56 10000 4.12 220 22:34 06.08.2022
807 Clear 32 1018 54 10000 5.14 250 21:52 06.08.2022
808 Clear 31 1020 48 10000 2.06 240 19:46 06.08.2022
809 Clouds 30 1021 54 10000 2.57 210 18:49 06.08.2022
810 Clear 28 1021 59 10000 1.54 120 17:45 06.08.2022
811 Clear 25 1022 63 10000 2.57 20 16:24 06.08.2022
812 Clear 19 1022 78 10000 2.57 10 13:51 06.08.2022
813 Clear 17 1022 82 10000 1.54 80 12:27 06.08.2022
814 Clear 17 1022 83 10000 2.06 360 11:21 06.08.2022
815 Clear 18 1022 77 10000 2.57 30 09:41 06.08.2022
816 Clear 22 1022 67 10000 3.09 90 04:43 06.08.2022
817 Clear 26 1021 54 10000 2.57 70 01:47 06.08.2022
818 Haze 28 1021 52 9656 3.09 80 22:36 05.08.2022
819 Clear 28 1021 52 10000 3.6 80 21:18 05.08.2022
820 Clouds 26 1022 56 10000 3.09 40 19:18 05.08.2022
821 Clear 25 1022 55 10000 4.63 30 18:41 05.08.2022
822 Clouds 23 1021 61 10000 6.69 20 16:53 05.08.2022
823 Clouds 22 1020 69 10000 6.17 10 15:55 05.08.2022
824 Clouds 22 1020 76 10000 5.66 30 14:54 05.08.2022
825 Clouds 21 1019 81 10000 5.66 30 13:39 05.08.2022
826 Clouds 21 1019 82 10000 5.66 30 13:19 05.08.2022
827 Clouds 22 1017 89 10000 4.63 20 11:58 05.08.2022
828 Clouds 23 1017 87 10000 4.63 20 10:24 05.08.2022
829 Clear 23 1016 89 10000 2.57 220 07:58 05.08.2022
830 Clear 24 1015 88 10000 3.09 220 05:25 05.08.2022
831 Clouds 26 1015 77 10000 4.12 230 23:50 04.08.2022
832 Clouds 26 1015 77 10000 4.12 230 23:50 04.08.2022
833 Clouds 26 1015 76 10000 5.14 240 21:58 04.08.2022
834 Clouds 26 1015 76 10000 5.14 240 21:25 04.08.2022
835 Clouds 26 1015 77 10000 4.63 250 20:41 04.08.2022
836 Rain 26 1014 76 10000 8.23 240 19:21 04.08.2022
837 Clouds 26 1014 73 10000 5.66 220 18:34 04.08.2022
838 Clouds 25 1014 78 10000 4.63 200 17:28 04.08.2022
839 Clouds 22 1013 86 10000 3.6 220 13:35 04.08.2022
840 Clouds 23 1012 71 10000 3.6 190 11:47 04.08.2022
841 Clouds 23 1012 70 10000 4.12 200 10:48 04.08.2022
842 Clear 23 1012 69 10000 4.63 150 07:51 04.08.2022
843 Clouds 24 1012 71 10000 3.6 160 04:28 04.08.2022
844 Clouds 25 1012 60 10000 3.09 180 02:20 04.08.2022
845 Clear 26 1012 58 10000 4.63 120 23:43 03.08.2022
846 Clear 26 1013 52 10000 5.14 220 21:50 03.08.2022
847 Clear 25 1014 52 10000 4.63 230 20:37 03.08.2022
848 Clear 24 1015 53 10000 4.12 220 19:29 03.08.2022
849 Clear 23 1016 58 10000 2.57 170 17:58 03.08.2022
850 Clear 21 1016 62 10000 3.6 190 16:24 03.08.2022
851 Clear 21 1016 62 10000 3.6 190 16:24 03.08.2022
852 Clear 19 1016 69 10000 1.54 130 14:45 03.08.2022
853 Clear 14 1015 86 10000 1.03 280 12:30 03.08.2022
854 Clear 15 1015 78 10000 2.57 300 08:26 03.08.2022
855 Clouds 19 1013 64 10000 3.6 340 04:47 03.08.2022
856 Clouds 20 1012 62 10000 4.63 330 03:30 03.08.2022
857 Clouds 24 1010 57 10000 6.69 320 01:35 03.08.2022
858 Clear 27 1008 53 10000 7.72 290 23:23 02.08.2022
859 Clouds 26 1007 59 10000 8.23 290 21:55 02.08.2022
860 Clouds 26 1007 61 10000 8.23 290 21:30 02.08.2022
861 Clouds 26 1006 73 10000 4.63 210 18:59 02.08.2022
862 Clouds 23 1006 88 10000 4.63 210 16:38 02.08.2022
863 Clouds 22 1005 79 10000 5.14 230 12:55 02.08.2022
864 Clouds 22 1004 77 10000 4.12 170 09:42 02.08.2022
865 Clouds 23 1005 69 10000 4.63 210 08:26 02.08.2022
866 Clouds 23 1005 69 10000 4.63 200 07:50 02.08.2022
867 Clear 25 1006 63 10000 3.09 220 04:55 02.08.2022
868 Clouds 28 1007 55 10000 6.17 230 01:26 02.08.2022
869 Clouds 30 1009 50 10000 5.66 220 22:57 01.08.2022
870 Clear 29 1010 53 10000 5.14 250 20:57 01.08.2022
871 Clouds 29 1011 56 10000 5.66 230 19:44 01.08.2022
872 Clear 28 1012 58 10000 5.14 240 18:53 01.08.2022
873 Clear 26 1012 66 10000 5.14 220 16:54 01.08.2022
874 Clear 25 1012 66 10000 5.14 220 16:29 01.08.2022
875 Clouds 24 1013 68 10000 4.12 240 15:33 01.08.2022
876 Clouds 23 1013 73 10000 3.6 200 14:43 01.08.2022
877 Clouds 21 1014 81 10000 3.09 180 12:57 01.08.2022
878 Clouds 21 1014 80 10000 2.06 190 10:47 01.08.2022
879 Clear 21 1015 78 10000 3.6 220 08:45 01.08.2022
880 Clear 22 1015 77 10000 5.14 200 06:50 01.08.2022
881 Clear 23 1016 71 10000 3.09 220 04:31 01.08.2022
882 Clear 26 1017 59 10000 6.69 220 00:58 01.08.2022
883 Clear 26 1017 57 10000 7.72 200 22:44 31.07.2022
884 Clear 26 1017 57 10000 7.72 200 22:18 31.07.2022
885 Clear 26 1018 60 10000 8.23 230 20:21 31.07.2022
886 Clear 25 1019 62 10000 7.2 210 18:39 31.07.2022
887 Haze 23 1019 71 9656 5.66 210 16:26 31.07.2022
888 Clouds 21 1020 83 10000 5.66 220 14:33 31.07.2022
889 Clear 18 1020 90 10000 3.09 250 12:58 31.07.2022
890 Clear 17 1019 89 10000 3.6 250 11:37 31.07.2022
891 Clear 18 1019 87 10000 4.12 230 08:46 31.07.2022
892 Clear 19 1019 80 10000 3.6 220 05:20 31.07.2022
893 Clouds 23 1018 66 10000 6.17 260 01:21 31.07.2022
894 Clouds 23 1017 64 10000 6.17 300 22:46 30.07.2022
895 Clouds 23 1016 64 10000 6.69 270 21:52 30.07.2022
896 Clouds 23 1016 64 10000 6.69 270 21:33 30.07.2022
897 Clouds 23 1016 63 10000 8.23 300 20:33 30.07.2022
898 Clouds 23 1016 66 10000 6.17 270 19:50 30.07.2022
899 Clouds 22 1015 68 10000 7.72 260 18:19 30.07.2022
900 Clouds 21 1014 68 10000 6.69 290 16:38 30.07.2022
901 Clear 21 1014 68 10000 5.14 270 15:33 30.07.2022
902 Clear 18 1012 76 10000 5.14 260 13:23 30.07.2022
903 Clear 17 1012 80 10000 5.14 250 12:32 30.07.2022
904 Clear 18 1011 79 10000 5.14 250 11:53 30.07.2022
905 Clear 18 1011 78 10000 4.12 250 10:20 30.07.2022
906 Clouds 19 1011 76 10000 3.6 220 08:55 30.07.2022
907 Clouds 20 1011 69 10000 5.14 230 07:33 30.07.2022
908 Clear 24 1009 60 10000 6.69 230 02:33 30.07.2022
909 Clouds 25 1009 52 10000 7.2 240 00:32 30.07.2022
910 Clouds 25 1010 51 10000 6.69 260 21:38 29.07.2022
911 Clouds 25 1010 53 10000 6.17 260 20:51 29.07.2022
912 Clouds 24 1009 53 10000 7.72 250 19:48 29.07.2022
913 Clouds 23 1009 57 10000 7.72 270 17:39 29.07.2022
914 Clear 20 1008 72 10000 7.72 260 14:51 29.07.2022
915 Clear 19 1007 83 10000 6.17 230 12:55 29.07.2022
916 Clear 20 1006 88 10000 4.63 240 09:35 29.07.2022
917 Clouds 21 1006 90 10000 5.66 230 08:46 29.07.2022
918 Clouds 21 1006 87 10000 5.66 240 07:30 29.07.2022
919 Clouds 22 1005 85 10000 4.12 210 01:46 29.07.2022
920 Thunderstorm 26 1005 71 8047 8.75 210 21:55 28.07.2022
921 Clouds 29 1006 59 10000 5.14 190 20:55 28.07.2022
922 Clouds 29 1006 57 10000 5.14 190 20:22 28.07.2022
923 Clouds 29 1006 54 10000 4.12 170 19:41 28.07.2022
924 Clouds 28 1007 56 10000 4.63 150 18:26 28.07.2022
925 Clouds 27 1007 59 10000 4.12 130 17:42 28.07.2022
926 Clear 26 1008 60 10000 4.12 120 16:41 28.07.2022
927 Clear 22 1009 71 10000 2.06 160 14:58 28.07.2022
928 Clear 19 1009 85 10000 2.06 120 12:49 28.07.2022
929 Clouds 19 1009 79 10000 2.06 130 09:45 28.07.2022
930 Clouds 21 1010 68 10000 2.57 160 06:24 28.07.2022
931 Clouds 22 1010 67 10000 3.6 160 05:26 28.07.2022
932 Clear 26 1010 50 10000 7.2 230 00:45 28.07.2022
933 Clear 27 1011 45 10000 6.69 220 22:31 27.07.2022
934 Clear 27 1012 50 10000 7.2 220 20:56 27.07.2022
935 Clear 26 1012 51 10000 5.66 230 19:34 27.07.2022
936 Clear 25 1012 62 10000 4.63 220 17:38 27.07.2022
937 Clear 22 1013 69 10000 4.12 210 15:52 27.07.2022
938 Clear 20 1013 75 10000 3.09 210 14:55 27.07.2022
939 Clear 20 1013 75 10000 3.09 210 14:33 27.07.2022
940 Clear 18 1013 84 10000 4.12 240 12:49 27.07.2022
941 Clear 19 1013 77 10000 5.14 250 07:53 27.07.2022
942 Clear 19 1013 77 10000 5.14 250 07:53 27.07.2022
943 Clear 20 1013 74 10000 4.63 230 06:19 27.07.2022
944 Clouds 24 1012 57 10000 9.26 240 01:34 27.07.2022
945 Clouds 24 1013 57 10000 7.72 240 22:26 26.07.2022
946 Clouds 24 1013 58 10000 7.2 250 21:20 26.07.2022
947 Clouds 25 1013 57 10000 9.26 210 20:28 26.07.2022
948 Clouds 24 1013 63 10000 8.75 220 18:43 26.07.2022
949 Clear 23 1014 67 10000 7.2 200 17:58 26.07.2022
950 Clear 21 1014 70 10000 6.17 230 15:59 26.07.2022
951 Clear 21 1014 70 10000 6.17 230 15:30 26.07.2022
952 Clear 18 1013 77 10000 4.63 250 13:38 26.07.2022
953 Clouds 17 1012 79 10000 5.14 230 11:20 26.07.2022
954 Clear 18 1012 73 10000 3.09 240 08:57 26.07.2022
955 Clear 19 1012 66 10000 3.09 270 05:53 26.07.2022
956 Clouds 24 1009 54 10000 9.26 270 00:37 26.07.2022
957 Clouds 25 1008 51 10000 8.75 270 23:32 25.07.2022
958 Clouds 26 1007 49 10000 11.83 270 22:26 25.07.2022
959 Clouds 26 1006 48 10000 11.32 280 21:43 25.07.2022
960 Clouds 26 1006 49 10000 11.83 270 20:42 25.07.2022
961 Clouds 26 1005 54 10000 11.32 280 19:46 25.07.2022
962 Clouds 26 1005 58 10000 12.86 250 18:19 25.07.2022
963 Clouds 26 1005 64 10000 9.26 260 17:27 25.07.2022
964 Clouds 23 1004 88 10000 7.2 250 15:20 25.07.2022
965 Clouds 21 1004 92 10000 8.23 190 12:22 25.07.2022
966 Clouds 21 1004 94 10000 6.69 230 09:58 25.07.2022
967 Rain 23 1005 90 10000 4.63 200 06:32 25.07.2022
968 Clouds 27 1006 67 10000 6.17 240 23:55 24.07.2022
969 Clouds 27 1006 67 10000 6.17 240 23:18 24.07.2022
970 Rain 28 1006 68 10000 4.63 210 22:34 24.07.2022
971 Clouds 29 1007 66 10000 4.63 160 21:25 24.07.2022
972 Clouds 29 1008 65 10000 5.66 130 20:51 24.07.2022
973 Clouds 30 1008 64 10000 5.66 130 20:26 24.07.2022
974 Clear 29 1010 63 10000 6.17 230 18:56 24.07.2022
975 Clear 27 1012 68 10000 7.2 220 16:48 24.07.2022
976 Clouds 26 1012 73 10000 5.14 220 15:51 24.07.2022
977 Clouds 25 1012 74 10000 4.63 220 14:38 24.07.2022
978 Clear 23 1011 79 10000 3.6 200 12:55 24.07.2022
979 Clear 23 1011 79 10000 3.6 200 12:18 24.07.2022
980 Clear 23 1011 78 10000 4.63 210 11:26 24.07.2022
981 Clear 24 1012 73 10000 6.17 240 08:56 24.07.2022
982 Clear 24 1012 69 10000 5.14 240 07:52 24.07.2022
983 Clear 26 1012 65 10000 5.14 210 06:27 24.07.2022
984 Clouds 29 1011 51 10000 8.23 230 01:50 24.07.2022
985 Clear 31 1011 53 10000 7.72 230 22:25 23.07.2022
986 Clear 31 1012 52 10000 8.75 220 20:35 23.07.2022
987 Clear 29 1012 58 10000 6.69 220 18:51 23.07.2022
988 Clear 28 1012 61 10000 8.23 210 17:42 23.07.2022
989 Clear 28 1012 64 10000 8.23 210 17:23 23.07.2022
990 Clear 26 1012 65 10000 5.14 220 15:42 23.07.2022
991 Clear 26 1012 66 10000 5.14 220 15:20 23.07.2022
992 Clouds 24 1012 70 10000 4.63 230 14:36 23.07.2022
993 Clouds 22 1012 74 10000 3.6 240 13:53 23.07.2022
994 Clear 20 1011 78 10000 3.6 150 11:46 23.07.2022
995 Clear 21 1011 75 10000 3.09 240 10:28 23.07.2022
996 Clear 21 1011 72 10000 3.6 160 09:26 23.07.2022
997 Clear 24 1010 68 10000 4.63 220 05:58 23.07.2022
998 Clear 27 1009 52 10000 5.14 230 02:54 23.07.2022
999 Clouds 30 1008 44 10000 9.77 240 23:57 22.07.2022
1000 Clouds 29 1008 56 10000 8.23 230 21:18 22.07.2022
1001 Clear 28 1008 58 10000 7.72 230 19:55 22.07.2022
1002 Clear 27 1008 63 10000 1.34 241 18:36 22.07.2022
1003 Clouds 26 1008 65 10000 8.23 240 17:37 22.07.2022
1004 Clear 24 1007 71 10000 6.17 250 15:30 22.07.2022
1005 Clear 21 1006 83 10000 4.12 210 12:33 22.07.2022
1006 Clear 22 1004 74 10000 5.14 270 09:45 22.07.2022
1007 Clear 23 1004 75 10000 5.14 270 09:19 22.07.2022
1008 Clouds 24 1003 66 10000 5.66 250 07:23 22.07.2022
1009 Clouds 24 1002 76 10000 10.8 250 04:19 22.07.2022
1010 Clouds 30 998 56 10000 11.32 240 23:27 21.07.2022
1011 Clouds 31 998 55 10000 9.77 230 21:37 21.07.2022
1012 Clear 30 998 58 10000 9.26 250 19:35 21.07.2022
1013 Clouds 29 999 65 10000 8.75 220 18:29 21.07.2022
1014 Clouds 28 999 70 10000 7.72 240 17:20 21.07.2022
1015 Clouds 27 999 70 10000 6.17 190 15:49 21.07.2022
1016 Clouds 27 999 72 10000 6.17 180 14:46 21.07.2022
1017 Clouds 26 999 72 10000 6.17 160 13:22 21.07.2022
1018 Clouds 26 999 72 10000 5.66 180 11:48 21.07.2022
1019 Clouds 26 999 71 10000 7.2 160 09:51 21.07.2022
1020 Clouds 26 1000 73 10000 6.69 160 08:53 21.07.2022
1021 Clouds 26 1000 80 10000 5.14 160 07:50 21.07.2022
1022 Clouds 26 1001 82 10000 3.09 130 06:26 21.07.2022
1023 Clouds 29 1003 73 10000 2.57 150 02:23 21.07.2022
1024 Clear 30 1004 62 10000 3.6 260 22:46 20.07.2022
1025 Clear 30 1004 63 10000 3.6 260 22:18 20.07.2022
1026 Clouds 29 1005 66 10000 3.6 200 20:46 20.07.2022
1027 Clouds 28 1005 67 10000 3.6 210 19:46 20.07.2022
1028 Clouds 27 1005 65 10000 3.09 150 18:53 20.07.2022
1029 Clouds 27 1006 66 10000 3.09 150 18:30 20.07.2022
1030 Clouds 26 1006 63 10000 3.09 150 17:24 20.07.2022
1031 Clear 25 1006 59 10000 3.09 90 15:32 20.07.2022
1032 Clouds 23 1006 66 10000 4.12 40 14:36 20.07.2022
1033 Clouds 21 1006 86 10000 1.03 20 12:51 20.07.2022
1034 Clear 20 1005 88 10000 2.57 360 10:29 20.07.2022
1035 Clouds 23 1005 82 10000 2.57 220 06:21 20.07.2022
1036 Clouds 29 1003 44 10000 6.69 290 01:40 20.07.2022
1037 Clouds 29 1003 47 10000 7.2 270 00:41 20.07.2022
1038 Clouds 29 1003 54 10000 8.23 280 22:36 19.07.2022
1039 Clouds 29 1003 55 10000 8.75 270 21:54 19.07.2022
1040 Clouds 29 1003 58 10000 8.75 250 20:49 19.07.2022
1041 Clouds 28 1003 63 10000 9.26 270 19:32 19.07.2022
1042 Clear 27 1003 68 10000 7.2 260 18:42 19.07.2022
1043 Clear 26 1002 74 10000 7.2 250 17:54 19.07.2022
1044 Clouds 22 1003 89 10000 6.69 260 15:49 19.07.2022
1045 Clouds 20 1003 95 10000 5.66 240 13:46 19.07.2022
1046 Clouds 20 1002 95 10000 4.12 240 11:34 19.07.2022
1047 Clear 20 1002 96 10000 4.12 280 09:53 19.07.2022
1048 Clouds 20 1001 95 10000 3.6 320 08:48 19.07.2022
1049 Clouds 20 1001 95 10000 3.6 320 08:21 19.07.2022
1050 Clouds 20 1001 95 10000 4.63 330 07:18 19.07.2022
1051 Mist 20 1001 95 2816 3.6 10 05:20 19.07.2022
1052 Mist 21 1001 94 6437 4.63 20 04:40 19.07.2022
1053 Rain 21 1004 95 2816 5.14 90 00:21 19.07.2022
1054 Rain 22 1005 93 2816 3.6 100 23:21 18.07.2022
1055 Mist 22 1006 92 8047 5.66 140 22:51 18.07.2022
1056 Rain 23 1008 90 10000 4.12 160 21:27 18.07.2022
1057 Rain 24 1009 86 10000 4.63 180 20:49 18.07.2022
1058 Rain 26 1010 72 10000 5.14 170 19:21 18.07.2022
1059 Clear 26 1011 65 10000 2.06 200 16:45 18.07.2022
1060 Clouds 25 1012 67 10000 3.09 180 15:41 18.07.2022
1061 Clouds 22 1012 76 10000 2.57 140 13:41 18.07.2022
1062 Clouds 21 1013 79 10000 1.54 180 12:29 18.07.2022
1063 Clear 20 1013 80 10000 1.03 110 10:34 18.07.2022
1064 Clear 22 1013 74 10000 0.51 220 08:21 18.07.2022
1065 Clear 23 1014 68 10000 0.51 230 06:48 18.07.2022
1066 Clear 31 1014 40 10000 5.14 230 23:31 17.07.2022
1067 Clear 31 1014 43 10000 5.66 190 22:32 17.07.2022
1068 Clear 31 1014 42 10000 5.14 190 21:44 17.07.2022
1069 Clear 30 1014 45 10000 5.66 200 20:54 17.07.2022
1070 Clear 30 1014 44 10000 5.66 200 20:35 17.07.2022
1071 Clear 30 1015 48 10000 5.14 190 19:26 17.07.2022
1072 Clear 28 1015 52 10000 4.12 200 18:26 17.07.2022
1073 Clear 28 1016 56 10000 4.12 210 17:38 17.07.2022
1074 Clear 26 1016 59 10000 2.57 190 16:50 17.07.2022
1075 Clear 25 1016 61 10000 2.57 190 16:25 17.07.2022
1076 Clear 22 1016 66 10000 2.57 240 14:37 17.07.2022
1077 Clear 20 1015 72 10000 2.06 240 13:30 17.07.2022
1078 Clear 18 1015 76 10000 2.57 250 11:32 17.07.2022
1079 Clouds 20 1014 69 10000 3.6 220 08:50 17.07.2022
1080 Clear 24 1014 56 10000 3.09 230 03:43 17.07.2022
1081 Clouds 26 1014 41 10000 5.14 260 02:32 17.07.2022
1082 Clear 29 1014 41 10000 7.72 230 23:20 16.07.2022
1083 Clear 28 1015 43 10000 7.2 220 21:25 16.07.2022
1084 Clear 27 1016 44 10000 7.2 270 19:30 16.07.2022
1085 Clear 26 1017 48 10000 6.17 220 18:27 16.07.2022
1086 Clear 24 1018 56 10000 6.69 220 16:31 16.07.2022
1087 Clouds 20 1018 65 10000 4.12 230 13:49 16.07.2022
1088 Haze 19 1018 70 6437 4.12 230 10:53 16.07.2022
1089 Clouds 20 1019 67 10000 2.57 190 09:33 16.07.2022
1090 Clear 19 1019 67 10000 2.57 220 08:43 16.07.2022
1091 Clear 20 1019 67 10000 2.57 220 08:19 16.07.2022
1092 Clear 21 1018 63 10000 3.09 230 04:21 16.07.2022
1093 Clear 24 1018 45 10000 4.12 260 02:49 16.07.2022
1094 Clouds 27 1019 38 10000 6.17 280 23:30 15.07.2022
1095 Clouds 27 1019 40 10000 3.6 250 22:41 15.07.2022
1096 Clouds 27 1019 41 10000 5.66 240 21:29 15.07.2022
1097 Clouds 26 1019 42 10000 7.2 200 20:26 15.07.2022
1098 Clear 26 1020 52 10000 4.63 190 18:42 15.07.2022
1099 Clear 25 1020 55 10000 4.63 200 17:38 15.07.2022
1100 Clear 20 1020 68 10000 1.54 210 14:54 15.07.2022
1101 Clear 16 1020 85 10000 2.06 260 12:58 15.07.2022
1102 Clear 15 1019 87 10000 2.57 250 11:44 15.07.2022
1103 Clear 15 1019 84 10000 3.09 250 10:23 15.07.2022
1104 Clear 17 1019 78 10000 2.06 280 06:30 15.07.2022
1105 Clouds 23 1017 52 10000 4.63 320 00:58 15.07.2022
1106 Clouds 23 1017 53 10000 4.63 320 00:22 15.07.2022
1107 Clouds 22 1017 59 10000 5.66 330 22:52 14.07.2022
1108 Clouds 23 1017 57 10000 3.6 300 21:51 14.07.2022
1109 Clouds 23 1017 57 10000 3.6 300 21:29 14.07.2022
1110 Clouds 22 1017 63 10000 4.12 300 20:45 14.07.2022
1111 Clouds 22 1017 65 10000 4.12 300 20:21 14.07.2022
1112 Rain 22 1017 66 10000 4.12 290 19:19 14.07.2022
1113 Clouds 20 1016 76 10000 5.14 220 16:23 14.07.2022
1114 Clouds 20 1016 75 10000 5.14 210 15:34 14.07.2022
1115 Clouds 20 1016 75 10000 5.66 190 14:31 14.07.2022
1116 Clouds 19 1015 76 10000 2.06 250 13:21 14.07.2022
1117 Clouds 18 1015 81 10000 2.57 250 11:56 14.07.2022
1118 Clouds 18 1015 81 10000 4.63 220 11:24 14.07.2022
1119 Rain 18 1014 82 10000 4.63 220 10:37 14.07.2022
1120 Rain 20 1014 63 10000 3.09 240 07:55 14.07.2022
1121 Clouds 24 1012 45 10000 3.6 280 01:28 14.07.2022
1122 Clear 25 1012 40 10000 4.12 290 00:54 14.07.2022
1123 Clear 26 1012 42 10000 6.17 270 23:35 13.07.2022
1124 Clouds 26 1012 41 10000 5.66 290 22:23 13.07.2022
1125 Clouds 26 1012 42 10000 6.17 300 21:21 13.07.2022
1126 Clear 26 1012 45 10000 7.2 270 20:23 13.07.2022
1127 Clouds 24 1012 57 10000 5.14 220 17:56 13.07.2022
1128 Clear 23 1011 63 10000 4.63 200 16:59 13.07.2022
1129 Clear 22 1011 66 10000 3.09 240 15:51 13.07.2022
1130 Clouds 19 1010 79 10000 3.09 240 13:44 13.07.2022
1131 Clouds 18 1008 84 10000 3.09 260 10:47 13.07.2022
1132 Clouds 18 1008 85 10000 3.09 260 10:28 13.07.2022
1133 Clouds 19 1008 84 10000 2.57 250 09:28 13.07.2022
1134 Clouds 19 1007 84 10000 2.57 280 08:21 13.07.2022
1135 Clouds 20 1005 86 10000 3.6 330 04:36 13.07.2022
1136 Clouds 25 1001 71 10000 6.69 250 00:25 13.07.2022
1137 Clouds 22 999 86 10000 5.66 240 22:28 12.07.2022
1138 Thunderstorm 22 999 79 4828 10.8 260 21:46 12.07.2022
1139 Clouds 26 998 65 10000 11.32 230 20:53 12.07.2022
1140 Clear 27 998 61 10000 9.77 230 19:48 12.07.2022
1141 Clear 26 998 69 10000 9.77 230 18:35 12.07.2022
1142 Clouds 22 998 88 10000 8.23 230 16:24 12.07.2022
1143 Rain 20 999 91 10000 7.2 190 14:32 12.07.2022
1144 Clouds 19 999 94 10000 5.66 170 13:35 12.07.2022
1145 Rain 19 1001 88 10000 6.69 200 11:54 12.07.2022
1146 Rain 21 1001 74 10000 7.2 220 10:26 12.07.2022
1147 Clouds 25 1001 41 10000 5.66 200 08:57 12.07.2022
1148 Clouds 24 1002 38 10000 5.14 180 07:48 12.07.2022
1149 Clouds 25 1003 46 10000 4.12 210 05:45 12.07.2022
1150 Clouds 25 1003 47 10000 5.66 190 04:57 12.07.2022
1151 Clear 28 1004 31 10000 7.72 230 01:31 12.07.2022
1152 Clouds 29 1005 42 10000 6.69 170 22:43 11.07.2022
1153 Clouds 28 1006 47 10000 5.66 230 21:34 11.07.2022
1154 Clear 27 1007 46 10000 6.69 240 20:32 11.07.2022
1155 Clouds 27 1008 45 10000 8.23 250 19:18 11.07.2022
1156 Clear 27 1009 44 10000 7.72 250 18:29 11.07.2022
1157 Clouds 24 1010 54 10000 6.17 220 16:31 11.07.2022
1158 Clouds 22 1010 59 10000 5.14 210 15:28 11.07.2022
1159 Clouds 19 1011 62 10000 4.63 240 13:19 11.07.2022
1160 Clouds 19 1011 65 10000 3.09 190 11:24 11.07.2022
1161 Clouds 19 1011 65 10000 3.09 190 11:24 11.07.2022
1162 Clouds 19 1011 65 10000 3.09 190 11:24 11.07.2022
1163 Clouds 19 1011 65 10000 3.6 250 10:18 11.07.2022
1164 Clouds 20 1012 63 10000 4.12 210 09:40 11.07.2022
1165 Clouds 20 1012 60 10000 4.63 230 08:32 11.07.2022
1166 Clear 26 1013 45 10000 6.17 220 01:54 11.07.2022
1167 Clear 27 1014 44 10000 7.72 240 23:55 10.07.2022
1168 Clear 27 1015 43 10000 8.23 220 22:52 10.07.2022
1169 Clear 26 1016 46 10000 6.17 200 21:20 10.07.2022
1170 Clear 26 1016 46 10000 7.2 220 20:37 10.07.2022
1171 Clear 25 1017 47 10000 7.72 210 19:40 10.07.2022
1172 Clear 25 1018 48 10000 8.23 250 18:43 10.07.2022
1173 Clear 23 1018 49 10000 5.66 250 17:35 10.07.2022
1174 Clear 22 1019 54 10000 4.63 200 16:24 10.07.2022
1175 Clear 20 1019 59 10000 4.12 220 15:20 10.07.2022
1176 Clear 17 1019 70 10000 3.09 250 13:48 10.07.2022
1177 Clear 14 1019 77 10000 2.57 240 12:26 10.07.2022
1178 Clear 14 1019 72 10000 1.03 120 09:57 10.07.2022
1179 Clear 15 1019 69 10000 2.06 300 08:44 10.07.2022
1180 Clear 15 1019 66 10000 2.57 290 07:29 10.07.2022
1181 Clear 23 1019 38 10000 5.14 300 01:31 10.07.2022
1182 Clouds 23 1019 40 10000 5.14 260 22:43 09.07.2022
1183 Clouds 23 1019 40 10000 5.14 260 22:19 09.07.2022
1184 Clear 22 1020 42 10000 5.66 350 20:45 09.07.2022
1185 Clear 21 1021 45 10000 2.06 330 18:37 09.07.2022
1186 Clear 20 1021 45 10000 3.6 0 17:45 09.07.2022
1187 Clear 19 1021 49 10000 2.57 20 16:44 09.07.2022
1188 Clear 18 1022 52 10000 4.12 30 15:41 09.07.2022
1189 Clear 16 1022 57 10000 3.6 360 14:36 09.07.2022
1190 Clear 15 1021 62 10000 3.6 340 13:50 09.07.2022
1191 Clear 13 1021 68 10000 3.09 350 12:45 09.07.2022
1192 Clear 12 1020 69 10000 2.06 330 11:22 09.07.2022
1193 Clear 13 1020 64 10000 2.57 360 10:22 09.07.2022
1194 Clear 16 1019 54 10000 4.12 360 07:53 09.07.2022
1195 Clear 19 1018 47 10000 6.17 360 05:24 09.07.2022
1196 Clouds 23 1015 40 10000 6.69 300 02:34 09.07.2022
1197 Clouds 26 1014 45 10000 7.2 280 22:59 08.07.2022
1198 Clouds 26 1013 46 10000 8.23 310 21:59 08.07.2022
1199 Clouds 26 1013 47 10000 7.2 300 20:42 08.07.2022
1200 Clouds 26 1013 48 10000 7.2 300 20:23 08.07.2022
1201 Clouds 25 1014 57 10000 6.17 260 18:26 08.07.2022
1202 Clear 24 1013 60 10000 4.12 230 16:49 08.07.2022
1203 Clear 21 1013 66 10000 5.66 240 14:54 08.07.2022
1204 Clouds 20 1013 67 10000 5.66 240 13:45 08.07.2022
1205 Clouds 18 1012 64 10000 4.63 240 11:59 08.07.2022
1206 Clouds 19 1012 65 10000 4.63 220 10:37 08.07.2022
1207 Clouds 20 1013 64 10000 4.12 210 08:37 08.07.2022
1208 Clear 20 1013 63 10000 2.57 210 06:50 08.07.2022
1209 Clear 25 1014 38 10000 5.66 270 01:49 08.07.2022
1210 Clear 25 1014 43 10000 4.63 260 23:30 07.07.2022
1211 Clear 25 1014 42 10000 4.63 190 22:35 07.07.2022
1212 Clear 25 1015 45 10000 5.66 230 20:40 07.07.2022
1213 Clouds 23 1016 56 10000 3.09 210 18:22 07.07.2022
1214 Clear 22 1017 55 10000 1.54 130 16:57 07.07.2022
1215 Clear 18 1018 66 10000 3.6 50 14:56 07.07.2022
1216 Clouds 16 1018 71 10000 4.12 30 13:25 07.07.2022
1217 Clear 14 1017 75 10000 3.6 20 12:24 07.07.2022
1218 Clouds 14 1017 75 10000 3.09 350 11:46 07.07.2022
1219 Clouds 14 1017 75 10000 3.09 350 11:27 07.07.2022
1220 Clear 14 1016 74 10000 3.6 20 10:42 07.07.2022
1221 Clear 14 1016 73 10000 3.6 20 10:24 07.07.2022
1222 Clear 16 1016 72 10000 2.06 360 07:22 07.07.2022
1223 Clear 21 1014 50 10000 3.09 350 02:55 07.07.2022
1224 Clear 25 1013 48 10000 2.14 249 23:36 06.07.2022
1225 Clear 24 1012 49 10000 0.9 272 23:18 06.07.2022
1226 Clouds 24 1013 50 10000 5.66 290 22:53 06.07.2022
1227 Clouds 24 1013 50 10000 5.66 290 22:34 06.07.2022
1228 Clouds 23 1013 55 10000 5.66 340 20:54 06.07.2022
1229 Clouds 23 1013 55 10000 4.12 20 19:35 06.07.2022
1230 Clear 21 1013 59 10000 6.17 10 17:32 06.07.2022
1231 Clouds 20 1012 70 10000 4.12 340 15:59 06.07.2022
1232 Clouds 18 1012 82 10000 4.12 350 14:33 06.07.2022
1233 Clouds 16 1010 91 10000 4.63 340 12:31 06.07.2022
1234 Clouds 16 1009 93 10000 4.12 350 11:45 06.07.2022
1235 Clouds 16 1008 94 10000 4.12 360 10:18 06.07.2022
1236 Mist 16 1007 94 9656 6.17 10 07:44 06.07.2022
1237 Mist 16 1007 94 4828 6.17 10 07:20 06.07.2022
1238 Rain 19 1009 84 9656 3.6 100 01:42 06.07.2022
1239 Clouds 21 1011 71 10000 4.12 80 22:45 05.07.2022
1240 Clouds 20 1012 70 10000 2.57 70 21:32 05.07.2022
1241 Clouds 20 1013 71 10000 3.09 80 20:38 05.07.2022
1242 Clouds 19 1014 79 10000 3.6 30 19:41 05.07.2022
1243 Rain 19 1014 80 10000 2.06 10 19:21 05.07.2022
1244 Rain 20 1016 70 10000 3.09 250 17:46 05.07.2022
1245 Rain 20 1016 67 10000 4.12 220 16:39 05.07.2022
1246 Clouds 20 1016 65 10000 3.09 210 15:24 05.07.2022
1247 Clouds 19 1016 69 10000 3.09 180 13:53 05.07.2022
1248 Clouds 18 1016 69 10000 2.57 170 12:42 05.07.2022
1249 Clouds 18 1017 71 10000 2.06 250 11:24 05.07.2022
1250 Clear 18 1017 70 10000 3.6 240 10:31 05.07.2022
1251 Clear 18 1017 71 10000 3.6 230 08:25 05.07.2022
1252 Clouds 19 1018 64 10000 3.6 210 07:31 05.07.2022
1253 Clear 20 1018 61 10000 3.6 240 04:47 05.07.2022
1254 Clear 21 1018 60 10000 3.6 240 04:20 05.07.2022
1255 Clouds 25 1017 42 10000 6.17 220 23:42 04.07.2022
1256 Clouds 26 1018 41 10000 5.66 250 22:59 04.07.2022
1257 Clouds 26 1018 41 10000 5.66 250 22:21 04.07.2022
1258 Clouds 25 1018 42 10000 7.2 210 21:20 04.07.2022
1259 Clouds 25 1018 42 10000 7.2 210 20:51 04.07.2022
1260 Clouds 25 1018 43 10000 7.2 210 20:33 04.07.2022
1261 Clouds 24 1019 42 10000 5.14 200 19:51 04.07.2022
1262 Clouds 24 1019 42 10000 5.14 200 19:33 04.07.2022
1263 Clear 23 1020 43 10000 4.12 190 17:42 04.07.2022
1264 Clear 21 1020 46 10000 3.6 340 15:44 04.07.2022
1265 Clear 20 1020 55 10000 2.57 340 14:54 04.07.2022
1266 Clear 17 1020 66 10000 2.06 340 13:29 04.07.2022
1267 Clear 15 1019 74 10000 2.57 320 12:20 04.07.2022
1268 Clear 15 1018 75 10000 3.09 300 10:33 04.07.2022
1269 Clear 16 1018 72 10000 3.6 300 09:40 04.07.2022
1270 Clear 17 1018 65 10000 3.09 300 07:21 04.07.2022
1271 Clouds 20 1016 54 10000 4.63 270 03:35 04.07.2022
1272 Clouds 24 1015 35 10000 6.69 290 00:30 04.07.2022
1273 Clouds 25 1015 40 10000 7.72 250 22:58 03.07.2022
1274 Clouds 24 1015 42 10000 7.2 270 20:51 03.07.2022
1275 Clouds 24 1015 42 10000 7.2 270 20:25 03.07.2022
1276 Clear 24 1015 42 10000 8.23 280 19:26 03.07.2022
1277 Clouds 23 1015 46 10000 8.75 240 18:32 03.07.2022
1278 Clear 22 1015 51 10000 6.17 240 17:43 03.07.2022
1279 Clouds 21 1015 57 10000 3.09 290 15:49 03.07.2022
1280 Clouds 19 1015 62 10000 3.09 300 14:58 03.07.2022
1281 Clouds 18 1014 68 10000 3.09 240 13:59 03.07.2022
1282 Clouds 17 1014 70 10000 3.09 240 13:33 03.07.2022
1283 Clouds 16 1013 74 10000 2.57 260 12:33 03.07.2022
1284 Clouds 16 1013 74 10000 3.09 260 11:20 03.07.2022
1285 Clouds 16 1012 74 10000 2.57 220 10:38 03.07.2022
1286 Clear 17 1012 70 10000 2.06 220 09:31 03.07.2022
1287 Clear 19 1011 63 10000 4.12 260 07:34 03.07.2022
1288 Clouds 26 1009 44 10000 8.75 240 01:42 03.07.2022
1289 Clouds 26 1009 45 10000 8.23 230 23:50 02.07.2022
1290 Clouds 26 1009 43 10000 8.23 220 22:33 02.07.2022
1291 Clouds 26 1009 40 10000 6.69 240 20:50 02.07.2022
1292 Clouds 25 1010 40 10000 8.23 250 19:52 02.07.2022
1293 Clouds 25 1010 41 10000 8.23 250 19:20 02.07.2022
1294 Clear 24 1010 48 10000 6.69 280 17:41 02.07.2022
1295 Clear 23 1010 56 10000 7.72 250 16:49 02.07.2022
1296 Clear 22 1009 65 10000 6.17 280 14:31 02.07.2022
1297 Clear 20 1008 78 10000 4.63 250 12:21 02.07.2022
1298 Clear 21 1007 77 10000 5.66 240 11:26 02.07.2022
1299 Clouds 22 1006 72 10000 5.14 250 10:37 02.07.2022
1300 Clear 23 1006 65 10000 7.2 240 08:55 02.07.2022
1301 Clear 23 1006 65 10000 7.2 240 08:20 02.07.2022
1302 Clouds 24 1006 68 10000 4.63 210 06:59 02.07.2022
1303 Clouds 26 1008 62 10000 4.63 230 01:53 02.07.2022
1304 Clear 27 1008 59 10000 4.63 220 23:56 01.07.2022
1305 Clouds 27 1009 60 10000 3.6 230 22:41 01.07.2022
1306 Clouds 26 1010 63 10000 4.63 250 21:47 01.07.2022
1307 Clouds 26 1010 61 10000 4.63 250 21:27 01.07.2022
1308 Clouds 26 1010 63 10000 5.66 170 20:40 01.07.2022
1309 Clear 26 1010 64 10000 5.14 190 19:46 01.07.2022
1310 Clouds 25 1012 63 10000 7.72 270 17:53 01.07.2022
1311 Clouds 25 1011 65 10000 5.66 190 15:54 01.07.2022
1312 Clouds 21 1011 73 10000 4.12 190 13:54 01.07.2022
1313 Clouds 20 1012 74 10000 3.6 180 12:41 01.07.2022
1314 Clouds 19 1013 73 10000 4.12 190 10:20 01.07.2022
1315 Clouds 19 1013 73 10000 4.12 190 10:20 01.07.2022
1316 Clouds 20 1013 70 10000 5.14 180 09:43 01.07.2022
1317 Clouds 20 1016 66 10000 5.14 150 04:49 01.07.2022
1318 Clouds 23 1019 54 10000 3.6 170 00:26 01.07.2022
1319 Clouds 22 1019 54 10000 3.09 260 23:22 30.06.2022
1320 Clouds 22 1019 54 10000 4.12 240 22:44 30.06.2022
1321 Clouds 22 1019 53 10000 4.12 240 22:25 30.06.2022
1322 Clouds 23 1019 52 10000 5.14 210 21:45 30.06.2022
1323 Clouds 23 1020 56 10000 5.14 220 20:30 30.06.2022
1324 Clouds 22 1021 61 10000 3.6 180 19:54 30.06.2022
1325 Clouds 22 1021 61 10000 3.6 180 19:25 30.06.2022
1326 Clouds 21 1022 62 10000 3.09 110 18:42 30.06.2022
1327 Clouds 21 1023 62 10000 3.6 220 17:44 30.06.2022
1328 Clear 21 1023 62 10000 2.57 200 16:55 30.06.2022
1329 Clear 20 1024 65 10000 2.06 0 15:42 30.06.2022
1330 Clear 16 1023 81 10000 0 0 13:36 30.06.2022
1331 Clouds 14 1023 90 10000 2.06 270 12:35 30.06.2022
1332 Clouds 14 1023 91 10000 3.09 230 11:55 30.06.2022
1333 Clouds 13 1022 90 10000 3.09 300 09:55 30.06.2022
1334 Clouds 13 1022 89 10000 3.09 300 09:35 30.06.2022
1335 Clear 14 1021 85 10000 3.09 290 08:19 30.06.2022
1336 Clear 15 1021 83 10000 3.09 320 07:24 30.06.2022
1337 Clouds 19 1020 77 10000 5.14 260 02:38 30.06.2022
1338 Clouds 19 1020 77 10000 7.72 260 23:36 29.06.2022
1339 Clouds 19 1019 80 10000 9.26 280 22:41 29.06.2022
1340 Clouds 22 1019 70 10000 6.69 290 21:43 29.06.2022
1341 Clouds 26 1019 49 10000 6.17 170 20:34 29.06.2022
1342 Clear 25 1020 50 10000 5.66 170 19:55 29.06.2022
1343 Clear 23 1021 51 10000 5.66 180 17:55 29.06.2022
1344 Clear 22 1021 52 10000 4.63 240 16:51 29.06.2022
1345 Clear 22 1021 52 10000 4.63 240 16:51 29.06.2022
1346 Clear 21 1021 54 10000 3.6 180 15:32 29.06.2022
1347 Clear 18 1021 63 10000 4.63 190 13:36 29.06.2022
1348 Clear 15 1021 71 10000 4.12 230 12:24 29.06.2022
1349 Clear 16 1020 67 10000 5.66 230 09:43 29.06.2022
1350 Clear 17 1020 68 10000 5.66 230 09:21 29.06.2022
1351 Clear 19 1020 73 10000 5.66 220 06:27 29.06.2022
1352 Clear 22 1019 51 10000 6.17 230 02:59 29.06.2022
1353 Clouds 23 1019 44 10000 7.72 250 00:52 29.06.2022
1354 Clouds 24 1019 45 10000 7.72 250 00:33 29.06.2022
1355 Clear 24 1019 50 10000 1.34 294 22:49 28.06.2022
1356 Clouds 23 1020 47 10000 7.72 210 21:57 28.06.2022
1357 Clear 23 1019 47 10000 0.89 234 21:38 28.06.2022
1358 Clouds 23 1020 48 10000 5.66 240 20:57 28.06.2022
1359 Clouds 22 1020 47 10000 7.2 200 19:54 28.06.2022
1360 Clouds 22 1020 46 10000 7.2 200 19:28 28.06.2022
1361 Clouds 22 1020 46 10000 4.12 240 18:38 28.06.2022
1362 Clear 21 1020 46 10000 2.57 230 16:47 28.06.2022
1363 Clouds 20 1020 52 10000 2.06 300 15:54 28.06.2022
1364 Clouds 18 1019 63 10000 3.09 340 14:49 28.06.2022
1365 Clouds 18 1019 67 10000 3.09 340 14:18 28.06.2022
1366 Clouds 17 1019 72 10000 2.06 300 13:45 28.06.2022
1367 Clouds 17 1018 79 10000 2.57 310 12:28 28.06.2022
1368 Clouds 17 1016 78 10000 3.09 300 09:53 28.06.2022
1369 Clear 17 1016 78 10000 3.6 310 08:55 28.06.2022
1370 Clear 17 1016 77 10000 3.6 310 08:33 28.06.2022
1371 Clouds 18 1015 73 10000 4.63 310 07:20 28.06.2022
1372 Clear 20 1014 57 10000 5.14 280 03:38 28.06.2022
1373 Clouds 23 1011 45 10000 9.77 250 23:51 27.06.2022
1374 Clouds 23 1011 47 10000 9.77 250 23:25 27.06.2022
1375 Clear 24 1010 46 10000 11.32 270 21:53 27.06.2022
1376 Clear 24 1010 46 10000 11.32 270 21:22 27.06.2022
1377 Clouds 24 1010 45 10000 10.29 280 20:21 27.06.2022
1378 Clear 23 1009 52 10000 10.8 270 18:50 27.06.2022
1379 Clear 24 1009 63 10000 8.23 260 17:38 27.06.2022
1380 Clouds 23 1008 85 10000 6.17 270 15:50 27.06.2022
1381 Clouds 22 1007 93 10000 6.17 250 14:18 27.06.2022
1382 Mist 22 1007 93 9656 3.6 230 12:58 27.06.2022
1383 Mist 22 1007 94 9656 1.54 280 11:40 27.06.2022
1384 Rain 21 1008 94 10000 2.06 170 09:49 27.06.2022
1385 Rain 21 1009 92 10000 2.57 190 08:43 27.06.2022
1386 Clouds 22 1009 90 10000 3.09 210 07:49 27.06.2022
1387 Rain 22 1010 88 10000 4.63 230 05:50 27.06.2022
1388 Clouds 30 1010 49 10000 5.66 210 01:24 27.06.2022
1389 Clouds 31 1011 51 10000 6.17 180 23:22 26.06.2022
1390 Clear 32 1012 50 10000 6.69 160 21:39 26.06.2022
1391 Clear 32 1013 51 10000 6.69 180 20:33 26.06.2022
1392 Clear 31 1015 55 10000 5.66 190 18:38 26.06.2022
1393 Clear 30 1015 58 10000 5.66 190 18:20 26.06.2022
1394 Clear 26 1017 66 10000 6.17 170 15:37 26.06.2022
1395 Clear 24 1017 74 10000 3.6 180 14:23 26.06.2022
1396 Clear 22 1017 82 10000 2.57 130 13:26 26.06.2022
1397 Clear 20 1017 87 10000 1.03 120 11:49 26.06.2022
1398 Mist 20 1017 85 8047 2.06 140 10:42 26.06.2022
1399 Clear 21 1017 84 10000 2.06 130 10:22 26.06.2022
1400 Clear 22 1018 78 10000 2.06 120 08:36 26.06.2022
1401 Clear 23 1018 74 10000 2.06 150 06:50 26.06.2022
1402 Clear 29 1018 51 10000 3.6 180 00:38 26.06.2022
1403 Clear 29 1018 51 10000 3.6 180 00:19 26.06.2022
1404 Clear 29 1018 52 10000 4.63 200 23:31 25.06.2022
1405 Clear 29 1018 51 10000 4.12 200 22:48 25.06.2022
1406 Clear 29 1018 51 10000 4.12 200 22:25 25.06.2022
1407 Clouds 29 1018 51 10000 4.12 210 21:22 25.06.2022
1408 Clear 29 1018 53 10000 3.09 240 20:48 25.06.2022
1409 Clear 29 1018 53 10000 3.09 240 20:25 25.06.2022
1410 Clear 27 1019 60 10000 3.09 190 18:26 25.06.2022
1411 Clear 26 1019 64 10000 2.57 190 17:27 25.06.2022
1412 Clouds 25 1019 66 10000 2.06 220 16:29 25.06.2022
1413 Clouds 21 1019 76 10000 3.09 240 14:43 25.06.2022
1414 Clear 19 1017 82 10000 3.09 230 12:51 25.06.2022
1415 Clear 19 1017 83 10000 3.09 230 12:32 25.06.2022
1416 Clear 19 1017 83 10000 3.09 230 12:32 25.06.2022
1417 Clear 19 1016 81 10000 3.6 230 09:40 25.06.2022
1418 Clear 20 1016 78 10000 3.09 220 08:56 25.06.2022
1419 Clear 20 1016 76 10000 3.09 220 08:25 25.06.2022
1420 Clear 21 1016 71 10000 2.57 220 06:46 25.06.2022
1421 Clear 26 1015 55 10000 5.66 230 01:53 25.06.2022
1422 Clear 27 1015 53 10000 5.66 210 00:20 25.06.2022
1423 Clear 27 1015 60 10000 5.14 220 22:29 24.06.2022
1424 Clear 26 1015 62 10000 4.63 210 21:29 24.06.2022
1425 Clear 25 1015 66 10000 4.63 200 20:25 24.06.2022
1426 Clouds 24 1016 69 10000 3.6 200 19:43 24.06.2022
1427 Clouds 24 1016 70 10000 3.6 200 19:18 24.06.2022
1428 Clouds 24 1016 70 10000 3.6 190 18:46 24.06.2022
1429 Clouds 23 1016 74 10000 3.6 190 18:28 24.06.2022
1430 Clouds 21 1016 78 10000 2.06 290 16:48 24.06.2022
1431 Clear 20 1016 84 10000 2.06 310 15:27 24.06.2022
1432 Clouds 19 1016 89 10000 2.57 350 14:25 24.06.2022
1433 Clouds 18 1015 94 10000 2.06 110 13:46 24.06.2022
1434 Clouds 16 1015 96 10000 1.54 170 11:42 24.06.2022
1435 Clouds 16 1015 96 10000 1.03 90 10:42 24.06.2022
1436 Clouds 17 1014 95 10000 1.03 100 09:42 24.06.2022
1437 Clouds 17 1015 95 10000 1.54 130 08:54 24.06.2022
1438 Clouds 17 1015 94 10000 1.54 130 08:32 24.06.2022
1439 Clouds 17 1015 94 10000 2.06 140 06:45 24.06.2022
1440 Clouds 17 1015 94 10000 2.06 140 06:26 24.06.2022
1441 Clouds 17 1015 95 10000 2.57 160 05:21 24.06.2022
1442 Rain 18 1014 94 10000 2.57 160 00:47 24.06.2022
1443 Rain 17 1014 95 10000 4.12 190 22:43 23.06.2022
1444 Rain 17 1014 93 10000 5.14 140 21:43 23.06.2022
1445 Clouds 17 1014 95 10000 3.6 190 20:43 23.06.2022
1446 Rain 16 1014 94 6437 3.09 160 19:57 23.06.2022
1447 Clouds 16 1014 93 10000 7.2 150 18:43 23.06.2022
1448 Rain 15 1013 94 10000 7.2 150 17:37 23.06.2022
1449 Mist 15 1013 94 9656 5.66 170 16:32 23.06.2022
1450 Clouds 15 1013 94 10000 5.66 170 15:26 23.06.2022
1451 Rain 15 1013 95 9656 6.69 170 14:45 23.06.2022
1452 Rain 15 1012 93 8047 6.17 180 11:49 23.06.2022
1453 Clouds 16 1011 91 10000 3.6 180 10:42 23.06.2022
1454 Clouds 16 1012 88 10000 6.69 200 09:19 23.06.2022
1455 Clouds 19 1011 75 10000 8.75 170 05:48 23.06.2022
1456 Clouds 21 1012 70 10000 9.77 160 01:21 23.06.2022
1457 Clouds 22 1012 66 10000 9.26 160 00:18 23.06.2022
1458 Clouds 23 1012 67 10000 9.26 140 23:22 22.06.2022
1459 Clouds 24 1012 65 10000 10.29 160 21:44 22.06.2022
1460 Clouds 24 1013 67 10000 9.77 180 20:52 22.06.2022
1461 Clouds 24 1013 67 10000 9.77 180 20:20 22.06.2022
1462 Clouds 24 1013 68 10000 8.75 170 19:43 22.06.2022
1463 Clouds 21 1013 74 10000 6.69 160 17:40 22.06.2022
1464 Clouds 20 1014 79 10000 6.69 170 16:43 22.06.2022
1465 Clouds 18 1014 85 10000 7.2 170 15:29 22.06.2022
1466 Clouds 17 1014 87 10000 5.66 170 14:57 22.06.2022
1467 Clouds 16 1014 91 10000 7.2 170 13:49 22.06.2022
1468 Clouds 16 1014 92 10000 7.2 170 13:24 22.06.2022
1469 Clouds 15 1013 93 10000 6.69 170 12:37 22.06.2022
1470 Clouds 15 1014 94 10000 6.17 170 11:46 22.06.2022
1471 Rain 15 1014 91 10000 5.66 180 10:50 22.06.2022
1472 Rain 15 1014 89 10000 6.17 180 09:42 22.06.2022
1473 Rain 15 1015 90 10000 5.14 170 07:22 22.06.2022
1474 Clouds 16 1016 90 10000 3.6 180 02:56 22.06.2022
1475 Rain 18 1016 70 10000 4.12 180 01:19 22.06.2022
1476 Clouds 19 1018 66 10000 3.6 160 22:57 21.06.2022
1477 Clouds 20 1018 65 10000 3.6 90 21:25 21.06.2022
1478 Clouds 19 1019 69 10000 2.57 310 19:43 21.06.2022
1479 Clouds 20 1019 63 10000 3.09 200 17:56 21.06.2022
1480 Clouds 19 1019 63 10000 3.6 200 16:52 21.06.2022
1481 Clouds 16 1019 63 10000 3.6 200 12:36 21.06.2022
1482 Clouds 15 1018 71 10000 2.06 180 10:55 21.06.2022
1483 Clear 16 1018 69 10000 3.6 230 09:39 21.06.2022
1484 Clear 17 1018 61 10000 4.63 240 07:56 21.06.2022
1485 Clear 19 1018 55 10000 3.6 210 05:33 21.06.2022
1486 Clear 25 1017 31 10000 5.66 220 00:37 21.06.2022
1487 Clear 25 1018 30 10000 6.69 250 22:23 20.06.2022
1488 Clear 24 1018 34 10000 7.2 230 21:49 20.06.2022
1489 Clear 23 1019 37 10000 6.17 210 20:32 20.06.2022
1490 Clear 23 1019 40 10000 5.14 230 19:38 20.06.2022
1491 Clear 22 1019 42 10000 4.63 200 18:44 20.06.2022
1492 Clear 21 1019 46 10000 3.6 210 17:52 20.06.2022
1493 Clear 20 1019 45 10000 3.6 210 17:29 20.06.2022
1494 Clear 19 1019 46 10000 2.57 40 15:53 20.06.2022
1495 Clear 13 1018 64 10000 2.06 340 12:41 20.06.2022
1496 Clear 12 1017 63 10000 2.57 330 10:41 20.06.2022
1497 Clear 13 1016 58 10000 3.09 320 09:30 20.06.2022
1498 Clear 13 1016 58 10000 5.14 320 08:44 20.06.2022
1499 Clear 17 1016 47 10000 4.63 320 05:35 20.06.2022
1500 Clear 20 1014 34 10000 5.66 330 02:27 20.06.2022
1501 Clear 22 1014 31 10000 7.72 320 00:26 20.06.2022
1502 Clear 22 1014 32 10000 9.77 350 22:53 19.06.2022
1503 Clear 22 1014 33 10000 8.23 340 21:58 19.06.2022
1504 Clear 22 1014 33 10000 8.23 340 21:40 19.06.2022
1505 Clear 21 1014 35 10000 9.26 330 20:39 19.06.2022
1506 Clear 20 1014 38 10000 6.69 310 19:47 19.06.2022
1507 Clear 18 1015 41 10000 7.2 340 18:46 19.06.2022
1508 Clear 18 1015 42 10000 7.2 340 18:26 19.06.2022
1509 Clear 17 1015 43 10000 9.26 340 17:22 19.06.2022
1510 Clear 15 1015 45 10000 8.23 10 16:35 19.06.2022
1511 Clear 14 1016 48 10000 8.75 350 15:41 19.06.2022
1512 Clear 13 1016 54 10000 6.69 350 14:57 19.06.2022
1513 Clear 13 1016 58 10000 6.69 350 14:20 19.06.2022
1514 Clear 12 1015 65 10000 7.72 330 13:36 19.06.2022
1515 Clear 10 1014 72 10000 6.69 330 11:38 19.06.2022
1516 Clear 10 1014 70 10000 7.2 330 10:31 19.06.2022
1517 Clear 11 1013 69 10000 7.72 330 08:49 19.06.2022
1518 Clear 11 1013 69 10000 7.72 330 08:19 19.06.2022
1519 Clouds 13 1012 63 10000 8.23 320 05:42 19.06.2022
1520 Clouds 15 1010 58 10000 6.69 310 02:32 19.06.2022
1521 Clouds 16 1009 60 10000 6.69 310 00:25 19.06.2022
1522 Clouds 15 1008 64 10000 8.23 330 23:36 18.06.2022
1523 Rain 14 1008 77 10000 5.66 300 22:45 18.06.2022
1524 Rain 12 1008 90 10000 7.2 300 21:43 18.06.2022
1525 Rain 11 1007 88 10000 8.75 290 20:49 18.06.2022
1526 Rain 11 1007 86 10000 7.2 290 19:40 18.06.2022
1527 Rain 11 1006 87 10000 7.2 280 18:54 18.06.2022
1528 Rain 10 1006 87 10000 7.2 280 17:43 18.06.2022
1529 Rain 10 1006 87 10000 7.2 280 17:22 18.06.2022
1530 Drizzle 10 1005 79 10000 6.69 280 15:37 18.06.2022
1531 Clouds 10 1005 78 10000 6.69 290 14:48 18.06.2022
1532 Rain 10 1004 75 10000 6.69 300 13:42 18.06.2022
1533 Clouds 11 1003 76 10000 6.17 280 11:58 18.06.2022
1534 Clouds 11 1003 78 10000 7.72 260 10:57 18.06.2022
1535 Clouds 11 1002 78 10000 6.17 260 09:28 18.06.2022
1536 Clouds 11 1002 78 10000 3.6 270 08:33 18.06.2022
1537 Clouds 11 1002 74 10000 4.63 320 07:32 18.06.2022
1538 Clouds 15 1000 87 10000 4.63 300 04:20 18.06.2022
1539 Mist 18 998 88 9656 5.14 270 01:27 18.06.2022
1540 Mist 18 998 88 9656 5.14 270 01:27 18.06.2022
1541 Rain 19 998 85 6437 7.2 300 00:50 18.06.2022
1542 Thunderstorm 22 997 62 10000 9.26 230 00:22 18.06.2022
1543 Clouds 26 997 46 10000 9.26 260 23:29 17.06.2022
1544 Clouds 26 998 47 10000 9.77 250 21:44 17.06.2022
1545 Clouds 25 999 48 10000 12.35 240 20:29 17.06.2022
1546 Clouds 25 999 51 10000 10.29 260 19:19 17.06.2022
1547 Clouds 24 1000 52 10000 12.35 240 17:47 17.06.2022
1548 Clear 24 1000 56 10000 11.32 230 16:44 17.06.2022
1549 Clear 23 1000 56 10000 11.32 230 16:21 17.06.2022
1550 Clear 23 1000 59 10000 10.8 250 15:37 17.06.2022
1551 Clouds 22 1000 73 10000 7.72 230 14:23 17.06.2022
1552 Clouds 21 1001 79 10000 7.72 230 13:58 17.06.2022
1553 Clouds 20 1001 80 10000 7.72 230 13:38 17.06.2022
1554 Clouds 20 1000 90 10000 4.63 250 12:24 17.06.2022
1555 Clouds 20 1000 92 10000 5.14 190 11:50 17.06.2022
1556 Clouds 20 1000 93 10000 5.14 190 11:32 17.06.2022
1557 Clear 19 1002 95 10000 5.14 170 08:56 17.06.2022
1558 Clear 19 1002 94 10000 5.14 170 08:25 17.06.2022
1559 Clouds 20 1004 93 10000 5.66 170 06:42 17.06.2022
1560 Clouds 20 1006 91 10000 8.23 170 03:42 17.06.2022
1561 Clouds 20 1006 93 10000 6.69 140 01:55 17.06.2022
1562 Thunderstorm 21 1006 90 10000 6.17 170 23:35 16.06.2022
1563 Thunderstorm 22 1008 87 2816 7.72 50 22:41 16.06.2022
1564 Clouds 26 1008 68 10000 11.83 170 21:21 16.06.2022
1565 Clouds 26 1009 68 10000 11.32 170 20:51 16.06.2022
1566 Clouds 26 1009 68 10000 11.32 170 20:27 16.06.2022
1567 Clouds 25 1010 69 10000 10.29 170 19:32 16.06.2022
1568 Clouds 21 1012 81 10000 7.72 170 17:57 16.06.2022
1569 Clouds 21 1012 82 10000 6.17 130 17:33 16.06.2022
1570 Clouds 22 1012 75 10000 7.72 170 16:24 16.06.2022
1571 Clouds 22 1014 74 10000 8.23 180 15:21 16.06.2022
1572 Clouds 22 1014 76 10000 8.23 170 14:28 16.06.2022
1573 Clouds 20 1014 82 10000 4.12 170 12:59 16.06.2022
1574 Clouds 20 1014 83 10000 4.12 170 12:35 16.06.2022
1575 Clouds 19 1015 85 10000 5.14 160 11:49 16.06.2022
1576 Clouds 19 1015 86 10000 5.66 150 10:42 16.06.2022
1577 Rain 20 1016 81 10000 3.6 160 09:43 16.06.2022
1578 Thunderstorm 20 1016 76 10000 3.6 160 09:20 16.06.2022
1579 Clouds 20 1017 69 10000 5.66 140 07:57 16.06.2022
1580 Clear 20 1017 70 10000 2.57 120 06:51 16.06.2022
1581 Clouds 22 1018 62 10000 1.54 110 04:28 16.06.2022
1582 Clear 24 1018 55 10000 3.09 150 01:53 16.06.2022
1583 Clear 24 1018 56 10000 3.09 150 01:34 16.06.2022
1584 Clear 25 1018 54 10000 4.12 160 00:36 16.06.2022
1585 Clear 25 1018 56 10000 2.57 150 23:23 15.06.2022
1586 Clear 24 1019 58 10000 3.6 100 21:59 15.06.2022
1587 Clear 24 1019 59 10000 3.6 100 21:20 15.06.2022
1588 Clear 24 1019 59 10000 3.09 130 20:38 15.06.2022
1589 Clear 24 1019 61 10000 3.09 130 20:19 15.06.2022
1590 Clear 23 1020 63 10000 1.54 30 18:51 15.06.2022
1591 Clear 22 1020 63 10000 3.09 90 17:55 15.06.2022
1592 Clear 21 1020 67 10000 4.12 20 16:38 15.06.2022
1593 Clear 20 1020 71 10000 4.63 20 15:35 15.06.2022
1594 Clear 17 1019 79 10000 6.17 40 13:43 15.06.2022
1595 Clear 16 1018 84 10000 3.6 40 12:53 15.06.2022
1596 Clear 15 1018 85 10000 4.12 30 11:48 15.06.2022
1597 Clear 16 1018 84 10000 3.6 30 10:24 15.06.2022
1598 Clear 16 1017 81 10000 3.09 10 09:38 15.06.2022
1599 Clear 17 1017 74 10000 4.12 30 08:30 15.06.2022
1600 Clear 19 1016 65 10000 3.6 40 06:33 15.06.2022
1601 Clouds 21 1014 67 10000 4.12 50 03:45 15.06.2022
1602 Clouds 25 1013 48 10000 4.12 50 01:54 15.06.2022
1603 Clear 25 1013 49 10000 5.66 30 00:50 15.06.2022
1604 Clouds 25 1013 49 10000 6.69 350 23:39 14.06.2022
1605 Clouds 25 1013 53 10000 6.69 350 23:18 14.06.2022
1606 Clouds 26 1013 49 10000 3.09 300 22:18 14.06.2022
1607 Clouds 25 1013 45 10000 2.06 350 21:33 14.06.2022
1608 Clouds 25 1013 51 10000 4.63 240 20:48 14.06.2022
1609 Clouds 25 1013 52 10000 4.63 240 20:28 14.06.2022
1610 Clouds 24 1013 51 10000 4.63 240 18:56 14.06.2022
1611 Clear 24 1013 54 10000 3.6 340 17:40 14.06.2022
1612 Clear 23 1013 57 10000 3.6 330 16:43 14.06.2022
1613 Clear 21 1013 62 10000 4.12 350 15:50 14.06.2022
1614 Clear 21 1013 63 10000 4.12 350 15:22 14.06.2022
1615 Clear 19 1014 68 10000 3.09 290 14:32 14.06.2022
1616 Clear 17 1013 77 10000 2.57 300 13:41 14.06.2022
1617 Clear 15 1013 83 10000 3.09 240 12:42 14.06.2022
1618 Clear 14 1013 84 10000 2.06 250 11:32 14.06.2022
1619 Clear 14 1013 82 10000 4.12 230 10:47 14.06.2022
1620 Clear 15 1013 79 10000 3.09 240 09:48 14.06.2022
1621 Clear 15 1013 78 10000 3.09 280 08:47 14.06.2022
1622 Clear 15 1013 74 10000 2.57 290 07:33 14.06.2022
1623 Clear 17 1013 66 10000 3.6 280 05:22 14.06.2022
1624 Clouds 20 1013 56 10000 6.17 280 02:58 14.06.2022
1625 Clouds 22 1012 50 10000 6.17 300 00:53 14.06.2022
1626 Clouds 22 1012 48 10000 5.66 290 23:39 13.06.2022
1627 Clouds 23 1012 48 10000 7.2 270 22:26 13.06.2022
1628 Clouds 22 1012 50 10000 7.72 250 21:50 13.06.2022
1629 Clouds 22 1012 51 10000 8.75 260 20:42 13.06.2022
1630 Clouds 22 1012 49 10000 8.23 280 19:35 13.06.2022
1631 Clouds 22 1012 49 10000 6.17 280 18:28 13.06.2022
1632 Clouds 22 1012 54 10000 7.72 250 17:47 13.06.2022
1633 Clouds 21 1011 61 10000 7.2 270 16:52 13.06.2022
1634 Clouds 20 1011 70 10000 4.12 260 15:40 13.06.2022
1635 Clouds 19 1011 78 10000 4.63 250 14:47 13.06.2022
1636 Clouds 18 1011 86 10000 4.12 230 13:55 13.06.2022
1637 Clouds 17 1010 91 10000 4.12 240 12:49 13.06.2022
1638 Clear 16 1010 91 10000 3.09 210 11:37 13.06.2022
1639 Clear 17 1009 90 10000 3.6 240 10:27 13.06.2022
1640 Clouds 18 1009 84 10000 4.12 230 09:42 13.06.2022
1641 Clouds 18 1009 86 10000 4.12 220 08:24 13.06.2022
1642 Clouds 19 1009 76 10000 3.09 190 06:33 13.06.2022
1643 Clouds 20 1009 82 10000 2.06 210 03:28 13.06.2022
1644 Clouds 20 1009 80 10000 1.54 90 01:38 13.06.2022
1645 Clouds 20 1009 78 10000 1.03 0 00:48 13.06.2022
1646 Rain 21 1010 73 10000 6.17 270 23:31 12.06.2022
1647 Clouds 22 1009 66 10000 2.57 140 22:23 12.06.2022
1648 Clouds 24 1010 58 10000 4.12 180 21:39 12.06.2022
1649 Clouds 25 1011 55 10000 7.2 170 20:40 12.06.2022
1650 Clouds 24 1011 56 10000 4.63 170 19:41 12.06.2022
1651 Rain 25 1012 53 10000 4.12 140 18:44 12.06.2022
1652 Clouds 22 1012 62 10000 4.12 170 16:44 12.06.2022
1653 Clouds 20 1013 65 10000 5.14 190 15:32 12.06.2022
1654 Clear 19 1012 65 10000 4.63 160 14:33 12.06.2022
1655 Clear 18 1012 70 10000 2.57 130 13:57 12.06.2022
1656 Clear 18 1012 71 10000 2.57 130 13:38 12.06.2022
1657 Clear 15 1012 80 10000 2.57 130 11:58 12.06.2022
1658 Clear 15 1012 79 10000 1.54 160 10:46 12.06.2022
1659 Clear 15 1012 76 10000 3.09 130 09:36 12.06.2022
1660 Clear 16 1011 73 10000 3.09 210 08:49 12.06.2022
1661 Clear 17 1011 71 10000 2.06 180 07:47 12.06.2022
1662 Clear 18 1011 67 10000 2.57 180 05:51 12.06.2022
1663 Clear 20 1010 49 10000 3.6 180 03:38 12.06.2022
1664 Clear 20 1010 49 10000 3.6 180 03:38 12.06.2022
1665 Clear 24 1009 36 10000 4.63 240 01:44 12.06.2022
1666 Clear 24 1009 38 10000 4.63 240 01:22 12.06.2022
1667 Clouds 24 1009 37 10000 6.69 230 00:36 12.06.2022
1668 Clouds 24 1009 42 10000 6.69 230 00:18 12.06.2022
1669 Clouds 24 1010 46 10000 8.23 220 22:53 11.06.2022
1670 Clouds 24 1010 46 10000 8.23 220 22:29 11.06.2022
1671 Clear 24 1010 46 10000 7.2 220 21:18 11.06.2022
1672 Clear 24 1011 43 10000 7.72 200 20:26 11.06.2022
1673 Clear 24 1011 44 10000 7.2 230 19:33 11.06.2022
1674 Clear 23 1012 51 10000 5.66 220 18:42 11.06.2022
1675 Clear 23 1012 52 10000 5.66 220 18:24 11.06.2022
1676 Clear 22 1012 57 10000 5.14 230 17:38 11.06.2022
1677 Clear 22 1012 59 10000 5.14 230 17:19 11.06.2022
1678 Clear 21 1012 68 10000 5.14 190 16:42 11.06.2022
1679 Clear 19 1012 68 10000 4.12 210 15:47 11.06.2022
1680 Clouds 17 1012 76 10000 4.63 240 14:23 11.06.2022
1681 Clouds 16 1011 82 10000 4.63 230 13:47 11.06.2022
1682 Clouds 14 1010 88 10000 4.12 240 11:46 11.06.2022
1683 Clouds 13 1010 88 10000 4.63 230 10:30 11.06.2022
1684 Clear 14 1010 88 10000 5.66 240 09:40 11.06.2022
1685 Clear 15 1009 86 10000 4.12 250 08:21 11.06.2022
1686 Clear 16 1009 82 10000 6.17 250 06:32 11.06.2022
1687 Clear 16 1009 85 10000 6.17 240 05:26 11.06.2022
1688 Clouds 19 1008 72 10000 6.17 240 02:42 11.06.2022
1689 Clouds 19 1007 72 10000 7.72 240 01:41 11.06.2022
1690 Clouds 20 1006 70 10000 9.77 250 00:54 11.06.2022
1691 Clouds 20 1005 65 10000 9.26 240 22:55 10.06.2022
1692 Clouds 21 1005 64 10000 9.26 240 22:20 10.06.2022
1693 Clouds 20 1005 67 10000 9.26 250 21:22 10.06.2022
1694 Clouds 20 1005 66 10000 9.26 220 20:37 10.06.2022
1695 Clouds 20 1005 67 10000 8.23 230 20:19 10.06.2022
1696 Clouds 19 1005 70 10000 9.26 240 19:19 10.06.2022
1697 Clouds 18 1005 69 10000 8.23 260 18:29 10.06.2022
1698 Clouds 18 1005 73 10000 7.2 260 17:42 10.06.2022
1699 Clouds 17 1005 73 10000 7.72 240 16:59 10.06.2022
1700 Clouds 17 1005 75 10000 7.72 240 16:23 10.06.2022
1701 Clouds 16 1004 82 10000 7.72 250 15:37 10.06.2022
1702 Clouds 14 1004 91 10000 6.69 250 13:57 10.06.2022
1703 Clouds 14 1003 92 10000 5.66 240 12:50 10.06.2022
1704 Rain 14 1003 89 10000 3.6 240 11:43 10.06.2022
1705 Clouds 14 1004 91 10000 5.14 250 10:45 10.06.2022
1706 Clouds 14 1004 90 10000 3.6 250 09:54 10.06.2022
1707 Clouds 14 1004 89 10000 5.14 240 08:42 10.06.2022
1708 Clear 14 1004 86 10000 4.12 260 07:26 10.06.2022
1709 Clouds 14 1004 86 10000 4.12 260 06:44 10.06.2022
1710 Clouds 14 1004 85 10000 4.12 260 06:25 10.06.2022
1711 Clouds 15 1004 82 10000 3.09 240 03:55 10.06.2022
1712 Clouds 16 1004 73 10000 2.57 310 01:41 10.06.2022
1713 Clouds 16 1004 75 10000 2.57 340 00:32 10.06.2022
1714 Clouds 16 1004 81 10000 3.6 360 23:47 09.06.2022
1715 Rain 15 1004 89 10000 4.63 10 22:18 09.06.2022
1716 Rain 15 1004 90 10000 4.12 20 21:33 09.06.2022
1717 Rain 15 1004 89 10000 5.66 30 20:54 09.06.2022
1718 Rain 15 1004 89 10000 5.66 30 20:21 09.06.2022
1719 Rain 15 1004 92 10000 5.14 30 19:29 09.06.2022
1720 Rain 15 1005 92 10000 4.63 50 18:34 09.06.2022
1721 Rain 14 1006 92 10000 4.12 50 16:56 09.06.2022
1722 Rain 14 1006 92 10000 5.14 20 15:49 09.06.2022
1723 Rain 14 1006 90 8047 3.6 40 14:38 09.06.2022
1724 Rain 14 1007 87 10000 5.14 50 13:55 09.06.2022
1725 Rain 15 1007 86 10000 5.14 50 13:28 09.06.2022
1726 Rain 15 1008 79 10000 4.63 40 12:21 09.06.2022
1727 Clouds 15 1008 80 10000 3.09 40 11:19 09.06.2022
1728 Clouds 15 1008 80 10000 2.57 50 09:50 09.06.2022
1729 Clouds 15 1008 80 10000 2.57 50 09:31 09.06.2022
1730 Clouds 16 1011 77 10000 3.6 130 07:56 09.06.2022
1731 Clear 17 1010 74 10000 2.06 100 06:55 09.06.2022
1732 Clear 19 1010 66 10000 2.06 50 03:22 09.06.2022
1733 Clouds 23 1009 48 10000 4.12 290 23:49 08.06.2022
1734 Clouds 23 1009 49 10000 6.17 290 22:58 08.06.2022
1735 Clouds 23 1009 50 10000 6.17 290 22:27 08.06.2022
1736 Clouds 23 1009 53 10000 6.69 270 21:57 08.06.2022
1737 Clouds 22 1009 53 10000 6.69 270 21:23 08.06.2022
1738 Clouds 21 1010 58 10000 8.23 260 20:22 08.06.2022
1739 Clouds 20 1010 64 10000 7.72 290 19:39 08.06.2022
1740 Clouds 20 1010 64 10000 7.72 290 19:39 08.06.2022
1741 Clouds 19 1010 67 10000 6.17 260 18:48 08.06.2022
1742 Clouds 18 1009 74 10000 7.72 260 17:30 08.06.2022
1743 Clouds 17 1008 83 10000 7.2 250 15:52 08.06.2022
1744 Clouds 17 1008 83 10000 7.2 240 14:18 08.06.2022
1745 Clouds 17 1007 91 10000 7.2 230 12:29 08.06.2022
1746 Clouds 17 1006 91 10000 8.23 240 11:34 08.06.2022
1747 Clouds 17 1005 93 10000 4.63 200 10:37 08.06.2022
1748 Mist 17 1005 95 8047 7.72 180 09:28 08.06.2022
1749 Mist 17 1005 94 4828 5.66 170 08:49 08.06.2022
1750 Clouds 17 1006 94 10000 8.23 170 06:36 08.06.2022
1751 Rain 18 1007 92 4023 6.17 190 04:35 08.06.2022
1752 Rain 21 1008 72 10000 5.66 200 00:57 08.06.2022
1753 Clear 25 1007 43 10000 10.8 180 23:31 07.06.2022
1754 Clear 25 1008 41 10000 9.77 180 22:50 07.06.2022
1755 Clear 25 1008 41 10000 9.77 180 22:31 07.06.2022
1756 Clouds 26 1008 43 10000 7.2 170 21:37 07.06.2022
1757 Clouds 26 1008 47 10000 7.2 170 21:18 07.06.2022
1758 Clouds 25 1009 49 10000 5.14 170 20:37 07.06.2022
1759 Clouds 23 1010 52 10000 4.63 170 19:49 07.06.2022
1760 Clouds 24 1011 49 10000 7.2 160 18:25 07.06.2022
1761 Clouds 21 1011 60 10000 5.66 180 17:31 07.06.2022
1762 Clouds 20 1012 65 10000 5.66 160 16:44 07.06.2022
1763 Rain 19 1012 68 10000 4.63 130 15:58 07.06.2022
1764 Clouds 18 1013 72 10000 4.63 170 15:30 07.06.2022
1765 Rain 18 1013 70 10000 4.12 160 14:56 07.06.2022
1766 Rain 18 1013 73 10000 4.12 160 14:38 07.06.2022
1767 Rain 18 1013 72 10000 3.6 160 13:33 07.06.2022
1768 Rain 18 1013 70 10000 3.6 190 12:54 07.06.2022
1769 Clouds 17 1013 64 10000 3.09 170 11:49 07.06.2022
1770 Clouds 18 1013 61 10000 2.06 120 10:48 07.06.2022
1771 Clouds 18 1014 58 10000 3.6 140 08:53 07.06.2022
1772 Clouds 18 1015 61 10000 1.54 130 07:47 07.06.2022
1773 Clouds 19 1015 52 10000 4.63 90 06:39 07.06.2022
1774 Clouds 20 1015 46 10000 4.12 100 04:39 07.06.2022
1775 Clouds 22 1015 46 10000 4.63 110 01:27 07.06.2022
1776 Clouds 24 1016 40 10000 5.14 80 23:53 06.06.2022
1777 Clouds 24 1016 38 10000 4.12 120 22:54 06.06.2022
1778 Clouds 24 1016 38 10000 4.12 120 22:29 06.06.2022
1779 Clear 23 1016 40 10000 2.06 40 20:47 06.06.2022
1780 Clear 23 1017 39 10000 3.6 110 19:28 06.06.2022
1781 Clear 22 1017 43 10000 3.6 130 18:49 06.06.2022
1782 Clear 22 1017 42 10000 3.6 130 18:21 06.06.2022
1783 Clear 21 1017 45 10000 4.63 120 17:26 06.06.2022
1784 Clear 20 1017 50 10000 4.12 120 16:18 06.06.2022
1785 Clear 19 1018 55 10000 3.09 100 15:23 06.06.2022
1786 Clear 17 1018 64 10000 2.06 90 14:30 06.06.2022
1787 Clear 15 1017 71 10000 2.57 40 13:22 06.06.2022
1788 Clear 13 1017 79 10000 2.06 40 12:36 06.06.2022
1789 Clear 11 1016 81 10000 1.03 40 11:53 06.06.2022
1790 Clear 12 1016 76 10000 1.03 0 10:40 06.06.2022
1791 Clouds 13 1016 73 10000 1.54 60 09:33 06.06.2022
1792 Clouds 13 1016 73 10000 2.57 90 08:32 06.06.2022
1793 Clouds 14 1015 67 10000 1.54 120 07:28 06.06.2022
1794 Clear 14 1015 64 10000 1.54 0 05:27 06.06.2022
1795 Clear 19 1014 48 10000 3.09 340 02:55 06.06.2022
1796 Clouds 21 1014 43 10000 4.63 310 01:18 06.06.2022
1797 Clouds 21 1014 43 10000 4.12 330 00:38 06.06.2022
1798 Clouds 21 1013 43 10000 5.66 330 23:34 05.06.2022
1799 Clouds 21 1014 44 10000 6.17 280 22:45 05.06.2022
1800 Clouds 20 1013 45 10000 7.72 290 20:47 05.06.2022
1801 Clouds 19 1013 49 10000 8.23 250 19:41 05.06.2022
1802 Clouds 18 1013 50 10000 7.2 270 18:30 05.06.2022
1803 Clouds 18 1013 50 10000 6.17 280 17:54 05.06.2022
1804 Clouds 17 1013 51 10000 6.17 280 17:25 05.06.2022
1805 Clouds 17 1013 55 10000 6.69 240 16:51 05.06.2022
1806 Clouds 16 1013 55 10000 6.69 240 16:32 05.06.2022
1807 Clouds 14 1013 68 10000 5.66 240 14:27 05.06.2022
1808 Clear 12 1012 74 10000 4.12 230 12:55 05.06.2022
1809 Clear 12 1012 74 10000 4.12 230 12:55 05.06.2022
1810 Clouds 11 1012 74 10000 3.6 240 11:47 05.06.2022
1811 Clouds 11 1011 70 10000 4.12 270 10:38 05.06.2022
1812 Clouds 11 1011 69 10000 4.12 270 10:20 05.06.2022
1813 Clear 12 1011 68 10000 5.14 260 08:34 05.06.2022
1814 Clear 13 1011 66 10000 4.12 250 07:48 05.06.2022
1815 Clear 14 1010 56 10000 3.6 270 05:22 05.06.2022
1816 Clear 15 1010 55 10000 7.2 280 04:19 05.06.2022
1817 Clouds 18 1009 46 10000 8.75 280 01:32 05.06.2022
1818 Clouds 18 1009 46 10000 8.75 280 01:32 05.06.2022
1819 Clouds 19 1008 41 10000 10.8 290 00:39 05.06.2022
1820 Clouds 21 1008 42 10000 11.83 250 22:36 04.06.2022
1821 Clear 22 1008 44 10000 13.89 240 20:33 04.06.2022
1822 Clear 22 1008 45 10000 9.26 250 18:45 04.06.2022
1823 Clear 21 1008 53 10000 4.12 220 16:47 04.06.2022
1824 Clear 21 1008 52 10000 4.12 220 16:18 04.06.2022
1825 Clouds 18 1009 61 10000 3.09 210 14:54 04.06.2022
1826 Clouds 17 1009 66 10000 4.12 200 13:36 04.06.2022
1827 Clouds 14 1008 81 10000 3.09 170 11:22 04.06.2022
1828 Clouds 15 1008 78 10000 2.57 180 10:49 04.06.2022
1829 Clouds 16 1009 74 10000 3.6 200 09:45 04.06.2022
1830 Clouds 16 1008 70 10000 3.09 230 08:43 04.06.2022
1831 Clouds 17 1009 69 10000 4.12 230 07:42 04.06.2022
1832 Clouds 19 1009 53 10000 3.6 240 05:30 04.06.2022
1833 Clear 23 1007 35 10000 4.63 280 02:20 04.06.2022
1834 Clear 24 1007 34 10000 6.17 250 00:19 04.06.2022
1835 Clouds 24 1006 41 10000 7.72 240 22:40 03.06.2022
1836 Clear 24 1006 42 10000 8.23 230 21:39 03.06.2022
1837 Clear 24 1006 46 10000 7.2 240 20:38 03.06.2022
1838 Clouds 22 1007 51 10000 5.14 260 18:41 03.06.2022
1839 Clouds 20 1007 59 10000 5.66 260 16:52 03.06.2022
1840 Clear 19 1006 62 10000 4.12 260 15:37 03.06.2022
1841 Clouds 16 1006 88 10000 1.54 20 13:48 03.06.2022
1842 Rain 16 1005 91 10000 3.6 240 11:50 03.06.2022
1843 Clouds 17 1005 86 10000 1.03 220 09:50 03.06.2022
1844 Clouds 17 1005 81 10000 1.54 300 09:28 03.06.2022
1845 Clouds 18 1006 79 10000 3.09 240 07:27 03.06.2022
1846 Clouds 18 1006 79 10000 2.06 210 06:44 03.06.2022
1847 Clouds 18 1006 81 10000 2.06 210 06:26 03.06.2022
1848 Clouds 21 1007 64 10000 1.54 110 01:23 03.06.2022
1849 Clouds 21 1007 62 10000 2.06 120 23:34 02.06.2022
1850 Clouds 21 1007 63 10000 2.57 80 21:57 02.06.2022
1851 Clouds 21 1007 63 10000 2.57 80 21:57 02.06.2022
1852 Clouds 20 1008 63 10000 2.06 80 20:25 02.06.2022
1853 Clouds 20 1008 64 10000 3.6 30 19:53 02.06.2022
1854 Clouds 20 1008 64 10000 3.6 30 19:35 02.06.2022
1855 Clouds 18 1009 65 10000 4.63 70 17:59 02.06.2022
1856 Clouds 16 1009 67 10000 6.69 50 16:28 02.06.2022
1857 Clouds 14 1009 78 10000 5.66 40 14:58 02.06.2022
1858 Clouds 12 1009 86 10000 5.14 20 13:30 02.06.2022
1859 Clouds 12 1008 90 10000 4.63 360 12:46 02.06.2022
1860 Clouds 12 1007 91 10000 5.14 40 10:32 02.06.2022
1861 Clouds 13 1008 90 10000 5.14 20 09:28 02.06.2022
1862 Clouds 13 1008 92 10000 6.17 50 08:30 02.06.2022
1863 Mist 13 1008 95 9656 7.2 40 07:58 02.06.2022
1864 Mist 14 1008 94 4023 7.2 30 06:20 02.06.2022
1865 Mist 15 1008 87 9656 3.09 80 03:49 02.06.2022
1866 Clouds 17 1010 77 10000 4.12 90 00:39 02.06.2022
1867 Clouds 17 1011 75 10000 5.14 80 22:57 01.06.2022
1868 Clouds 18 1012 74 10000 5.14 80 21:52 01.06.2022
1869 Clouds 18 1012 74 10000 5.14 80 21:22 01.06.2022
1870 Clouds 18 1012 72 10000 5.14 80 20:38 01.06.2022
1871 Clouds 17 1013 69 10000 5.66 80 19:50 01.06.2022
1872 Clouds 16 1014 59 10000 4.63 70 18:24 01.06.2022
1873 Clouds 15 1014 61 10000 5.66 30 16:56 01.06.2022
1874 Clouds 14 1015 63 10000 6.69 30 15:42 01.06.2022
1875 Clouds 14 1015 63 10000 6.69 30 15:42 01.06.2022
1876 Clouds 14 1015 62 10000 5.66 40 14:46 01.06.2022
1877 Clouds 14 1015 61 10000 8.23 40 13:18 01.06.2022
1878 Clouds 14 1015 56 10000 6.69 50 10:42 01.06.2022
1879 Clouds 15 1016 54 10000 5.66 50 09:28 01.06.2022
1880 Clouds 16 1017 55 10000 6.17 70 07:59 01.06.2022
1881 Clouds 16 1017 55 10000 6.17 70 07:20 01.06.2022
1882 Clouds 17 1017 55 10000 5.66 50 03:22 01.06.2022
1883 Clouds 19 1016 50 10000 6.17 40 23:47 31.05.2022
1884 Clouds 19 1016 53 10000 6.69 20 22:38 31.05.2022
1885 Clouds 19 1016 54 10000 6.69 20 22:19 31.05.2022
1886 Clouds 19 1017 57 10000 6.17 50 21:23 31.05.2022
1887 Clouds 18 1017 59 10000 6.69 60 20:43 31.05.2022
1888 Clouds 17 1017 64 10000 5.66 70 19:31 31.05.2022
1889 Clouds 15 1018 70 10000 6.17 30 18:26 31.05.2022
1890 Clouds 15 1018 69 10000 7.2 50 17:37 31.05.2022
1891 Clouds 13 1018 75 10000 7.72 40 15:45 31.05.2022
1892 Clouds 13 1018 77 10000 7.72 40 15:22 31.05.2022
1893 Clouds 14 1016 80 10000 7.72 20 12:41 31.05.2022
1894 Clouds 14 1016 80 10000 7.72 20 12:18 31.05.2022
1895 Clouds 15 1015 78 10000 6.17 30 10:25 31.05.2022
1896 Clouds 21 1012 72 10000 7.72 10 07:46 31.05.2022
1897 Clouds 23 1011 68 10000 6.17 250 06:19 31.05.2022
1898 Clouds 24 1011 64 10000 5.14 230 04:31 31.05.2022
1899 Clear 27 1012 51 10000 6.17 240 23:45 30.05.2022
1900 Clear 27 1012 51 10000 6.17 240 23:24 30.05.2022
1901 Clear 27 1013 51 10000 6.69 210 22:37 30.05.2022
1902 Clouds 26 1014 52 10000 5.66 250 21:40 30.05.2022
1903 Clouds 26 1015 55 10000 6.17 240 20:51 30.05.2022
1904 Clouds 25 1015 56 10000 2.06 190 19:44 30.05.2022
1905 Clouds 24 1016 58 10000 3.6 220 18:18 30.05.2022
1906 Clouds 21 1016 64 10000 4.12 230 17:23 30.05.2022
1907 Clouds 18 1016 73 10000 4.63 220 16:22 30.05.2022
1908 Clouds 17 1017 74 10000 4.63 230 13:32 30.05.2022
1909 Clouds 16 1016 74 10000 4.63 230 11:40 30.05.2022
1910 Clear 17 1016 72 10000 5.66 250 09:58 30.05.2022
1911 Clear 17 1016 67 10000 5.66 250 08:52 30.05.2022
1912 Clear 18 1016 56 10000 5.14 240 06:26 30.05.2022
1913 Clear 20 1016 50 10000 5.14 230 04:52 30.05.2022
1914 Clear 24 1014 42 10000 6.69 250 01:23 30.05.2022
1915 Clouds 25 1015 40 10000 7.2 220 22:49 29.05.2022
1916 Clouds 26 1015 43 10000 7.2 220 22:28 29.05.2022
1917 Clear 25 1016 41 10000 8.23 240 20:38 29.05.2022
1918 Clear 24 1016 48 10000 7.2 220 19:30 29.05.2022
1919 Clear 23 1016 51 10000 5.66 250 18:34 29.05.2022
1920 Clear 21 1016 62 10000 5.14 240 16:40 29.05.2022
1921 Clear 19 1016 66 10000 4.63 230 15:47 29.05.2022
1922 Clear 18 1015 70 10000 5.14 230 14:55 29.05.2022
1923 Clear 16 1015 77 10000 5.14 240 13:46 29.05.2022
1924 Clear 14 1014 84 10000 4.63 230 11:31 29.05.2022
1925 Clear 14 1013 81 10000 6.17 230 10:37 29.05.2022
1926 Clouds 15 1012 75 10000 3.6 230 08:36 29.05.2022
1927 Clouds 16 1011 67 10000 3.09 220 05:22 29.05.2022
1928 Clear 17 1011 65 10000 2.57 240 04:41 29.05.2022
1929 Clear 19 1009 59 10000 3.09 270 02:24 29.05.2022
1930 Clouds 21 1008 51 10000 6.17 330 23:48 28.05.2022
1931 Clouds 21 1007 51 10000 6.17 330 23:26 28.05.2022
1932 Clouds 20 1007 53 10000 6.17 320 22:25 28.05.2022
1933 Clouds 20 1007 57 10000 7.72 330 21:31 28.05.2022
1934 Clouds 19 1006 64 10000 6.17 290 19:24 28.05.2022
1935 Clouds 19 1006 68 10000 5.66 290 18:46 28.05.2022
1936 Clouds 18 1006 73 10000 6.17 290 17:35 28.05.2022
1937 Clouds 17 1005 81 10000 5.14 280 16:35 28.05.2022
1938 Rain 17 1004 86 10000 4.12 360 15:38 28.05.2022
1939 Clouds 18 1004 87 10000 5.14 310 14:18 28.05.2022
1940 Clouds 18 1002 94 10000 3.6 280 12:44 28.05.2022
1941 Clouds 18 1002 94 10000 5.14 250 11:57 28.05.2022
1942 Clouds 18 1002 95 10000 4.12 220 10:49 28.05.2022
1943 Clouds 18 1002 95 10000 4.12 230 09:57 28.05.2022
1944 Clouds 18 1002 96 10000 6.17 240 08:45 28.05.2022
1945 Rain 19 1002 96 10000 4.12 250 07:23 28.05.2022
1946 Rain 19 1002 95 9656 4.63 220 05:24 28.05.2022
1947 Rain 20 1003 86 10000 4.12 230 02:43 28.05.2022
1948 Clouds 21 1004 82 10000 4.63 210 00:32 28.05.2022
1949 Clouds 20 1005 90 10000 6.69 240 22:51 27.05.2022
1950 Clouds 20 1006 92 10000 6.17 210 21:43 27.05.2022
1951 Mist 20 1006 93 9656 6.69 220 20:49 27.05.2022
1952 Rain 20 1006 92 6437 6.69 220 20:24 27.05.2022
1953 Rain 20 1006 93 10000 5.66 240 19:42 27.05.2022
1954 Mist 20 1006 93 4828 5.66 220 19:21 27.05.2022
1955 Rain 19 1007 95 10000 4.12 170 17:52 27.05.2022
1956 Rain 18 1008 94 6437 6.69 180 16:38 27.05.2022
1957 Rain 18 1008 93 10000 4.12 180 15:22 27.05.2022
1958 Mist 17 1008 93 8047 5.14 150 13:53 27.05.2022
1959 Rain 17 1009 93 8047 5.66 180 12:39 27.05.2022
1960 Rain 17 1009 88 10000 5.66 180 11:33 27.05.2022
1961 Rain 18 1009 81 10000 5.14 180 10:55 27.05.2022
1962 Rain 19 1009 77 10000 5.14 180 10:29 27.05.2022
1963 Clouds 19 1009 75 10000 6.17 180 09:34 27.05.2022
1964 Clouds 20 1009 68 10000 6.17 180 07:50 27.05.2022
1965 Clouds 21 1010 62 10000 7.2 180 05:32 27.05.2022
1966 Clouds 22 1010 51 10000 6.17 180 02:26 27.05.2022
1967 Clouds 22 1012 46 10000 5.14 180 00:26 27.05.2022
1968 Clouds 21 1013 60 10000 6.17 190 22:35 26.05.2022
1969 Clouds 23 1014 41 10000 8.23 180 21:37 26.05.2022
1970 Clouds 23 1015 50 10000 8.23 180 19:58 26.05.2022
1971 Clouds 22 1016 47 10000 8.23 180 19:19 26.05.2022
1972 Clouds 18 1018 65 10000 6.69 170 17:51 26.05.2022
1973 Clouds 16 1019 75 10000 5.66 150 16:36 26.05.2022
1974 Clouds 16 1020 79 10000 5.66 140 15:45 26.05.2022
1975 Rain 16 1021 82 10000 4.12 180 14:28 26.05.2022
1976 Clouds 16 1022 73 10000 4.12 180 12:37 26.05.2022
1977 Clouds 16 1021 68 10000 3.6 110 11:23 26.05.2022
1978 Clouds 16 1021 68 10000 3.6 110 11:23 26.05.2022
1979 Clouds 16 1021 58 10000 2.57 130 09:44 26.05.2022
1980 Clouds 17 1022 56 10000 2.57 150 09:26 26.05.2022
1981 Clouds 17 1022 51 10000 3.09 120 08:30 26.05.2022
1982 Clouds 17 1024 53 10000 2.57 150 04:41 26.05.2022
1983 Clouds 22 1025 26 10000 1.03 180 00:48 26.05.2022
1984 Clear 23 1025 25 10000 3.6 250 23:40 25.05.2022
1985 Clear 23 1026 29 10000 2.06 190 21:59 25.05.2022
1986 Clear 23 1026 29 10000 2.06 190 21:32 25.05.2022
1987 Clear 22 1027 33 10000 2.06 250 20:35 25.05.2022
1988 Clear 21 1027 32 10000 3.09 0 19:24 25.05.2022
1989 Clear 21 1028 36 10000 1.54 60 17:43 25.05.2022
1990 Clear 20 1029 42 10000 2.06 0 16:38 25.05.2022
1991 Clouds 18 1029 49 10000 0.51 230 15:54 25.05.2022
1992 Clear 15 1028 56 10000 1.54 350 14:54 25.05.2022
1993 Clear 15 1028 57 10000 1.54 350 14:33 25.05.2022
1994 Clear 13 1028 65 10000 1.03 0 13:54 25.05.2022
1995 Clear 9 1028 76 10000 1.54 10 12:39 25.05.2022
1996 Clear 8 1027 80 10000 1.03 0 10:49 25.05.2022
1997 Clear 8 1027 79 10000 1.03 0 10:18 25.05.2022
1998 Clouds 9 1026 75 10000 0.92 10 08:41 25.05.2022
1999 Clouds 10 1026 70 10000 0.89 359 07:23 25.05.2022
2000 Clouds 13 1026 55 10000 1.03 250 04:22 25.05.2022
2001 Clouds 18 1025 35 10000 3.6 50 00:23 25.05.2022
2002 Clear 18 1026 35 10000 3.09 350 23:47 24.05.2022
2003 Clear 18 1026 36 10000 4.12 340 22:33 24.05.2022
2004 Clear 18 1026 36 10000 2.57 0 21:41 24.05.2022
2005 Clear 18 1026 36 10000 2.57 0 21:21 24.05.2022
2006 Clear 17 1027 39 10000 3.6 40 20:23 24.05.2022
2007 Clear 17 1028 39 10000 3.09 60 18:56 24.05.2022
2008 Clear 17 1028 39 10000 3.09 60 18:56 24.05.2022
2009 Clear 16 1029 44 10000 3.6 140 16:53 24.05.2022
2010 Clear 16 1029 42 10000 3.6 140 16:23 24.05.2022
2011 Clear 13 1029 61 10000 2.57 10 14:59 24.05.2022
2012 Clear 12 1029 65 10000 2.57 10 14:21 24.05.2022
2013 Clear 10 1029 75 10000 2.57 30 13:18 24.05.2022
2014 Clear 6 1028 83 10000 1.54 40 11:40 24.05.2022
2015 Clear 8 1027 77 10000 1.03 40 09:46 24.05.2022
2016 Clear 8 1027 75 10000 1.54 70 08:50 24.05.2022
2017 Clear 10 1027 73 10000 1.03 0 06:58 24.05.2022
2018 Clear 12 1027 63 10000 1.54 290 04:30 24.05.2022
2019 Clouds 14 1026 50 10000 2.57 320 02:42 24.05.2022
2020 Clouds 15 1026 48 10000 2.57 330 01:43 24.05.2022
2021 Clouds 16 1026 44 10000 3.6 250 23:43 23.05.2022
2022 Clouds 16 1026 44 10000 3.09 340 21:59 23.05.2022
2023 Clouds 16 1026 45 10000 3.09 340 21:41 23.05.2022
2024 Clouds 16 1026 46 10000 2.06 0 20:42 23.05.2022
2025 Clouds 16 1027 45 10000 4.12 90 19:41 23.05.2022
2026 Clear 15 1027 47 10000 3.6 60 19:00 23.05.2022
2027 Clear 14 1027 48 10000 3.6 60 18:37 23.05.2022
2028 Clear 14 1027 48 10000 6.17 20 17:55 23.05.2022
2029 Clear 11 1027 57 10000 4.63 10 15:47 23.05.2022
2030 Clear 9 1026 64 10000 4.63 10 13:44 23.05.2022
2031 Clear 9 1026 64 10000 4.63 10 13:44 23.05.2022
2032 Clear 7 1024 69 10000 4.12 30 11:40 23.05.2022
2033 Clear 8 1024 65 10000 5.66 30 10:44 23.05.2022
2034 Clouds 10 1023 64 10000 8.75 360 09:45 23.05.2022
2035 Clouds 11 1023 67 10000 5.14 340 08:44 23.05.2022
2036 Clouds 12 1022 70 10000 6.69 350 06:48 23.05.2022
2037 Clouds 12 1022 71 10000 6.69 350 06:24 23.05.2022
2038 Clouds 15 1018 80 10000 6.69 300 02:55 23.05.2022
2039 Clouds 15 1016 85 10000 7.72 260 01:50 23.05.2022
2040 Clouds 15 1016 86 10000 7.72 260 01:23 23.05.2022
2041 Clouds 18 1013 72 10000 7.2 300 22:48 22.05.2022
2042 Clouds 18 1013 71 10000 9.26 310 22:22 22.05.2022
2043 Clouds 21 1011 67 10000 10.8 310 21:51 22.05.2022
2044 Clouds 25 1011 66 10000 6.69 240 20:43 22.05.2022
2045 Clouds 26 1011 65 10000 6.69 240 20:20 22.05.2022
2046 Clouds 26 1011 63 10000 6.69 220 19:19 22.05.2022
2047 Clear 25 1012 63 10000 6.69 250 18:46 22.05.2022
2048 Clear 25 1012 63 10000 6.69 250 18:21 22.05.2022
2049 Clouds 23 1013 72 10000 7.72 240 16:51 22.05.2022
2050 Clouds 21 1014 79 10000 6.69 230 15:25 22.05.2022
2051 Clouds 20 1013 85 10000 4.12 230 14:47 22.05.2022
2052 Clouds 19 1013 90 10000 3.09 200 12:55 22.05.2022
2053 Clouds 19 1013 90 10000 3.09 200 12:33 22.05.2022
2054 Clouds 19 1013 88 10000 5.14 180 10:53 22.05.2022
2055 Clouds 19 1013 86 10000 2.57 260 09:31 22.05.2022
2056 Clouds 20 1014 82 10000 2.57 270 07:49 22.05.2022
2057 Clouds 20 1014 81 10000 2.57 270 07:20 22.05.2022
2058 Clear 21 1013 72 10000 2.57 250 04:30 22.05.2022
2059 Clear 24 1011 59 10000 9.77 260 01:19 22.05.2022
2060 Clouds 27 1011 61 10000 13.89 240 23:57 21.05.2022
2061 Clouds 28 1011 55 10000 13.89 240 23:32 21.05.2022
2062 Clouds 31 1009 48 10000 11.32 250 22:22 21.05.2022
2063 Clouds 31 1009 54 10000 7.2 230 21:39 21.05.2022
2064 Clouds 31 1009 53 10000 7.2 220 20:48 21.05.2022
2065 Clouds 31 1009 54 10000 7.2 220 20:19 21.05.2022
2066 Clear 31 1009 53 10000 6.69 220 19:24 21.05.2022
2067 Clear 28 1009 63 10000 8.75 220 17:35 21.05.2022
2068 Clear 24 1010 71 10000 7.72 180 15:37 21.05.2022
2069 Clouds 22 1010 76 10000 6.69 180 14:36 21.05.2022
2070 Clouds 20 1009 80 10000 7.72 170 13:39 21.05.2022
2071 Clouds 20 1009 82 10000 8.23 180 12:40 21.05.2022
2072 Clouds 19 1008 81 10000 8.75 180 11:54 21.05.2022
2073 Clouds 20 1007 78 10000 7.72 180 10:22 21.05.2022
2074 Clouds 20 1007 76 10000 8.75 180 09:20 21.05.2022
2075 Clear 20 1007 74 10000 7.72 180 08:47 21.05.2022
2076 Clouds 21 1008 65 10000 5.32 188 06:22 21.05.2022
2077 Clouds 25 1006 53 10000 8.23 180 02:26 21.05.2022
2078 Clear 26 1006 53 10000 8.23 180 23:47 20.05.2022
2079 Clear 26 1007 52 10000 7.72 160 22:42 20.05.2022
2080 Clear 26 1007 51 10000 7.72 160 22:23 20.05.2022
2081 Clear 25 1008 52 10000 9.26 160 21:32 20.05.2022
2082 Clear 24 1008 54 10000 9.26 160 20:53 20.05.2022
2083 Clear 22 1010 59 10000 8.75 120 19:56 20.05.2022
2084 Clouds 20 1011 62 10000 7.72 160 18:59 20.05.2022
2085 Clouds 19 1011 63 10000 7.72 160 18:28 20.05.2022
2086 Clouds 16 1012 76 10000 5.14 170 16:51 20.05.2022
2087 Clouds 14 1012 83 10000 5.14 150 15:57 20.05.2022
2088 Clouds 14 1012 84 10000 5.14 150 15:39 20.05.2022
2089 Clouds 13 1012 84 10000 3.6 120 14:29 20.05.2022
2090 Clear 12 1012 89 10000 3.09 180 13:44 20.05.2022
2091 Mist 10 1010 92 9656 2.06 270 10:56 20.05.2022
2092 Mist 10 1010 95 4828 3.09 230 09:50 20.05.2022
2093 Mist 11 1009 93 4023 0.51 280 08:41 20.05.2022
2094 Mist 11 1009 92 9656 2.06 220 06:46 20.05.2022
2095 Mist 11 1009 92 9656 2.06 220 06:21 20.05.2022
2096 Clouds 11 1008 91 10000 1.03 240 03:53 20.05.2022
2097 Clouds 12 1005 89 10000 2.57 80 23:54 19.05.2022
2098 Clouds 11 1005 89 10000 4.12 100 22:44 19.05.2022
2099 Mist 11 1005 88 9656 4.12 100 21:53 19.05.2022
2100 Rain 11 1005 88 10000 3.6 120 21:25 19.05.2022
2101 Rain 11 1005 88 10000 4.12 120 20:59 19.05.2022
2102 Clouds 11 1005 89 10000 4.12 140 20:21 19.05.2022
2103 Rain 11 1005 85 10000 6.17 130 19:34 19.05.2022
2104 Rain 13 1006 63 10000 5.14 140 17:59 19.05.2022
2105 Clouds 13 1006 63 10000 4.63 170 16:29 19.05.2022
2106 Clouds 11 1007 66 10000 3.6 120 14:52 19.05.2022
2107 Clouds 11 1007 67 10000 3.6 120 14:21 19.05.2022
2108 Clouds 8 1008 76 10000 2.57 100 12:35 19.05.2022
2109 Clouds 7 1008 78 10000 2.57 110 11:25 19.05.2022
2110 Clouds 9 1010 70 10000 3.09 180 08:59 19.05.2022
2111 Clouds 10 1011 65 10000 2.57 170 07:48 19.05.2022
2112 Clear 12 1010 60 10000 4.12 220 04:50 19.05.2022
2113 Clear 16 1011 42 10000 7.2 240 01:58 19.05.2022
2114 Clear 17 1012 40 10000 7.2 230 23:53 18.05.2022
2115 Clear 17 1012 40 10000 9.77 200 22:46 18.05.2022
2116 Clear 17 1012 40 10000 9.77 200 22:46 18.05.2022
2117 Clear 17 1013 36 10000 6.17 210 21:47 18.05.2022
2118 Clear 16 1013 37 10000 6.17 210 21:25 18.05.2022
2119 Clear 16 1014 40 10000 7.72 230 20:24 18.05.2022
2120 Clear 15 1014 40 10000 8.23 230 19:39 18.05.2022
2121 Clear 14 1015 38 10000 6.17 240 18:21 18.05.2022
2122 Clear 13 1015 39 10000 5.14 300 17:41 18.05.2022
2123 Clear 13 1015 39 10000 5.14 300 17:23 18.05.2022
2124 Clear 11 1015 40 10000 6.17 310 16:23 18.05.2022
2125 Clear 11 1015 40 10000 6.69 300 15:40 18.05.2022
2126 Clear 9 1014 42 10000 6.69 340 14:35 18.05.2022
2127 Clear 8 1014 49 10000 5.66 310 13:22 18.05.2022
2128 Clear 7 1013 56 10000 4.63 310 12:40 18.05.2022
2129 Clear 7 1012 58 10000 4.12 290 11:34 18.05.2022
2130 Clear 8 1011 57 10000 7.72 320 10:56 18.05.2022
2131 Clouds 10 1010 52 10000 5.66 300 08:53 18.05.2022
2132 Clouds 11 1010 53 10000 6.69 310 07:32 18.05.2022
2133 Clouds 11 1009 55 10000 9.26 310 05:34 18.05.2022
2134 Clouds 14 1004 59 10000 10.29 300 00:52 18.05.2022
2135 Clouds 14 1004 57 10000 10.29 300 00:21 18.05.2022
2136 Clouds 16 1002 66 10000 9.77 240 21:39 17.05.2022
2137 Clouds 15 1002 68 10000 9.77 240 21:19 17.05.2022
2138 Clouds 14 1001 78 10000 10.29 240 19:52 17.05.2022
2139 Clouds 14 1001 78 10000 10.29 240 19:27 17.05.2022
2140 Clouds 12 1000 88 10000 10.8 240 17:50 17.05.2022
2141 Rain 13 999 86 10000 12.86 240 16:58 17.05.2022
2142 Clouds 13 999 84 10000 11.83 240 16:29 17.05.2022
2143 Clouds 13 998 85 10000 9.26 240 15:24 17.05.2022
2144 Clouds 13 998 84 10000 11.83 240 14:30 17.05.2022
2145 Clouds 13 998 84 10000 11.83 240 14:30 17.05.2022
2146 Drizzle 12 998 87 10000 9.26 240 13:32 17.05.2022
2147 Clouds 11 997 87 10000 11.83 260 11:37 17.05.2022
2148 Clouds 12 996 85 10000 11.32 250 09:23 17.05.2022
2149 Clouds 13 995 86 10000 10.8 260 08:23 17.05.2022
2150 Clouds 14 995 88 10000 10.29 230 06:46 17.05.2022
2151 Clouds 18 995 92 10000 7.72 200 03:20 17.05.2022
2152 Rain 19 996 89 10000 2.57 250 00:36 17.05.2022
2153 Thunderstorm 23 997 78 10000 4.63 20 22:42 16.05.2022
2154 Clear 24 999 72 10000 5.14 20 21:37 16.05.2022
2155 Clouds 24 1000 71 10000 5.14 30 20:47 16.05.2022
2156 Clouds 24 1002 74 10000 4.12 20 19:43 16.05.2022
2157 Clouds 22 1003 80 10000 3.6 10 18:20 16.05.2022
2158 Clouds 19 1004 88 10000 2.57 180 15:50 16.05.2022
2159 Mist 17 1005 95 9656 2.57 180 13:56 16.05.2022
2160 Fog 16 1005 96 805 2.57 120 13:23 16.05.2022
2161 Fog 16 1005 95 402 3.09 110 11:25 16.05.2022
2162 Fog 17 1005 95 402 1.54 40 09:37 16.05.2022
2163 Mist 18 1007 94 4828 1.54 350 06:56 16.05.2022
2164 Clouds 19 1007 91 10000 4.12 50 03:58 16.05.2022
2165 Clouds 22 1007 76 10000 2.57 20 23:38 15.05.2022
2166 Clouds 23 1007 68 10000 2.57 330 22:30 15.05.2022
2167 Clouds 22 1007 77 10000 2.57 20 21:46 15.05.2022
2168 Clouds 21 1008 79 10000 3.6 0 20:54 15.05.2022
2169 Clouds 21 1009 79 10000 3.6 350 19:52 15.05.2022
2170 Clouds 19 1010 80 10000 1.54 50 17:52 15.05.2022
2171 Clouds 18 1010 81 10000 3.09 20 16:29 15.05.2022
2172 Clear 18 1010 76 10000 2.06 340 13:58 15.05.2022
2173 Clouds 18 1010 78 10000 1.54 350 12:57 15.05.2022
2174 Clouds 18 1010 78 10000 4.12 50 11:40 15.05.2022
2175 Clouds 19 1010 77 10000 2.57 30 10:29 15.05.2022
2176 Clouds 20 1011 79 10000 3.09 270 08:46 15.05.2022
2177 Clouds 21 1012 73 10000 1.54 190 06:58 15.05.2022
2178 Clouds 22 1012 71 10000 6.17 170 05:52 15.05.2022
2179 Clear 31 1011 30 10000 3.6 260 00:49 15.05.2022
2180 Clear 32 1011 30 10000 4.12 180 23:47 14.05.2022
2181 Clear 32 1011 33 10000 4.12 180 23:29 14.05.2022
2182 Clear 31 1013 39 10000 4.63 230 21:29 14.05.2022
2183 Clear 30 1014 43 10000 5.66 200 20:53 14.05.2022
2184 Haze 30 1014 48 8047 5.14 250 19:40 14.05.2022
2185 Clear 30 1014 51 10000 4.63 240 19:20 14.05.2022
2186 Clear 29 1015 54 10000 6.17 190 18:46 14.05.2022
2187 Clear 26 1016 60 10000 6.17 240 16:56 14.05.2022
2188 Clear 24 1017 63 10000 6.17 240 15:33 14.05.2022
2189 Clear 23 1017 65 10000 6.17 230 14:34 14.05.2022
2190 Clear 23 1017 65 10000 6.17 230 14:34 14.05.2022
2191 Clear 19 1017 74 10000 2.57 200 12:49 14.05.2022
2192 Clear 18 1017 75 10000 2.57 200 11:37 14.05.2022
2193 Clear 19 1017 70 10000 3.09 190 10:22 14.05.2022
2194 Clear 20 1017 70 10000 4.12 220 09:54 14.05.2022
2195 Clear 19 1017 69 10000 4.12 230 08:49 14.05.2022
2196 Clear 22 1018 62 10000 4.63 220 06:52 14.05.2022
2197 Clear 24 1017 50 10000 3.6 240 03:27 14.05.2022
2198 Clear 30 1017 34 10000 6.69 250 23:45 13.05.2022
2199 Haze 30 1017 35 8047 6.69 250 23:22 13.05.2022
2200 Clouds 30 1018 34 10000 8.75 240 22:51 13.05.2022
2201 Clear 31 1018 37 10000 8.75 240 22:19 13.05.2022
2202 Clear 30 1020 42 10000 7.72 220 20:56 13.05.2022
2203 Clear 30 1020 42 10000 7.72 220 20:28 13.05.2022
2204 Clear 29 1021 45 10000 7.72 240 19:40 13.05.2022
2205 Clear 29 1021 46 10000 7.2 240 18:41 13.05.2022
2206 Clear 28 1022 46 10000 8.23 250 17:29 13.05.2022
2207 Clear 26 1023 49 10000 6.69 210 16:23 13.05.2022
2208 Clear 25 1023 48 10000 5.14 180 15:43 13.05.2022
2209 Clear 20 1023 45 10000 3.6 200 13:57 13.05.2022
2210 Clear 17 1022 55 10000 3.6 160 12:33 13.05.2022
2211 Clear 16 1022 58 10000 2.06 180 11:29 13.05.2022
2212 Clear 18 1021 51 10000 2.06 210 09:43 13.05.2022
2213 Clear 18 1021 51 10000 2.06 210 09:43 13.05.2022
2214 Clear 18 1021 50 10000 3.09 190 08:51 13.05.2022
2215 Clear 20 1022 44 10000 3.6 190 07:49 13.05.2022
2216 Clear 19 1021 45 10000 3.6 130 06:44 13.05.2022
2217 Clear 21 1021 44 10000 1.03 0 04:48 13.05.2022
2218 Clear 30 1022 18 10000 3.09 180 00:42 13.05.2022
2219 Clear 31 1024 23 10000 4.12 200 22:47 12.05.2022
2220 Clear 31 1024 22 10000 3.09 180 21:59 12.05.2022
2221 Clear 30 1024 25 10000 2.57 160 20:38 12.05.2022
2222 Clear 28 1025 29 10000 2.06 120 19:24 12.05.2022
2223 Clear 26 1026 35 10000 3.09 0 17:59 12.05.2022
2224 Clear 23 1026 39 10000 1.54 130 16:34 12.05.2022
2225 Clear 19 1026 47 10000 3.6 50 14:51 12.05.2022
2226 Clear 17 1026 52 10000 3.09 50 13:47 12.05.2022
2227 Clear 14 1025 59 10000 2.06 360 11:25 12.05.2022
2228 Clear 16 1024 53 10000 0 0 09:37 12.05.2022
2229 Clear 16 1023 53 10000 2.06 150 08:52 12.05.2022
2230 Clear 17 1024 48 10000 1.54 150 07:57 12.05.2022
2231 Clouds 19 1024 43 10000 1.03 230 06:55 12.05.2022
2232 Clear 22 1024 29 10000 1.54 220 03:46 12.05.2022
2233 Clear 28 1023 16 10000 2.57 170 00:50 12.05.2022
2234 Clear 28 1024 20 10000 3.6 190 22:53 11.05.2022
2235 Clear 28 1025 23 10000 4.12 220 21:59 11.05.2022
2236 Clear 28 1025 23 10000 4.12 220 21:24 11.05.2022
2237 Clear 26 1026 28 10000 3.09 250 19:57 11.05.2022
2238 Clear 23 1028 30 10000 2.57 240 17:27 11.05.2022
2239 Clear 21 1027 37 10000 0.89 236 16:19 11.05.2022
2240 Clear 17 1028 44 10000 4.12 190 14:47 11.05.2022
2241 Clear 16 1028 46 10000 4.12 190 14:24 11.05.2022
2242 Clear 12 1027 56 10000 2.06 190 12:39 11.05.2022
2243 Clear 12 1027 58 10000 2.57 130 11:47 11.05.2022
2244 Clear 12 1026 56 10000 2.57 140 09:29 11.05.2022
2245 Clear 15 1026 46 10000 1.54 30 06:27 11.05.2022
2246 Clear 24 1026 20 10000 1.03 0 01:53 11.05.2022
2247 Clear 25 1027 22 10000 1.54 100 22:58 10.05.2022
2248 Clear 25 1027 23 10000 1.54 100 22:24 10.05.2022
2249 Clear 25 1028 22 10000 3.09 110 21:26 10.05.2022
2250 Clear 24 1029 24 10000 3.09 100 20:26 10.05.2022
2251 Clear 22 1030 24 10000 4.63 110 18:38 10.05.2022
2252 Clear 21 1031 25 10000 6.17 100 17:38 10.05.2022
2253 Clear 19 1032 21 10000 3.09 0 16:24 10.05.2022
2254 Clear 12 1031 47 10000 0 0 13:19 10.05.2022
2255 Clear 10 1030 50 10000 2.57 130 11:53 10.05.2022
2256 Clear 11 1030 50 10000 2.57 130 11:30 10.05.2022
2257 Clear 11 1029 47 10000 3.09 130 10:56 10.05.2022
2258 Clear 12 1028 44 10000 5.14 130 09:36 10.05.2022
2259 Clear 12 1027 46 10000 3.09 30 07:58 10.05.2022
2260 Clear 14 1027 39 10000 4.12 40 05:54 10.05.2022
2261 Clear 22 1027 20 10000 3.6 60 01:53 10.05.2022
2262 Clear 23 1026 19 10000 3.6 110 23:45 09.05.2022
2263 Clouds 23 1027 20 10000 1.54 40 22:35 09.05.2022
2264 Clear 23 1027 22 10000 5.14 60 21:38 09.05.2022
2265 Clear 21 1028 25 10000 4.63 20 19:56 09.05.2022
2266 Clear 20 1028 28 10000 4.12 60 18:25 09.05.2022
2267 Clear 18 1028 33 10000 4.63 30 17:25 09.05.2022
2268 Clear 15 1028 39 10000 3.09 360 16:19 09.05.2022
2269 Clear 14 1029 43 10000 4.63 20 15:47 09.05.2022
2270 Clear 11 1028 46 10000 4.63 20 14:36 09.05.2022
2271 Clear 9 1028 49 10000 4.63 20 13:57 09.05.2022
2272 Clear 8 1027 48 10000 4.63 20 13:21 09.05.2022
2273 Clear 6 1026 53 10000 5.14 20 11:53 09.05.2022
2274 Clear 7 1026 48 10000 5.66 20 10:48 09.05.2022
2275 Clear 7 1025 47 10000 5.66 20 10:23 09.05.2022
2276 Clear 9 1024 37 10000 4.12 350 07:57 09.05.2022
2277 Clear 11 1023 37 10000 3.6 30 04:52 09.05.2022
2278 Clear 19 1022 21 10000 5.66 10 00:30 09.05.2022
2279 Clear 18 1023 23 10000 5.66 30 23:28 08.05.2022
2280 Clear 18 1023 25 10000 4.63 50 22:29 08.05.2022
2281 Clear 18 1024 26 10000 3.6 50 20:54 08.05.2022
2282 Clear 17 1024 26 10000 3.6 50 20:23 08.05.2022
2283 Clear 16 1024 28 10000 2.57 20 19:33 08.05.2022
2284 Clear 16 1025 30 10000 4.63 80 18:35 08.05.2022
2285 Clear 14 1026 36 10000 5.14 30 17:36 08.05.2022
2286 Clear 11 1026 44 10000 5.14 20 15:46 08.05.2022
2287 Clear 10 1026 44 10000 5.14 20 15:22 08.05.2022
2288 Clear 4 1024 58 10000 4.63 360 12:46 08.05.2022
2289 Clear 5 1022 55 10000 5.66 20 10:59 08.05.2022
2290 Clear 5 1022 53 10000 5.66 20 10:22 08.05.2022
2291 Clear 5 1022 52 10000 5.14 30 09:51 08.05.2022
2292 Clear 7 1021 38 10000 5.66 40 07:44 08.05.2022
2293 Clear 9 1020 28 10000 4.12 40 05:57 08.05.2022
2294 Clouds 11 1020 29 10000 5.14 30 03:22 08.05.2022
2295 Clear 14 1019 28 10000 7.2 30 00:48 08.05.2022
2296 Clear 15 1019 29 10000 8.23 30 23:56 07.05.2022
2297 Clear 15 1019 30 10000 8.23 30 23:28 07.05.2022
2298 Clear 15 1018 31 10000 9.26 20 22:35 07.05.2022
2299 Clear 14 1019 32 10000 7.2 50 21:55 07.05.2022
2300 Clear 14 1019 32 10000 7.2 50 21:20 07.05.2022
2301 Clear 13 1019 33 10000 7.72 30 20:23 07.05.2022
2302 Clear 12 1020 35 10000 7.2 90 18:41 07.05.2022
2303 Clear 9 1020 41 10000 7.2 50 16:24 07.05.2022
2304 Clear 7 1020 49 10000 6.69 60 14:51 07.05.2022
2305 Clouds 4 1018 58 10000 6.17 30 11:23 07.05.2022
2306 Clear 5 1018 52 10000 5.66 30 09:42 07.05.2022
2307 Clear 6 1018 48 10000 8.75 20 08:30 07.05.2022
2308 Clouds 7 1018 46 10000 9.26 30 06:44 07.05.2022
2309 Clouds 8 1018 45 10000 9.26 30 06:24 07.05.2022
2310 Clear 10 1016 40 10000 6.17 50 03:54 07.05.2022
2311 Clear 15 1015 30 10000 4.12 160 23:44 06.05.2022
2312 Clear 15 1015 30 10000 4.63 10 22:35 06.05.2022
2313 Clear 14 1016 30 10000 3.6 30 21:52 06.05.2022
2314 Clear 14 1016 30 10000 3.6 30 21:24 06.05.2022
2315 Clear 13 1017 31 10000 5.66 350 19:43 06.05.2022
2316 Clear 12 1017 31 10000 5.66 350 19:21 06.05.2022
2317 Clear 11 1018 35 10000 4.63 340 18:29 06.05.2022
2318 Clear 11 1018 38 10000 4.63 10 17:34 06.05.2022
2319 Clouds 9 1019 42 10000 5.14 20 15:51 06.05.2022
2320 Clouds 9 1019 44 10000 5.14 20 15:18 06.05.2022
2321 Clouds 8 1018 43 10000 5.14 20 13:45 06.05.2022
2322 Clouds 8 1018 43 10000 4.63 20 12:47 06.05.2022
2323 Clouds 8 1017 45 10000 2.06 20 11:58 06.05.2022
2324 Clouds 9 1017 44 10000 2.57 10 10:41 06.05.2022
2325 Clouds 9 1017 45 10000 3.09 30 09:47 06.05.2022
2326 Clouds 8 1017 45 10000 3.6 40 08:59 06.05.2022
2327 Clear 9 1017 47 10000 2.06 10 07:40 06.05.2022
2328 Clear 10 1017 44 10000 2.06 340 06:25 06.05.2022
2329 Clear 15 1017 27 10000 4.12 320 02:54 06.05.2022
2330 Clear 16 1017 24 10000 5.66 310 01:57 06.05.2022
2331 Smoke 17 1017 32 10000 6.17 230 22:48 05.05.2022
2332 Smoke 16 1018 35 10000 7.2 250 21:46 05.05.2022
2333 Clear 15 1020 41 10000 8.75 250 20:34 05.05.2022
2334 Clear 12 1022 45 10000 6.17 190 18:43 05.05.2022
2335 Clear 9 1022 47 10000 2.06 0 16:40 05.05.2022
2336 Clear 7 1023 53 10000 3.6 360 14:59 05.05.2022
2337 Clear 5 1022 57 10000 5.14 360 13:29 05.05.2022
2338 Clear 5 1022 62 10000 4.12 20 12:55 05.05.2022
2339 Clear 6 1021 65 10000 5.14 360 10:59 05.05.2022
2340 Clear 7 1020 63 10000 4.12 360 09:40 05.05.2022
2341 Clear 8 1020 62 10000 3.6 360 08:30 05.05.2022
2342 Clouds 11 1019 58 10000 5.66 360 06:23 05.05.2022
2343 Clouds 14 1016 78 10000 2.57 220 02:20 05.05.2022
2344 Clear 16 1015 67 10000 1.54 210 01:37 05.05.2022
2345 Clouds 16 1015 69 10000 2.57 40 23:57 04.05.2022
2346 Clouds 15 1015 74 10000 2.57 100 22:54 04.05.2022
2347 Clouds 14 1015 79 10000 4.63 30 21:59 04.05.2022
2348 Clouds 14 1015 78 10000 4.63 30 21:30 04.05.2022
2349 Clouds 14 1015 79 10000 5.14 20 20:42 04.05.2022
2350 Clouds 14 1015 85 10000 5.66 30 19:59 04.05.2022
2351 Clouds 13 1015 89 10000 6.69 40 19:35 04.05.2022
2352 Clouds 12 1015 92 10000 6.69 30 18:23 04.05.2022
2353 Clouds 12 1015 93 10000 6.17 30 17:59 04.05.2022
2354 Mist 11 1014 92 4828 4.63 20 16:36 04.05.2022
2355 Mist 11 1014 92 6437 2.06 70 15:32 04.05.2022
2356 Mist 11 1014 93 4828 4.12 140 14:38 04.05.2022
2357 Mist 11 1014 93 8047 2.57 130 14:19 04.05.2022
2358 Mist 11 1014 92 6437 2.57 100 12:36 04.05.2022
2359 Rain 11 1014 92 10000 3.09 160 11:28 04.05.2022
2360 Rain 11 1014 91 10000 6.17 170 09:57 04.05.2022
2361 Clouds 11 1014 91 10000 6.17 170 09:20 04.05.2022
2362 Clouds 12 1016 92 10000 6.17 180 07:33 04.05.2022
2363 Clouds 16 1015 65 10000 4.12 140 04:45 04.05.2022
2364 Clouds 17 1016 59 10000 3.09 180 02:33 04.05.2022
2365 Clouds 18 1017 55 10000 5.66 150 22:59 03.05.2022
2366 Clouds 18 1018 55 10000 5.66 180 21:53 03.05.2022
2367 Clouds 18 1018 55 10000 5.66 180 21:31 03.05.2022
2368 Clouds 17 1019 58 10000 4.63 170 20:46 03.05.2022
2369 Clouds 17 1019 59 10000 3.09 150 19:33 03.05.2022
2370 Clouds 17 1020 57 10000 3.6 230 18:47 03.05.2022
2371 Clouds 15 1021 65 10000 5.14 210 17:22 03.05.2022
2372 Clouds 14 1020 74 10000 3.6 230 15:57 03.05.2022
2373 Clouds 11 1020 83 10000 3.6 190 14:24 03.05.2022
2374 Clouds 10 1019 87 10000 4.12 170 12:35 03.05.2022
2375 Clouds 11 1019 86 10000 3.6 170 11:39 03.05.2022
2376 Clouds 11 1019 86 10000 3.6 170 10:44 03.05.2022
2377 Mist 11 1019 85 3219 4.63 170 08:19 03.05.2022
2378 Clouds 11 1018 79 10000 4.63 180 06:45 03.05.2022
2379 Clouds 12 1018 68 10000 5.14 140 02:39 03.05.2022
2380 Clouds 14 1017 66 10000 7.72 150 23:32 02.05.2022
2381 Clouds 15 1016 56 10000 8.23 160 22:29 02.05.2022
2382 Clouds 15 1016 55 10000 6.17 150 21:47 02.05.2022
2383 Clouds 17 1016 45 10000 8.23 160 19:30 02.05.2022
2384 Clouds 18 1016 45 10000 9.26 140 18:26 02.05.2022
2385 Clouds 17 1017 46 10000 4.63 110 17:41 02.05.2022
2386 Clouds 17 1017 46 10000 4.63 110 17:41 02.05.2022
2387 Clear 15 1017 52 10000 5.14 40 16:43 02.05.2022
2388 Clear 13 1017 59 10000 5.14 40 15:44 02.05.2022
2389 Clear 11 1017 63 10000 5.66 40 14:51 02.05.2022
2390 Clear 9 1017 69 10000 5.14 20 13:42 02.05.2022
2391 Clear 7 1017 75 10000 6.17 20 11:41 02.05.2022
2392 Clear 8 1017 70 10000 6.69 30 09:59 02.05.2022
2393 Clear 9 1017 65 10000 7.2 30 08:31 02.05.2022
2394 Clear 10 1018 59 10000 7.2 50 06:56 02.05.2022
2395 Clear 19 1017 28 10000 1.03 360 00:47 02.05.2022
2396 Clear 19 1017 28 10000 1.03 360 00:22 02.05.2022
2397 Clouds 19 1018 25 10000 2.57 0 23:40 01.05.2022
2398 Clear 19 1018 34 10000 3.6 0 21:45 01.05.2022
2399 Clear 18 1019 35 10000 5.66 0 20:50 01.05.2022
2400 Clear 17 1019 33 10000 4.12 0 19:27 01.05.2022
2401 Clear 16 1020 34 10000 2.57 90 18:53 01.05.2022
2402 Clear 15 1021 37 10000 2.06 0 17:51 01.05.2022
2403 Clear 13 1021 41 10000 1.03 40 16:42 01.05.2022
2404 Clear 13 1021 39 10000 1.03 40 16:18 01.05.2022
2405 Clear 11 1022 46 10000 3.09 40 14:54 01.05.2022
2406 Clear 6 1021 60 10000 2.06 350 12:52 01.05.2022
2407 Clear 5 1020 62 10000 1.54 20 10:45 01.05.2022
2408 Clear 6 1020 56 10000 2.06 360 08:50 01.05.2022
2409 Clear 8 1020 53 10000 2.06 20 06:51 01.05.2022
2410 Clear 13 1019 37 10000 2.06 30 02:46 01.05.2022
2411 Clear 15 1020 34 10000 5.66 320 22:51 30.04.2022
2412 Clear 14 1020 34 10000 4.63 0 21:34 30.04.2022
2413 Clear 14 1021 36 10000 3.6 350 20:24 30.04.2022
2414 Clear 12 1021 38 10000 4.63 10 19:31 30.04.2022
2415 Clear 11 1022 36 10000 6.17 20 17:37 30.04.2022
2416 Clear 9 1022 39 10000 4.63 360 16:30 30.04.2022
2417 Clear 8 1022 42 10000 4.63 360 15:19 30.04.2022
2418 Clear 7 1022 43 10000 6.17 30 14:31 30.04.2022
2419 Clear 4 1021 51 10000 3.6 10 12:28 30.04.2022
2420 Clear 4 1021 48 10000 4.63 350 11:32 30.04.2022
2421 Clouds 5 1021 47 10000 6.17 340 10:30 30.04.2022
2422 Clouds 5 1020 45 10000 4.63 330 08:34 30.04.2022
2423 Clouds 8 1021 40 10000 3.09 360 05:19 30.04.2022
2424 Clouds 12 1019 23 10000 7.2 20 00:35 30.04.2022
2425 Clouds 13 1019 22 10000 9.26 10 23:29 29.04.2022
2426 Clouds 13 1018 18 10000 8.23 10 22:29 29.04.2022
2427 Clear 13 1018 18 10000 8.23 350 21:26 29.04.2022
2428 Clouds 13 1019 18 10000 9.26 320 20:38 29.04.2022
2429 Clear 12 1019 20 10000 7.72 350 19:36 29.04.2022
2430 Clear 9 1020 26 10000 7.72 330 17:48 29.04.2022
2431 Clear 8 1020 29 10000 8.23 350 16:56 29.04.2022
2432 Clear 4 1021 37 10000 8.75 330 14:50 29.04.2022
2433 Clear 3 1021 37 10000 8.75 330 14:19 29.04.2022
2434 Clear 1 1020 44 10000 5.14 310 12:43 29.04.2022
2435 Clear 1 1019 42 10000 6.17 330 10:58 29.04.2022
2436 Clear 3 1019 39 10000 6.17 340 08:18 29.04.2022
2437 Clear 3 1019 36 10000 7.72 340 07:27 29.04.2022
2438 Clear 4 1019 34 10000 6.69 340 06:37 29.04.2022
2439 Clear 6 1019 31 10000 6.69 340 03:34 29.04.2022
2440 Clear 10 1017 25 10000 9.26 340 00:18 29.04.2022
2441 Clear 10 1016 25 10000 7.72 340 23:26 28.04.2022
2442 Clear 10 1016 26 10000 10.8 330 22:41 28.04.2022
2443 Clear 10 1016 26 10000 8.75 330 21:46 28.04.2022
2444 Clear 10 1016 28 10000 7.72 330 20:55 28.04.2022
2445 Clear 9 1016 28 10000 7.72 330 20:22 28.04.2022
2446 Clear 9 1017 30 10000 8.75 310 19:41 28.04.2022
2447 Clear 9 1017 30 10000 7.2 360 19:21 28.04.2022
2448 Clear 7 1018 32 10000 7.72 330 18:35 28.04.2022
2449 Clear 5 1018 38 10000 6.69 320 16:59 28.04.2022
2450 Clear 4 1018 39 10000 6.69 320 16:22 28.04.2022
2451 Clouds 4 1018 41 10000 8.23 330 15:57 28.04.2022
2452 Clouds 3 1018 40 10000 8.23 330 15:27 28.04.2022
2453 Clouds 2 1017 49 10000 9.26 330 13:44 28.04.2022
2454 Clouds 2 1016 50 10000 8.75 330 12:42 28.04.2022
2455 Clouds 2 1015 56 10000 6.69 330 11:53 28.04.2022
2456 Clouds 2 1015 63 10000 6.17 320 10:44 28.04.2022
2457 Clouds 2 1015 66 10000 6.17 330 09:52 28.04.2022
2458 Clouds 2 1015 70 10000 5.14 300 08:30 28.04.2022
2459 Clouds 3 1015 67 10000 6.69 320 06:58 28.04.2022
2460 Clouds 3 1015 64 10000 5.66 330 05:55 28.04.2022
2461 Clouds 3 1015 64 10000 5.66 330 05:37 28.04.2022
2462 Clouds 3 1015 63 10000 7.2 340 04:38 28.04.2022
2463 Clouds 4 1012 85 10000 8.23 270 00:22 28.04.2022
2464 Rain 3 1012 91 10000 8.23 280 22:38 27.04.2022
2465 Rain 4 1011 91 10000 8.23 280 21:54 27.04.2022
2466 Rain 4 1011 89 10000 8.23 280 20:59 27.04.2022
2467 Rain 4 1010 89 10000 8.23 280 20:37 27.04.2022
2468 Rain 5 1010 90 10000 6.17 290 19:37 27.04.2022
2469 Rain 5 1009 91 10000 7.72 340 18:56 27.04.2022
2470 Rain 5 1009 91 10000 7.72 340 18:22 27.04.2022
2471 Rain 6 1010 92 10000 8.23 230 16:29 27.04.2022
2472 Rain 7 1010 90 10000 8.23 240 14:33 27.04.2022
2473 Clouds 8 1010 81 10000 5.66 240 12:23 27.04.2022
2474 Clouds 8 1010 81 10000 5.66 240 11:20 27.04.2022
2475 Clouds 9 1011 73 10000 5.66 250 09:20 27.04.2022
2476 Clouds 10 1012 73 10000 3.09 260 07:18 27.04.2022
2477 Clouds 11 1013 70 10000 5.14 250 04:30 27.04.2022
2478 Clouds 13 1013 65 10000 5.14 230 01:32 27.04.2022
2479 Clouds 14 1014 64 10000 6.17 230 00:37 27.04.2022
2480 Clouds 14 1014 64 10000 6.69 230 23:39 26.04.2022
2481 Clouds 14 1014 65 10000 6.69 230 23:18 26.04.2022
2482 Clouds 14 1014 68 10000 6.69 230 22:39 26.04.2022
2483 Clouds 15 1015 68 10000 6.69 220 21:35 26.04.2022
2484 Clouds 15 1015 66 10000 7.2 220 20:52 26.04.2022
2485 Clouds 15 1015 65 10000 7.2 220 20:30 26.04.2022
2486 Clouds 15 1015 65 10000 6.69 240 19:32 26.04.2022
2487 Clouds 15 1016 67 10000 6.17 220 18:45 26.04.2022
2488 Clouds 14 1016 70 10000 6.69 240 17:59 26.04.2022
2489 Clouds 13 1016 74 10000 7.72 240 16:58 26.04.2022
2490 Clouds 12 1016 84 10000 8.23 240 14:27 26.04.2022
2491 Clouds 11 1015 88 10000 6.69 240 13:33 26.04.2022
2492 Clouds 11 1014 89 10000 9.77 260 11:55 26.04.2022
2493 Clouds 11 1013 86 10000 6.17 180 10:37 26.04.2022
2494 Rain 12 1013 77 10000 5.14 190 09:25 26.04.2022
2495 Clouds 15 1012 50 10000 9.26 190 07:38 26.04.2022
2496 Clouds 17 1012 44 10000 10.8 150 04:33 26.04.2022
2497 Clouds 18 1014 49 10000 8.23 170 01:25 26.04.2022
2498 Rain 18 1014 47 10000 7.2 170 00:26 26.04.2022
2499 Clouds 19 1015 40 10000 13.89 170 22:36 25.04.2022
2500 Clouds 19 1016 40 10000 8.75 170 21:40 25.04.2022
2501 Clouds 18 1017 40 10000 8.23 170 20:40 25.04.2022
2502 Clouds 16 1018 41 10000 8.75 170 18:58 25.04.2022
2503 Clouds 16 1018 37 10000 10.29 170 17:54 25.04.2022
2504 Clouds 16 1018 38 10000 10.8 170 16:59 25.04.2022
2505 Clouds 14 1019 44 10000 10.29 150 15:29 25.04.2022
2506 Clouds 12 1019 52 10000 8.23 150 14:42 25.04.2022
2507 Clear 10 1018 59 10000 4.12 120 13:33 25.04.2022
2508 Clear 6 1018 64 10000 5.14 30 11:43 25.04.2022
2509 Clear 6 1018 65 10000 6.17 30 10:26 25.04.2022
2510 Clear 6 1020 65 10000 5.66 40 08:46 25.04.2022
2511 Clear 7 1020 61 10000 6.69 40 06:45 25.04.2022
2512 Clear 8 1021 56 10000 7.2 50 04:27 25.04.2022
2513 Clouds 12 1022 38 10000 5.14 60 00:57 25.04.2022
2514 Clouds 13 1022 32 10000 6.69 60 23:51 24.04.2022
2515 Clouds 13 1023 32 10000 6.17 60 22:45 24.04.2022
2516 Clouds 12 1023 32 10000 6.17 60 22:26 24.04.2022
2517 Clouds 12 1024 34 10000 5.66 70 21:26 24.04.2022
2518 Clouds 11 1025 33 10000 5.66 60 20:54 24.04.2022
2519 Clouds 11 1025 33 10000 5.66 60 20:35 24.04.2022
2520 Clouds 11 1025 34 10000 5.66 60 19:46 24.04.2022
2521 Clear 10 1026 35 10000 7.72 70 18:20 24.04.2022
2522 Clouds 8 1026 42 10000 6.17 50 17:28 24.04.2022
2523 Clouds 7 1027 46 10000 6.69 50 16:59 24.04.2022
2524 Clouds 6 1027 47 10000 6.69 50 16:32 24.04.2022
2525 Clouds 5 1027 48 10000 6.69 50 15:54 24.04.2022
2526 Clouds 4 1027 50 10000 6.69 50 15:29 24.04.2022
2527 Clouds 4 1027 50 10000 5.66 40 13:57 24.04.2022
2528 Clouds 3 1027 50 10000 5.66 40 13:25 24.04.2022
2529 Clouds 3 1027 52 10000 6.17 40 12:30 24.04.2022
2530 Clouds 3 1027 49 10000 7.2 60 11:28 24.04.2022
2531 Clouds 4 1027 45 10000 6.69 50 10:25 24.04.2022
2532 Clouds 5 1027 40 10000 6.17 40 09:23 24.04.2022
2533 Clouds 5 1027 53 10000 1.54 100 06:34 24.04.2022
2534 Clear 7 1027 44 10000 2.06 100 03:43 24.04.2022
2535 Clouds 9 1027 35 10000 2.57 0 01:38 24.04.2022
2536 Clear 10 1027 32 10000 2.06 190 00:24 24.04.2022
2537 Clouds 10 1027 31 10000 3.09 270 23:44 23.04.2022
2538 Clouds 10 1027 32 10000 3.09 270 23:21 23.04.2022
2539 Clear 10 1028 31 10000 2.06 240 21:51 23.04.2022
2540 Clear 10 1028 31 10000 2.06 240 21:32 23.04.2022
2541 Clear 9 1029 33 10000 2.57 0 20:36 23.04.2022
2542 Clear 8 1030 35 10000 3.6 0 19:46 23.04.2022
2543 Clear 7 1030 37 10000 3.6 0 19:19 23.04.2022
2544 Clear 7 1030 34 10000 2.57 350 18:49 23.04.2022
2545 Clear 6 1031 36 10000 3.6 30 17:50 23.04.2022
2546 Clear 6 1032 39 10000 3.6 40 16:56 23.04.2022
2547 Clear 5 1032 40 10000 3.6 40 16:23 23.04.2022
2548 Clear 4 1032 44 10000 3.09 30 14:57 23.04.2022
2549 Clear 1 1032 61 10000 1.54 360 12:35 23.04.2022
2550 Clear 2 1031 56 10000 3.6 30 10:41 23.04.2022
2551 Clear 2 1031 59 10000 4.12 20 09:30 23.04.2022
2552 Clear 5 1031 56 10000 3.09 340 06:29 23.04.2022
2553 Clear 7 1030 48 10000 3.6 320 03:54 23.04.2022
2554 Clear 11 1029 37 10000 7.2 310 00:53 23.04.2022
2555 Clouds 12 1029 38 10000 8.23 320 23:29 22.04.2022
2556 Clouds 12 1028 40 10000 6.17 330 22:20 22.04.2022
2557 Clouds 12 1028 42 10000 7.72 330 21:42 22.04.2022
2558 Clouds 12 1028 44 10000 9.77 320 20:46 22.04.2022
2559 Clouds 11 1028 45 10000 9.77 320 20:26 22.04.2022
2560 Clouds 11 1028 50 10000 9.77 290 19:18 22.04.2022
2561 Clouds 10 1029 54 10000 10.29 300 18:36 22.04.2022
2562 Clear 10 1028 56 10000 8.23 290 17:39 22.04.2022
2563 Clouds 10 1028 60 10000 7.72 290 16:46 22.04.2022
2564 Clouds 8 1027 68 10000 6.69 290 15:32 22.04.2022
2565 Clouds 7 1026 75 10000 6.69 280 14:44 22.04.2022
2566 Clouds 7 1025 79 10000 6.69 280 13:49 22.04.2022
2567 Clouds 7 1023 80 10000 5.14 290 12:57 22.04.2022
2568 Clouds 7 1022 81 10000 6.17 270 11:48 22.04.2022
2569 Clouds 7 1022 80 10000 6.17 270 11:21 22.04.2022
2570 Clouds 8 1021 79 10000 6.69 270 10:48 22.04.2022
2571 Clouds 8 1021 78 10000 6.69 270 10:29 22.04.2022
2572 Clouds 8 1020 79 10000 6.17 250 09:50 22.04.2022
2573 Clouds 8 1020 81 10000 6.69 240 08:50 22.04.2022
2574 Clouds 9 1019 81 10000 6.69 260 06:56 22.04.2022
2575 Clouds 10 1017 89 10000 6.17 210 02:45 22.04.2022
2576 Clouds 9 1017 83 10000 8.75 210 00:51 22.04.2022
2577 Rain 10 1018 77 10000 8.23 190 22:59 21.04.2022
2578 Rain 10 1018 73 10000 8.23 190 22:27 21.04.2022
2579 Clouds 11 1019 50 10000 12.35 170 20:36 21.04.2022
2580 Clouds 11 1019 50 10000 12.35 170 20:36 21.04.2022
2581 Clouds 11 1019 50 10000 12.35 170 20:18 21.04.2022
2582 Clear 10 1022 49 10000 11.32 150 18:35 21.04.2022
2583 Clouds 11 1023 49 10000 9.77 170 17:54 21.04.2022
2584 Clouds 9 1024 52 10000 9.77 160 16:35 21.04.2022
2585 Clouds 7 1027 61 10000 7.72 140 15:21 21.04.2022
2586 Clouds 5 1028 65 10000 6.17 130 14:47 21.04.2022
2587 Clouds 3 1029 71 10000 6.69 130 13:23 21.04.2022
2588 Clear 2 1029 75 10000 5.14 100 12:53 21.04.2022
2589 Clear 1 1030 74 10000 4.12 110 10:47 21.04.2022
2590 Clear 2 1031 69 10000 4.12 110 08:55 21.04.2022
2591 Clear 3 1031 67 10000 4.63 100 07:24 21.04.2022
2592 Clear 2 1031 69 10000 2.57 100 05:42 21.04.2022
2593 Clear 4 1030 58 10000 2.06 360 03:30 21.04.2022
2594 Clear 6 1030 52 10000 2.57 330 02:47 21.04.2022
2595 Clouds 8 1028 43 10000 6.69 280 00:45 21.04.2022
2596 Clouds 8 1027 44 10000 7.2 250 23:50 20.04.2022
2597 Clouds 8 1027 44 10000 7.2 250 23:22 20.04.2022
2598 Clouds 8 1026 45 10000 5.66 290 22:49 20.04.2022
2599 Clouds 8 1026 45 10000 5.66 290 22:30 20.04.2022
2600 Clouds 7 1026 48 10000 8.23 270 21:27 20.04.2022
2601 Clouds 7 1025 50 10000 9.26 260 20:24 20.04.2022
2602 Clouds 6 1024 53 10000 10.29 260 19:52 20.04.2022
2603 Clouds 6 1024 55 10000 10.29 260 19:20 20.04.2022
2604 Clouds 5 1023 58 10000 8.23 280 18:22 20.04.2022
2605 Clouds 3 1021 63 10000 11.32 270 16:54 20.04.2022
2606 Clouds 3 1021 64 10000 11.32 270 16:36 20.04.2022
2607 Clouds 2 1016 72 10000 11.83 270 13:59 20.04.2022
2608 Clouds 2 1012 79 10000 11.83 270 11:52 20.04.2022
2609 Clouds 2 1011 80 10000 11.83 270 11:24 20.04.2022
2610 Clouds 3 1009 80 10000 11.83 270 10:22 20.04.2022
2611 Clouds 3 1007 83 10000 9.77 260 09:25 20.04.2022
2612 Clouds 4 1006 84 10000 9.77 260 08:22 20.04.2022
2613 Clouds 4 1004 88 10000 9.26 250 07:37 20.04.2022
2614 Clouds 3 1002 93 10000 6.69 210 03:49 20.04.2022
2615 Clouds 4 999 85 10000 9.26 230 00:23 20.04.2022
2616 Clouds 4 999 86 10000 9.77 240 23:56 19.04.2022
2617 Clouds 3 998 90 10000 8.75 240 22:28 19.04.2022
2618 Rain 3 998 94 10000 7.72 250 21:57 19.04.2022
2619 Clouds 2 998 93 10000 7.2 250 21:33 19.04.2022
2620 Rain 2 997 93 10000 4.63 230 20:48 19.04.2022
2621 Rain 2 997 92 10000 2.57 360 20:26 19.04.2022
2622 Mist 2 997 93 9656 6.69 20 19:24 19.04.2022
2623 Rain 1 999 94 4828 9.26 20 17:51 19.04.2022
2624 Snow 1 1002 94 2012 10.8 30 16:43 19.04.2022
2625 Snow 1 1002 94 2012 10.29 30 16:24 19.04.2022
2626 Snow 1 1007 95 2012 10.29 40 14:51 19.04.2022
2627 Snow 1 1007 94 2414 9.26 50 14:30 19.04.2022
2628 Snow 0 1010 95 604 9.26 60 12:51 19.04.2022
2629 Snow 0 1012 94 1207 6.17 70 12:26 19.04.2022
2630 Rain 2 1014 91 10000 6.17 100 10:50 19.04.2022
2631 Rain 4 1016 88 9656 7.2 120 09:25 19.04.2022
2632 Clouds 6 1019 81 9656 7.2 150 06:30 19.04.2022
2633 Clouds 8 1018 60 10000 5.14 40 04:19 19.04.2022
2634 Clear 10 1021 50 10000 6.17 50 00:56 19.04.2022
2635 Clear 10 1022 47 10000 7.72 40 23:38 18.04.2022
2636 Clear 10 1025 43 10000 3.6 90 21:39 18.04.2022
2637 Clear 10 1025 42 10000 3.6 90 21:20 18.04.2022
2638 Clear 10 1026 45 10000 3.6 110 20:36 18.04.2022
2639 Clear 8 1026 48 10000 1.54 0 19:57 18.04.2022
2640 Clear 8 1026 49 10000 1.54 0 19:27 18.04.2022
2641 Clear 8 1026 49 10000 2.57 100 18:33 18.04.2022
2642 Clear 6 1027 52 10000 3.6 70 17:38 18.04.2022
2643 Clear 6 1027 53 10000 3.6 70 17:18 18.04.2022
2644 Clear 5 1029 55 10000 4.12 60 16:35 18.04.2022
2645 Clear 5 1029 55 10000 4.12 60 16:35 18.04.2022
2646 Clear 4 1030 57 10000 3.6 60 15:27 18.04.2022
2647 Clear 1 1029 66 10000 3.09 40 13:42 18.04.2022
2648 Clear 1 1029 66 10000 3.09 40 13:42 18.04.2022
2649 Clear -1 1028 73 10000 1.54 350 12:40 18.04.2022
2650 Clear -1 1028 72 10000 2.06 330 11:43 18.04.2022
2651 Clear -1 1027 70 10000 1.54 40 10:43 18.04.2022
2652 Clear 1 1027 65 10000 4.63 10 09:31 18.04.2022
2653 Clear 1 1026 63 10000 3.09 340 08:29 18.04.2022
2654 Clear 3 1025 59 10000 3.6 330 05:58 18.04.2022
2655 Clouds 7 1021 54 10000 6.69 320 01:38 18.04.2022
2656 Clouds 7 1019 52 10000 8.23 320 22:53 17.04.2022
2657 Clouds 7 1019 52 10000 8.75 310 22:31 17.04.2022
2658 Clouds 6 1018 53 10000 8.75 300 21:32 17.04.2022
2659 Clouds 6 1018 53 10000 8.23 310 20:50 17.04.2022
2660 Clouds 6 1017 53 10000 8.75 310 19:53 17.04.2022
2661 Clouds 6 1017 56 10000 9.26 270 18:34 17.04.2022
2662 Clouds 5 1017 59 10000 6.17 290 16:44 17.04.2022
2663 Clouds 4 1016 59 10000 5.66 280 15:33 17.04.2022
2664 Clouds 3 1016 60 10000 4.12 300 14:38 17.04.2022
2665 Clouds 1 1015 65 10000 4.12 280 13:23 17.04.2022
2666 Clouds 0 1014 64 10000 3.09 300 12:30 17.04.2022
2667 Clear 0 1013 61 10000 3.09 300 10:48 17.04.2022
2668 Clear 1 1013 59 10000 3.09 300 10:29 17.04.2022
2669 Clear 1 1013 56 10000 3.6 310 09:50 17.04.2022
2670 Clear 1 1013 57 10000 3.6 310 09:18 17.04.2022
2671 Clouds 2 1013 55 10000 2.57 310 08:29 17.04.2022
2672 Clouds 4 1013 50 10000 4.12 340 05:33 17.04.2022
2673 Clouds 6 1011 44 10000 5.14 300 01:47 17.04.2022
2674 Clouds 8 1011 43 10000 5.66 260 23:59 16.04.2022
2675 Clouds 8 1011 44 10000 5.66 260 23:19 16.04.2022
2676 Clouds 8 1011 47 10000 6.69 250 21:45 16.04.2022
2677 Clouds 8 1011 48 10000 9.26 260 20:54 16.04.2022
2678 Clouds 8 1012 49 10000 10.8 230 19:21 16.04.2022
2679 Clouds 7 1012 52 10000 9.77 220 18:43 16.04.2022
2680 Clouds 5 1013 66 10000 7.72 230 16:51 16.04.2022
2681 Clouds 4 1013 74 10000 8.23 230 15:49 16.04.2022
2682 Clouds 4 1013 82 10000 7.2 230 14:58 16.04.2022
2683 Clouds 3 1013 85 10000 7.2 230 14:37 16.04.2022
2684 Clouds 3 1012 88 10000 6.17 240 13:49 16.04.2022
2685 Clouds 2 1011 91 10000 6.69 240 12:43 16.04.2022
2686 Clouds 2 1011 92 10000 6.69 230 11:33 16.04.2022
2687 Mist 2 1011 91 9656 6.69 250 10:29 16.04.2022
2688 Rain 3 1010 89 8047 7.2 260 09:37 16.04.2022
2689 Rain 5 1009 88 8047 7.72 250 08:51 16.04.2022
2690 Rain 7 1009 85 4828 7.72 250 07:21 16.04.2022
2691 Mist 8 1008 85 9656 9.77 220 04:58 16.04.2022
2692 Clouds 11 1007 60 10000 16.98 220 01:23 16.04.2022
2693 Clouds 15 1007 41 10000 16.98 230 23:52 15.04.2022
2694 Clouds 14 1009 41 10000 8.75 230 22:48 15.04.2022
2695 Clouds 15 1009 41 10000 8.75 230 22:28 15.04.2022
2696 Clouds 14 1010 40 10000 13.89 220 21:21 15.04.2022
2697 Clouds 15 1011 32 10000 12.35 220 20:38 15.04.2022
2698 Clouds 15 1012 34 10000 9.77 220 19:44 15.04.2022
2699 Clouds 14 1013 36 10000 9.26 210 18:59 15.04.2022
2700 Clouds 14 1013 36 10000 9.26 210 18:41 15.04.2022
2701 Clouds 14 1013 37 10000 9.26 210 18:21 15.04.2022
2702 Clear 12 1013 42 10000 7.2 200 17:26 15.04.2022
2703 Clear 11 1014 55 10000 5.66 220 16:25 15.04.2022
2704 Clouds 10 1015 59 10000 5.66 210 15:45 15.04.2022
2705 Clouds 6 1015 73 10000 3.09 210 13:55 15.04.2022
2706 Clear 4 1014 78 10000 2.06 200 12:52 15.04.2022
2707 Clear 4 1014 78 10000 2.06 200 12:26 15.04.2022
2708 Clear 4 1014 82 10000 1.03 150 11:51 15.04.2022
2709 Clear 5 1013 77 10000 2.57 190 10:46 15.04.2022
2710 Clear 5 1013 76 10000 2.57 190 10:20 15.04.2022
2711 Clouds 6 1013 77 10000 4.63 220 09:22 15.04.2022
2712 Clouds 7 1013 76 10000 3.6 230 08:40 15.04.2022
2713 Clear 8 1013 77 10000 4.12 230 06:50 15.04.2022
2714 Clouds 9 1012 85 10000 6.17 230 04:49 15.04.2022
2715 Rain 10 1007 93 4828 1.03 230 00:51 15.04.2022
2716 Mist 10 1006 92 2816 3.09 350 23:28 14.04.2022
2717 Clouds 11 1005 89 10000 4.63 360 22:46 14.04.2022
2718 Clouds 11 1004 90 10000 4.12 10 22:27 14.04.2022
2719 Clouds 11 1004 90 10000 5.14 20 21:50 14.04.2022
2720 Clouds 10 1004 94 10000 5.14 30 19:51 14.04.2022
2721 Clouds 10 1004 94 10000 5.14 30 19:22 14.04.2022
2722 Mist 9 1005 96 10000 5.66 30 17:46 14.04.2022
2723 Clouds 9 1005 95 10000 5.66 30 17:18 14.04.2022
2724 Rain 8 1005 94 10000 6.17 50 16:21 14.04.2022
2725 Clouds 6 1006 95 10000 5.66 30 13:54 14.04.2022
2726 Clouds 6 1006 95 10000 7.2 50 13:25 14.04.2022
2727 Clouds 6 1007 97 10000 7.2 40 12:33 14.04.2022
2728 Mist 6 1007 96 8047 5.66 40 11:47 14.04.2022
2729 Rain 6 1008 96 9656 5.66 40 11:20 14.04.2022
2730 Rain 6 1008 95 10000 5.66 40 10:33 14.04.2022
2731 Clouds 7 1008 95 10000 4.12 50 09:50 14.04.2022
2732 Clouds 7 1009 94 10000 6.17 30 08:39 14.04.2022
2733 Clouds 7 1011 94 10000 5.14 50 06:24 14.04.2022
2734 Mist 7 1012 92 9656 7.72 40 01:49 14.04.2022
2735 Clouds 8 1013 85 10000 4.63 80 22:41 13.04.2022
2736 Mist 9 1013 80 9656 5.14 50 21:44 13.04.2022
2737 Clouds 10 1014 71 10000 4.63 70 20:47 13.04.2022
2738 Clouds 11 1014 67 10000 5.14 80 20:18 13.04.2022
2739 Rain 11 1015 57 10000 3.6 70 18:50 13.04.2022
2740 Clouds 11 1016 58 10000 4.12 50 17:54 13.04.2022
2741 Clouds 11 1016 60 10000 4.12 50 17:23 13.04.2022
2742 Rain 11 1017 53 10000 3.6 190 16:24 13.04.2022
2743 Clouds 10 1016 57 10000 3.09 140 15:31 13.04.2022
2744 Clouds 9 1017 62 10000 2.57 120 14:46 13.04.2022
2745 Clouds 7 1017 67 10000 1.03 60 13:58 13.04.2022
2746 Clouds 8 1017 64 10000 3.09 240 13:00 13.04.2022
2747 Clouds 8 1017 63 10000 3.09 240 12:19 13.04.2022
2748 Clouds 7 1017 66 10000 3.09 210 10:46 13.04.2022
2749 Clear 8 1017 62 10000 3.6 230 08:57 13.04.2022
2750 Clear 8 1017 62 10000 3.6 230 08:31 13.04.2022
2751 Clear 10 1016 54 10000 4.63 250 06:51 13.04.2022
2752 Clear 10 1016 53 10000 4.63 250 06:25 13.04.2022
2753 Clouds 12 1015 40 10000 2.06 240 03:31 13.04.2022
2754 Clear 16 1014 27 10000 7.72 290 00:20 13.04.2022
2755 Clear 16 1014 27 10000 7.72 290 00:20 13.04.2022
2756 Clear 17 1014 27 10000 11.83 310 22:46 12.04.2022
2757 Clear 17 1013 26 10000 8.75 270 21:57 12.04.2022
2758 Clear 17 1013 28 10000 9.77 260 20:51 12.04.2022
2759 Clear 17 1013 29 10000 9.77 260 20:33 12.04.2022
2760 Clear 16 1013 36 10000 6.69 260 19:47 12.04.2022
2761 Clear 15 1013 38 10000 6.69 260 19:28 12.04.2022
2762 Clear 14 1013 57 10000 5.66 290 17:59 12.04.2022
2763 Clear 12 1012 66 10000 4.63 250 16:53 12.04.2022
2764 Clouds 11 1012 80 10000 4.63 240 15:52 12.04.2022
2765 Clouds 10 1012 82 10000 4.63 240 15:25 12.04.2022
2766 Mist 9 1012 89 9656 3.6 220 14:21 12.04.2022
2767 Mist 8 1012 92 8047 3.6 220 13:28 12.04.2022
2768 Clouds 8 1012 91 10000 3.6 220 12:44 12.04.2022
2769 Clouds 7 1011 91 10000 2.57 240 11:42 12.04.2022
2770 Rain 8 1011 88 10000 3.09 200 10:30 12.04.2022
2771 Rain 9 1010 72 10000 4.63 200 08:54 12.04.2022
2772 Clouds 10 1009 58 10000 4.63 180 07:51 12.04.2022
2773 Clouds 10 1011 55 10000 4.12 170 05:49 12.04.2022
2774 Clouds 10 1012 56 10000 3.6 130 04:46 12.04.2022
2775 Clear 12 1013 49 10000 3.6 140 23:49 11.04.2022
2776 Clear 12 1014 50 10000 3.6 140 22:44 11.04.2022
2777 Clear 11 1015 52 10000 3.09 180 21:37 11.04.2022
2778 Clear 10 1016 53 10000 4.63 190 20:55 11.04.2022
2779 Clear 10 1016 52 10000 4.63 190 20:28 11.04.2022
2780 Clear 9 1018 52 10000 6.17 230 19:37 11.04.2022
2781 Clear 9 1018 53 10000 6.17 230 19:18 11.04.2022
2782 Clear 8 1018 54 10000 5.66 200 18:41 11.04.2022
2783 Clear 7 1018 55 10000 4.63 200 17:56 11.04.2022
2784 Clear 7 1018 57 10000 4.12 190 16:54 11.04.2022
2785 Clear 5 1019 60 10000 2.57 290 15:45 11.04.2022
2786 Clear 2 1018 74 10000 2.57 280 13:53 11.04.2022
2787 Clear 0 1018 79 10000 3.09 260 12:44 11.04.2022
2788 Clear -1 1018 82 10000 3.09 260 12:25 11.04.2022
2789 Clear 0 1017 75 10000 3.6 280 11:30 11.04.2022
2790 Clear 0 1016 76 10000 3.09 290 10:21 11.04.2022
2791 Clear 1 1015 74 10000 3.09 260 08:50 11.04.2022
2792 Clear 3 1013 67 10000 4.63 310 05:38 11.04.2022
2793 Clouds 7 1008 57 10000 8.75 310 01:23 11.04.2022
2794 Clouds 6 1006 78 10000 8.23 260 22:33 10.04.2022
2795 Rain 7 1005 76 10000 8.23 260 21:55 10.04.2022
2796 Rain 7 1005 71 10000 8.23 260 21:26 10.04.2022
2797 Clouds 8 1005 71 10000 8.75 250 20:30 10.04.2022
2798 Clouds 8 1005 75 10000 8.23 250 19:41 10.04.2022
2799 Clouds 7 1005 77 10000 8.23 250 19:18 10.04.2022
2800 Clouds 6 1005 78 10000 7.2 270 18:38 10.04.2022
2801 Clouds 5 1005 81 10000 7.2 250 17:51 10.04.2022
2802 Clouds 5 1005 82 10000 7.2 250 17:31 10.04.2022
2803 Rain 4 1005 86 10000 6.69 250 15:53 10.04.2022
2804 Clouds 3 1004 89 10000 5.14 240 14:51 10.04.2022
2805 Clouds 3 1004 91 10000 4.63 240 13:49 10.04.2022
2806 Clouds 3 1003 92 10000 4.12 250 12:33 10.04.2022
2807 Clouds 4 1002 90 10000 4.12 210 11:45 10.04.2022
2808 Clouds 4 1002 90 10000 4.12 210 11:24 10.04.2022
2809 Clouds 4 1002 91 10000 3.09 280 10:38 10.04.2022
2810 Clouds 4 1002 89 10000 4.12 260 09:49 10.04.2022
2811 Mist 4 1002 90 3219 4.12 260 08:55 10.04.2022
2812 Fog 4 1002 90 201 4.12 260 08:20 10.04.2022
2813 Mist 4 1003 93 8047 2.57 170 06:59 10.04.2022
2814 Clouds 5 1003 90 10000 2.06 210 04:36 10.04.2022
2815 Clouds 7 1002 85 10000 2.57 150 02:19 10.04.2022
2816 Clouds 8 1002 79 10000 2.06 160 23:54 09.04.2022
2817 Rain 8 1002 79 10000 2.06 160 23:25 09.04.2022
2818 Clouds 8 1001 79 10000 3.09 10 22:39 09.04.2022
2819 Rain 7 1002 83 10000 2.06 20 21:31 09.04.2022
2820 Rain 7 1002 86 10000 2.57 40 20:35 09.04.2022
2821 Rain 6 1002 89 10000 2.57 10 19:59 09.04.2022
2822 Rain 6 1002 89 10000 2.57 10 19:41 09.04.2022
2823 Mist 6 1003 91 9656 2.57 360 18:26 09.04.2022
2824 Rain 6 1003 91 9656 2.57 10 17:52 09.04.2022
2825 Rain 5 1003 90 8047 2.57 340 17:18 09.04.2022
2826 Rain 5 1004 90 8047 2.06 350 16:42 09.04.2022
2827 Mist 4 1004 92 9656 2.06 340 15:52 09.04.2022
2828 Mist 4 1004 92 9656 2.06 340 15:26 09.04.2022
2829 Mist 3 1004 93 8047 2.06 40 14:26 09.04.2022
2830 Mist 2 1004 94 9656 1.54 360 13:34 09.04.2022
2831 Clouds 2 1003 94 10000 1.03 360 12:57 09.04.2022
2832 Mist 2 1003 93 4828 1.54 30 11:52 09.04.2022
2833 Clouds 2 1003 93 10000 2.06 30 10:53 09.04.2022
2834 Clouds 3 1003 93 10000 2.06 30 10:19 09.04.2022
2835 Mist 3 1003 92 8047 2.57 140 09:24 09.04.2022
2836 Mist 3 1003 93 2816 2.57 170 08:35 09.04.2022
2837 Mist 3 1004 93 4023 2.06 140 05:21 09.04.2022
2838 Clouds 7 1003 79 10000 1.54 50 00:36 09.04.2022
2839 Clouds 7 1003 79 10000 1.54 50 00:36 09.04.2022
2840 Clouds 7 1002 77 10000 2.57 260 23:24 08.04.2022
2841 Clouds 7 1001 76 10000 6.17 280 21:54 08.04.2022
2842 Clouds 6 1001 79 10000 5.66 270 20:45 08.04.2022
2843 Clouds 6 1001 85 10000 5.14 240 19:57 08.04.2022
2844 Clouds 5 1001 92 10000 4.12 220 18:59 08.04.2022
2845 Clouds 5 1001 93 10000 2.57 190 18:25 08.04.2022
2846 Clouds 4 1001 94 10000 3.09 150 17:38 08.04.2022
2847 Clouds 4 1001 96 10000 2.57 140 17:19 08.04.2022
2848 Rain 3 1001 94 10000 2.57 90 16:32 08.04.2022
2849 Rain 3 1001 95 10000 5.14 40 15:38 08.04.2022
2850 Rain 2 1002 94 10000 5.14 70 14:52 08.04.2022
2851 Rain 2 1002 94 10000 5.14 70 14:21 08.04.2022
2852 Rain 1 1002 95 10000 5.66 60 13:41 08.04.2022
2853 Mist 1 1002 95 9656 5.66 60 13:22 08.04.2022
2854 Mist 2 1003 94 9656 9.26 70 11:43 08.04.2022
2855 Mist 2 1004 95 9656 8.75 70 10:31 08.04.2022
2856 Rain 2 1006 94 10000 9.77 70 09:25 08.04.2022
2857 Rain 2 1007 94 10000 7.72 50 08:25 08.04.2022
2858 Rain 2 1008 95 10000 7.2 30 06:47 08.04.2022
2859 Rain 3 1010 93 10000 7.72 40 04:32 08.04.2022
2860 Rain 6 1011 93 6437 4.63 100 00:33 08.04.2022
2861 Rain 6 1011 92 8047 4.12 90 23:59 07.04.2022
2862 Rain 7 1010 90 10000 5.66 120 22:58 07.04.2022
2863 Rain 7 1010 90 10000 5.66 120 22:37 07.04.2022
2864 Rain 7 1010 90 10000 5.66 120 22:19 07.04.2022
2865 Rain 7 1010 90 10000 5.66 110 21:47 07.04.2022
2866 Rain 7 1011 90 10000 6.69 100 20:58 07.04.2022
2867 Rain 7 1011 89 10000 6.69 100 20:30 07.04.2022
2868 Rain 7 1011 87 10000 4.12 110 17:57 07.04.2022
2869 Rain 7 1011 88 10000 4.63 30 17:24 07.04.2022
2870 Clouds 6 1010 87 10000 4.63 100 16:43 07.04.2022
2871 Clouds 6 1010 87 10000 4.63 100 16:18 07.04.2022
2872 Rain 4 1011 89 10000 6.17 40 14:36 07.04.2022
2873 Rain 4 1011 87 10000 6.17 50 13:42 07.04.2022
2874 Clouds 3 1011 85 10000 6.69 40 12:41 07.04.2022
2875 Rain 3 1011 78 10000 6.17 40 11:29 07.04.2022
2876 Rain 4 1011 58 10000 6.69 30 09:37 07.04.2022
2877 Clouds 4 1011 55 10000 7.72 40 08:37 07.04.2022
2878 Clouds 6 1012 53 10000 6.69 40 06:42 07.04.2022
2879 Clouds 9 1012 40 10000 7.72 40 02:47 07.04.2022
2880 Clouds 9 1012 40 10000 7.72 40 02:18 07.04.2022
2881 Clear 12 1012 36 10000 8.23 40 23:57 06.04.2022
2882 Clear 13 1012 37 10000 7.72 40 22:48 06.04.2022
2883 Clear 13 1012 38 10000 7.72 40 22:25 06.04.2022
2884 Clear 14 1013 38 10000 8.23 40 21:32 06.04.2022
2885 Clear 13 1014 38 10000 7.72 30 20:35 06.04.2022
2886 Clear 13 1014 39 10000 7.72 40 19:53 06.04.2022
2887 Clear 12 1015 40 10000 6.69 50 18:51 06.04.2022
2888 Clear 12 1015 41 10000 6.69 50 18:22 06.04.2022
2889 Clear 10 1016 44 10000 7.2 30 17:35 06.04.2022
2890 Clear 8 1016 48 10000 6.69 30 16:38 06.04.2022
2891 Clear 6 1016 55 10000 6.69 20 15:48 06.04.2022
2892 Clear 4 1016 60 10000 6.17 30 14:57 06.04.2022
2893 Clear 1 1016 66 10000 5.66 20 13:23 06.04.2022
2894 Clear 1 1016 66 10000 5.66 20 12:26 06.04.2022
2895 Clear 1 1016 66 10000 4.63 20 10:47 06.04.2022
2896 Clear 2 1016 65 10000 4.63 20 10:25 06.04.2022
2897 Clear 2 1016 64 10000 4.12 20 09:40 06.04.2022
2898 Clear 2 1016 65 10000 3.6 20 08:32 06.04.2022
2899 Clear 3 1016 59 10000 2.57 40 07:50 06.04.2022
2900 Clear 8 1016 44 10000 3.09 130 03:54 06.04.2022
2901 Clear 12 1016 30 10000 3.09 250 23:53 05.04.2022
2902 Clear 13 1015 33 10000 2.57 70 22:57 05.04.2022
2903 Clear 12 1016 33 10000 4.63 200 21:23 05.04.2022
2904 Clear 11 1016 35 10000 3.6 200 20:26 05.04.2022
2905 Clear 11 1017 35 10000 4.12 240 19:42 05.04.2022
2906 Clear 10 1017 38 10000 2.57 190 18:18 05.04.2022
2907 Clear 7 1018 41 10000 1.54 60 16:54 05.04.2022
2908 Clear 6 1017 46 10000 1.54 60 15:57 05.04.2022
2909 Clear 6 1017 47 10000 1.54 60 15:34 05.04.2022
2910 Clear 3 1017 63 10000 1.03 20 14:36 05.04.2022
2911 Clear 0 1016 74 10000 1.03 260 13:35 05.04.2022
2912 Clouds 0 1016 72 10000 1.54 160 11:51 05.04.2022
2913 Clouds 0 1016 71 10000 1.54 160 11:32 05.04.2022
2914 Clouds 1 1015 65 10000 1.54 280 09:59 05.04.2022
2915 Clear 2 1015 62 10000 2.57 230 08:54 05.04.2022
2916 Clouds 2 1014 60 10000 2.06 270 07:22 05.04.2022
2917 Clouds 8 1013 39 10000 4.63 310 01:58 05.04.2022
2918 Clouds 10 1013 35 10000 4.12 250 22:44 04.04.2022
2919 Clouds 10 1013 35 10000 4.12 250 22:26 04.04.2022
2920 Clouds 10 1013 35 10000 5.66 280 21:21 04.04.2022
2921 Clear 10 1014 36 10000 5.14 270 20:50 04.04.2022
2922 Clear 9 1014 36 10000 5.66 300 19:58 04.04.2022
2923 Clear 9 1014 37 10000 5.66 300 19:26 04.04.2022
2924 Clear 9 1014 41 10000 4.63 10 18:37 04.04.2022
2925 Clear 6 1014 45 10000 6.17 10 16:37 04.04.2022
2926 Clear 5 1014 50 10000 5.66 350 15:58 04.04.2022
2927 Clear 5 1014 53 10000 5.66 350 15:33 04.04.2022
2928 Clear 3 1014 69 10000 4.63 330 14:46 04.04.2022
2929 Clear 1 1014 82 10000 4.12 320 13:33 04.04.2022
2930 Clear 0 1013 87 10000 3.09 310 12:26 04.04.2022
2931 Clear -1 1012 91 10000 1.54 280 11:29 04.04.2022
2932 Clouds 0 1012 91 10000 2.06 260 09:51 04.04.2022
2933 Rain 2 1012 85 10000 2.57 300 05:27 04.04.2022
2934 Clouds 2 1012 78 10000 2.57 340 02:41 04.04.2022
2935 Clouds 3 1011 77 10000 7.2 360 22:47 03.04.2022
2936 Clouds 3 1011 77 10000 7.2 10 21:58 03.04.2022
2937 Clouds 3 1012 77 10000 6.17 340 21:25 03.04.2022
2938 Clouds 4 1012 57 10000 8.23 20 19:52 03.04.2022
2939 Clouds 5 1012 54 10000 6.69 10 18:34 03.04.2022
2940 Clouds 5 1012 55 10000 6.17 10 17:50 03.04.2022
2941 Clouds 5 1012 55 10000 6.17 10 17:32 03.04.2022
2942 Clouds 4 1013 57 10000 4.63 10 16:49 03.04.2022
2943 Clouds 3 1013 61 10000 3.6 40 15:42 03.04.2022
2944 Clouds 1 1013 67 10000 2.57 40 13:58 03.04.2022
2945 Clouds 1 1013 67 10000 3.6 20 12:58 03.04.2022
2946 Clouds 1 1013 67 10000 3.6 30 11:34 03.04.2022
2947 Clouds 1 1013 66 10000 1.54 10 09:52 03.04.2022
2948 Clouds 1 1014 65 10000 1.03 50 08:57 03.04.2022
2949 Clear 3 1015 56 10000 2.57 210 05:45 03.04.2022
2950 Clear 3 1015 56 10000 2.57 210 05:45 03.04.2022
2951 Clear 3 1015 52 10000 3.6 240 02:55 03.04.2022
2952 Clear 7 1015 38 10000 6.17 280 23:35 02.04.2022
2953 Clear 6 1015 39 10000 7.2 260 22:43 02.04.2022
2954 Clear 6 1016 40 10000 7.2 240 21:55 02.04.2022
2955 Clear 6 1016 40 10000 7.2 240 21:19 02.04.2022
2956 Clear 6 1016 42 10000 6.69 260 20:36 02.04.2022
2957 Clear 4 1016 43 10000 7.2 240 18:47 02.04.2022
2958 Clear 4 1016 44 10000 7.2 240 18:19 02.04.2022
2959 Clear 2 1017 46 10000 6.69 300 17:23 02.04.2022
2960 Clear 0 1017 52 10000 6.17 290 15:44 02.04.2022
2961 Clear 0 1017 54 10000 6.17 290 15:19 02.04.2022
2962 Clear -1 1017 58 10000 5.14 300 14:31 02.04.2022
2963 Clear -2 1016 62 10000 5.66 290 13:34 02.04.2022
2964 Clear -2 1015 63 10000 5.66 310 12:21 02.04.2022
2965 Clouds -1 1012 62 10000 12.35 290 10:31 02.04.2022
2966 Clouds 0 1010 66 10000 7.72 310 08:26 02.04.2022
2967 Snow 1 1006 70 10000 7.2 290 04:59 02.04.2022
2968 Clouds 1 1004 77 8047 8.75 300 02:56 02.04.2022
2969 Clouds 3 1000 85 10000 8.23 290 23:54 01.04.2022
2970 Rain 4 999 86 10000 6.17 270 22:51 01.04.2022
2971 Rain 5 998 79 10000 7.72 270 21:24 01.04.2022
2972 Rain 5 998 75 10000 8.75 250 20:48 01.04.2022
2973 Rain 6 998 72 10000 6.69 270 19:46 01.04.2022
2974 Rain 5 998 72 10000 7.72 250 19:26 01.04.2022
2975 Rain 5 998 70 10000 7.72 260 18:42 01.04.2022
2976 Clouds 6 998 70 10000 6.17 280 17:43 01.04.2022
2977 Clouds 6 998 72 10000 5.66 280 16:33 01.04.2022
2978 Clouds 7 998 75 10000 8.23 240 15:18 01.04.2022
2979 Clouds 6 997 80 10000 5.66 240 14:18 01.04.2022
2980 Clouds 6 998 83 10000 6.17 230 13:32 01.04.2022
2981 Clouds 6 997 83 10000 5.66 220 12:30 01.04.2022
2982 Clouds 6 996 81 10000 6.69 250 10:54 01.04.2022
2983 Clear 7 996 80 10000 8.23 240 09:49 01.04.2022
2984 Clear 8 995 80 10000 7.72 220 07:50 01.04.2022
2985 Clear 9 995 75 10000 10.29 230 06:30 01.04.2022
2986 Mist 7 993 94 9656 4.12 230 04:44 01.04.2022
2987 Clouds 7 993 92 10000 5.66 200 03:21 01.04.2022
2988 Clouds 8 992 92 10000 5.14 190 01:52 01.04.2022
2989 Mist 7 995 93 8047 3.6 10 22:37 31.03.2022
2990 Mist 7 995 91 8047 3.6 50 21:44 31.03.2022
2991 Mist 7 997 87 4828 3.09 70 20:51 31.03.2022
2992 Mist 7 997 86 4828 3.09 70 20:28 31.03.2022
2993 Clouds 7 997 84 10000 4.63 80 19:44 31.03.2022
2994 Clouds 7 999 82 10000 3.09 80 18:35 31.03.2022
2995 Clouds 5 1001 82 10000 4.63 140 17:25 31.03.2022
2996 Clouds 5 1002 77 10000 4.63 70 16:18 31.03.2022
2997 Clear 4 1002 81 10000 3.6 70 15:33 31.03.2022
2998 Clear 3 1003 83 10000 5.14 80 14:52 31.03.2022
2999 Clear 2 1003 85 10000 5.14 80 14:19 31.03.2022
3000 Clouds 1 1005 85 10000 4.12 70 11:32 31.03.2022
3001 Rain 1 1006 86 10000 5.14 70 10:41 31.03.2022
3002 Clouds 1 1007 87 10000 4.12 70 09:43 31.03.2022
3003 Rain 0 1010 88 10000 4.63 80 07:49 31.03.2022
3004 Rain 1 1013 69 10000 6.69 80 03:57 31.03.2022
3005 Clear 3 1016 41 10000 2.06 170 23:27 30.03.2022
3006 Clear 3 1017 35 10000 3.09 0 22:20 30.03.2022
3007 Clear 2 1019 34 10000 3.6 200 21:32 30.03.2022
3008 Clear 2 1020 37 10000 3.09 180 20:44 30.03.2022
3009 Clear 2 1021 35 10000 2.57 210 19:57 30.03.2022
3010 Clear 1 1022 39 10000 4.12 180 18:50 30.03.2022
3011 Clear 0 1023 40 10000 1.03 160 17:52 30.03.2022
3012 Clear 0 1023 40 10000 1.03 160 17:52 30.03.2022
3013 Clear 0 1023 38 10000 1.34 6 17:32 30.03.2022
3014 Clear -1 1023 39 10000 2.06 320 16:42 30.03.2022
3015 Clear -1 1023 40 10000 2.06 320 16:19 30.03.2022
3016 Clear -3 1024 50 10000 4.63 280 14:55 30.03.2022
3017 Clear -6 1023 62 10000 3.09 280 13:32 30.03.2022
3018 Clear -6 1022 61 10000 3.09 280 12:36 30.03.2022
3019 Clear -6 1021 59 10000 3.09 290 10:54 30.03.2022
3020 Clear -5 1021 59 10000 3.09 290 09:58 30.03.2022
3021 Clear -5 1021 58 10000 2.57 300 08:29 30.03.2022
3022 Clear -4 1021 54 10000 4.63 300 07:29 30.03.2022
3023 Clear -3 1020 51 10000 4.63 300 05:40 30.03.2022
3024 Clear -2 1020 49 10000 4.12 300 03:21 30.03.2022
3025 Clouds -1 1018 45 10000 8.75 260 23:32 29.03.2022
3026 Clouds -1 1018 46 10000 9.77 290 22:18 29.03.2022
3027 Clouds -2 1018 44 10000 9.26 270 21:40 29.03.2022
3028 Clouds -2 1018 46 10000 7.72 260 20:44 29.03.2022
3029 Clouds -3 1018 47 10000 7.72 270 19:45 29.03.2022
3030 Clouds -4 1019 51 10000 7.2 270 18:54 29.03.2022
3031 Clouds -4 1019 55 10000 7.2 270 18:18 29.03.2022
3032 Clouds -5 1019 57 10000 7.72 280 17:20 29.03.2022
3033 Clouds -5 1019 59 10000 6.17 290 16:55 29.03.2022
3034 Clouds -6 1019 63 10000 5.66 280 15:47 29.03.2022
3035 Clouds -7 1019 63 10000 7.72 270 14:44 29.03.2022
3036 Clouds -7 1019 61 10000 6.69 270 13:52 29.03.2022
3037 Clouds -7 1018 58 10000 6.17 290 12:46 29.03.2022
3038 Clouds -7 1018 60 10000 5.66 290 11:28 29.03.2022
3039 Clouds -7 1017 62 10000 5.14 310 10:23 29.03.2022
3040 Clouds -7 1017 64 10000 7.2 320 09:20 29.03.2022
3041 Clouds -8 1016 78 4828 4.63 280 06:54 29.03.2022
3042 Clouds -8 1015 69 10000 6.69 290 03:47 29.03.2022
3043 Clouds -8 1012 63 10000 7.72 260 23:49 28.03.2022
3044 Clouds -8 1012 63 10000 7.72 260 22:58 28.03.2022
3045 Clouds -8 1012 61 10000 7.72 260 22:39 28.03.2022
3046 Clouds -8 1012 60 10000 8.23 270 22:19 28.03.2022
3047 Clouds -9 1011 57 6437 8.23 250 20:47 28.03.2022
3048 Clouds -9 1011 57 10000 7.2 280 19:59 28.03.2022
3049 Clouds -9 1011 58 10000 7.2 300 19:40 28.03.2022
3050 Clouds -9 1011 57 10000 6.69 290 18:51 28.03.2022
3051 Clouds -9 1011 58 10000 6.69 290 18:18 28.03.2022
3052 Clouds -10 1011 62 10000 6.69 270 17:28 28.03.2022
3053 Clouds -11 1010 68 4828 6.17 320 15:48 28.03.2022
3054 Clouds -11 1010 65 10000 8.23 290 14:24 28.03.2022
3055 Clouds -11 1010 67 10000 7.2 290 13:33 28.03.2022
3056 Clouds -11 1009 70 10000 7.2 290 11:54 28.03.2022
3057 Clouds -10 1008 75 8047 7.2 280 10:39 28.03.2022
3058 Clouds -10 1008 70 10000 6.17 270 09:38 28.03.2022
3059 Clouds -9 1008 67 10000 7.2 280 08:46 28.03.2022
3060 Clouds -9 1008 67 10000 7.2 280 08:21 28.03.2022
3061 Clouds -9 1008 67 10000 6.69 290 07:27 28.03.2022
3062 Clouds -5 1005 72 6437 7.72 280 02:48 28.03.2022
3063 Clouds -2 1001 62 10000 9.26 260 22:59 27.03.2022
3064 Clouds -1 1001 61 10000 9.26 260 22:22 27.03.2022
3065 Clouds -1 1001 61 10000 10.8 260 21:40 27.03.2022
3066 Clouds 0 1000 62 10000 11.32 270 20:53 27.03.2022
3067 Clouds 0 1000 65 10000 10.29 250 19:44 27.03.2022
3068 Clouds 0 999 65 10000 8.23 270 18:47 27.03.2022
3069 Clouds 0 999 66 10000 8.23 270 18:26 27.03.2022
3070 Clouds 0 999 72 10000 9.26 270 17:38 27.03.2022
3071 Clouds 0 998 83 4828 7.72 270 15:59 27.03.2022
3072 Snow 1 996 83 10000 7.2 270 14:26 27.03.2022
3073 Clouds 2 996 85 10000 5.14 290 13:42 27.03.2022
3074 Clouds 2 994 91 10000 4.63 240 11:52 27.03.2022
3075 Clouds 3 994 91 10000 5.14 240 10:28 27.03.2022
3076 Clouds 3 994 90 10000 4.63 250 08:21 27.03.2022
3077 Clouds 4 995 83 10000 5.14 240 05:19 27.03.2022
3078 Clouds 6 994 72 10000 2.57 230 00:37 27.03.2022
3079 Clouds 6 994 72 10000 3.6 240 23:30 26.03.2022
3080 Rain 7 994 73 10000 5.14 240 22:29 26.03.2022
3081 Clear 7 994 68 10000 6.69 250 21:32 26.03.2022
3082 Clouds 7 994 69 10000 6.69 250 19:46 26.03.2022
3083 Clouds 7 994 71 10000 7.2 250 18:56 26.03.2022
3084 Clouds 5 995 79 10000 5.14 240 17:44 26.03.2022
3085 Clouds 5 995 79 10000 5.14 240 17:22 26.03.2022
3086 Clouds 5 995 80 10000 5.14 220 16:24 26.03.2022
3087 Clouds 4 995 84 10000 5.14 220 14:50 26.03.2022
3088 Clouds 3 995 89 10000 4.63 220 13:52 26.03.2022
3089 Clouds 2 995 92 10000 4.12 220 12:41 26.03.2022
3090 Clouds 3 995 90 10000 5.14 230 11:28 26.03.2022
3091 Clouds 3 995 88 10000 5.66 240 09:23 26.03.2022
3092 Clouds 3 996 88 10000 6.17 240 08:27 26.03.2022
3093 Clouds 3 996 92 10000 7.72 240 05:53 26.03.2022
3094 Clouds 4 996 92 10000 7.2 240 03:58 26.03.2022
3095 Rain 6 997 84 4828 4.12 220 23:21 25.03.2022
3096 Clouds 7 996 83 10000 4.12 30 20:59 25.03.2022
3097 Clouds 7 996 84 10000 4.12 30 20:38 25.03.2022
3098 Mist 7 997 84 6437 2.06 50 19:27 25.03.2022
3099 Mist 6 998 87 6437 2.06 30 18:46 25.03.2022
3100 Mist 6 998 87 6437 2.06 30 18:46 25.03.2022
3101 Mist 5 999 92 6437 3.09 240 17:35 25.03.2022
3102 Mist 3 1000 93 9656 1.03 210 16:41 25.03.2022
3103 Mist 2 1001 95 10000 1.54 300 15:52 25.03.2022
3104 Snow 2 1002 94 4828 2.57 290 13:51 25.03.2022
3105 Rain 2 1002 93 6437 3.6 10 12:20 25.03.2022
3106 Clouds 3 1003 92 10000 4.12 30 09:47 25.03.2022
3107 Clouds 3 1003 92 10000 4.12 30 09:23 25.03.2022
3108 Clouds 3 1005 91 10000 3.6 10 07:48 25.03.2022
3109 Clouds 3 1006 91 10000 3.6 10 07:21 25.03.2022
3110 Clouds 4 1008 85 10000 3.6 110 04:47 25.03.2022
3111 Clouds 6 1010 78 10000 5.14 160 00:29 25.03.2022
3112 Clouds 7 1011 79 10000 8.75 150 22:30 24.03.2022
3113 Clouds 6 1011 83 10000 8.23 140 21:34 24.03.2022
3114 Clouds 6 1012 85 10000 7.72 140 19:50 24.03.2022
3115 Clouds 5 1013 87 10000 7.2 130 18:54 24.03.2022
3116 Rain 4 1014 89 10000 8.23 130 17:39 24.03.2022
3117 Rain 4 1014 90 10000 10.29 140 16:54 24.03.2022
3118 Clouds 3 1014 89 10000 10.29 140 15:19 24.03.2022
3119 Rain 3 1016 90 10000 5.66 150 14:41 24.03.2022
3120 Rain 3 1015 95 10000 5.66 140 13:54 24.03.2022
3121 Rain 2 1016 93 10000 5.66 100 12:42 24.03.2022
3122 Rain 2 1016 93 9656 5.14 100 11:33 24.03.2022
3123 Snow 2 1017 91 3219 5.14 80 09:48 24.03.2022
3124 Mist 1 1018 89 8047 6.69 80 08:40 24.03.2022
3125 Mist 1 1018 89 8047 6.69 80 08:40 24.03.2022
3126 Clouds 2 1020 72 8047 7.72 40 06:44 24.03.2022
3127 Clouds 2 1023 66 10000 6.17 50 01:43 24.03.2022
3128 Clear 4 1024 60 10000 5.14 50 22:37 23.03.2022
3129 Clouds 4 1025 58 10000 5.66 40 21:25 23.03.2022
3130 Clouds 4 1025 58 10000 5.66 40 21:25 23.03.2022
3131 Clouds 4 1025 58 10000 5.66 40 21:25 23.03.2022
3132 Clear 3 1025 59 10000 4.63 40 20:47 23.03.2022
3133 Clear 3 1025 59 10000 4.12 70 19:43 23.03.2022
3134 Clear 3 1025 59 10000 4.12 70 19:43 23.03.2022
3135 Clear 3 1026 58 10000 2.57 40 18:30 23.03.2022
3136 Clear 2 1027 58 10000 2.57 80 17:36 23.03.2022
3137 Clear 2 1027 57 10000 2.06 20 16:20 23.03.2022
3138 Clear 0 1027 60 10000 3.6 10 14:50 23.03.2022
3139 Clear -1 1027 61 10000 3.6 10 14:21 23.03.2022
3140 Clear -4 1027 70 10000 1.54 330 12:24 23.03.2022
3141 Clear -3 1026 64 10000 2.06 350 09:38 23.03.2022
3142 Clear -2 1026 60 10000 3.6 20 06:41 23.03.2022
3143 Clear 0 1026 55 10000 5.66 30 04:31 23.03.2022
3144 Clear 3 1023 47 10000 5.14 300 00:29 23.03.2022
3145 Clear 5 1022 40 10000 6.17 290 22:33 22.03.2022
3146 Clear 5 1022 42 10000 8.23 300 21:29 22.03.2022
3147 Clouds 4 1022 44 10000 9.77 340 20:39 22.03.2022
3148 Clouds 4 1022 45 10000 7.72 260 19:39 22.03.2022
3149 Clouds 3 1022 46 10000 7.72 260 19:18 22.03.2022
3150 Clear 3 1022 47 10000 6.17 290 18:22 22.03.2022
3151 Clouds 1 1022 48 10000 7.72 280 17:29 22.03.2022
3152 Clouds 0 1021 50 10000 5.66 290 15:59 22.03.2022
3153 Clouds -1 1021 50 10000 5.66 290 15:22 22.03.2022
3154 Clear -1 1021 50 10000 6.17 300 14:46 22.03.2022
3155 Clear -2 1021 51 10000 6.17 300 14:26 22.03.2022
3156 Clear -3 1021 51 10000 6.17 280 13:27 22.03.2022
3157 Clear -3 1019 50 10000 6.69 300 11:52 22.03.2022
3158 Clear -2 1019 50 10000 8.23 280 10:35 22.03.2022
3159 Clear -1 1019 58 10000 6.69 270 08:24 22.03.2022
3160 Clouds 0 1018 62 10000 6.69 260 05:21 22.03.2022
3161 Clouds 1 1018 60 10000 5.14 290 03:46 22.03.2022
3162 Clouds 2 1017 58 10000 7.2 310 00:22 22.03.2022
3163 Clouds 4 1016 53 10000 8.75 300 22:29 21.03.2022
3164 Clouds 5 1014 54 10000 8.75 310 20:54 21.03.2022
3165 Clouds 5 1014 54 10000 8.75 310 20:54 21.03.2022
3166 Clouds 5 1014 53 10000 8.75 310 20:34 21.03.2022
3167 Clouds 5 1014 52 10000 9.26 310 19:58 21.03.2022
3168 Clouds 6 1014 50 10000 9.26 310 19:27 21.03.2022
3169 Clouds 6 1014 52 10000 8.75 270 18:22 21.03.2022
3170 Clouds 5 1014 54 10000 9.77 260 17:19 21.03.2022
3171 Clear 5 1014 57 10000 8.75 280 16:44 21.03.2022
3172 Clear 5 1014 61 10000 7.72 280 15:52 21.03.2022
3173 Clear 4 1014 63 10000 7.72 280 15:19 21.03.2022
3174 Clear 3 1014 72 10000 6.69 250 14:25 21.03.2022
3175 Clouds 1 1014 80 10000 4.12 240 12:40 21.03.2022
3176 Clear 1 1014 82 10000 4.63 260 11:52 21.03.2022
3177 Clear 1 1013 83 10000 4.63 270 10:40 21.03.2022
3178 Clear 1 1012 85 10000 4.12 280 08:30 21.03.2022
3179 Clouds 2 1012 87 10000 3.09 230 06:54 21.03.2022
3180 Clouds 3 1010 91 10000 3.6 280 02:53 21.03.2022
3181 Rain 4 1009 92 10000 5.14 300 00:19 21.03.2022
3182 Rain 5 1007 90 10000 6.69 270 22:44 20.03.2022
3183 Rain 5 1006 89 10000 5.66 250 21:56 20.03.2022
3184 Clouds 5 1006 88 10000 6.69 240 21:29 20.03.2022
3185 Clouds 5 1005 89 10000 7.2 250 20:43 20.03.2022
3186 Mist 5 1005 90 9656 7.2 240 19:59 20.03.2022
3187 Mist 5 1005 92 9656 7.2 240 19:34 20.03.2022
3188 Mist 5 1005 92 8047 8.75 240 18:34 20.03.2022
3189 Clouds 5 1004 92 10000 9.77 240 17:35 20.03.2022
3190 Clouds 5 1004 93 10000 8.75 240 16:57 20.03.2022
3191 Drizzle 5 1004 95 10000 10.29 240 15:43 20.03.2022
3192 Mist 5 1004 97 4828 9.26 230 14:35 20.03.2022
3193 Mist 4 1003 96 1207 7.72 230 12:42 20.03.2022
3194 Mist 2 1003 95 1609 2.57 170 11:32 20.03.2022
3195 Mist 2 1002 95 2012 1.54 50 09:39 20.03.2022
3196 Rain 1 1003 96 4023 2.57 330 07:49 20.03.2022
3197 Snow 1 1003 96 3621 4.63 20 05:48 20.03.2022
3198 Rain 2 1003 94 10000 8.75 20 02:53 20.03.2022
3199 Clouds 2 1004 95 10000 9.77 30 00:48 20.03.2022
3200 Clouds 2 1005 94 10000 8.23 20 23:20 19.03.2022
3201 Clouds 3 1006 94 10000 9.26 30 21:41 19.03.2022
3202 Clouds 3 1006 94 10000 9.26 30 21:18 19.03.2022
3203 Clouds 3 1008 96 10000 7.72 30 19:21 19.03.2022
3204 Clouds 3 1009 94 10000 9.77 30 18:25 19.03.2022
3205 Clouds 3 1009 95 10000 6.69 40 17:41 19.03.2022
3206 Rain 3 1010 94 10000 9.26 30 16:29 19.03.2022
3207 Rain 3 1011 94 4828 8.75 40 15:20 19.03.2022
3208 Rain 2 1014 93 10000 10.29 30 13:35 19.03.2022
3209 Rain 2 1014 91 10000 9.26 40 12:42 19.03.2022
3210 Clouds 2 1014 89 10000 10.29 30 11:54 19.03.2022
3211 Clouds 2 1015 88 10000 10.29 30 11:33 19.03.2022
3212 Rain 4 1017 80 10000 7.72 30 08:23 19.03.2022
3213 Clouds 5 1018 68 10000 4.63 50 04:23 19.03.2022
3214 Clouds 5 1019 72 10000 3.6 60 02:30 19.03.2022
3215 Clouds 7 1019 67 10000 4.63 60 23:46 18.03.2022
3216 Clouds 8 1018 62 10000 5.66 20 22:36 18.03.2022
3217 Clouds 8 1018 67 10000 5.66 40 21:56 18.03.2022
3218 Clouds 8 1017 67 10000 5.66 60 19:57 18.03.2022
3219 Clouds 8 1017 67 10000 5.66 60 19:22 18.03.2022
3220 Clouds 8 1016 67 10000 7.2 30 18:34 18.03.2022
3221 Clouds 8 1016 71 10000 5.14 40 16:52 18.03.2022
3222 Clear 7 1015 75 10000 7.72 40 15:52 18.03.2022
3223 Mist 6 1014 86 4828 4.12 10 14:25 18.03.2022
3224 Mist 3 1013 91 2414 2.06 10 13:18 18.03.2022
3225 Fog 3 1012 90 402 2.06 30 11:28 18.03.2022
3226 Rain 4 1011 88 604 1.03 80 09:41 18.03.2022
3227 Clear 5 1011 84 10000 0 0 08:45 18.03.2022
3228 Clouds 8 1010 81 10000 1.54 180 06:45 18.03.2022
3229 Clouds 9 1011 79 10000 1.54 180 04:38 18.03.2022
3230 Clouds 12 1010 63 10000 4.63 170 00:55 18.03.2022
3231 Clear 14 1009 52 10000 4.12 180 23:52 17.03.2022
3232 Clear 14 1009 52 10000 4.12 180 23:52 17.03.2022
3233 Clear 14 1009 52 10000 4.12 180 23:52 17.03.2022
3234 Clear 14 1009 52 10000 4.12 180 23:52 17.03.2022
3235 Clear 14 1009 52 10000 4.12 180 23:52 17.03.2022
3236 Clear 15 1010 51 10000 5.14 170 22:43 17.03.2022
3237 Clear 15 1010 51 10000 5.14 170 22:18 17.03.2022
3238 Clear 16 1010 52 10000 4.12 180 21:27 17.03.2022
3239 Clear 15 1010 48 10000 3.6 180 20:52 17.03.2022
3240 Clear 15 1010 48 10000 3.6 180 20:18 17.03.2022
3241 Clear 14 1011 52 10000 5.14 190 19:37 17.03.2022
3242 Clear 14 1012 55 10000 6.17 190 18:51 17.03.2022
3243 Clear 12 1013 57 10000 6.69 190 17:28 17.03.2022
3244 Clear 10 1013 64 10000 6.69 190 16:19 17.03.2022
3245 Clear 10 1013 64 10000 6.69 190 16:19 17.03.2022
3246 Clouds 9 1014 67 10000 3.09 180 15:42 17.03.2022
3247 Clouds 6 1014 78 10000 3.6 180 14:58 17.03.2022
3248 Clouds 4 1014 81 10000 3.6 180 13:35 17.03.2022
3249 Clouds 3 1014 84 10000 3.6 160 12:44 17.03.2022
3250 Clouds 3 1015 85 10000 1.54 130 11:32 17.03.2022
3251 Clouds 1 1015 87 10000 3.09 140 10:41 17.03.2022
3252 Clouds 2 1016 87 10000 1.54 30 08:46 17.03.2022
3253 Clouds 2 1016 86 10000 1.54 30 08:19 17.03.2022
3254 Clouds 3 1018 80 10000 2.57 140 05:49 17.03.2022
3255 Clouds 3 1018 78 10000 1.54 130 04:24 17.03.2022
3256 Clouds 5 1020 71 10000 3.09 230 00:25 17.03.2022
3257 Clear 6 1019 66 10000 3.6 230 22:52 16.03.2022
3258 Clear 7 1019 66 10000 3.6 230 22:34 16.03.2022
3259 Clear 7 1020 65 10000 4.12 210 21:55 16.03.2022
3260 Clear 7 1020 64 10000 6.69 250 20:40 16.03.2022
3261 Clear 6 1021 68 10000 6.69 250 19:23 16.03.2022
3262 Clouds 6 1021 69 10000 7.72 220 18:42 16.03.2022
3263 Clouds 5 1022 71 10000 7.72 220 17:46 16.03.2022
3264 Clouds 5 1022 71 10000 7.72 230 17:28 16.03.2022
3265 Clouds 4 1022 74 10000 7.2 220 15:56 16.03.2022
3266 Clouds 2 1022 79 10000 6.69 220 14:50 16.03.2022
3267 Clouds 0 1021 84 10000 2.57 190 13:36 16.03.2022
3268 Clouds -1 1021 85 10000 3.09 220 12:43 16.03.2022
3269 Clouds -3 1021 84 10000 2.06 160 11:23 16.03.2022
3270 Clouds -4 1020 84 10000 1.54 150 10:30 16.03.2022
3271 Clear -4 1020 85 10000 1.03 210 09:56 16.03.2022
3272 Clear -4 1021 81 10000 1.03 50 07:43 16.03.2022
3273 Clouds 0 1022 68 10000 2.06 100 02:45 16.03.2022
3274 Clear 2 1023 58 10000 2.57 40 22:55 15.03.2022
3275 Clear 2 1023 56 10000 2.57 40 22:35 15.03.2022
3276 Clear 2 1024 54 10000 3.09 40 20:55 15.03.2022
3277 Clear 1 1025 57 10000 4.12 40 19:37 15.03.2022
3278 Clear 1 1027 61 10000 4.12 40 17:46 15.03.2022
3279 Clear 1 1027 64 10000 5.66 60 16:38 15.03.2022
3280 Clear 1 1027 64 10000 5.66 20 15:38 15.03.2022
3281 Clear 1 1026 71 10000 2.57 30 14:54 15.03.2022
3282 Mist 0 1025 83 9656 1.03 340 13:56 15.03.2022
3283 Mist 0 1025 87 9656 1.03 340 13:22 15.03.2022
3284 Mist 0 1024 92 4023 3.09 260 11:33 15.03.2022
3285 Mist 0 1023 92 8047 3.6 230 10:27 15.03.2022
3286 Mist 1 1023 91 8047 3.6 220 09:20 15.03.2022
3287 Mist 1 1023 91 8047 4.12 240 08:24 15.03.2022
3288 Mist 1 1023 91 9656 4.63 250 07:36 15.03.2022
3289 Rain 2 1022 90 10000 5.66 220 05:56 15.03.2022
3290 Clouds 4 1021 60 10000 7.2 230 00:32 15.03.2022
3291 Clouds 4 1021 58 10000 8.23 240 23:29 14.03.2022
3292 Clouds 4 1021 55 10000 9.77 240 22:50 14.03.2022
3293 Clear 4 1022 53 10000 8.23 240 21:53 14.03.2022
3294 Clear 4 1022 53 10000 9.77 230 20:55 14.03.2022
3295 Clear 4 1022 53 10000 9.77 230 20:24 14.03.2022
3296 Clear 3 1023 54 10000 7.72 240 19:24 14.03.2022
3297 Clouds 2 1024 60 10000 9.26 250 17:58 14.03.2022
3298 Clouds 2 1024 61 10000 9.26 250 17:40 14.03.2022
3299 Clouds 1 1024 63 10000 9.26 260 16:33 14.03.2022
3300 Clouds -1 1023 78 10000 8.23 250 14:48 14.03.2022
3301 Clouds -2 1022 88 10000 5.14 240 13:29 14.03.2022
3302 Clouds -3 1020 88 6437 3.6 190 11:26 14.03.2022
3303 Clouds -4 1019 88 10000 2.57 190 09:57 14.03.2022
3304 Clouds -4 1019 87 10000 2.57 190 09:34 14.03.2022
3305 Snow -4 1019 88 9656 3.09 170 08:58 14.03.2022
3306 Snow -4 1019 87 4828 3.09 170 08:28 14.03.2022
3307 Clouds -4 1019 83 10000 4.63 190 06:47 14.03.2022
3308 Clouds -4 1018 78 10000 6.17 220 02:59 14.03.2022
3309 Clouds -4 1017 73 10000 9.26 240 01:39 14.03.2022
3310 Clouds -5 1016 64 10000 4.63 230 00:29 14.03.2022
3311 Clouds -4 1015 57 10000 9.77 250 21:49 13.03.2022
3312 Clouds -4 1015 57 10000 9.77 250 21:21 13.03.2022
3313 Clouds -4 1015 56 10000 10.29 240 20:46 13.03.2022
3314 Clouds -5 1015 57 10000 10.29 240 20:22 13.03.2022
3315 Clouds -5 1015 56 10000 9.26 230 19:42 13.03.2022
3316 Clouds -5 1015 57 10000 9.26 230 19:22 13.03.2022
3317 Clouds -6 1015 59 10000 10.8 250 18:45 13.03.2022
3318 Clouds -6 1015 59 10000 10.8 250 18:25 13.03.2022
3319 Clear -7 1015 58 10000 8.75 260 17:36 13.03.2022
3320 Clear -8 1014 60 10000 11.32 270 16:45 13.03.2022
3321 Clear -9 1014 60 10000 11.32 270 16:23 13.03.2022
3322 Clear -9 1014 61 10000 9.26 250 15:42 13.03.2022
3323 Clear -10 1013 65 10000 9.26 260 14:37 13.03.2022
3324 Clear -10 1011 66 10000 9.26 270 13:28 13.03.2022
3325 Clear -10 1009 67 10000 8.23 270 12:22 13.03.2022
3326 Clear -9 1007 66 10000 8.75 290 11:39 13.03.2022
3327 Clouds -8 1005 66 10000 8.23 290 10:50 13.03.2022
3328 Clouds -8 1005 67 10000 8.23 290 10:28 13.03.2022
3329 Clear -7 1003 67 10000 9.26 310 09:42 13.03.2022
3330 Clouds -7 1001 68 10000 6.69 300 08:50 13.03.2022
3331 Clouds -6 1001 69 10000 6.69 300 08:29 13.03.2022
3332 Clouds -6 999 72 10000 6.69 300 07:19 13.03.2022
3333 Clouds -6 995 70 10000 7.72 290 04:58 13.03.2022
3334 Clouds -5 994 67 10000 6.69 280 01:47 13.03.2022
3335 Clouds -4 993 74 9656 7.2 280 23:28 12.03.2022
3336 Clouds -3 994 80 4828 7.2 270 21:39 12.03.2022
3337 Snow -3 995 73 8047 7.2 300 20:19 12.03.2022
3338 Snow -2 995 71 10000 7.2 280 19:46 12.03.2022
3339 Snow -2 997 77 10000 6.17 280 18:41 12.03.2022
3340 Snow -2 998 83 4828 5.66 260 17:53 12.03.2022
3341 Snow -2 999 85 8047 5.66 260 16:28 12.03.2022
3342 Snow -2 999 85 8047 5.66 260 16:28 12.03.2022
3343 Snow -1 1000 83 10000 7.2 270 15:50 12.03.2022
3344 Snow -1 1000 85 10000 7.2 270 15:21 12.03.2022
3345 Clouds -1 1001 92 9656 3.6 250 13:53 12.03.2022
3346 Snow -1 1002 93 4023 3.6 250 12:28 12.03.2022
3347 Snow -1 1001 94 3621 4.12 260 11:53 12.03.2022
3348 Snow -1 1001 95 3621 4.12 260 11:33 12.03.2022
3349 Snow 0 1002 95 2012 4.12 240 10:26 12.03.2022
3350 Snow -1 1002 97 2012 2.57 240 09:43 12.03.2022
3351 Snow -1 1003 95 2414 2.06 330 07:58 12.03.2022
3352 Snow 0 1004 93 4828 3.09 340 06:40 12.03.2022
3353 Snow -1 1012 92 2012 3.6 40 00:31 12.03.2022
3354 Snow 0 1012 90 2816 4.63 40 23:43 11.03.2022
3355 Snow 0 1012 90 2816 4.63 40 23:43 11.03.2022
3356 Clouds 0 1013 87 9656 4.63 30 22:32 11.03.2022
3357 Clouds 1 1014 82 9656 3.09 30 21:24 11.03.2022
3358 Clouds 1 1015 76 4828 2.06 40 20:46 11.03.2022
3359 Clouds 1 1015 75 8047 2.06 40 20:26 11.03.2022
3360 Snow 1 1016 66 10000 2.57 50 19:33 11.03.2022
3361 Clouds 1 1018 70 10000 2.06 30 18:30 11.03.2022
3362 Clouds 1 1018 73 10000 3.09 60 17:24 11.03.2022
3363 Clouds 0 1019 73 10000 1.03 0 16:25 11.03.2022
3364 Clouds 0 1020 74 10000 2.57 260 15:36 11.03.2022
3365 Clouds -2 1020 83 10000 2.57 290 13:42 11.03.2022
3366 Clouds -2 1020 79 10000 2.57 290 12:39 11.03.2022
3367 Clouds -2 1020 80 10000 2.57 290 12:19 11.03.2022
3368 Clouds -2 1019 76 10000 1.54 220 10:53 11.03.2022
3369 Clouds -2 1019 73 10000 2.57 240 09:35 11.03.2022
3370 Clouds -2 1019 72 10000 2.57 250 08:28 11.03.2022
3371 Clear -2 1020 70 10000 2.57 220 07:48 11.03.2022
3372 Clouds -2 1019 70 10000 3.6 180 06:44 11.03.2022
3373 Clear -2 1019 65 10000 2.57 190 04:40 11.03.2022
3374 Clear -1 1019 58 10000 2.06 300 01:48 11.03.2022
3375 Clear 2 1019 44 10000 8.75 240 22:33 10.03.2022
3376 Clear 2 1019 44 10000 10.8 240 21:54 10.03.2022
3377 Clear 2 1019 46 10000 10.8 240 21:25 10.03.2022
3378 Clear 2 1019 45 10000 10.8 230 20:36 10.03.2022
3379 Clear 2 1019 50 10000 8.75 250 19:22 10.03.2022
3380 Clear 2 1020 53 10000 9.77 250 17:55 10.03.2022
3381 Clear 1 1020 56 10000 8.23 230 16:53 10.03.2022
3382 Clear 1 1019 59 10000 7.72 270 15:29 10.03.2022
3383 Clear 0 1017 79 10000 5.14 250 13:51 10.03.2022
3384 Clear -1 1016 83 10000 5.14 250 12:43 10.03.2022
3385 Clear -1 1016 83 10000 5.66 250 11:29 10.03.2022
3386 Clear 0 1014 81 10000 7.72 240 09:43 10.03.2022
3387 Clouds 0 1014 81 10000 6.69 240 08:39 10.03.2022
3388 Clouds 1 1014 80 10000 7.72 220 05:33 10.03.2022
3389 Clouds 2 1012 69 10000 4.12 160 02:39 10.03.2022
3390 Clouds 2 1012 54 10000 4.63 190 23:37 09.03.2022
3391 Clear 3 1012 51 10000 4.63 190 22:32 09.03.2022
3392 Clear 3 1013 51 10000 5.66 200 21:47 09.03.2022
3393 Clear 3 1014 49 10000 6.69 190 20:50 09.03.2022
3394 Clear 2 1016 56 10000 6.69 180 18:58 09.03.2022
3395 Clouds 1 1017 61 10000 7.2 160 17:28 09.03.2022
3396 Clear 1 1018 63 10000 4.12 140 16:48 09.03.2022
3397 Clouds 0 1018 70 10000 3.09 160 15:41 09.03.2022
3398 Clouds -2 1019 73 10000 3.09 150 14:24 09.03.2022
3399 Clouds -4 1019 76 10000 2.57 150 13:38 09.03.2022
3400 Clouds -4 1020 74 10000 3.6 170 12:25 09.03.2022
3401 Clouds -4 1020 74 10000 3.6 190 11:48 09.03.2022
3402 Clouds -3 1020 70 10000 4.12 200 10:55 09.03.2022
3403 Clouds -3 1020 70 10000 2.57 190 09:28 09.03.2022
3404 Clouds -4 1021 72 10000 4.12 180 08:44 09.03.2022
3405 Clouds -6 1021 74 10000 2.57 150 06:25 09.03.2022
3406 Clear -3 1020 59 10000 6.69 250 00:59 09.03.2022
3407 Clear -2 1020 55 10000 7.2 250 23:48 08.03.2022
3408 Clear -1 1019 59 10000 7.72 260 22:46 08.03.2022
3409 Clouds -1 1019 57 10000 8.75 270 21:47 08.03.2022
3410 Clouds -1 1019 57 10000 8.75 270 21:19 08.03.2022
3411 Clear -1 1018 56 10000 9.77 270 20:21 08.03.2022
3412 Clear -2 1018 58 10000 11.32 260 19:21 08.03.2022
3413 Clear -2 1017 59 10000 10.29 270 18:22 08.03.2022
3414 Snow -3 1016 66 10000 10.8 270 16:42 08.03.2022
3415 Clear -5 1014 66 10000 12.35 290 14:55 08.03.2022
3416 Snow -5 1013 75 10000 8.75 270 13:45 08.03.2022
3417 Clouds -4 1011 79 10000 8.75 290 12:20 08.03.2022
3418 Clouds -4 1010 80 10000 8.23 270 11:42 08.03.2022
3419 Clouds -3 1008 83 10000 7.72 280 10:28 08.03.2022
3420 Clouds -2 1004 84 10000 8.75 280 08:57 08.03.2022
3421 Clouds -1 1002 92 10000 9.26 260 06:30 08.03.2022
3422 Snow 0 994 96 3219 7.2 340 02:37 08.03.2022
3423 Rain 1 999 93 3219 6.17 40 22:43 07.03.2022
3424 Rain 1 1001 91 2816 4.12 50 21:44 07.03.2022
3425 Rain 1 1002 91 3621 4.12 50 21:22 07.03.2022
3426 Rain 1 1003 90 10000 3.09 10 20:33 07.03.2022
3427 Rain 1 1004 89 10000 3.09 10 19:49 07.03.2022
3428 Mist 2 1006 86 9656 1.54 50 18:57 07.03.2022
3429 Snow 2 1006 85 4828 1.54 220 18:29 07.03.2022
3430 Snow 2 1008 83 9656 4.12 190 17:31 07.03.2022
3431 Snow 2 1009 70 10000 2.57 240 16:43 07.03.2022
3432 Clouds 2 1012 75 10000 4.12 270 14:51 07.03.2022
3433 Clouds 2 1012 78 10000 5.14 250 12:34 07.03.2022
3434 Clouds 3 1012 75 10000 6.17 250 11:34 07.03.2022
3435 Clouds 3 1011 73 10000 8.23 250 10:31 07.03.2022
3436 Clouds 4 1010 73 10000 10.8 250 08:34 07.03.2022
3437 Clouds 8 1002 69 10000 13.38 260 02:50 07.03.2022
3438 Clouds 7 1000 75 10000 10.29 240 00:20 07.03.2022
3439 Clouds 9 999 78 10000 11.32 230 23:26 06.03.2022
3440 Clouds 9 998 73 10000 10.29 230 22:29 06.03.2022
3441 Clouds 7 998 82 10000 5.66 180 21:44 06.03.2022
3442 Mist 5 999 86 10000 6.69 190 20:29 06.03.2022
3443 Mist 4 1000 87 10000 4.63 180 19:43 06.03.2022
3444 Mist 3 1002 91 10000 4.12 190 18:50 06.03.2022
3445 Mist 2 1003 93 9656 4.12 200 17:49 06.03.2022
3446 Mist 1 1004 93 10000 3.6 20 17:20 06.03.2022
3447 Rain 1 1004 94 4828 5.14 190 16:40 06.03.2022
3448 Mist 1 1006 92 8047 5.66 180 15:31 06.03.2022
3449 Rain 1 1007 90 8047 6.69 180 14:48 06.03.2022
3450 Rain 0 1007 88 10000 5.14 170 14:26 06.03.2022
3451 Clouds 0 1010 85 10000 1.54 160 12:40 06.03.2022
3452 Clouds -1 1012 86 10000 6.69 40 11:46 06.03.2022
3453 Clouds -1 1013 88 10000 5.66 60 10:43 06.03.2022
3454 Snow -2 1016 87 10000 5.14 50 09:24 06.03.2022
3455 Clouds -2 1017 88 10000 6.17 40 08:28 06.03.2022
3456 Clouds -2 1019 87 10000 7.2 40 07:33 06.03.2022
3457 Clouds -2 1025 61 10000 4.12 70 03:18 06.03.2022
3458 Clouds -1 1028 59 10000 2.06 80 00:41 06.03.2022
3459 Clouds -1 1028 59 10000 2.06 80 00:22 06.03.2022
3460 Clouds -1 1028 57 10000 4.12 140 23:19 05.03.2022
3461 Clear 0 1028 54 10000 3.6 190 22:38 05.03.2022
3462 Clear 0 1029 53 10000 5.14 180 21:31 05.03.2022
3463 Clear 0 1030 54 10000 5.14 210 20:39 05.03.2022
3464 Clear -1 1030 52 10000 4.12 230 19:23 05.03.2022
3465 Clear -1 1031 51 10000 3.6 230 18:50 05.03.2022
3466 Clear -3 1032 56 10000 4.12 210 17:39 05.03.2022
3467 Clear -5 1033 71 10000 2.06 220 16:20 05.03.2022
3468 Mist -7 1032 78 9656 3.09 230 15:30 05.03.2022
3469 Mist -8 1032 80 6437 2.06 230 14:37 05.03.2022
3470 Mist -12 1032 86 8047 2.06 240 13:46 05.03.2022
3471 Mist -15 1031 86 8047 1.54 190 12:46 05.03.2022
3472 Mist -15 1030 88 9656 1.03 0 11:39 05.03.2022
3473 Mist -14 1030 88 6437 0 0 11:18 05.03.2022
3474 Mist -14 1029 90 8047 0 0 09:40 05.03.2022
3475 Mist -12 1029 86 8047 1.54 20 08:46 05.03.2022
3476 Clouds -10 1028 84 10000 1.03 170 07:23 05.03.2022
3477 Clear -7 1028 81 10000 3.09 230 05:41 05.03.2022
3478 Clouds -5 1028 64 10000 3.6 250 01:24 05.03.2022
3479 Clear -4 1027 60 10000 6.69 250 23:30 04.03.2022
3480 Clouds -4 1027 59 10000 9.26 230 22:40 04.03.2022
3481 Clouds -4 1027 56 10000 8.23 260 21:45 04.03.2022
3482 Clouds -4 1027 55 10000 10.29 250 20:49 04.03.2022
3483 Clouds -4 1027 57 10000 10.29 250 20:18 04.03.2022
3484 Clouds -5 1028 59 10000 8.75 240 19:35 04.03.2022
3485 Snow -6 1028 61 9656 9.77 250 18:36 04.03.2022
3486 Clear -8 1028 62 9656 10.29 230 17:30 04.03.2022
3487 Clear -9 1029 57 4023 12.35 250 16:36 04.03.2022
3488 Clear -12 1030 56 10000 10.29 240 15:27 04.03.2022
3489 Clear -12 1030 56 10000 10.29 240 15:27 04.03.2022
3490 Clouds -16 1030 68 10000 3.6 180 13:53 04.03.2022
3491 Clouds -18 1030 74 10000 4.12 190 12:54 04.03.2022
3492 Clear -19 1030 77 10000 4.12 210 11:38 04.03.2022
3493 Clear -19 1030 74 10000 3.6 190 10:42 04.03.2022
3494 Clear -18 1030 71 10000 3.6 210 09:28 04.03.2022
3495 Clear -18 1030 69 10000 3.6 230 08:31 04.03.2022
3496 Clear -18 1030 66 10000 2.57 230 06:59 04.03.2022
3497 Clear -14 1029 58 10000 3.09 280 03:28 04.03.2022
3498 Clear -11 1026 54 10000 6.69 310 00:22 04.03.2022
3499 Clouds -9 1023 50 10000 8.23 260 22:21 03.03.2022
3500 Clouds -9 1022 50 4023 8.23 280 21:39 03.03.2022
3501 Clouds -8 1022 49 10000 6.69 290 20:59 03.03.2022
3502 Clear -9 1021 50 10000 8.75 290 19:48 03.03.2022
3503 Clouds -9 1021 52 10000 1.54 230 18:51 03.03.2022
3504 Clouds -9 1021 54 10000 7.2 290 18:22 03.03.2022
3505 Clouds -9 1021 54 10000 8.75 300 17:27 03.03.2022
3506 Clear -9 1020 52 10000 4.63 320 15:48 03.03.2022
3507 Clouds -10 1019 60 10000 5.14 340 14:59 03.03.2022
3508 Clouds -10 1019 64 10000 5.14 340 14:33 03.03.2022
3509 Clouds -10 1017 65 10000 7.2 350 13:18 03.03.2022
3510 Clouds -10 1017 65 10000 7.2 350 13:18 03.03.2022
3511 Clouds -10 1017 65 10000 7.2 350 13:18 03.03.2022
3512 Clouds -9 1014 69 10000 8.23 350 11:50 03.03.2022
3513 Clouds -8 1012 85 10000 3.6 310 10:41 03.03.2022
3514 Mist -8 1010 92 8047 2.57 360 08:52 03.03.2022
3515 Clouds -6 1010 89 10000 4.12 360 07:25 03.03.2022
3516 Snow -6 1009 90 8047 3.09 360 06:35 03.03.2022
3517 Clouds -5 1013 80 3621 2.57 170 01:52 03.03.2022
3518 Clouds -4 1014 63 10000 5.66 240 23:29 02.03.2022
3519 Clear -4 1015 61 10000 7.2 230 22:52 02.03.2022
3520 Clear -3 1014 60 10000 6.17 230 21:30 02.03.2022
3521 Clouds -3 1014 64 10000 7.2 240 20:46 02.03.2022
3522 Clouds -4 1014 65 10000 7.2 240 20:24 02.03.2022
3523 Clouds -4 1015 71 10000 6.17 200 19:36 02.03.2022
3524 Clouds -5 1016 74 10000 5.14 230 18:46 02.03.2022
3525 Clouds -5 1016 74 4828 5.14 230 18:18 02.03.2022
3526 Clouds -5 1016 74 10000 6.17 240 17:32 02.03.2022
3527 Clouds -7 1017 75 10000 4.12 260 16:51 02.03.2022
3528 Clouds -10 1017 85 10000 4.12 230 14:49 02.03.2022
3529 Clouds -12 1016 83 10000 4.63 240 13:29 02.03.2022
3530 Clear -12 1016 85 10000 4.12 240 12:44 02.03.2022
3531 Clear -12 1016 85 10000 3.6 230 11:53 02.03.2022
3532 Clear -12 1016 85 10000 3.6 230 11:25 02.03.2022
3533 Clear -12 1015 85 10000 5.14 250 10:25 02.03.2022
3534 Clear -10 1015 86 10000 5.14 250 09:25 02.03.2022
3535 Clouds -9 1014 86 10000 6.17 250 07:52 02.03.2022
3536 Clouds -9 1013 86 10000 4.63 250 06:57 02.03.2022
3537 Snow -9 1012 88 2414 3.6 330 03:46 02.03.2022
3538 Snow -8 1011 86 3219 4.12 360 00:39 02.03.2022
3539 Snow -8 1011 88 4023 5.14 10 22:50 01.03.2022
3540 Snow -8 1011 88 4828 6.17 20 22:31 01.03.2022
3541 Snow -8 1012 88 2414 6.69 30 21:25 01.03.2022
3542 Snow -9 1013 83 1207 8.23 30 20:37 01.03.2022
3543 Snow -8 1013 86 1207 7.72 30 20:19 01.03.2022
3544 Snow -8 1015 85 1207 6.17 30 18:52 01.03.2022
3545 Snow -8 1016 84 1207 6.17 40 18:21 01.03.2022
3546 Snow -8 1016 84 1207 6.17 40 18:21 01.03.2022
3547 Snow -9 1018 75 2816 4.63 30 17:39 01.03.2022
3548 Clouds -10 1018 73 2414 5.14 70 16:36 01.03.2022
3549 Clouds -11 1021 63 10000 4.63 90 15:47 01.03.2022
3550 Clouds -13 1022 63 10000 6.17 80 14:53 01.03.2022
3551 Clouds -13 1022 62 10000 6.17 80 14:31 01.03.2022
3552 Clear -15 1023 69 10000 4.63 80 13:26 01.03.2022
3553 Clear -15 1023 68 10000 4.63 90 12:35 01.03.2022
3554 Clouds -15 1024 68 10000 2.57 110 10:57 01.03.2022
3555 Clouds -15 1025 68 10000 2.57 100 09:43 01.03.2022
3556 Clouds -16 1026 72 10000 3.09 120 08:20 01.03.2022
3557 Clouds -16 1026 70 10000 2.57 170 06:47 01.03.2022
3558 Clear -16 1027 64 10000 2.06 240 03:26 01.03.2022
3559 Clear -13 1027 59 10000 4.63 240 00:48 01.03.2022
3560 Clear -12 1027 56 10000 6.69 250 23:39 28.02.2022
3561 Clear -11 1026 53 10000 6.17 240 22:38 28.02.2022
3562 Clear -11 1027 53 10000 6.69 250 21:47 28.02.2022
3563 Clear -11 1026 51 10000 6.17 240 20:46 28.02.2022
3564 Clear -12 1027 53 10000 6.17 270 19:51 28.02.2022
3565 Clear -13 1028 54 10000 6.17 270 18:56 28.02.2022
3566 Clear -13 1028 54 10000 6.17 250 17:43 28.02.2022
3567 Clear -14 1028 52 10000 6.17 250 17:22 28.02.2022
3568 Clear -15 1028 55 10000 4.63 260 16:25 28.02.2022
3569 Clear -16 1026 59 10000 6.17 290 14:33 28.02.2022
3570 Clear -17 1025 62 10000 4.12 310 13:56 28.02.2022
3571 Clear -18 1025 60 10000 1.03 340 13:24 28.02.2022
3572 Clear -18 1024 65 10000 3.6 310 12:29 28.02.2022
3573 Clear -17 1023 61 10000 3.6 320 11:20 28.02.2022
3574 Clear -16 1022 60 10000 4.12 310 10:23 28.02.2022
3575 Clear -16 1021 56 10000 4.12 310 09:51 28.02.2022
3576 Clear -16 1021 51 10000 4.12 310 09:23 28.02.2022
3577 Clear -15 1021 50 10000 5.14 330 08:22 28.02.2022
3578 Clear -13 1018 59 10000 6.69 340 06:31 28.02.2022
3579 Clouds -10 1016 58 10000 7.72 310 04:31 28.02.2022
3580 Clear -7 1012 50 10000 4.63 280 01:24 28.02.2022
3581 Haze -5 1009 54 9656 9.77 320 22:57 27.02.2022
3582 Haze -5 1008 54 6437 11.32 330 22:32 27.02.2022
3583 Haze -3 1006 58 8047 10.29 300 21:42 27.02.2022
3584 Haze -2 1004 68 4828 10.29 300 20:51 27.02.2022
3585 Clouds -2 1004 75 10000 10.29 300 20:22 27.02.2022
3586 Snow -1 1004 84 4023 11.32 260 19:50 27.02.2022
3587 Clouds -1 1004 78 9656 9.77 240 19:24 27.02.2022
3588 Clouds -1 1004 82 2816 11.83 250 18:37 27.02.2022
3589 Snow -2 1005 84 3219 11.83 240 17:53 27.02.2022
3590 Snow -2 1006 87 1207 9.26 230 16:31 27.02.2022
3591 Snow -3 1007 90 604 8.23 230 15:39 27.02.2022
3592 Clouds -4 1009 74 10000 9.26 230 12:43 27.02.2022
3593 Clouds -4 1009 73 10000 9.26 230 12:25 27.02.2022
3594 Clouds -4 1011 72 10000 9.26 230 10:37 27.02.2022
3595 Clouds -4 1012 72 10000 8.23 230 09:58 27.02.2022
3596 Clouds -4 1012 72 10000 8.23 230 09:24 27.02.2022
3597 Clouds -4 1013 71 10000 9.77 230 08:54 27.02.2022
3598 Clouds -4 1015 79 10000 8.75 230 06:42 27.02.2022
3599 Clouds -5 1017 73 10000 8.75 230 04:26 27.02.2022
3600 Clouds -5 1020 69 10000 7.2 220 00:37 27.02.2022
3601 Clear -5 1022 63 10000 7.72 230 22:51 26.02.2022
3602 Clear -5 1023 61 10000 8.23 240 21:38 26.02.2022
3603 Clear -5 1024 61 10000 8.75 240 20:48 26.02.2022
3604 Clear -6 1026 64 9656 7.72 240 19:59 26.02.2022
3605 Clear -6 1026 65 9656 7.72 240 19:37 26.02.2022
3606 Clear -7 1027 69 6437 2.57 200 18:49 26.02.2022
3607 Clouds -9 1028 76 10000 5.14 230 17:42 26.02.2022
3608 Clear -11 1028 80 10000 5.14 210 16:48 26.02.2022
3609 Clear -13 1029 83 10000 3.6 180 15:48 26.02.2022
3610 Clear -14 1029 85 10000 3.6 180 15:20 26.02.2022
3611 Clear -15 1030 84 10000 3.09 180 14:52 26.02.2022
3612 Clear -16 1030 85 10000 3.09 180 14:33 26.02.2022
3613 Clouds -18 1029 85 2816 4.63 190 13:19 26.02.2022
3614 Clear -19 1029 85 3621 3.09 180 12:20 26.02.2022
3615 Clear -18 1029 87 4828 3.09 200 11:28 26.02.2022
3616 Clear -18 1029 87 9656 3.09 210 10:39 26.02.2022
3617 Clear -17 1029 87 9656 2.06 230 08:48 26.02.2022
3618 Clear -17 1029 89 9656 2.57 220 06:51 26.02.2022
3619 Clouds -13 1026 83 6437 4.63 10 00:50 26.02.2022
3620 Snow -13 1022 85 1207 9.26 20 22:47 25.02.2022
3621 Snow -13 1021 85 604 10.8 10 21:43 25.02.2022
3622 Snow -13 1021 86 604 9.77 10 21:23 25.02.2022
3623 Snow -13 1020 85 604 9.77 30 20:32 25.02.2022
3624 Snow -14 1021 86 604 9.26 30 18:59 25.02.2022
3625 Snow -14 1023 84 805 10.29 40 17:27 25.02.2022
3626 Snow -14 1023 85 402 9.77 30 16:32 25.02.2022
3627 Snow -14 1024 83 1207 11.83 40 15:47 25.02.2022
3628 Snow -13 1024 83 1207 10.8 40 15:21 25.02.2022
3629 Clouds -13 1025 78 2012 10.29 40 14:42 25.02.2022
3630 Clouds -13 1025 78 2012 10.29 40 14:42 25.02.2022
3631 Clouds -13 1027 67 10000 10.29 50 13:36 25.02.2022
3632 Clouds -13 1028 63 10000 7.72 50 12:56 25.02.2022
3633 Clouds -12 1029 64 10000 8.23 40 11:28 25.02.2022
3634 Clouds -12 1030 63 10000 8.23 40 10:40 25.02.2022
3635 Clouds -12 1030 64 10000 8.23 40 10:22 25.02.2022
3636 Clouds -12 1031 68 10000 4.12 20 09:18 25.02.2022
3637 Clouds -12 1033 69 10000 4.12 20 07:42 25.02.2022
3638 Clouds -13 1034 72 10000 2.57 140 05:51 25.02.2022
3639 Clouds -13 1034 70 10000 2.57 130 04:41 25.02.2022
3640 Clear -11 1035 49 10000 1.54 100 00:22 25.02.2022
3641 Clear -9 1036 47 10000 2.57 190 21:59 24.02.2022
3642 Clear -9 1036 48 10000 2.57 190 21:40 24.02.2022
3643 Clear -9 1036 48 10000 2.57 190 21:20 24.02.2022
3644 Clear -10 1036 50 10000 3.6 230 19:53 24.02.2022
3645 Clear -11 1037 49 10000 2.06 340 18:45 24.02.2022
3646 Clear -11 1037 48 10000 2.57 70 18:19 24.02.2022
3647 Clear -12 1037 51 10000 2.57 40 17:42 24.02.2022
3648 Clear -12 1036 55 10000 3.6 20 16:50 24.02.2022
3649 Clear -13 1036 55 10000 3.6 20 16:25 24.02.2022
3650 Clouds -13 1036 61 10000 1.79 6 15:30 24.02.2022
3651 Clouds -15 1036 66 10000 4.12 320 14:37 24.02.2022
3652 Clear -16 1035 75 10000 3.09 270 13:42 24.02.2022
3653 Clear -16 1035 68 10000 3.09 270 13:24 24.02.2022
3654 Clear -15 1033 68 10000 3.09 280 10:43 24.02.2022
3655 Clear -14 1032 67 10000 3.6 270 09:41 24.02.2022
3656 Clear -14 1032 66 10000 3.6 280 08:42 24.02.2022
3657 Clear -13 1031 71 10000 5.14 270 06:25 24.02.2022
3658 Clear -12 1030 71 10000 5.66 280 05:36 24.02.2022
3659 Clouds -10 1024 64 10000 1.54 150 00:30 24.02.2022
3660 Clouds -7 1017 60 10000 17.49 280 21:55 23.02.2022
3661 Snow -5 1015 59 10000 14.92 260 20:32 23.02.2022
3662 Snow -5 1014 61 10000 13.89 270 19:56 23.02.2022
3663 Clouds -4 1012 70 10000 10.8 260 18:59 23.02.2022
3664 Clouds -3 1011 78 10000 13.89 260 17:47 23.02.2022
3665 Clouds 1 1008 83 10000 12.35 260 15:47 23.02.2022
3666 Mist 2 1006 93 9656 8.75 260 13:34 23.02.2022
3667 Clouds 2 1004 95 10000 1.54 110 12:29 23.02.2022
3668 Clouds 3 1004 97 10000 7.2 280 10:55 23.02.2022
3669 Rain 2 1003 97 4828 7.2 260 09:38 23.02.2022
3670 Mist 0 1003 96 1609 4.63 260 08:36 23.02.2022
3671 Mist -1 1003 95 10000 2.06 280 07:25 23.02.2022
3672 Snow -4 1008 93 3621 9.26 30 02:23 23.02.2022
3673 Snow -7 1014 88 8047 8.23 30 23:50 22.02.2022
3674 Snow -7 1015 87 8047 9.77 40 23:31 22.02.2022
3675 Snow -7 1016 81 9656 8.23 30 22:28 22.02.2022
3676 Clouds -7 1018 78 10000 9.77 30 21:44 22.02.2022
3677 Clouds -7 1018 77 10000 9.77 30 21:20 22.02.2022
3678 Clear -7 1019 75 10000 10.29 30 20:32 22.02.2022
3679 Clear -7 1020 75 10000 9.77 30 19:56 22.02.2022
3680 Clear -7 1020 75 10000 9.77 30 19:33 22.02.2022
3681 Clear -7 1022 76 10000 8.75 30 18:35 22.02.2022
3682 Clouds -7 1024 73 10000 9.77 30 17:27 22.02.2022
3683 Clouds -8 1025 76 10000 8.75 40 16:56 22.02.2022
3684 Clouds -8 1025 76 10000 8.75 40 16:21 22.02.2022
3685 Clouds -9 1026 78 10000 10.29 40 15:30 22.02.2022
3686 Clouds -9 1027 79 10000 10.8 50 14:28 22.02.2022
3687 Clouds -9 1029 77 10000 8.23 30 11:39 22.02.2022
3688 Clouds -9 1029 76 10000 10.29 40 09:45 22.02.2022
3689 Clouds -9 1031 72 10000 9.26 30 07:30 22.02.2022
3690 Clouds -9 1032 69 10000 9.77 40 06:54 22.02.2022
3691 Clouds -6 1032 63 10000 8.75 50 02:50 22.02.2022
3692 Clouds -3 1029 67 10000 6.69 60 23:18 21.02.2022
3693 Clouds -2 1028 71 10000 6.69 40 22:37 21.02.2022
3694 Clouds -1 1028 69 10000 7.2 50 21:21 21.02.2022
3695 Clouds 2 1026 64 10000 3.6 360 18:56 21.02.2022
3696 Clouds 2 1026 60 10000 3.6 360 18:37 21.02.2022
3697 Clouds 2 1024 55 10000 5.14 350 16:30 21.02.2022
3698 Clouds 1 1022 68 10000 0.51 20 14:23 21.02.2022
3699 Clouds 1 1021 77 10000 3.6 340 13:31 21.02.2022
3700 Clouds 2 1019 76 10000 2.57 320 12:46 21.02.2022
3701 Clouds 2 1019 76 10000 2.57 320 12:21 21.02.2022
3702 Clouds 2 1019 76 10000 2.57 320 12:21 21.02.2022
3703 Clouds 3 1016 69 10000 6.17 230 10:29 21.02.2022
3704 Clouds 3 1013 63 10000 8.75 230 07:51 21.02.2022
3705 Clouds -4 1011 69 10000 9.77 170 00:36 21.02.2022
3706 Haze -5 1013 67 9656 9.77 170 22:32 20.02.2022
3707 Clouds -6 1016 67 10000 9.26 170 21:44 20.02.2022
3708 Clouds -6 1016 68 10000 9.26 170 21:25 20.02.2022
3709 Clouds -7 1018 66 10000 10.8 150 20:43 20.02.2022
3710 Haze -7 1020 67 8047 11.32 160 19:51 20.02.2022
3711 Clouds -9 1022 69 10000 7.2 180 18:57 20.02.2022
3712 Clouds -9 1022 69 10000 7.2 180 18:37 20.02.2022
3713 Clouds -10 1024 67 10000 6.69 180 17:56 20.02.2022
3714 Clouds -10 1024 64 10000 5.14 170 17:24 20.02.2022
3715 Clear -13 1027 64 10000 3.6 170 15:28 20.02.2022
3716 Clear -16 1027 78 10000 2.57 190 13:59 20.02.2022
3717 Clear -18 1028 81 10000 2.57 230 12:47 20.02.2022
3718 Clouds -18 1027 75 10000 3.09 230 11:56 20.02.2022
3719 Clear -16 1027 74 10000 2.57 260 10:21 20.02.2022
3720 Clear -15 1027 71 10000 3.09 290 09:46 20.02.2022
3721 Clear -13 1024 69 10000 2.06 100 06:30 20.02.2022
3722 Clouds -8 1012 72 3621 10.8 280 00:33 20.02.2022
3723 Clouds -8 1012 72 3621 10.8 280 00:33 20.02.2022
3724 Clouds -7 1008 73 2816 12.35 280 23:39 19.02.2022
3725 Clouds -5 1006 75 4828 10.8 260 22:24 19.02.2022
3726 Snow -4 1005 83 1207 10.8 240 21:52 19.02.2022
3727 Snow -4 1003 88 3621 10.8 230 20:45 19.02.2022
3728 Snow -4 1002 86 402 10.8 280 19:36 19.02.2022
3729 Snow -3 1001 88 9656 11.32 210 18:41 19.02.2022
3730 Snow -5 1001 87 2816 8.75 180 17:59 19.02.2022
3731 Snow -5 1002 86 6437 8.75 180 17:32 19.02.2022
3732 Snow -7 1002 89 1006 11.32 170 15:59 19.02.2022
3733 Snow -8 1003 89 805 9.26 170 14:56 19.02.2022
3734 Snow -9 1005 89 2414 8.23 140 13:58 19.02.2022
3735 Clouds -11 1007 84 3219 8.23 140 11:58 19.02.2022
3736 Clouds -11 1008 84 10000 6.17 130 11:29 19.02.2022
3737 Clouds -14 1012 81 10000 4.63 120 09:21 19.02.2022
3738 Clouds -17 1017 90 10000 2.57 110 06:51 19.02.2022
3739 Clouds -12 1017 72 10000 7.2 250 00:55 19.02.2022
3740 Clouds -10 1014 75 10000 8.23 270 22:41 18.02.2022
3741 Clouds -9 1013 74 10000 9.26 260 21:27 18.02.2022
3742 Clouds -10 1012 76 9656 8.75 270 20:31 18.02.2022
3743 Clear -9 1011 76 3219 9.26 290 19:51 18.02.2022
3744 Clear -9 1011 76 3219 9.26 290 19:51 18.02.2022
3745 Clouds -9 1010 77 3621 8.23 280 18:39 18.02.2022
3746 Clouds -9 1011 79 10000 8.23 280 18:19 18.02.2022
3747 Clouds -10 1010 85 1609 8.75 280 17:20 18.02.2022
3748 Snow -9 1006 89 2816 7.2 330 14:39 18.02.2022
3749 Snow -9 1003 91 1207 8.23 330 13:47 18.02.2022
3750 Snow -9 1000 92 1207 9.77 330 12:51 18.02.2022
3751 Snow -8 998 93 805 8.75 340 11:57 18.02.2022
3752 Snow -8 996 93 805 6.69 340 10:58 18.02.2022
3753 Snow -7 994 93 1207 9.26 360 09:29 18.02.2022
3754 Snow -4 997 94 9656 9.26 20 06:50 18.02.2022
3755 Snow -3 1000 94 4828 11.32 30 05:36 18.02.2022
3756 Rain 5 1005 93 2012 3.09 180 22:46 17.02.2022
3757 Rain 5 1005 95 805 3.09 170 21:42 17.02.2022
3758 Rain 5 1007 96 4828 4.63 190 20:52 17.02.2022
3759 Rain 5 1007 95 4828 4.63 190 20:33 17.02.2022
3760 Rain 5 1007 96 2816 5.14 190 19:43 17.02.2022
3761 Rain 5 1008 95 10000 8.23 180 18:34 17.02.2022
3762 Mist 5 1009 94 9656 6.69 180 17:47 17.02.2022
3763 Rain 4 1010 94 9656 6.69 180 16:20 17.02.2022
3764 Rain 4 1011 91 8047 6.17 170 14:39 17.02.2022
3765 Rain 4 1011 89 10000 5.66 180 13:47 17.02.2022
3766 Clouds 4 1012 86 10000 5.66 180 11:59 17.02.2022
3767 Clouds 4 1012 85 10000 5.66 180 11:21 17.02.2022
3768 Clouds 4 1013 79 10000 6.69 180 08:37 17.02.2022
3769 Clouds 3 1016 63 10000 14.4 170 00:29 17.02.2022
3770 Clear 3 1018 61 10000 10.8 180 22:39 16.02.2022
3771 Clear 2 1019 59 10000 13.38 180 20:39 16.02.2022
3772 Clear 1 1021 59 10000 10.29 180 19:42 16.02.2022
3773 Clear -1 1022 58 10000 11.83 170 18:36 16.02.2022
3774 Clear -2 1024 59 10000 10.8 170 17:34 16.02.2022
3775 Clouds -6 1028 67 10000 2.68 182 15:26 16.02.2022
3776 Clouds -8 1031 66 10000 5.66 120 14:46 16.02.2022
3777 Clouds -11 1034 70 10000 5.14 120 12:34 16.02.2022
3778 Clouds -12 1036 72 10000 4.12 110 11:52 16.02.2022
3779 Clouds -13 1036 73 10000 4.12 120 10:52 16.02.2022
3780 Clouds -13 1036 73 10000 4.12 120 10:29 16.02.2022
3781 Clear -15 1038 75 10000 3.09 130 06:56 16.02.2022
3782 Clear -14 1039 67 10000 1.03 310 03:46 16.02.2022
3783 Clouds -9 1036 54 10000 5.66 270 23:35 15.02.2022
3784 Clouds -8 1036 56 10000 7.72 260 22:18 15.02.2022
3785 Clear -8 1035 54 10000 7.72 260 21:45 15.02.2022
3786 Clear -8 1035 54 10000 7.72 260 21:26 15.02.2022
3787 Clear -8 1034 55 10000 7.72 270 20:53 15.02.2022
3788 Clear -9 1034 57 10000 6.17 260 19:48 15.02.2022
3789 Clouds -9 1034 62 10000 5.66 260 18:45 15.02.2022
3790 Clouds -10 1034 63 10000 5.66 260 18:19 15.02.2022
3791 Clouds -10 1034 67 10000 5.66 260 17:47 15.02.2022
3792 Clouds -12 1033 72 10000 6.17 260 16:30 15.02.2022
3793 Clouds -14 1032 78 8047 6.69 250 14:47 15.02.2022
3794 Clouds -15 1030 78 10000 4.63 250 13:26 15.02.2022
3795 Clear -16 1029 70 10000 5.66 240 11:54 15.02.2022
3796 Clouds -16 1029 65 10000 5.14 240 10:57 15.02.2022
3797 Clouds -16 1028 62 10000 4.63 230 09:28 15.02.2022
3798 Clear -16 1027 66 10000 4.12 240 06:49 15.02.2022
3799 Clouds -14 1024 58 10000 7.72 240 00:48 15.02.2022
3800 Clear -12 1022 51 10000 7.2 250 22:20 14.02.2022
3801 Clear -12 1021 47 10000 8.23 260 21:27 14.02.2022
3802 Clear -12 1021 49 10000 5.14 260 20:24 14.02.2022
3803 Clear -13 1021 51 10000 5.66 290 19:30 14.02.2022
3804 Clouds -13 1021 55 10000 3.09 310 18:27 14.02.2022
3805 Clouds -13 1022 59 10000 3.09 250 17:58 14.02.2022
3806 Clouds -14 1022 59 10000 3.09 250 17:24 14.02.2022
3807 Clouds -15 1021 67 10000 3.09 330 15:59 14.02.2022
3808 Clouds -17 1021 74 9656 3.6 330 13:44 14.02.2022
3809 Clouds -17 1021 73 8047 3.6 330 13:23 14.02.2022
3810 Clouds -17 1020 72 10000 3.6 340 12:32 14.02.2022
3811 Clouds -17 1021 70 10000 3.09 330 11:54 14.02.2022
3812 Clouds -17 1021 70 10000 3.09 330 10:37 14.02.2022
3813 Clouds -17 1021 69 10000 5.14 20 08:43 14.02.2022
3814 Clouds -16 1022 69 10000 6.17 10 07:30 14.02.2022
3815 Clear -15 1024 62 10000 4.63 60 23:45 13.02.2022
3816 Clear -14 1025 60 10000 4.12 10 22:42 13.02.2022
3817 Clear -14 1025 59 10000 4.12 10 22:23 13.02.2022
3818 Clear -14 1026 56 10000 4.12 40 21:30 13.02.2022
3819 Clear -15 1026 58 10000 2.57 10 20:33 13.02.2022
3820 Clear -15 1027 59 10000 2.57 50 19:29 13.02.2022
3821 Clear -16 1028 59 10000 3.09 30 18:46 13.02.2022
3822 Clear -16 1028 60 10000 3.09 30 18:26 13.02.2022
3823 Clear -19 1029 64 10000 5.14 30 15:54 13.02.2022
3824 Clear -19 1029 65 10000 5.14 30 15:24 13.02.2022
3825 Clear -20 1029 65 10000 6.69 20 14:22 13.02.2022
3826 Clouds -20 1028 68 10000 7.2 30 12:51 13.02.2022
3827 Clouds -19 1028 68 10000 5.14 10 11:44 13.02.2022
3828 Clouds -18 1027 67 10000 7.2 10 10:33 13.02.2022
3829 Clouds -17 1027 65 10000 7.72 40 09:45 13.02.2022
3830 Clouds -16 1026 65 10000 5.66 10 07:49 13.02.2022
3831 Clouds -9 1020 69 10000 8.75 290 00:35 13.02.2022
3832 Clouds -8 1018 71 10000 8.23 270 23:42 12.02.2022
3833 Clouds -6 1016 74 10000 10.29 270 22:33 12.02.2022
3834 Clouds -4 1013 77 10000 10.29 250 21:30 12.02.2022
3835 Clouds -3 1010 80 10000 10.8 260 20:45 12.02.2022
3836 Clouds 1 1008 78 10000 9.77 260 19:35 12.02.2022
3837 Clouds 3 1006 79 10000 13.38 230 18:53 12.02.2022
3838 Clouds 4 1006 77 10000 13.38 230 18:35 12.02.2022
3839 Clouds 4 1006 79 10000 11.32 230 17:20 12.02.2022
3840 Clouds 4 1006 86 10000 7.2 220 16:29 12.02.2022
3841 Clouds 3 1006 89 10000 8.75 230 15:51 12.02.2022
3842 Clouds 3 1006 91 10000 7.72 220 14:44 12.02.2022
3843 Clouds 3 1006 91 10000 7.72 220 14:24 12.02.2022
3844 Clouds 3 1005 93 10000 7.2 230 11:18 12.02.2022
3845 Clouds 3 1005 94 10000 4.63 220 10:23 12.02.2022
3846 Rain 3 1004 93 10000 5.14 220 09:32 12.02.2022
3847 Rain 3 1004 91 10000 6.17 220 08:45 12.02.2022
3848 Clouds 4 1004 86 10000 6.69 250 05:40 12.02.2022
3849 Clouds 4 1004 72 10000 5.14 210 04:36 12.02.2022
3850 Clouds 5 1004 62 10000 7.72 190 02:19 12.02.2022
3851 Clouds 4 1005 66 10000 10.29 190 22:57 11.02.2022
3852 Clouds 4 1005 60 10000 7.72 170 22:20 11.02.2022
3853 Clouds 4 1006 64 10000 7.2 160 20:52 11.02.2022
3854 Clouds 4 1006 61 10000 7.2 160 20:21 11.02.2022
3855 Clear 4 1007 62 10000 7.2 170 19:27 11.02.2022
3856 Clouds 3 1009 60 10000 7.72 160 18:29 11.02.2022
3857 Clouds 3 1010 59 10000 7.72 190 17:26 11.02.2022
3858 Clouds 2 1011 64 10000 5.14 150 16:26 11.02.2022
3859 Clouds 1 1011 69 10000 4.63 150 15:18 11.02.2022
3860 Clouds 0 1011 72 10000 4.12 160 14:37 11.02.2022
3861 Clouds 0 1011 72 10000 4.12 160 14:19 11.02.2022
3862 Clouds 0 1011 80 10000 3.6 200 13:40 11.02.2022
3863 Clouds 0 1011 80 10000 4.63 200 12:45 11.02.2022
3864 Clouds 0 1011 80 10000 4.12 230 10:49 11.02.2022
3865 Clouds 0 1010 80 10000 5.66 240 09:31 11.02.2022
3866 Clouds 1 1010 77 10000 6.17 240 08:31 11.02.2022
3867 Clouds 1 1009 75 10000 2.06 190 07:40 11.02.2022
3868 Clouds 1 1008 74 10000 8.23 230 05:34 11.02.2022
3869 Rain 2 1006 86 10000 8.23 240 02:21 11.02.2022
3870 Clouds 3 1004 85 10000 8.23 230 23:45 10.02.2022
3871 Clouds 3 1003 83 10000 8.75 230 22:25 10.02.2022
3872 Clouds 3 1003 83 10000 7.72 220 21:40 10.02.2022
3873 Clouds 4 1003 81 10000 7.72 230 20:48 10.02.2022
3874 Clouds 4 1003 80 10000 7.72 230 19:49 10.02.2022
3875 Clouds 4 1003 81 10000 7.72 230 19:21 10.02.2022
3876 Clouds 3 1003 89 10000 7.2 220 18:22 10.02.2022
3877 Mist 2 1004 88 4828 6.69 210 17:21 10.02.2022
3878 Rain 3 1004 81 10000 4.63 210 16:39 10.02.2022
3879 Clouds 2 1004 80 10000 6.17 190 15:39 10.02.2022
3880 Clouds 2 1004 80 10000 6.17 190 15:20 10.02.2022
3881 Clouds 2 1004 82 10000 5.66 180 14:34 10.02.2022
3882 Clouds 1 1005 80 10000 7.72 180 13:40 10.02.2022
3883 Clouds 1 1005 80 10000 7.72 180 13:19 10.02.2022
3884 Clouds 2 1005 74 10000 6.17 180 11:52 10.02.2022
3885 Clouds 1 1005 74 10000 6.17 180 11:30 10.02.2022
3886 Clouds 2 1005 73 10000 7.72 170 10:23 10.02.2022
3887 Clouds 1 1006 74 10000 7.2 170 09:44 10.02.2022
3888 Clouds 1 1006 74 10000 7.2 170 08:25 10.02.2022
3889 Clouds 0 1008 75 10000 5.14 180 06:33 10.02.2022
3890 Clouds 0 1009 71 10000 2.57 130 02:43 10.02.2022
3891 Clouds 0 1009 69 10000 2.06 360 00:53 10.02.2022
3892 Clouds 0 1009 69 10000 2.06 360 00:30 10.02.2022
3893 Clouds 1 1009 67 10000 2.57 70 23:58 09.02.2022
3894 Clear 1 1009 65 10000 4.63 120 22:54 09.02.2022
3895 Clear 1 1009 64 10000 4.63 120 22:30 09.02.2022
3896 Clear 2 1010 62 10000 6.17 120 21:47 09.02.2022
3897 Clear 1 1010 62 10000 6.17 120 21:27 09.02.2022
3898 Clear 1 1010 61 10000 5.14 130 20:43 09.02.2022
3899 Clear 1 1010 62 10000 5.14 130 20:22 09.02.2022
3900 Clear 1 1011 63 10000 7.2 130 19:41 09.02.2022
3901 Clear 0 1013 64 10000 6.69 140 18:38 09.02.2022
3902 Clear 0 1013 64 10000 6.69 140 18:38 09.02.2022
3903 Clear -2 1015 65 10000 3.09 180 16:56 09.02.2022
3904 Clear -3 1015 65 10000 3.09 180 16:20 09.02.2022
3905 Clear -6 1015 78 10000 3.09 190 15:23 09.02.2022
3906 Clear -6 1015 86 10000 6.17 250 12:53 09.02.2022
3907 Clear -7 1014 86 10000 7.2 240 11:29 09.02.2022
3908 Clear -6 1014 85 10000 7.2 240 10:34 09.02.2022
3909 Clouds -5 1013 88 10000 5.66 240 09:50 09.02.2022
3910 Clouds -5 1013 89 10000 5.66 240 09:22 09.02.2022
3911 Clouds -4 1013 83 10000 4.12 250 08:45 09.02.2022
3912 Clouds -3 1012 87 10000 5.66 250 05:57 09.02.2022
3913 Clouds -3 1012 86 10000 5.14 250 04:30 09.02.2022
3914 Clouds -3 1012 85 10000 4.63 260 03:48 09.02.2022
3915 Mist -2 1012 82 9656 5.14 240 23:45 08.02.2022
3916 Mist -2 1012 82 9656 5.14 240 23:19 08.02.2022
3917 Mist -2 1012 82 9656 5.14 240 23:19 08.02.2022
3918 Clouds -2 1011 82 10000 4.12 240 22:38 08.02.2022
3919 Clouds -1 1011 82 10000 4.63 210 22:19 08.02.2022
3920 Clouds -1 1011 83 10000 2.06 280 21:22 08.02.2022
3921 Mist -1 1012 81 9656 3.09 310 20:58 08.02.2022
3922 Mist -2 1012 82 9656 3.09 310 20:34 08.02.2022
3923 Haze -2 1012 83 8047 3.09 300 19:27 08.02.2022
3924 Clouds -2 1013 84 10000 4.63 360 18:19 08.02.2022
3925 Clouds -4 1014 89 10000 4.12 360 16:56 08.02.2022
3926 Clouds -5 1014 87 10000 4.63 10 15:46 08.02.2022
3927 Clouds -6 1015 88 10000 5.14 20 14:58 08.02.2022
3928 Clear -8 1015 88 10000 3.6 10 13:48 08.02.2022
3929 Clear -8 1015 88 10000 5.66 10 12:24 08.02.2022
3930 Mist -8 1016 87 9656 5.14 20 10:49 08.02.2022
3931 Clear -8 1017 86 10000 6.17 20 09:48 08.02.2022
3932 Mist -8 1017 86 9656 6.17 20 08:39 08.02.2022
3933 Clear -7 1018 86 10000 5.66 20 06:38 08.02.2022
3934 Clouds -5 1020 79 10000 4.63 20 04:40 08.02.2022
3935 Clouds -5 1020 79 10000 4.63 20 04:22 08.02.2022
3936 Clouds -4 1020 76 10000 4.63 20 03:36 08.02.2022
3937 Clouds -4 1020 78 10000 4.63 20 03:18 08.02.2022
3938 Clouds -4 1020 79 10000 5.14 20 02:59 08.02.2022
3939 Clouds -4 1020 78 10000 5.14 20 02:36 08.02.2022
3940 Clouds -4 1020 78 10000 5.14 20 02:18 08.02.2022
3941 Clouds -4 1021 79 10000 4.63 20 01:44 08.02.2022
3942 Clouds -4 1021 79 10000 4.63 20 01:25 08.02.2022
3943 Clouds -4 1021 79 10000 1.54 360 01:25 08.02.2022
3944 Clouds -3 1021 79 10000 5.66 30 00:55 08.02.2022
3945 Clouds -3 1021 79 10000 5.66 30 00:21 08.02.2022
3946 Clouds -3 1021 76 10000 4.12 20 23:44 07.02.2022
3947 Clouds -2 1021 75 10000 4.12 20 23:18 07.02.2022
3948 Clouds -1 1021 72 10000 3.09 10 22:59 07.02.2022
3949 Clouds -1 1021 71 10000 3.09 10 22:19 07.02.2022
3950 Clouds -1 1022 69 10000 3.6 80 21:50 07.02.2022
3951 Clouds -1 1022 69 10000 3.6 80 21:27 07.02.2022
3952 Clouds -1 1022 67 10000 3.6 160 20:45 07.02.2022
3953 Clouds -1 1022 67 10000 3.6 160 20:27 07.02.2022
3954 Clouds -1 1023 66 10000 4.63 170 19:47 07.02.2022
3955 Clouds -1 1024 66 10000 4.12 170 18:37 07.02.2022
3956 Clear -2 1025 68 10000 5.14 170 17:23 07.02.2022
3957 Clear -3 1025 69 10000 4.12 180 16:52 07.02.2022
3958 Clouds -5 1026 75 10000 5.14 190 15:48 07.02.2022
3959 Clouds -8 1026 81 10000 4.63 170 14:19 07.02.2022
3960 Clouds -9 1026 82 10000 4.12 180 13:27 07.02.2022
3961 Clouds -9 1026 83 10000 1.54 200 12:35 07.02.2022
3962 Clear -9 1026 81 10000 2.06 200 11:50 07.02.2022
3963 Clear -9 1026 81 10000 2.06 200 11:24 07.02.2022
3964 Clouds -9 1026 79 10000 2.06 180 10:42 07.02.2022
3965 Clouds -8 1026 75 10000 2.06 180 10:24 07.02.2022
3966 Clouds -8 1026 77 10000 1.54 180 09:52 07.02.2022
3967 Clouds -7 1026 78 10000 1.54 180 09:18 07.02.2022
3968 Clouds -8 1026 78 10000 1.54 180 07:53 07.02.2022
3969 Clouds -8 1027 75 10000 1.54 170 06:34 07.02.2022
3970 Clouds -7 1027 75 10000 0 0 04:49 07.02.2022
3971 Clouds -9 1028 74 10000 2.06 350 02:38 07.02.2022
3972 Clouds -8 1028 64 10000 1.03 180 00:24 07.02.2022
3973 Clouds -7 1028 60 10000 2.06 170 23:20 06.02.2022
3974 Clouds -8 1028 60 10000 2.57 170 22:42 06.02.2022
3975 Clouds -8 1029 57 10000 2.57 160 21:47 06.02.2022
3976 Clouds -8 1029 56 10000 2.57 160 21:21 06.02.2022
3977 Clouds -9 1030 57 10000 2.06 140 20:48 06.02.2022
3978 Clouds -9 1030 58 10000 2.06 140 20:24 06.02.2022
3979 Clouds -10 1031 59 10000 2.06 160 19:22 06.02.2022
3980 Clouds -11 1033 58 10000 2.06 140 18:33 06.02.2022
3981 Clouds -12 1034 61 10000 2.06 130 17:39 06.02.2022
3982 Clouds -13 1035 66 10000 2.57 170 16:52 06.02.2022
3983 Clouds -14 1035 68 10000 2.57 170 16:29 06.02.2022
3984 Clouds -15 1036 74 10000 2.06 180 15:47 06.02.2022
3985 Clouds -15 1036 74 10000 2.06 180 15:47 06.02.2022
3986 Clouds -16 1036 73 10000 2.06 180 15:25 06.02.2022
3987 Clouds -19 1036 75 10000 2.06 140 14:23 06.02.2022
3988 Clouds -21 1036 71 10000 2.57 150 13:23 06.02.2022
3989 Clouds -22 1037 77 10000 1.54 140 12:33 06.02.2022
3990 Clouds -22 1036 77 10000 1.54 130 10:43 06.02.2022
3991 Clear -22 1037 74 10000 1.54 160 09:48 06.02.2022
3992 Clouds -21 1036 74 10000 1.54 140 08:41 06.02.2022
3993 Clear -21 1036 75 10000 2.06 180 07:36 06.02.2022
3994 Clear -18 1035 71 10000 1.03 160 05:29 06.02.2022
3995 Clear -16 1033 62 10000 1.54 230 02:26 06.02.2022
3996 Clear -14 1031 54 10000 1.54 240 00:51 06.02.2022
3997 Clouds -15 1031 64 10000 5.14 250 00:24 06.02.2022
3998 Clear -12 1028 54 10000 2.06 240 21:59 05.02.2022
3999 Clear -12 1027 57 10000 1.54 260 20:48 05.02.2022
4000 Clear -12 1027 57 10000 1.54 260 20:23 05.02.2022
4001 Clear -12 1026 59 10000 2.06 250 19:44 05.02.2022
4002 Clear -12 1025 60 10000 1.54 250 18:48 05.02.2022
4003 Clear -12 1025 62 10000 3.09 350 17:37 05.02.2022
4004 Clouds -13 1024 64 10000 3.09 330 16:33 05.02.2022
4005 Haze -14 1023 68 9656 3.09 340 15:31 05.02.2022
4006 Clouds -13 1021 81 4828 0.51 210 13:58 05.02.2022
4007 Clouds -13 1020 84 2816 0.51 230 12:46 05.02.2022
4008 Clouds -12 1020 83 8047 1.03 270 11:47 05.02.2022
4009 Clouds -12 1020 82 10000 1.54 310 10:44 05.02.2022
4010 Clouds -13 1020 80 10000 1.54 320 09:51 05.02.2022
4011 Clouds -13 1020 81 9656 1.54 320 09:23 05.02.2022
4012 Clouds -12 1020 82 8047 2.06 350 07:32 05.02.2022
4013 Clouds -12 1020 82 10000 2.57 360 06:55 05.02.2022
4014 Clouds -12 1022 79 10000 3.09 360 03:22 05.02.2022
4015 Clouds -12 1022 82 4828 2.57 360 01:18 05.02.2022
4016 Clouds -12 1021 82 8047 2.24 21 00:39 05.02.2022
4017 Clouds -12 1021 79 8047 3.09 10 23:33 04.02.2022
4018 Clouds -11 1022 77 10000 3.6 360 22:55 04.02.2022
4019 Clouds -11 1022 75 10000 4.12 10 21:36 04.02.2022
4020 Clouds -11 1022 76 10000 4.12 10 21:18 04.02.2022
4021 Clouds -11 1021 77 4828 3.6 10 20:40 04.02.2022
4022 Haze -11 1023 77 9656 4.12 20 19:29 04.02.2022
4023 Clouds -13 1025 82 4828 4.63 10 16:50 04.02.2022
4024 Clouds -13 1025 84 3219 4.63 10 15:34 04.02.2022
4025 Snow -13 1025 85 2816 3.6 10 14:51 04.02.2022
4026 Snow -13 1026 86 2414 2.24 20 12:43 04.02.2022
4027 Snow -13 1026 87 2414 4.63 10 11:46 04.02.2022
4028 Clouds -12 1026 85 2414 4.63 10 10:59 04.02.2022
4029 Clouds -12 1026 85 2414 4.63 10 10:22 04.02.2022
4030 Snow -12 1028 86 2012 3.6 20 08:33 04.02.2022
4031 Snow -10 1029 85 2816 4.12 10 04:53 04.02.2022
4032 Clouds -9 1031 84 2816 3.6 10 02:38 04.02.2022
4033 Clouds -6 1030 68 10000 3.09 360 00:18 04.02.2022
4034 Clouds -6 1029 66 10000 2.57 10 22:55 03.02.2022
4035 Clouds -6 1029 65 10000 2.57 10 22:22 03.02.2022
4036 Clouds -5 1029 66 10000 2.57 20 21:41 03.02.2022
4037 Clouds -5 1028 67 10000 2.57 10 20:22 03.02.2022
4038 Snow -4 1028 69 10000 3.09 10 19:57 03.02.2022
4039 Clouds -4 1028 71 10000 3.09 10 19:23 03.02.2022
4040 Clouds -4 1028 80 9656 2.57 360 18:26 03.02.2022
4041 Clouds -4 1027 81 9656 3.6 10 17:27 03.02.2022
4042 Snow -2 1026 85 10000 3.6 10 15:44 03.02.2022
4043 Clouds -1 1024 94 4828 4.12 360 14:22 03.02.2022
4044 Snow 1 1021 95 4023 1.03 180 12:37 03.02.2022
4045 Rain 1 1020 94 4828 1.03 180 09:29 03.02.2022
4046 Rain 1 1020 94 4023 1.03 190 08:19 03.02.2022
4047 Clouds 3 1020 77 10000 1.03 190 02:56 03.02.2022
4048 Clouds 3 1021 76 10000 1.54 230 00:29 03.02.2022
4049 Clouds 3 1022 74 10000 1.54 180 22:42 02.02.2022
4050 Clouds 3 1022 73 10000 2.06 180 21:53 02.02.2022
4051 Clouds 3 1022 72 10000 2.06 180 21:29 02.02.2022
4052 Clear 4 1022 67 10000 3.09 190 20:28 02.02.2022
4053 Clear 3 1023 62 10000 1.54 160 19:49 02.02.2022
4054 Clear 3 1023 66 10000 1.54 160 19:20 02.02.2022
4055 Clouds 3 1024 66 10000 1.54 170 18:25 02.02.2022
4056 Clouds 2 1024 71 10000 3.13 180 17:37 02.02.2022
4057 Clouds 2 1025 72 10000 0.89 207 17:18 02.02.2022
4058 Clouds 1 1024 72 10000 2.06 170 16:20 02.02.2022
4059 Clouds 0 1024 73 10000 2.06 190 12:50 02.02.2022
4060 Clouds -1 1024 74 10000 2.06 180 11:51 02.02.2022
4061 Clouds -1 1024 74 10000 2.06 180 11:31 02.02.2022
4062 Clouds -1 1025 73 10000 3.09 180 09:22 02.02.2022
4063 Clear -1 1025 70 10000 3.09 180 06:18 02.02.2022
4064 Clouds -7 1029 66 10000 1.03 10 22:44 01.02.2022
4065 Clear -6 1030 65 10000 1.54 10 21:30 01.02.2022
4066 Clear -7 1031 62 10000 1.54 30 19:56 01.02.2022
4067 Clear -12 1035 71 10000 2.06 360 17:38 01.02.2022
4068 Clear -14 1035 73 10000 2.57 350 16:33 01.02.2022
4069 Clear -17 1035 80 10000 2.57 360 13:28 01.02.2022
4070 Clear -17 1035 82 10000 3.09 350 12:28 01.02.2022
4071 Clear -17 1035 82 10000 3.09 350 12:28 01.02.2022
4072 Clear -17 1034 80 10000 3.09 350 10:44 01.02.2022
4073 Clear -13 1032 81 10000 2.57 360 02:29 01.02.2022
4074 Clouds -10 1029 69 10000 1.03 360 23:40 31.01.2022
4075 Clear -9 1029 71 10000 1.03 150 22:43 31.01.2022
4076 Clear -8 1028 66 10000 1.03 10 21:38 31.01.2022
4077 Clouds -8 1027 66 10000 1.03 10 20:44 31.01.2022
4078 Clouds -7 1027 66 10000 1.03 10 20:24 31.01.2022
4079 Clear -9 1027 68 10000 1.54 350 18:54 31.01.2022
4080 Clear -9 1027 69 10000 1.54 350 18:20 31.01.2022
4081 Clouds -10 1027 72 10000 1.54 330 17:25 31.01.2022
4082 Clear -11 1026 77 10000 2.06 10 16:25 31.01.2022
4083 Clouds -14 1025 84 10000 1.03 340 14:54 31.01.2022
4084 Clear -16 1024 89 10000 0.89 142 13:43 31.01.2022
4085 Clouds -16 1023 86 10000 2.57 260 12:38 31.01.2022
4086 Clouds -15 1022 85 10000 4.12 220 11:34 31.01.2022
4087 Clouds -16 1022 86 10000 2.57 210 10:49 31.01.2022
4088 Clouds -16 1021 81 10000 4.12 230 09:38 31.01.2022
4089 Clouds -15 1020 78 10000 2.57 240 08:57 31.01.2022
4090 Clouds -16 1020 78 10000 5.14 240 08:38 31.01.2022
4091 Clouds -15 1020 78 10000 2.57 240 08:19 31.01.2022
4092 Clouds -14 1019 72 10000 2.06 210 06:18 31.01.2022
4093 Clouds -11 1016 62 10000 2.06 180 00:43 31.01.2022
4094 Clear -11 1014 60 10000 1.54 200 22:34 30.01.2022
4095 Clear -10 1014 59 10000 1.54 210 21:56 30.01.2022
4096 Clear -10 1014 59 10000 1.54 210 21:37 30.01.2022
4097 Clear -10 1014 59 10000 1.54 210 21:18 30.01.2022
4098 Clear -10 1013 59 10000 3.09 200 20:43 30.01.2022
4099 Clear -11 1013 59 10000 3.09 200 20:25 30.01.2022
4100 Clear -11 1013 58 10000 2.06 200 19:23 30.01.2022
4101 Clear -12 1013 57 10000 2.06 240 18:35 30.01.2022
4102 Clear -13 1013 54 10000 2.06 230 17:40 30.01.2022
4103 Clear -13 1013 53 10000 2.06 230 17:19 30.01.2022
4104 Clear -15 1013 56 10000 3.09 260 16:36 30.01.2022
4105 Clear -16 1013 56 10000 3.09 260 16:18 30.01.2022
4106 Clear -17 1012 58 10000 4.12 260 15:45 30.01.2022
4107 Clear -18 1012 58 10000 4.12 260 15:25 30.01.2022
4108 Clear -18 1012 64 10000 4.12 250 14:44 30.01.2022
4109 Clear -19 1010 68 10000 4.12 260 12:46 30.01.2022
4110 Clear -18 1010 64 10000 3.09 260 11:52 30.01.2022
4111 Clear -18 1009 61 10000 1.03 280 10:27 30.01.2022
4112 Clear -18 1008 61 10000 2.06 300 09:48 30.01.2022
4113 Clear -17 1008 59 10000 2.06 300 08:48 30.01.2022
4114 Clear -16 1010 60 10000 2.57 350 05:30 30.01.2022
4115 Clear -15 1011 61 10000 2.57 310 01:55 30.01.2022
4116 Clouds -14 1012 58 10000 2.57 260 00:19 30.01.2022
4117 Clear -13 1013 50 10000 2.57 10 22:58 29.01.2022
4118 Clear -13 1014 51 10000 4.12 360 21:46 29.01.2022
4119 Clear -13 1014 52 10000 4.12 360 21:22 29.01.2022
4120 Clear -14 1016 58 10000 4.63 360 20:22 29.01.2022
4121 Clear -15 1017 61 10000 5.14 10 19:33 29.01.2022
4122 Haze -15 1019 65 9656 4.63 10 18:51 29.01.2022
4123 Haze -16 1019 68 9656 4.63 10 18:18 29.01.2022
4124 Haze -17 1021 69 4828 4.12 10 17:27 29.01.2022
4125 Clear -18 1022 74 10000 5.14 10 15:44 29.01.2022
4126 Clouds -19 1024 74 10000 4.12 10 13:58 29.01.2022
4127 Clouds -19 1024 76 10000 4.12 10 13:38 29.01.2022
4128 Clouds -19 1024 77 10000 4.12 10 13:20 29.01.2022
4129 Clouds -21 1025 77 10000 3.6 360 11:40 29.01.2022
4130 Clouds -21 1026 75 10000 2.06 20 10:46 29.01.2022
4131 Clouds -23 1027 69 10000 3.09 360 08:42 29.01.2022
4132 Haze -23 1027 70 9656 3.09 40 03:53 29.01.2022
4133 Clear -18 1026 63 10000 1.03 20 00:34 29.01.2022
4134 Clear -15 1026 50 10000 1.54 10 23:43 28.01.2022
4135 Clear -14 1025 47 10000 2.06 340 22:48 28.01.2022
4136 Clear -14 1025 52 10000 2.06 340 22:20 28.01.2022
4137 Clear -13 1025 52 10000 3.09 360 20:42 28.01.2022
4138 Clear -13 1025 52 10000 3.09 360 20:23 28.01.2022
4139 Clear -13 1025 52 10000 3.09 350 19:28 28.01.2022
4140 Clear -14 1025 55 10000 3.6 360 18:38 28.01.2022
4141 Clear -14 1024 60 10000 5.14 350 16:39 28.01.2022
4142 Clouds -13 1022 71 10000 3.09 360 14:59 28.01.2022
4143 Clouds -9 1020 71 10000 3.6 330 13:34 28.01.2022
4144 Clouds -7 1018 77 10000 2.06 330 12:26 28.01.2022
4145 Clouds -5 1016 91 2816 1.54 170 10:32 28.01.2022
4146 Clouds -5 1016 89 4023 1.54 190 09:48 28.01.2022
4147 Clouds -5 1015 88 3219 1.03 190 07:43 28.01.2022
4148 Clouds -6 1015 85 8047 1.54 200 06:31 28.01.2022
4149 Snow -7 1016 89 4828 1.03 180 03:52 28.01.2022
4150 Clouds -7 1017 87 2414 1.54 190 02:29 28.01.2022
4151 Clouds -7 1018 84 3219 2.06 190 01:57 28.01.2022
4152 Clouds -7 1018 78 8047 2.06 190 01:30 28.01.2022
4153 Clouds -8 1018 66 10000 2.06 190 22:40 27.01.2022
4154 Clear -8 1018 65 10000 2.57 180 21:41 27.01.2022
4155 Clear -8 1018 64 10000 2.57 180 21:21 27.01.2022
4156 Clouds -9 1021 67 10000 1.54 170 19:47 27.01.2022
4157 Clear -11 1022 69 10000 3.09 150 18:23 27.01.2022
4158 Clear -12 1024 69 10000 2.06 170 17:18 27.01.2022
4159 Clouds -18 1027 78 10000 1.54 180 14:24 27.01.2022
4160 Clear -21 1028 79 10000 2.06 170 12:53 27.01.2022
4161 Clear -21 1028 81 10000 2.06 170 12:20 27.01.2022
4162 Clear -24 1029 80 10000 0.89 146 09:51 27.01.2022
4163 Clear -24 1030 77 10000 2.06 130 08:41 27.01.2022
4164 Clear -26 1031 77 10000 1.54 140 07:58 27.01.2022
4165 Clear -23 1033 71 10000 0.51 240 03:34 27.01.2022
4166 Clear -21 1032 64 10000 0.51 290 00:25 27.01.2022
4167 Clear -18 1032 64 10000 1.03 310 22:31 26.01.2022
4168 Clouds -17 1031 62 10000 1.03 350 21:44 26.01.2022
4169 Clouds -17 1031 59 10000 1.03 340 20:57 26.01.2022
4170 Clear -17 1031 58 10000 1.03 340 20:33 26.01.2022
4171 Clear -17 1031 55 10000 1.54 180 19:52 26.01.2022
4172 Clear -18 1031 57 10000 2.06 10 18:52 26.01.2022
4173 Clear -18 1031 57 10000 2.06 10 18:52 26.01.2022
4174 Clear -18 1031 58 10000 2.06 10 18:24 26.01.2022
4175 Clear -19 1032 58 10000 1.54 350 17:39 26.01.2022
4176 Clouds -18 1032 59 10000 1.54 350 17:19 26.01.2022
4177 Clear -19 1032 62 10000 3.09 340 16:25 26.01.2022
4178 Clear -21 1031 66 10000 2.57 350 15:23 26.01.2022
4179 Clear -23 1028 74 10000 3.09 10 12:44 26.01.2022
4180 Clear -21 1026 71 10000 2.57 350 10:56 26.01.2022
4181 Clear -19 1025 69 10000 2.06 320 09:58 26.01.2022
4182 Clear -19 1025 69 10000 2.06 320 09:39 26.01.2022
4183 Clouds -17 1024 64 10000 2.06 300 07:28 26.01.2022
4184 Clear -11 1019 75 10000 2.06 180 00:42 26.01.2022
4185 Clear -11 1018 74 10000 1.54 190 23:43 25.01.2022
4186 Clear -10 1016 74 10000 2.06 200 22:49 25.01.2022
4187 Clear -10 1016 75 10000 2.06 200 22:19 25.01.2022
4188 Clouds -9 1015 74 10000 2.06 200 21:35 25.01.2022
4189 Clouds -9 1014 78 6437 1.54 180 20:46 25.01.2022
4190 Clouds -10 1014 77 8047 1.03 160 19:59 25.01.2022
4191 Clouds -10 1014 76 9656 1.03 160 19:34 25.01.2022
4192 Clouds -11 1013 77 3621 0.51 10 18:20 25.01.2022
4193 Clouds -11 1013 78 4828 1.54 340 17:39 25.01.2022
4194 Mist -13 1013 78 9656 1.54 30 16:35 25.01.2022
4195 Clouds -14 1013 82 8047 2.06 350 15:43 25.01.2022
4196 Clouds -14 1013 82 8047 2.06 350 15:25 25.01.2022
4197 Mist -15 1012 82 9656 2.06 350 14:56 25.01.2022
4198 Clouds -16 1011 84 9656 2.57 350 12:32 25.01.2022
4199 Clouds -15 1010 81 4828 2.57 360 09:58 25.01.2022
4200 Clouds -15 1010 82 2816 3.09 350 08:29 25.01.2022
4201 Clouds -15 1010 82 10000 3.09 350 07:28 25.01.2022
4202 Clouds -15 1012 80 2816 3.09 350 05:55 25.01.2022
4203 Clouds -14 1013 67 10000 1.54 10 00:58 25.01.2022
4204 Clouds -13 1013 66 10000 1.54 80 23:36 24.01.2022
4205 Clouds -13 1013 66 10000 1.54 80 23:18 24.01.2022
4206 Clouds -13 1013 63 10000 1.03 10 22:58 24.01.2022
4207 Clouds -13 1013 63 10000 1.03 10 22:40 24.01.2022
4208 Clouds -12 1013 59 10000 1.03 230 21:43 24.01.2022
4209 Clouds -12 1013 59 10000 1.03 230 21:25 24.01.2022
4210 Clouds -13 1013 62 10000 1.03 190 20:28 24.01.2022
4211 Clear -13 1014 63 10000 1.03 140 19:39 24.01.2022
4212 Clear -14 1014 68 10000 2.06 170 18:55 24.01.2022
4213 Clear -15 1016 73 10000 2.06 200 17:44 24.01.2022
4214 Clear -16 1016 74 10000 2.06 200 17:23 24.01.2022
4215 Mist -18 1016 81 6437 0.89 161 16:32 24.01.2022
4216 Mist -19 1015 79 4828 0.51 360 15:52 24.01.2022
4217 Haze -25 1015 78 604 1.03 40 14:27 24.01.2022
4218 Clouds -26 1015 76 10000 1.03 210 12:36 24.01.2022
4219 Clear -26 1014 80 10000 0 0 11:45 24.01.2022
4220 Clear -25 1014 77 10000 0 0 10:24 24.01.2022
4221 Clear -23 1013 77 10000 1.03 290 09:46 24.01.2022
4222 Clear -24 1013 84 10000 1.03 0 08:19 24.01.2022
4223 Clear -15 1011 56 10000 1.54 310 02:33 24.01.2022
4224 Clear -14 1011 56 10000 1.54 330 01:27 24.01.2022
4225 Clear -14 1011 56 10000 1.54 330 01:27 24.01.2022
4226 Clear -13 1010 55 10000 1.03 270 00:34 24.01.2022
4227 Clear -12 1009 56 10000 0.51 260 23:47 23.01.2022
4228 Clouds -10 1008 61 10000 1.79 326 22:21 23.01.2022
4229 Clear -9 1008 56 10000 1.54 280 21:42 23.01.2022
4230 Clear -9 1008 56 10000 1.54 280 21:23 23.01.2022
4231 Snow -8 1008 57 10000 2.57 260 20:28 23.01.2022
4232 Clouds -8 1008 62 10000 2.06 240 19:19 23.01.2022
4233 Snow -8 1008 62 10000 1.54 240 18:41 23.01.2022
4234 Clear -8 1008 66 10000 1.54 240 17:25 23.01.2022
4235 Clouds -8 1008 70 10000 1.54 170 16:27 23.01.2022
4236 Clouds -10 1008 85 10000 1.54 150 14:54 23.01.2022
4237 Clouds -10 1008 85 2414 1.54 150 14:19 23.01.2022
4238 Snow -11 1008 81 4828 2.06 150 12:47 23.01.2022
4239 Clouds -12 1008 83 4828 2.06 150 12:21 23.01.2022
4240 Clouds -12 1008 81 8047 1.03 150 11:51 23.01.2022
4241 Mist -13 1008 78 8047 1.03 150 11:18 23.01.2022
4242 Clouds -13 1008 79 4023 1.54 160 10:26 23.01.2022
4243 Clouds -14 1009 82 8047 1.54 160 09:37 23.01.2022
4244 Clouds -15 1010 80 9656 0.51 360 08:51 23.01.2022
4245 Clouds -17 1013 78 10000 0 0 05:37 23.01.2022
4246 Clouds -18 1017 75 10000 1.03 350 01:46 23.01.2022
4247 Clouds -18 1017 75 10000 1.03 350 01:23 23.01.2022
4248 Clouds -18 1019 74 10000 2.06 360 00:23 23.01.2022
4249 Clouds -18 1021 74 10000 1.54 10 23:34 22.01.2022
4250 Clear -17 1022 74 10000 1.54 10 22:34 22.01.2022
4251 Clear -18 1024 69 10000 1.54 10 21:19 22.01.2022
4252 Clear -17 1027 74 10000 0.51 190 19:49 22.01.2022
4253 Clear -18 1028 72 10000 0.51 130 18:49 22.01.2022
4254 Clouds -19 1030 76 10000 2.06 130 17:59 22.01.2022
4255 Clouds -19 1030 77 10000 2.06 130 17:35 22.01.2022
4256 Clouds -21 1031 79 10000 1.54 90 16:55 22.01.2022
4257 Haze -24 1032 78 9656 1.03 20 15:49 22.01.2022
4258 Haze -25 1033 79 9656 1.54 360 14:57 22.01.2022
4259 Mist -28 1033 82 10000 2.68 44 13:39 22.01.2022
4260 Clear -28 1034 81 10000 1.54 40 12:50 22.01.2022
4261 Clear -29 1034 80 10000 1.54 40 12:28 22.01.2022
4262 Haze -29 1035 76 9656 2.57 50 10:56 22.01.2022
4263 Clear -29 1035 78 10000 1.03 80 10:29 22.01.2022
4264 Haze -28 1036 77 9656 0 0 09:58 22.01.2022
4265 Mist -28 1036 82 9656 2.06 130 08:51 22.01.2022
4266 Mist -27 1037 77 8047 1.54 150 07:34 22.01.2022
4267 Mist -26 1038 78 9656 2.06 140 04:52 22.01.2022
4268 Clear -23 1039 69 10000 0.51 280 01:34 22.01.2022
4269 Clear -20 1040 61 10000 1.03 230 23:38 21.01.2022
4270 Clear -20 1040 61 10000 1.03 230 23:38 21.01.2022
4271 Clear -18 1040 67 10000 2.06 200 22:28 21.01.2022
4272 Clear -18 1040 65 10000 1.54 210 20:22 21.01.2022
4273 Clear -18 1040 69 10000 0.51 340 18:39 21.01.2022
4274 Clear -19 1040 70 10000 1.03 310 17:31 21.01.2022
4275 Clear -23 1040 75 10000 2.06 10 15:42 21.01.2022
4276 Clear -27 1039 80 10000 1.03 350 13:37 21.01.2022
4277 Clear -27 1038 76 10000 2.06 350 12:38 21.01.2022
4278 Clear -27 1037 76 10000 2.06 360 11:28 21.01.2022
4279 Clear -26 1036 80 10000 1.54 50 10:19 21.01.2022
4280 Clear -22 1036 72 10000 1.54 330 08:24 21.01.2022
4281 Clear -21 1035 69 10000 2.57 290 06:57 21.01.2022
4282 Clear -16 1029 68 10000 1.03 220 23:40 20.01.2022
4283 Clear -15 1029 68 10000 1.03 220 22:41 20.01.2022
4284 Clear -14 1028 65 10000 1.54 270 21:43 20.01.2022
4285 Clear -14 1028 63 10000 2.06 210 20:53 20.01.2022
4286 Clouds -14 1027 62 10000 1.54 270 19:20 20.01.2022
4287 Clouds -14 1027 62 10000 1.54 270 18:50 20.01.2022
4288 Clear -15 1027 65 10000 1.54 340 17:29 20.01.2022
4289 Clear -15 1025 67 10000 2.57 340 15:44 20.01.2022
4290 Clear -16 1025 66 10000 2.57 340 15:22 20.01.2022
4291 Clear -15 1024 66 10000 1.54 260 13:42 20.01.2022
4292 Clear -14 1022 67 10000 1.54 340 12:35 20.01.2022
4293 Clouds -13 1021 68 10000 2.06 330 11:57 20.01.2022
4294 Clouds -12 1019 66 10000 3.09 340 10:40 20.01.2022
4295 Clouds -9 1017 70 10000 1.03 110 09:40 20.01.2022
4296 Clouds -7 1015 75 10000 1.03 160 08:34 20.01.2022
4297 Clouds -7 1011 90 10000 2.06 200 05:34 20.01.2022
4298 Clouds -8 1005 92 10000 7.23 227 23:35 19.01.2022
4299 Clouds -12 1006 85 10000 2.06 360 22:37 19.01.2022
4300 Clouds -14 1006 85 10000 2.57 10 21:24 19.01.2022
4301 Snow -13 1006 85 10000 4.63 30 20:51 19.01.2022
4302 Clouds -13 1006 85 3219 2.57 360 19:58 19.01.2022
4303 Clouds -11 1007 82 10000 3.09 360 18:43 19.01.2022
4304 Snow -12 1007 81 10000 3.6 360 17:49 19.01.2022
4305 Snow -13 1008 81 2816 3.6 350 16:59 19.01.2022
4306 Snow -15 1011 82 2414 2.06 10 14:42 19.01.2022
4307 Snow -16 1014 76 3621 1.03 120 12:53 19.01.2022
4308 Clouds -16 1016 73 10000 2.06 140 11:43 19.01.2022
4309 Clouds -17 1018 75 10000 2.06 160 10:38 19.01.2022
4310 Clouds -18 1019 77 10000 1.54 140 09:34 19.01.2022
4311 Clear -21 1020 77 10000 2.06 140 07:18 19.01.2022
4312 Clear -21 1021 71 10000 2.06 150 05:19 19.01.2022
4313 Clear -15 1018 63 10000 1.03 260 23:41 18.01.2022
4314 Clear -15 1018 64 10000 1.03 260 23:18 18.01.2022
4315 Clear -13 1016 60 10000 1.54 300 21:20 18.01.2022
4316 Clear -13 1013 59 10000 1.54 230 19:55 18.01.2022
4317 Snow -13 1013 59 10000 1.54 230 19:37 18.01.2022
4318 Clear -13 1013 59 10000 1.54 230 19:18 18.01.2022
4319 Clear -13 1011 62 10000 1.54 270 17:59 18.01.2022
4320 Clear -13 1011 60 10000 1.54 270 17:27 18.01.2022
4321 Clear -13 1008 71 10000 1.54 240 15:50 18.01.2022
4322 Clear -13 1008 64 10000 1.54 240 15:23 18.01.2022
4323 Clouds -12 1005 75 10000 1.03 230 13:32 18.01.2022
4324 Clear -9 999 75 10000 2.06 110 10:49 18.01.2022
4325 Clouds -9 997 77 10000 1.54 230 09:39 18.01.2022
4326 Clouds -7 995 79 9656 1.03 350 08:19 18.01.2022
4327 Snow -7 993 81 10000 1.03 360 07:21 18.01.2022
4328 Snow -4 983 93 2816 2.57 340 00:21 18.01.2022
4329 Clouds -4 982 93 8047 4.12 360 22:31 17.01.2022
4330 Snow -4 982 93 1207 4.12 10 21:36 17.01.2022
4331 Snow -4 983 92 805 4.63 10 20:33 17.01.2022
4332 Snow -6 988 91 402 4.63 10 18:42 17.01.2022
4333 Snow -6 991 92 604 5.66 360 17:55 17.01.2022
4334 Snow -7 993 90 2816 4.63 360 16:53 17.01.2022
4335 Snow -8 995 90 1207 4.12 360 15:31 17.01.2022
4336 Snow -9 998 90 805 4.12 360 14:58 17.01.2022
4337 Snow -10 1001 88 2012 3.09 360 13:42 17.01.2022
4338 Snow -11 1004 86 2816 3.6 360 12:58 17.01.2022
4339 Clouds -13 1006 83 4023 4.12 350 11:51 17.01.2022
4340 Clouds -14 1009 82 4828 3.6 360 10:43 17.01.2022
4341 Clouds -15 1012 80 2816 2.57 360 09:35 17.01.2022
4342 Clouds -16 1014 77 10000 3.09 360 08:18 17.01.2022
4343 Clouds -16 1015 76 10000 2.57 360 07:19 17.01.2022
4344 Clear -17 1021 73 10000 2.06 10 00:57 17.01.2022
4345 Clear -16 1022 70 10000 1.54 20 23:27 16.01.2022
4346 Clear -13 1025 62 10000 1.54 130 20:41 16.01.2022
4347 Clear -14 1026 63 10000 2.57 160 19:44 16.01.2022
4348 Clear -15 1028 63 10000 2.06 150 18:42 16.01.2022
4349 Clear -16 1029 64 10000 2.57 180 17:46 16.01.2022
4350 Clear -17 1030 67 10000 2.06 160 16:50 16.01.2022
4351 Clear -19 1030 70 10000 1.54 190 15:34 16.01.2022
4352 Clear -22 1031 76 10000 2.06 210 14:29 16.01.2022
4353 Clear -23 1031 77 10000 2.06 200 12:51 16.01.2022
4354 Clear -23 1031 75 10000 1.03 200 11:49 16.01.2022
4355 Clear -23 1031 74 10000 1.03 200 10:58 16.01.2022
4356 Clear -23 1031 73 10000 1.03 200 10:26 16.01.2022
4357 Clear -22 1032 70 10000 2.06 190 09:56 16.01.2022
4358 Clear -22 1032 71 10000 2.06 190 09:23 16.01.2022
4359 Clear -22 1033 68 10000 0.51 140 08:52 16.01.2022
4360 Clear -22 1032 68 10000 1.03 210 05:35 16.01.2022
4361 Clear -20 1031 59 10000 1.54 220 23:51 15.01.2022
4362 Clear -19 1031 56 10000 1.54 230 22:37 15.01.2022
4363 Clear -19 1031 54 10000 1.54 210 21:21 15.01.2022
4364 Clear -19 1031 53 10000 2.06 210 20:43 15.01.2022
4365 Clear -19 1031 53 10000 3.09 240 19:52 15.01.2022
4366 Clear -20 1031 54 10000 3.09 240 19:19 15.01.2022
4367 Clear -21 1031 54 10000 1.54 250 17:35 15.01.2022
4368 Clear -21 1033 56 10000 2.68 11 16:38 15.01.2022
4369 Clear -25 1031 67 10000 2.06 310 13:57 15.01.2022
4370 Clear -24 1031 63 10000 2.57 340 12:23 15.01.2022
4371 Clear -24 1030 64 10000 2.57 340 11:18 15.01.2022
4372 Clear -23 1028 62 10000 3.09 350 08:36 15.01.2022
4373 Clear -17 1026 57 10000 5.14 10 00:49 15.01.2022
4374 Clear -13 1025 51 10000 4.63 360 21:56 14.01.2022
4375 Clear -12 1024 53 10000 4.63 10 20:42 14.01.2022
4376 Clear -12 1024 53 10000 4.63 10 20:23 14.01.2022
4377 Clear -11 1023 56 10000 5.14 360 19:40 14.01.2022
4378 Clear -10 1023 60 10000 4.63 360 18:27 14.01.2022
4379 Clouds -9 1022 67 10000 3.09 10 16:50 14.01.2022
4380 Clouds -8 1022 69 10000 3.6 10 15:48 14.01.2022
4381 Clouds -8 1020 74 10000 3.6 10 14:46 14.01.2022
4382 Mist -7 1018 85 9656 2.57 330 13:37 14.01.2022
4383 Haze -7 1017 85 9656 1.34 10 12:29 14.01.2022
4384 Clouds -7 1017 87 8047 1.03 290 11:27 14.01.2022
4385 Mist -7 1015 87 6437 0.51 180 09:50 14.01.2022
4386 Mist -7 1014 89 6437 0.51 290 08:51 14.01.2022
4387 Clouds -7 1014 89 4828 2.06 350 06:57 14.01.2022
4388 Clouds -8 1014 87 4828 2.06 10 01:33 14.01.2022
4389 Clouds -8 1014 84 8047 2.06 360 23:32 13.01.2022
4390 Clouds -8 1014 84 8047 2.57 360 21:40 13.01.2022
4391 Clouds -8 1014 84 9656 2.57 360 21:22 13.01.2022
4392 Clouds -9 1015 85 8047 2.57 360 19:40 13.01.2022
4393 Clouds -9 1015 85 8047 2.57 360 19:22 13.01.2022
4394 Clouds -9 1015 85 8047 2.57 360 19:22 13.01.2022
4395 Clouds -9 1016 84 10000 3.09 360 17:53 13.01.2022
4396 Clouds -9 1017 85 3621 2.57 360 16:21 13.01.2022
4397 Clouds -9 1017 85 3621 2.57 360 16:21 13.01.2022
4398 Clouds -10 1018 86 4828 3.09 10 15:37 13.01.2022
4399 Clouds -10 1018 86 3219 2.57 360 14:47 13.01.2022
4400 Snow -10 1018 84 3621 2.57 360 12:45 13.01.2022
4401 Clouds -10 1018 84 6437 1.54 20 10:25 13.01.2022
4402 Clouds -10 1018 81 10000 1.54 10 09:20 13.01.2022
4403 Clouds -10 1018 81 10000 2.06 20 08:27 13.01.2022
4404 Clouds -10 1018 85 10000 2.06 360 07:24 13.01.2022
4405 Clouds -10 1018 86 8047 1.54 360 06:38 13.01.2022
4406 Clouds -9 1018 87 10000 0.89 41 05:19 13.01.2022
4407 Mist -9 1017 87 8047 0.51 10 02:33 13.01.2022
4408 Snow -9 1015 88 4828 1.54 10 00:56 13.01.2022
4409 Clouds -8 1014 89 2816 1.03 10 23:49 12.01.2022
4410 Clouds -8 1014 89 2816 1.03 10 23:24 12.01.2022
4411 Clouds -8 1012 85 9656 0.51 10 21:58 12.01.2022
4412 Snow -8 1012 83 3219 0.51 10 21:23 12.01.2022
4413 Snow -7 1012 81 4023 1.03 130 20:57 12.01.2022
4414 Clouds -8 1011 79 10000 0.51 350 19:57 12.01.2022
4415 Clouds -7 1011 74 10000 1.54 180 18:43 12.01.2022
4416 Clouds -9 1012 77 10000 1.54 170 17:51 12.01.2022
4417 Clouds -9 1013 81 8047 1.54 170 16:39 12.01.2022
4418 Clouds -10 1013 72 10000 1.54 180 14:49 12.01.2022
4419 Clouds -11 1014 77 10000 2.06 170 13:34 12.01.2022
4420 Clouds -12 1014 82 9656 1.54 160 12:35 12.01.2022
4421 Clouds -14 1020 71 10000 3.09 170 08:50 12.01.2022
4422 Clouds -15 1023 68 10000 1.54 150 07:52 12.01.2022
4423 Clouds -16 1023 68 10000 1.54 150 07:32 12.01.2022
4424 Clear -21 1032 67 10000 1.03 240 01:33 12.01.2022
4425 Clear -21 1034 62 10000 1.54 270 23:25 11.01.2022
4426 Clear -20 1034 59 10000 1.03 160 22:24 11.01.2022
4427 Clear -20 1034 57 10000 1.54 250 21:28 11.01.2022
4428 Clear -20 1034 56 10000 2.06 260 20:35 11.01.2022
4429 Clear -21 1035 56 10000 2.06 250 18:52 11.01.2022
4430 Clouds -21 1036 58 10000 1.54 260 17:46 11.01.2022
4431 Clear -22 1036 59 10000 1.54 310 16:39 11.01.2022
4432 Clear -22 1036 59 10000 1.54 310 16:18 11.01.2022
4433 Clear -24 1035 65 10000 2.06 330 14:44 11.01.2022
4434 Clear -24 1035 66 10000 2.06 330 14:18 11.01.2022
4435 Clear -24 1034 65 10000 1.03 260 13:42 11.01.2022
4436 Clear -24 1034 65 10000 1.03 260 13:24 11.01.2022
4437 Clear -24 1034 64 10000 1.03 280 12:24 11.01.2022
4438 Clear -22 1030 62 10000 2.06 350 10:26 11.01.2022
4439 Clear -21 1027 59 10000 3.6 360 07:38 11.01.2022
4440 Clouds -17 1022 58 10000 3.6 350 03:47 11.01.2022
4441 Clouds -13 1019 52 10000 3.09 350 00:25 11.01.2022
4442 Clear -13 1018 55 10000 1.03 200 23:38 10.01.2022
4443 Clear -12 1017 54 10000 1.03 210 22:20 10.01.2022
4444 Clouds -11 1017 52 10000 1.54 170 21:57 10.01.2022
4445 Clouds -11 1017 52 10000 1.54 170 21:33 10.01.2022
4446 Clouds -11 1016 52 10000 2.57 210 20:58 10.01.2022
4447 Clouds -11 1016 53 10000 2.57 210 20:36 10.01.2022
4448 Clouds -10 1016 54 10000 2.57 210 20:18 10.01.2022
4449 Clouds -10 1017 56 10000 2.57 220 19:37 10.01.2022
4450 Clouds -10 1017 58 10000 2.57 220 19:18 10.01.2022
4451 Clouds -10 1017 61 10000 2.57 220 18:46 10.01.2022
4452 Clouds -11 1018 74 8047 2.06 360 16:48 10.01.2022
4453 Clouds -11 1018 73 10000 2.06 360 16:20 10.01.2022
4454 Clouds -12 1018 67 10000 1.03 280 14:43 10.01.2022
4455 Clouds -12 1018 66 10000 1.54 240 13:22 10.01.2022
4456 Clear -12 1017 62 10000 1.03 70 11:56 10.01.2022
4457 Clear -11 1017 59 10000 1.03 210 10:48 10.01.2022
4458 Clear -10 1016 60 10000 1.03 250 09:33 10.01.2022
4459 Clouds -3 1011 54 10000 1.54 270 05:51 10.01.2022
4460 Clouds 0 1007 66 10000 1.54 180 02:30 10.01.2022
4461 Clouds 1 1006 76 10000 1.54 180 01:20 10.01.2022
4462 Clouds 2 1005 88 10000 2.06 210 00:19 10.01.2022
4463 Snow 1 1004 94 10000 2.06 150 22:44 09.01.2022
4464 Rain 1 1004 95 3621 2.06 150 22:18 09.01.2022
4465 Mist 1 1004 94 4023 2.06 180 21:41 09.01.2022
4466 Mist 0 1004 94 4828 2.06 180 21:22 09.01.2022
4467 Mist 0 1004 94 6437 2.06 170 20:46 09.01.2022
4468 Clouds 0 1005 94 4828 2.06 170 20:28 09.01.2022
4469 Snow -1 1005 93 4023 2.06 190 19:39 09.01.2022
4470 Snow -1 1006 94 9656 2.06 190 19:20 09.01.2022
4471 Snow -1 1006 94 2012 1.54 180 18:38 09.01.2022
4472 Snow -2 1007 93 1609 1.54 180 18:18 09.01.2022
4473 Snow -2 1009 93 1609 2.06 170 17:30 09.01.2022
4474 Snow -3 1010 92 2414 2.06 180 16:49 09.01.2022
4475 Clouds -3 1011 90 2816 2.06 180 15:51 09.01.2022
4476 Clouds -3 1012 88 2816 2.06 180 15:32 09.01.2022
4477 Clouds -4 1013 79 10000 1.54 180 14:39 09.01.2022
4478 Clouds -4 1014 72 10000 1.54 180 13:49 09.01.2022
4479 Clouds -5 1016 74 10000 1.54 190 12:19 09.01.2022
4480 Clouds -6 1018 76 10000 0 0 11:45 09.01.2022
4481 Clouds -6 1021 69 10000 1.03 360 09:55 09.01.2022
4482 Clouds -7 1021 72 10000 1.03 360 09:29 09.01.2022
4483 Clouds -8 1022 72 10000 1.03 330 08:18 09.01.2022
4484 Clouds -13 1033 72 10000 1.54 160 01:43 09.01.2022
4485 Clouds -13 1033 73 10000 0.89 326 01:19 09.01.2022
4486 Clouds -14 1034 71 10000 2.06 160 23:38 08.01.2022
4487 Clear -14 1035 71 10000 1.54 180 22:58 08.01.2022
4488 Clear -13 1035 68 10000 1.54 170 21:32 08.01.2022
4489 Clear -13 1035 65 10000 2.06 190 20:44 08.01.2022
4490 Clear -13 1035 64 10000 2.06 190 20:23 08.01.2022
4491 Clear -13 1036 65 10000 2.06 190 19:55 08.01.2022
4492 Clear -15 1037 64 10000 2.06 220 17:49 08.01.2022
4493 Clear -16 1037 66 10000 3.09 270 16:57 08.01.2022
4494 Clear -17 1035 70 6437 1.54 210 15:47 08.01.2022
4495 Clear -18 1034 73 10000 5.14 290 14:40 08.01.2022
4496 Clear -18 1032 75 10000 3.09 250 12:36 08.01.2022
4497 Clear -17 1029 74 10000 1.54 200 10:59 08.01.2022
4498 Clear -17 1029 75 10000 1.54 200 10:24 08.01.2022
4499 Clear -16 1027 73 10000 1.03 250 09:43 08.01.2022
4500 Clouds -14 1024 77 10000 3.58 285 07:18 08.01.2022
4501 Clouds -10 1017 76 10000 1.34 323 02:33 08.01.2022
4502 Clouds -8 1014 83 10000 1.79 324 00:41 08.01.2022
4503 Clouds -6 1012 89 10000 0.89 179 22:40 07.01.2022
4504 Clouds -5 1010 87 4507 0.89 10 20:56 07.01.2022
4505 Clouds -5 1010 83 1435 1.34 1 19:56 07.01.2022
4506 Clouds -5 1010 83 1435 1.34 1 19:56 07.01.2022
4507 Clouds -5 1010 83 10000 1.34 15 18:54 07.01.2022
4508 Clouds -6 1010 83 10000 1.34 7 18:34 07.01.2022
4509 Clouds -6 1011 84 3489 1.34 24 17:25 07.01.2022
4510 Clouds -7 1012 85 960 1.34 32 16:23 07.01.2022
4511 Clouds -8 1011 87 5684 0.89 33 13:53 07.01.2022
4512 Clouds -8 1011 87 10000 0.89 26 13:21 07.01.2022
4513 Clouds -8 1012 87 10000 0.89 38 12:48 07.01.2022
4514 Clouds -7 1013 88 10000 0.89 34 09:37 07.01.2022
4515 Clouds -6 1014 76 10000 1.82 213 02:55 07.01.2022
4516 Clouds -6 1014 78 10000 1.91 239 01:54 07.01.2022
4517 Clouds -6 1014 77 10000 2.42 235 01:27 07.01.2022
4518 Clouds -6 1014 79 10000 2.42 235 00:57 07.01.2022
4519 Clouds -5 1013 79 10000 3.59 248 22:54 06.01.2022
4520 Clouds -3 1011 77 10000 5.2 257 21:28 06.01.2022
4521 Clouds -2 1009 77 10000 5.25 263 20:21 06.01.2022
4522 Clouds -2 1009 78 10000 5.25 263 19:44 06.01.2022
4523 Clouds -2 1007 79 10000 6.09 260 17:54 06.01.2022
4524 Clouds -2 1007 78 10000 6.09 260 17:34 06.01.2022
4525 Clouds -2 1007 77 8047 6.41 252 16:42 06.01.2022
4526 Clouds -2 1006 77 10000 6.23 245 15:46 06.01.2022
4527 Clouds -2 1005 76 10000 6.24 244 15:25 06.01.2022
4528 Clouds -2 1005 73 10000 2.06 170 14:43 06.01.2022
4529 Clouds -2 1005 73 10000 2.06 170 14:18 06.01.2022
4530 Clouds -1 1003 73 10000 2.57 200 12:50 06.01.2022
4531 Clouds 0 1002 67 10000 3.09 190 11:43 06.01.2022
4532 Clouds 0 1002 68 10000 3.09 190 11:22 06.01.2022
4533 Clouds 1 1000 73 10000 2.57 180 08:51 06.01.2022
4534 Snow -1 1002 80 10000 1.54 180 00:53 06.01.2022
4535 Clouds -1 1003 79 10000 1.03 190 23:37 05.01.2022
4536 Clouds -1 1003 78 10000 1.03 180 22:57 05.01.2022
4537 Clouds -1 1003 78 10000 1.03 180 22:32 05.01.2022
4538 Clouds -1 1004 79 10000 0.93 122 21:48 05.01.2022
4539 Clouds -1 1004 74 10000 1.54 180 20:57 05.01.2022
4540 Clouds 0 1004 72 10000 1.54 180 20:18 05.01.2022
4541 Clear -1 1006 73 10000 2.57 180 18:44 05.01.2022
4542 Clouds -2 1007 72 10000 2.06 170 17:26 05.01.2022
4543 Clouds -2 1008 73 10000 2.06 180 16:50 05.01.2022
4544 Clouds -4 1008 82 10000 1.03 150 15:26 05.01.2022
4545 Clouds -5 1010 83 10000 1.54 190 13:52 05.01.2022
4546 Clouds -5 1010 83 10000 1.54 190 13:22 05.01.2022
4547 Clouds -4 1013 81 10000 2.06 190 10:34 05.01.2022
4548 Clouds -4 1016 82 10000 2.06 170 07:47 05.01.2022
4549 Clouds -4 1016 82 10000 2.06 170 07:47 05.01.2022
4550 Clouds -4 1016 82 10000 2.06 170 07:47 05.01.2022
4551 Clear -4 1018 83 10000 2.57 160 06:25 05.01.2022
4552 Clouds -4 1022 83 10000 1.03 180 00:59 05.01.2022
4553 Clouds -5 1022 83 10000 1.03 180 23:28 04.01.2022
4554 Clouds -5 1022 82 10000 1.54 210 22:55 04.01.2022
4555 Snow -5 1022 81 10000 1.54 200 21:31 04.01.2022
4556 Snow -5 1022 81 10000 1.54 200 21:31 04.01.2022
4557 Snow -6 1022 79 10000 1.54 180 19:20 04.01.2022
4558 Snow -8 1023 78 10000 1.54 200 17:52 04.01.2022
4559 Snow -9 1024 79 10000 2.06 170 16:53 04.01.2022
4560 Snow -9 1024 80 10000 2.06 170 16:25 04.01.2022
4561 Snow -11 1024 79 10000 2.57 190 14:54 04.01.2022
4562 Snow -11 1024 80 10000 2.57 190 14:35 04.01.2022
4563 Clouds -12 1024 78 10000 2.06 180 13:29 04.01.2022
4564 Clouds -14 1026 80 10000 1.54 170 10:52 04.01.2022
4565 Snow -15 1026 79 10000 1.54 180 09:47 04.01.2022
4566 Snow -15 1026 77 10000 2.06 190 08:34 04.01.2022
4567 Clouds -17 1027 82 10000 0.51 280 02:52 04.01.2022
4568 Clear -17 1027 80 10000 1.03 290 00:42 04.01.2022
4569 Clear -16 1027 75 10000 1.03 280 23:41 03.01.2022
4570 Clear -14 1027 71 10000 0.51 310 22:21 03.01.2022
4571 Clear -13 1027 69 10000 1.03 340 21:35 03.01.2022
4572 Clear -13 1027 66 10000 0.51 60 20:28 03.01.2022
4573 Clear -14 1028 65 10000 0.51 60 18:54 03.01.2022
4574 Clear -14 1028 66 10000 0.51 60 18:28 03.01.2022
4575 Clear -14 1029 68 10000 1.03 40 17:18 03.01.2022
4576 Snow -16 1028 70 10000 2.06 350 15:50 03.01.2022
4577 Clear -18 1028 73 10000 2.06 340 14:31 03.01.2022
4578 Clear -18 1027 74 10000 2.57 350 12:49 03.01.2022
4579 Clear -18 1026 73 10000 2.57 350 11:39 03.01.2022
4580 Clear -17 1025 74 10000 3.6 360 10:37 03.01.2022
4581 Clear -16 1024 77 10000 2.06 350 08:48 03.01.2022
4582 Clear -15 1022 78 10000 1.03 290 07:51 03.01.2022
4583 Clouds -9 1016 75 10000 1.03 0 01:55 03.01.2022
4584 Clouds -7 1014 80 10000 0.51 270 23:22 02.01.2022
4585 Clouds -7 1013 82 10000 1.54 330 22:55 02.01.2022
4586 Clouds -7 1012 80 10000 1.54 320 21:52 02.01.2022
4587 Snow -7 1011 81 4828 2.06 360 20:45 02.01.2022
4588 Snow -7 1011 81 3219 2.06 360 20:25 02.01.2022
4589 Snow -8 1011 82 2816 2.06 350 19:31 02.01.2022
4590 Snow -8 1010 84 4828 2.57 360 18:51 02.01.2022
4591 Snow -8 1010 86 2816 2.57 350 17:56 02.01.2022
4592 Snow -9 1011 86 2816 2.57 350 17:38 02.01.2022
4593 Snow -9 1011 86 2816 2.57 350 17:19 02.01.2022
4594 Snow -9 1011 84 2816 3.6 10 16:27 02.01.2022
4595 Snow -8 1009 77 6437 4.12 10 14:38 02.01.2022
4596 Snow -7 1009 83 10000 3.09 10 13:25 02.01.2022
4597 Snow -7 1008 87 4828 4.12 360 12:31 02.01.2022
4598 Snow -7 1008 89 3219 3.09 10 11:36 02.01.2022
4599 Snow -6 1009 89 3219 4.12 360 10:50 02.01.2022
4600 Snow -5 1009 87 3219 3.6 10 09:52 02.01.2022
4601 Snow -2 1008 82 10000 3.6 10 07:29 02.01.2022
4602 Rain 1 1008 96 2414 0.89 26 02:20 02.01.2022
4603 Rain 1 1007 96 1207 1.03 350 23:41 01.01.2022
4604 Mist 1 1007 96 1006 1.03 350 23:22 01.01.2022
4605 Mist 1 1007 96 1609 2.57 20 22:24 01.01.2022
4606 Rain 1 1006 96 1006 2.57 20 21:44 01.01.2022
4607 Rain 1 1006 95 1609 1.54 360 20:56 01.01.2022
4608 Mist 1 1005 95 1207 1.54 360 20:19 01.01.2022
4609 Mist 2 1006 94 1609 1.03 360 19:32 01.01.2022
4610 Rain 1 1006 94 1609 1.03 360 18:29 01.01.2022
4611 Rain 1 1007 94 2012 1.54 360 16:55 01.01.2022
4612 Rain 1 1007 94 2414 1.54 360 16:34 01.01.2022
4613 Mist 1 1007 94 8047 1.54 200 15:33 01.01.2022
4614 Mist 1 1006 96 4828 1.54 160 14:22 01.01.2022
4615 Fog 0 1008 94 604 1.03 180 13:28 01.01.2022
4616 Clouds 0 1009 95 201 0.51 310 11:59 01.01.2022
4617 Snow 0 1010 95 201 0.51 310 11:24 01.01.2022
4618 Fog 0 1010 95 201 0.51 100 10:43 01.01.2022
4619 Fog 0 1011 94 201 1.03 180 09:47 01.01.2022
4620 Fog 0 1011 93 402 1.54 200 08:27 01.01.2022
4621 Fog 0 1011 93 604 1.03 210 07:56 01.01.2022
4622 Mist 0 1011 93 1609 1.03 210 07:37 01.01.2022
4623 Mist 0 1011 93 1609 1.03 210 07:37 01.01.2022
4624 Mist 0 1012 91 2414 1.03 200 06:43 01.01.2022
4625 Mist -1 1013 90 4023 1.03 320 04:39 01.01.2022
4626 Mist -1 1013 89 4023 0.51 310 03:48 01.01.2022
4627 Mist -1 1012 90 4828 1.03 20 23:53 31.12.2021
4628 Mist 0 1012 85 8047 1.03 40 21:56 31.12.2021
4629 Snow 0 1012 84 10000 1.03 40 21:32 31.12.2021
4630 Clouds 0 1013 84 10000 0.51 60 19:43 31.12.2021
4631 Clouds -1 1013 80 10000 1.03 30 18:47 31.12.2021
4632 Clouds -1 1014 83 10000 2.06 360 17:49 31.12.2021
4633 Clouds -1 1014 83 10000 2.06 360 17:24 31.12.2021
4634 Clouds -1 1015 84 10000 1.54 30 16:51 31.12.2021
4635 Clouds -2 1015 85 10000 1.54 30 16:18 31.12.2021
4636 Clouds -2 1015 86 10000 1.54 10 15:42 31.12.2021
4637 Clouds -2 1015 85 10000 1.54 10 15:20 31.12.2021
4638 Clouds -2 1015 87 10000 1.54 360 14:37 31.12.2021
4639 Mist -3 1015 88 10000 1.54 360 13:45 31.12.2021
4640 Mist -3 1015 88 10000 1.54 360 13:45 31.12.2021
4641 Mist -3 1014 88 9656 1.03 360 12:50 31.12.2021
4642 Mist -3 1014 88 9656 1.03 360 12:19 31.12.2021
4643 Mist -3 1014 88 9656 1.03 360 11:41 31.12.2021
4644 Mist -3 1014 88 8047 1.54 360 10:50 31.12.2021
4645 Mist -3 1014 90 8047 1.54 360 10:28 31.12.2021
4646 Mist -3 1014 89 9656 2.57 360 09:34 31.12.2021
4647 Mist -3 1014 87 9656 1.79 17 08:50 31.12.2021
4648 Mist -3 1014 88 9656 2.57 360 07:53 31.12.2021
4649 Snow -3 1015 87 4023 2.57 350 02:36 31.12.2021
4650 Snow -2 1014 81 10000 1.54 360 23:18 30.12.2021
4651 Clouds -2 1014 81 10000 0.51 360 22:31 30.12.2021
4652 Clouds -2 1014 80 10000 1.03 360 21:39 30.12.2021
4653 Clouds -2 1014 79 10000 1.03 360 21:18 30.12.2021
4654 Clouds -2 1014 79 10000 1.03 20 20:39 30.12.2021
4655 Clouds -2 1014 79 10000 1.03 30 19:55 30.12.2021
4656 Clouds -2 1014 79 10000 1.03 30 19:31 30.12.2021
4657 Clouds -3 1015 78 10000 0.51 10 18:26 30.12.2021
4658 Clouds -4 1016 82 10000 0.51 350 16:53 30.12.2021
4659 Clouds -5 1016 83 10000 0.51 20 15:53 30.12.2021
4660 Clouds -5 1015 84 10000 1.54 350 14:55 30.12.2021
4661 Clouds -5 1015 84 10000 1.54 350 14:36 30.12.2021
4662 Clouds -6 1015 84 10000 1.54 360 13:25 30.12.2021
4663 Clouds -6 1015 84 10000 1.54 360 13:25 30.12.2021
4664 Clouds -6 1014 85 10000 1.54 10 11:57 30.12.2021
4665 Snow -6 1014 85 9656 2.06 360 10:40 30.12.2021
4666 Snow -6 1014 84 9656 2.57 350 09:49 30.12.2021
4667 Clouds -6 1015 81 10000 1.54 20 06:59 30.12.2021
4668 Clouds -7 1015 81 10000 1.03 20 05:27 30.12.2021
4669 Clouds -7 1016 81 10000 2.06 350 03:41 30.12.2021
4670 Clouds -6 1016 80 10000 1.54 20 02:28 30.12.2021
4671 Clouds -5 1015 76 10000 1.54 10 23:39 29.12.2021
4672 Clouds -5 1015 75 10000 1.54 30 22:55 29.12.2021
4673 Clouds -4 1015 74 10000 1.54 30 22:18 29.12.2021
4674 Clouds -4 1015 74 10000 2.06 20 20:59 29.12.2021
4675 Clouds -4 1015 74 10000 2.06 20 20:30 29.12.2021
4676 Clouds -4 1015 74 10000 2.06 20 20:30 29.12.2021
4677 Clouds -4 1015 75 10000 2.06 20 19:38 29.12.2021
4678 Clouds -4 1015 75 10000 1.54 30 18:43 29.12.2021
4679 Clouds -4 1015 77 10000 2.06 20 17:52 29.12.2021
4680 Clouds -4 1015 77 10000 2.06 20 17:27 29.12.2021
4681 Clouds -4 1015 78 10000 2.57 20 16:22 29.12.2021
4682 Clouds -4 1015 78 10000 2.06 10 15:26 29.12.2021
4683 Clouds -4 1014 74 10000 2.06 20 13:42 29.12.2021
4684 Clouds -4 1013 72 10000 2.06 30 12:36 29.12.2021
4685 Clouds -4 1012 77 10000 1.54 70 11:26 29.12.2021
4686 Haze -3 1012 74 9656 1.54 20 09:46 29.12.2021
4687 Clouds -3 1012 77 10000 1.03 270 07:51 29.12.2021
4688 Clouds -3 1012 79 10000 2.06 350 06:38 29.12.2021
4689 Clouds -3 1012 81 10000 2.06 360 05:58 29.12.2021
4690 Snow -3 1012 81 10000 2.06 360 05:36 29.12.2021
4691 Clouds -3 1012 80 10000 1.54 360 02:22 29.12.2021
4692 Clouds -3 1012 81 10000 1.03 200 00:19 29.12.2021
4693 Clouds -3 1010 85 10000 1.54 180 23:31 28.12.2021
4694 Clear -4 1008 85 10000 1.54 170 22:42 28.12.2021
4695 Clear -3 1008 84 10000 1.54 170 22:23 28.12.2021
4696 Clouds -3 1008 83 10000 1.54 180 21:36 28.12.2021
4697 Snow -3 1008 82 10000 1.54 180 20:36 28.12.2021
4698 Snow -4 1007 85 2816 1.54 110 19:22 28.12.2021
4699 Snow -5 1007 86 8047 1.03 180 18:37 28.12.2021
4700 Snow -5 1007 86 10000 1.54 210 17:59 28.12.2021
4701 Snow -6 1007 83 10000 1.54 180 16:34 28.12.2021
4702 Snow -7 1007 86 10000 1.03 340 15:49 28.12.2021
4703 Snow -8 1007 86 10000 1.03 340 15:20 28.12.2021
4704 Snow -8 1006 87 10000 1.03 320 14:47 28.12.2021
4705 Snow -8 1006 87 4828 1.03 320 14:21 28.12.2021
4706 Snow -8 1006 86 1609 2.06 350 13:42 28.12.2021
4707 Snow -8 1006 86 1609 2.06 350 13:42 28.12.2021
4708 Snow -8 1006 86 1609 2.06 350 13:24 28.12.2021
4709 Snow -9 1005 88 2012 2.06 350 12:49 28.12.2021
4710 Snow -9 1005 85 4023 1.54 30 11:36 28.12.2021
4711 Clouds -9 1009 80 10000 3.09 360 08:30 28.12.2021
4712 Clouds -10 1010 75 10000 2.06 30 06:41 28.12.2021
4713 Clouds -9 1017 67 10000 1.54 20 23:43 27.12.2021
4714 Clouds -9 1017 67 10000 1.54 20 23:23 27.12.2021
4715 Clouds -8 1018 65 10000 1.54 40 21:42 27.12.2021
4716 Clouds -8 1018 65 10000 1.54 40 21:20 27.12.2021
4717 Clouds -8 1019 66 10000 1.54 60 20:23 27.12.2021
4718 Clouds -8 1020 67 10000 1.54 340 19:41 27.12.2021
4719 Clear -8 1021 67 10000 2.06 360 18:34 27.12.2021
4720 Clouds -9 1021 68 10000 1.03 30 17:48 27.12.2021
4721 Clouds -9 1022 70 10000 1.54 20 16:40 27.12.2021
4722 Clouds -10 1022 72 10000 2.06 10 15:52 27.12.2021
4723 Clear -10 1022 74 10000 2.06 50 14:33 27.12.2021
4724 Clear -10 1022 75 10000 3.09 360 13:39 27.12.2021
4725 Clouds -9 1023 75 10000 2.57 10 12:40 27.12.2021
4726 Clouds -6 1022 76 10000 1.54 320 10:32 27.12.2021
4727 Clouds -6 1022 73 10000 2.06 340 09:47 27.12.2021
4728 Clouds -4 1021 71 10000 2.06 350 07:50 27.12.2021
4729 Clouds -4 1021 73 10000 2.06 350 07:29 27.12.2021
4730 Snow -1 1018 77 10000 1.03 320 02:21 27.12.2021
4731 Snow -1 1016 77 10000 1.03 320 23:58 26.12.2021
4732 Snow -1 1016 77 10000 1.03 320 23:40 26.12.2021
4733 Snow -1 1015 75 10000 2.06 340 22:36 26.12.2021
4734 Clouds 0 1014 74 10000 2.57 340 20:59 26.12.2021
4735 Clouds -1 1013 74 10000 1.03 300 19:49 26.12.2021
4736 Clouds -1 1013 78 10000 0.51 330 18:24 26.12.2021
4737 Clouds -1 1013 81 10000 1.54 340 17:30 26.12.2021
4738 Snow -3 1011 90 3621 1.03 320 14:32 26.12.2021
4739 Snow -3 1010 91 2816 0.51 40 13:43 26.12.2021
4740 Snow -3 1010 91 9656 0.51 40 13:20 26.12.2021
4741 Snow -3 1009 91 8047 0.51 290 12:33 26.12.2021
4742 Snow -3 1008 91 4023 1.03 240 10:43 26.12.2021
4743 Snow -4 1008 89 4023 0.51 170 09:28 26.12.2021
4744 Snow -4 1007 85 10000 0.51 260 08:44 26.12.2021
4745 Snow -4 1006 81 10000 0.51 250 07:59 26.12.2021
4746 Snow -6 1003 87 10000 3.09 360 01:36 26.12.2021
4747 Snow -6 1002 88 10000 3.6 10 23:58 25.12.2021
4748 Snow -6 1002 87 10000 3.6 10 23:28 25.12.2021
4749 Snow -6 1001 87 10000 3.6 360 22:28 25.12.2021
4750 Snow -6 1001 87 8047 3.6 360 21:25 25.12.2021
4751 Snow -6 1001 87 3621 4.12 360 19:28 25.12.2021
4752 Snow -7 1002 85 3219 3.6 360 18:57 25.12.2021
4753 Snow -7 1002 84 4023 3.6 360 18:26 25.12.2021
4754 Snow -7 1003 77 10000 3.09 360 16:49 25.12.2021
4755 Snow -8 1004 80 10000 3.6 350 15:30 25.12.2021
4756 Snow -8 1006 79 8047 4.12 350 13:47 25.12.2021
4757 Snow -8 1006 76 10000 2.57 30 12:19 25.12.2021
4758 Clouds -8 1008 76 10000 2.57 10 10:36 25.12.2021
4759 Clouds -8 1009 75 10000 3.09 10 09:48 25.12.2021
4760 Clouds -9 1012 77 10000 2.06 350 07:27 25.12.2021
4761 Clouds -9 1016 73 10000 1.54 20 01:36 25.12.2021
4762 Clear -9 1017 75 10000 1.54 10 00:19 25.12.2021
4763 Clear -6 1018 64 10000 1.03 180 21:51 24.12.2021
4764 Clear -7 1018 65 10000 1.54 10 19:27 24.12.2021
4765 Clear -7 1020 64 10000 1.03 350 18:55 24.12.2021
4766 Clear -10 1021 71 10000 1.03 30 16:44 24.12.2021
4767 Clear -12 1021 77 10000 1.03 360 15:50 24.12.2021
4768 Clear -12 1021 77 10000 1.03 360 15:50 24.12.2021
4769 Clear -13 1021 77 10000 1.03 360 15:20 24.12.2021
4770 Clear -15 1021 81 10000 2.06 340 14:34 24.12.2021
4771 Clear -15 1021 81 10000 2.06 350 13:57 24.12.2021
4772 Clear -15 1021 82 10000 2.06 350 13:32 24.12.2021
4773 Clear -15 1021 80 10000 2.06 340 12:45 24.12.2021
4774 Clear -14 1021 76 10000 1.54 350 11:45 24.12.2021
4775 Clear -14 1021 76 10000 1.54 350 11:24 24.12.2021
4776 Clear -14 1021 76 10000 0.51 360 10:35 24.12.2021
4777 Clouds -13 1021 77 10000 1.54 190 08:58 24.12.2021
4778 Clouds -13 1021 78 10000 1.54 190 08:19 24.12.2021
4779 Clouds -13 1022 80 10000 1.03 180 07:42 24.12.2021
4780 Clear -13 1023 67 10000 1.03 250 00:47 24.12.2021
4781 Clear -12 1023 66 10000 1.03 240 23:50 23.12.2021
4782 Clear -12 1023 62 10000 1.03 240 22:53 23.12.2021
4783 Clear -12 1023 61 10000 1.03 240 22:25 23.12.2021
4784 Clear -11 1022 58 10000 1.03 290 21:50 23.12.2021
4785 Clear -11 1022 58 10000 1.03 250 20:53 23.12.2021
4786 Clear -11 1022 61 10000 1.54 230 19:31 23.12.2021
4787 Clear -12 1022 62 10000 2.06 260 18:28 23.12.2021
4788 Clear -12 1021 62 10000 1.54 210 17:47 23.12.2021
4789 Snow -13 1022 67 10000 1.03 250 16:40 23.12.2021
4790 Snow -13 1022 67 10000 1.03 250 16:20 23.12.2021
4791 Clear -13 1021 68 10000 1.03 250 15:31 23.12.2021
4792 Clear -14 1020 70 10000 0.51 200 14:42 23.12.2021
4793 Clear -14 1020 70 10000 0.51 200 14:42 23.12.2021
4794 Clear -14 1020 72 10000 0.51 200 14:19 23.12.2021
4795 Clear -13 1018 71 10000 1.54 280 12:39 23.12.2021
4796 Clear -12 1016 68 10000 1.54 350 10:41 23.12.2021
4797 Clear -11 1015 68 10000 1.03 180 09:34 23.12.2021
4798 Clear -10 1014 68 10000 1.54 170 08:59 23.12.2021
4799 Clear -9 1011 69 10000 2.06 230 06:48 23.12.2021
4800 Snow -5 1007 66 10000 1.54 340 03:41 23.12.2021
4801 Snow 0 1001 81 10000 2.06 190 22:57 22.12.2021
4802 Snow 0 1001 82 10000 2.06 190 22:32 22.12.2021
4803 Snow 0 1000 80 10000 1.54 170 21:53 22.12.2021
4804 Clouds 0 1000 80 10000 1.54 170 21:28 22.12.2021
4805 Snow -1 1000 81 10000 1.54 200 20:41 22.12.2021
4806 Snow -1 1000 81 10000 1.54 200 20:20 22.12.2021
4807 Rain 0 999 80 10000 1.03 300 19:19 22.12.2021
4808 Snow 0 999 81 10000 1.03 190 17:39 22.12.2021
4809 Snow -2 1000 83 10000 0.51 360 16:38 22.12.2021
4810 Snow -3 1000 81 9656 0.51 10 15:39 22.12.2021
4811 Clouds -5 1000 81 10000 0.51 110 13:32 22.12.2021
4812 Clouds -6 1001 81 10000 0.45 81 12:31 22.12.2021
4813 Clouds -6 1003 78 10000 1.54 360 09:53 22.12.2021
4814 Clouds -6 1003 77 10000 1.54 360 09:35 22.12.2021
4815 Clouds -6 1006 74 10000 3.09 360 07:25 22.12.2021
4816 Clouds -6 1009 72 10000 2.57 10 05:42 22.12.2021
4817 Clouds -6 1010 72 10000 2.57 10 05:24 22.12.2021
4818 Clouds -6 1011 71 10000 2.57 10 04:47 22.12.2021
4819 Clouds -6 1011 71 10000 2.57 10 04:24 22.12.2021
4820 Clouds -6 1013 68 10000 2.06 40 03:32 22.12.2021
4821 Clouds -5 1016 62 10000 1.54 50 00:33 22.12.2021
4822 Clouds -4 1018 58 10000 0.51 90 22:52 21.12.2021
4823 Clouds -4 1018 56 10000 0.51 90 22:28 21.12.2021
4824 Clear -3 1017 54 10000 1.54 340 21:44 21.12.2021
4825 Clear -3 1018 53 10000 1.03 10 20:55 21.12.2021
4826 Clear -2 1018 52 10000 1.03 10 20:21 21.12.2021
4827 Clear -2 1018 54 10000 1.54 300 19:41 21.12.2021
4828 Clear -3 1018 54 10000 2.06 350 18:46 21.12.2021
4829 Clear -3 1018 54 10000 2.06 350 18:21 21.12.2021
4830 Clouds -2 1019 56 10000 3.6 340 17:41 21.12.2021
4831 Clouds -2 1017 65 10000 2.57 340 15:59 21.12.2021
4832 Snow -2 1017 67 10000 2.57 340 15:24 21.12.2021
4833 Clear 0 1014 74 10000 1.54 230 13:50 21.12.2021
4834 Clear 0 1014 76 10000 1.54 230 13:30 21.12.2021
4835 Snow 1 1012 85 9656 2.57 200 11:49 21.12.2021
4836 Rain 1 1011 85 10000 2.57 180 10:25 21.12.2021
4837 Snow 1 1011 85 10000 2.06 180 09:27 21.12.2021
4838 Snow 1 1011 77 10000 1.03 160 07:59 21.12.2021
4839 Snow 0 1011 76 10000 1.03 160 07:29 21.12.2021
4840 Snow 0 1011 75 10000 1.54 180 06:50 21.12.2021
4841 Clouds -2 1015 77 10000 2.06 180 02:51 21.12.2021
4842 Snow -3 1017 78 10000 1.54 180 23:59 20.12.2021
4843 Snow -3 1017 78 10000 1.54 180 23:32 20.12.2021
4844 Snow -4 1018 77 4023 2.06 180 22:33 20.12.2021
4845 Clouds -4 1019 76 10000 2.57 170 21:48 20.12.2021
4846 Clouds -4 1019 76 10000 2.57 170 21:24 20.12.2021
4847 Clouds -4 1020 72 10000 2.06 170 20:45 20.12.2021
4848 Clouds -5 1021 71 10000 2.57 170 19:54 20.12.2021
4849 Clouds -5 1021 71 10000 2.57 170 19:31 20.12.2021
4850 Clouds -6 1023 71 10000 1.54 170 18:54 20.12.2021
4851 Clouds -7 1025 73 10000 1.54 190 17:55 20.12.2021
4852 Clouds -8 1025 74 10000 1.54 190 17:37 20.12.2021
4853 Clouds -9 1026 78 10000 2.06 180 16:42 20.12.2021
4854 Snow -10 1026 83 10000 2.06 200 15:51 20.12.2021
4855 Clouds -12 1027 87 10000 2.06 200 14:56 20.12.2021
4856 Clouds -13 1027 86 10000 1.54 190 13:18 20.12.2021
4857 Clouds -14 1027 84 10000 1.03 260 11:23 20.12.2021
4858 Clouds -14 1028 84 10000 0.51 300 09:51 20.12.2021
4859 Clouds -14 1028 83 10000 0.51 300 09:31 20.12.2021
4860 Clear -14 1028 82 10000 1.54 300 08:42 20.12.2021
4861 Clear -14 1027 82 10000 1.54 310 07:55 20.12.2021
4862 Clear -13 1027 82 10000 1.54 310 07:30 20.12.2021
4863 Clouds -11 1028 77 10000 2.06 310 04:36 20.12.2021
4864 Snow -8 1026 71 10000 1.54 330 00:18 20.12.2021
4865 Snow -6 1024 70 10000 1.03 250 22:53 19.12.2021
4866 Snow -5 1024 70 10000 1.54 230 21:55 19.12.2021
4867 Clouds -5 1024 70 10000 1.54 230 21:30 19.12.2021
4868 Clouds -4 1023 67 10000 1.54 240 20:34 19.12.2021
4869 Clouds -4 1022 69 10000 2.06 310 19:52 19.12.2021
4870 Clouds -4 1022 69 10000 2.06 310 19:27 19.12.2021
4871 Clouds -5 1022 69 10000 2.06 350 18:30 19.12.2021
4872 Clouds -5 1022 72 10000 2.57 330 17:53 19.12.2021
4873 Snow -5 1022 73 9656 2.57 330 17:20 19.12.2021
4874 Snow -6 1022 75 10000 2.57 320 16:26 19.12.2021
4875 Snow -6 1021 79 10000 1.54 310 15:43 19.12.2021
4876 Snow -6 1021 79 8047 1.54 310 15:21 19.12.2021
4877 Clouds -6 1020 80 10000 1.54 320 14:42 19.12.2021
4878 Clouds -6 1019 83 10000 2.06 320 13:24 19.12.2021
4879 Clouds -6 1018 84 10000 1.54 310 12:46 19.12.2021
4880 Clouds -6 1018 85 10000 1.54 310 12:23 19.12.2021
4881 Snow -6 1017 89 9656 2.57 340 11:21 19.12.2021
4882 Snow -6 1016 89 6437 3.09 360 10:26 19.12.2021
4883 Snow -6 1015 90 4828 3.6 360 09:48 19.12.2021
4884 Snow -6 1014 90 4828 4.12 360 08:43 19.12.2021
4885 Snow -6 1014 89 3219 3.09 360 04:45 19.12.2021
4886 Snow -6 1017 87 2414 3.09 360 01:34 19.12.2021
4887 Snow -6 1018 87 1609 2.06 30 00:53 19.12.2021
4888 Snow -5 1019 79 4023 2.06 40 22:42 18.12.2021
4889 Snow -5 1019 77 4828 2.06 40 22:20 18.12.2021
4890 Snow -5 1020 70 10000 2.06 50 21:41 18.12.2021
4891 Snow -4 1020 68 10000 2.06 50 21:22 18.12.2021
4892 Snow -4 1021 61 10000 1.54 30 20:20 18.12.2021
4893 Clouds -4 1022 60 10000 1.54 70 19:25 18.12.2021
4894 Clouds -4 1023 60 10000 2.06 40 18:22 18.12.2021
4895 Clouds -4 1024 61 10000 2.06 50 17:48 18.12.2021
4896 Clouds -4 1025 62 10000 3.09 40 16:26 18.12.2021
4897 Clouds -4 1025 63 10000 2.06 40 15:28 18.12.2021
4898 Clouds -5 1026 65 10000 2.57 30 14:51 18.12.2021
4899 Clouds -5 1026 65 10000 3.09 10 13:29 18.12.2021
4900 Clouds -5 1026 65 10000 3.09 10 13:29 18.12.2021
4901 Clouds -4 1026 66 10000 2.57 10 11:47 18.12.2021
4902 Clear -3 1025 64 10000 4.12 360 09:52 18.12.2021
4903 Clear -2 1025 63 10000 2.06 340 08:48 18.12.2021
4904 Clear -2 1025 64 10000 2.06 340 08:27 18.12.2021
4905 Clear 0 1023 61 10000 1.03 320 05:56 18.12.2021
4906 Clear 2 1019 57 10000 1.03 90 00:34 18.12.2021
4907 Clouds 2 1018 56 10000 2.57 30 23:46 17.12.2021
4908 Clouds 4 1015 58 10000 1.54 180 21:58 17.12.2021
4909 Clouds 5 1015 58 10000 1.54 180 21:23 17.12.2021
4910 Clouds 5 1014 58 10000 2.06 220 20:42 17.12.2021
4911 Clouds 5 1013 58 10000 2.06 220 19:45 17.12.2021
4912 Clouds 6 1013 59 10000 2.06 210 18:39 17.12.2021
4913 Clouds 6 1012 60 10000 1.54 210 17:40 17.12.2021
4914 Clouds 6 1012 61 10000 1.54 190 16:50 17.12.2021
4915 Clouds 6 1012 62 10000 1.54 190 16:25 17.12.2021
4916 Clouds 6 1011 61 10000 2.06 200 15:25 17.12.2021
4917 Clouds 6 1010 63 10000 2.57 180 14:41 17.12.2021
4918 Clouds 6 1009 66 10000 2.57 180 13:30 17.12.2021
4919 Clouds 6 1008 64 10000 2.57 180 12:21 17.12.2021
4920 Clouds 7 1004 63 10000 2.57 190 10:39 17.12.2021
4921 Clear 7 1003 64 10000 2.57 250 09:44 17.12.2021
4922 Clouds 9 1001 62 10000 1.03 200 08:31 17.12.2021
4923 Clear 12 1000 63 10000 4.12 180 07:20 17.12.2021
4924 Clouds 15 998 68 10000 0 0 04:40 17.12.2021
4925 Clouds 12 1002 83 10000 1.54 190 23:58 16.12.2021
4926 Clouds 11 1002 85 10000 2.06 190 22:24 16.12.2021
4927 Clouds 11 1003 85 10000 2.06 190 21:51 16.12.2021
4928 Clouds 10 1003 85 10000 2.06 190 21:30 16.12.2021
4929 Clouds 9 1003 86 10000 2.06 180 20:31 16.12.2021
4930 Clouds 9 1004 87 10000 2.06 180 19:51 16.12.2021
4931 Clouds 8 1005 89 10000 1.54 180 18:41 16.12.2021
4932 Clouds 8 1006 90 10000 2.06 180 17:57 16.12.2021
4933 Clouds 8 1007 90 10000 2.06 180 17:31 16.12.2021
4934 Clouds 6 1009 94 10000 1.79 196 16:23 16.12.2021
4935 Clouds 5 1010 95 10000 1.54 180 15:20 16.12.2021
4936 Clouds 4 1012 95 10000 1.54 190 13:43 16.12.2021
4937 Mist 2 1014 95 9656 0 0 11:46 16.12.2021
4938 Mist 2 1014 94 10000 0 0 11:18 16.12.2021
4939 Mist 2 1015 95 10000 0.51 340 10:32 16.12.2021
4940 Rain 2 1016 95 10000 1.03 190 08:56 16.12.2021
4941 Rain 1 1017 95 9656 1.54 190 06:22 16.12.2021
4942 Rain 1 1021 96 9656 0.51 140 02:59 16.12.2021
4943 Snow -2 1027 84 2012 1.03 20 23:35 15.12.2021
4944 Snow -1 1027 74 10000 2.06 350 22:49 15.12.2021
4945 Snow -1 1028 68 10000 1.54 10 21:58 15.12.2021
4946 Snow -1 1028 67 10000 1.54 10 21:31 15.12.2021
4947 Snow -1 1029 64 10000 1.54 70 20:32 15.12.2021
4948 Clouds -1 1031 63 10000 2.06 30 19:53 15.12.2021
4949 Clouds -1 1033 61 10000 2.06 10 18:40 15.12.2021
4950 Clouds -1 1035 61 10000 1.03 20 17:57 15.12.2021
4951 Clouds -1 1035 61 10000 1.03 20 17:39 15.12.2021
4952 Clouds -2 1036 62 10000 2.06 60 16:57 15.12.2021
4953 Clouds -3 1037 61 10000 2.57 70 15:47 15.12.2021
4954 Clouds -3 1037 61 10000 2.57 70 15:29 15.12.2021
4955 Clouds -4 1038 64 10000 2.57 110 14:44 15.12.2021
4956 Clouds -4 1039 64 10000 1.54 120 13:27 15.12.2021
4957 Clouds -4 1040 69 10000 0.51 270 10:58 15.12.2021
4958 Clouds -6 1040 73 10000 3.09 40 09:31 15.12.2021
4959 Clouds -6 1039 76 10000 1.03 30 07:47 15.12.2021
4960 Clear -3 1039 58 10000 1.54 320 02:40 15.12.2021
4961 Clear -1 1038 54 10000 0.51 310 23:46 14.12.2021
4962 Clear 0 1037 52 10000 1.03 280 22:52 14.12.2021
4963 Clear 0 1037 50 10000 1.03 280 22:34 14.12.2021
4964 Clear 2 1036 48 10000 1.03 300 21:24 14.12.2021
4965 Clear 2 1036 46 10000 1.03 340 20:18 14.12.2021
4966 Clear 2 1035 45 10000 1.03 20 19:21 14.12.2021
4967 Clear 2 1035 45 10000 1.03 20 19:21 14.12.2021
4968 Clear 1 1035 46 10000 2.06 350 18:38 14.12.2021
4969 Clear 1 1035 48 10000 3.6 360 17:50 14.12.2021
4970 Clear 1 1035 51 10000 3.09 360 16:43 14.12.2021
4971 Clear 1 1033 54 10000 2.57 10 15:52 14.12.2021
4972 Clear 1 1030 66 10000 3.09 350 13:35 14.12.2021
4973 Clear 1 1028 68 10000 2.57 360 12:41 14.12.2021
4974 Clear 2 1026 75 10000 1.54 30 11:24 14.12.2021
4975 Clear 3 1025 77 10000 1.54 210 10:27 14.12.2021
4976 Clear 3 1024 77 10000 1.03 200 09:53 14.12.2021
4977 Clear 4 1022 76 10000 1.54 190 08:40 14.12.2021
4978 Clear 4 1022 76 10000 1.54 190 08:20 14.12.2021
4979 Clear 4 1019 72 10000 2.06 170 06:27 14.12.2021
4980 Clear 6 1013 70 10000 3.09 180 23:39 13.12.2021
4981 Clear 8 1013 66 10000 2.57 190 21:57 13.12.2021
4982 Clear 8 1013 65 10000 2.57 190 21:34 13.12.2021
4983 Clouds 8 1013 63 10000 2.57 190 20:50 13.12.2021
4984 Clear 8 1014 61 10000 2.57 180 19:59 13.12.2021
4985 Clear 8 1014 61 10000 2.57 180 19:27 13.12.2021
4986 Clear 7 1015 63 10000 2.06 190 17:27 13.12.2021
4987 Clear 7 1016 66 10000 2.57 190 16:24 13.12.2021
4988 Clear 6 1016 67 10000 2.06 190 15:43 13.12.2021
4989 Clear 6 1016 67 10000 2.06 190 15:43 13.12.2021
4990 Clouds 5 1015 68 10000 2.06 190 13:57 13.12.2021
4991 Clouds 5 1015 68 10000 2.06 190 13:31 13.12.2021
4992 Clouds 5 1014 67 10000 2.57 190 12:36 13.12.2021
4993 Clouds 5 1014 67 10000 3.09 180 11:43 13.12.2021
4994 Clouds 5 1014 67 10000 3.09 180 11:24 13.12.2021
4995 Clouds 5 1013 67 10000 2.06 200 10:21 13.12.2021
4996 Clouds 5 1012 69 10000 2.06 190 08:43 13.12.2021
4997 Clear 5 1011 69 10000 2.57 190 05:38 13.12.2021
4998 Clouds 5 1012 69 10000 3.09 190 03:57 13.12.2021
4999 Clear 4 1012 62 10000 2.57 190 23:43 12.12.2021
5000 Clear 5 1011 47 10000 3.09 190 21:56 12.12.2021
5001 Clear 6 1011 46 10000 2.57 200 20:46 12.12.2021
5002 Clear 5 1011 53 10000 2.57 200 19:34 12.12.2021
5003 Clear 4 1011 60 10000 3.09 180 17:54 12.12.2021
5004 Clear 3 1011 63 10000 2.57 190 16:29 12.12.2021
5005 Clear 2 1011 64 10000 2.57 190 15:53 12.12.2021
5006 Clear 2 1011 64 10000 2.57 190 15:28 12.12.2021
5007 Clear 1 1010 65 10000 2.57 170 14:38 12.12.2021
5008 Clear 1 1010 62 10000 2.06 180 13:43 12.12.2021
5009 Clear 1 1009 61 10000 2.06 200 12:47 12.12.2021
5010 Clear 1 1007 62 10000 2.06 230 11:45 12.12.2021
5011 Clear 1 1007 62 10000 2.06 230 11:25 12.12.2021
5012 Clouds 2 1005 61 10000 2.57 210 10:43 12.12.2021
5013 Clouds 2 1004 62 10000 2.06 190 09:45 12.12.2021
5014 Clouds 3 1001 61 10000 3.09 200 08:38 12.12.2021
5015 Clouds 5 995 62 10000 4.63 180 06:38 12.12.2021
5016 Clouds 6 992 64 10000 4.63 190 05:28 12.12.2021
5017 Clouds 7 990 71 10000 3.6 190 03:58 12.12.2021
5018 Clouds 10 987 91 10000 2.06 180 00:45 12.12.2021
5019 Clouds 8 990 92 10000 2.06 190 22:42 11.12.2021
5020 Clouds 7 990 91 10000 2.06 190 22:20 11.12.2021
5021 Clouds 7 992 93 10000 2.57 200 21:25 11.12.2021
5022 Clouds 6 994 92 10000 2.06 180 19:46 11.12.2021
5023 Clouds 6 994 92 10000 2.06 180 19:21 11.12.2021
5024 Clouds 5 996 92 10000 2.57 180 18:39 11.12.2021
5025 Clouds 4 997 94 10000 2.57 180 17:41 11.12.2021
5026 Snow 1 1002 96 2414 0.51 60 15:57 11.12.2021
5027 Mist 1 1002 96 4023 0.51 60 15:39 11.12.2021
5028 Snow 0 1005 93 2816 1.03 10 14:33 11.12.2021
5029 Mist -2 1011 90 9656 3.09 350 12:20 11.12.2021
5030 Mist -3 1014 90 9656 3.09 350 10:49 11.12.2021
5031 Mist -3 1016 91 9656 2.57 360 09:40 11.12.2021
5032 Mist -3 1020 87 8047 2.06 360 03:57 11.12.2021
5033 Clouds -2 1019 87 10000 0.51 350 00:47 11.12.2021
5034 Clouds -2 1019 86 10000 0.51 10 23:42 10.12.2021
5035 Clouds -3 1019 86 10000 2.06 20 22:39 10.12.2021
5036 Clouds -2 1018 86 10000 2.06 10 21:40 10.12.2021
5037 Clouds -3 1017 86 10000 2.57 10 20:26 10.12.2021
5038 Clouds -3 1017 86 10000 1.54 350 19:18 10.12.2021
5039 Clouds -3 1018 89 10000 2.06 350 17:46 10.12.2021
5040 Snow -4 1019 91 10000 2.06 350 16:37 10.12.2021
5041 Snow -4 1018 88 9656 1.54 360 15:45 10.12.2021
5042 Snow -5 1018 90 4828 1.54 360 15:26 10.12.2021
5043 Snow -5 1018 91 9656 1.54 350 14:35 10.12.2021
5044 Snow -7 1019 86 9656 1.03 360 13:49 10.12.2021
5045 Snow -7 1019 86 4828 1.54 360 12:56 10.12.2021
5046 Snow -8 1020 81 10000 1.54 10 11:43 10.12.2021
5047 Snow -8 1020 82 10000 1.54 360 10:57 10.12.2021
5048 Clouds -8 1021 78 10000 1.54 50 09:49 10.12.2021
5049 Clouds -8 1022 76 10000 1.54 120 07:49 10.12.2021
5050 Clouds -8 1024 79 10000 1.54 180 04:57 10.12.2021
5051 Clouds -8 1024 83 10000 1.54 140 02:42 10.12.2021
5052 Clouds -7 1024 75 10000 1.03 290 23:42 09.12.2021
5053 Clouds -6 1024 74 10000 0.51 270 22:43 09.12.2021
5054 Clouds -6 1024 73 10000 0.51 270 22:23 09.12.2021
5055 Clouds -6 1024 72 10000 0.51 240 21:40 09.12.2021
5056 Clouds -5 1024 70 10000 1.03 230 20:36 09.12.2021
5057 Snow -6 1023 71 10000 1.54 220 19:45 09.12.2021
5058 Clouds -6 1023 72 10000 1.54 220 19:20 09.12.2021
5059 Clouds -6 1023 74 10000 2.06 320 18:22 09.12.2021
5060 Snow -7 1023 78 10000 2.06 270 17:48 09.12.2021
5061 Snow -7 1022 79 10000 2.06 270 17:24 09.12.2021
5062 Snow -7 1022 79 10000 1.03 340 16:41 09.12.2021
5063 Snow -9 1021 84 10000 1.54 340 15:19 09.12.2021
5064 Snow -9 1020 85 9656 2.06 350 14:36 09.12.2021
5065 Snow -10 1018 85 9656 2.57 360 12:49 09.12.2021
5066 Snow -10 1018 87 10000 2.57 360 12:24 09.12.2021
5067 Snow -9 1017 87 2012 0.51 280 10:40 09.12.2021
5068 Snow -9 1015 86 4828 2.57 360 07:53 09.12.2021
5069 Snow -10 1015 85 10000 3.6 350 03:59 09.12.2021
5070 Snow -10 1016 84 10000 2.57 10 01:43 09.12.2021
5071 Snow -9 1017 86 10000 3.6 10 23:38 08.12.2021
5072 Snow -8 1017 84 9656 3.09 360 22:59 08.12.2021
5073 Snow -8 1017 84 9656 3.09 360 22:37 08.12.2021
5074 Snow -8 1017 82 9656 3.09 360 21:39 08.12.2021
5075 Snow -8 1017 82 9656 3.09 360 21:39 08.12.2021
5076 Snow -8 1017 82 9656 2.57 10 20:58 08.12.2021
5077 Snow -8 1018 82 4023 2.57 10 19:57 08.12.2021
5078 Snow -8 1018 81 9656 2.57 10 19:29 08.12.2021
5079 Snow -8 1019 78 8047 2.57 50 18:28 08.12.2021
5080 Snow -8 1021 75 10000 1.54 30 17:24 08.12.2021
5081 Snow -8 1023 66 10000 1.54 80 15:45 08.12.2021
5082 Clouds -8 1023 66 10000 1.54 80 15:23 08.12.2021
5083 Clouds -9 1023 69 10000 1.03 80 13:40 08.12.2021
5084 Clouds -9 1024 70 10000 1.03 30 10:45 08.12.2021
5085 Clouds -9 1024 69 10000 1.03 30 10:23 08.12.2021
5086 Clouds -8 1024 67 10000 2.06 320 08:54 08.12.2021
5087 Clouds -8 1024 62 10000 1.03 320 06:52 08.12.2021
5088 Clouds -6 1023 55 10000 1.03 330 01:21 08.12.2021
5089 Clouds -5 1021 53 10000 1.03 300 23:29 07.12.2021
5090 Clouds -4 1019 57 10000 2.06 200 21:26 07.12.2021
5091 Clouds -3 1019 60 10000 2.06 210 20:30 07.12.2021
5092 Clouds -3 1019 60 10000 1.54 190 19:48 07.12.2021
5093 Clear -3 1019 61 10000 2.57 250 18:37 07.12.2021
5094 Clear -4 1019 64 10000 2.06 230 17:27 07.12.2021
5095 Snow -4 1019 64 10000 1.54 280 16:57 07.12.2021
5096 Snow -4 1019 64 10000 1.54 280 16:27 07.12.2021
5097 Clouds -5 1016 67 10000 1.54 190 14:47 07.12.2021
5098 Clear -5 1015 66 10000 1.03 220 13:46 07.12.2021
5099 Clear -4 1014 62 10000 1.54 230 12:41 07.12.2021
5100 Clouds -4 1012 61 10000 1.03 220 11:23 07.12.2021
5101 Clouds -1 1007 61 10000 2.06 220 09:44 07.12.2021
5102 Clouds 2 1002 69 10000 3.6 190 07:55 07.12.2021
5103 Clouds 2 1001 73 10000 2.68 213 05:55 07.12.2021
5104 Clouds 2 1001 74 10000 2.68 206 05:27 07.12.2021
5105 Rain 7 994 93 9656 2.06 180 23:45 06.12.2021
5106 Rain 7 993 95 10000 1.54 190 22:44 06.12.2021
5107 Rain 7 993 95 10000 1.54 190 22:18 06.12.2021
5108 Rain 7 993 95 10000 2.57 180 21:42 06.12.2021
5109 Rain 6 994 95 10000 2.57 180 20:33 06.12.2021
5110 Rain 6 995 94 8047 1.54 180 19:27 06.12.2021
5111 Rain 5 997 94 9656 2.57 190 18:57 06.12.2021
5112 Rain 5 999 93 10000 3.09 180 17:56 06.12.2021
5113 Rain 5 1000 93 10000 3.09 180 17:36 06.12.2021
5114 Rain 4 1002 92 10000 2.06 180 16:21 06.12.2021
5115 Clouds 3 1006 92 10000 2.06 180 14:54 06.12.2021
5116 Mist 2 1007 95 6437 2.06 180 13:45 06.12.2021
5117 Rain 1 1009 96 10000 1.03 130 12:39 06.12.2021
5118 Snow -1 1013 93 6437 1.54 20 10:31 06.12.2021
5119 Snow -3 1018 93 1207 1.03 60 08:35 06.12.2021
5120 Snow -5 1025 86 2816 1.54 20 04:28 06.12.2021
5121 Clouds -3 1030 66 10000 0.51 150 22:30 05.12.2021
5122 Clouds -3 1030 63 10000 1.03 300 21:26 05.12.2021
5123 Clear -3 1030 62 10000 1.54 180 20:59 05.12.2021
5124 Clear -3 1030 62 10000 1.54 180 20:19 05.12.2021
5125 Clouds -3 1030 62 10000 1.54 280 19:33 05.12.2021
5126 Clouds -3 1030 63 10000 2.06 340 18:41 05.12.2021
5127 Clouds -4 1030 64 10000 2.06 340 18:19 05.12.2021
5128 Clear -4 1030 66 10000 0.51 20 17:47 05.12.2021
5129 Clear -5 1030 70 10000 1.03 300 16:45 05.12.2021
5130 Clear -5 1030 72 10000 1.03 300 16:26 05.12.2021
5131 Clear -7 1028 87 10000 0.51 210 14:49 05.12.2021
5132 Clear -7 1028 87 10000 0.51 210 14:31 05.12.2021
5133 Clear -8 1026 85 10000 0.51 260 13:50 05.12.2021
5134 Clear -8 1026 86 10000 0.51 260 13:22 05.12.2021
5135 Clear -8 1026 85 10000 1.03 280 12:40 05.12.2021
5136 Clear -8 1026 85 10000 1.03 280 12:18 05.12.2021
5137 Clear -7 1024 86 10000 0.51 270 11:20 05.12.2021
5138 Clear -7 1022 88 10000 1.03 300 09:59 05.12.2021
5139 Clouds -6 1020 89 10000 1.03 240 07:55 05.12.2021
5140 Snow -6 1018 84 10000 0.51 310 03:27 05.12.2021
5141 Clouds -5 1015 85 10000 2.57 360 23:34 04.12.2021
5142 Snow -5 1014 84 9656 2.06 10 21:55 04.12.2021
5143 Snow -4 1014 81 2816 1.03 250 20:57 04.12.2021
5144 Snow -4 1014 69 10000 1.54 160 19:55 04.12.2021
5145 Snow -4 1015 67 10000 1.54 160 19:32 04.12.2021
5146 Snow -5 1016 58 10000 2.57 130 18:21 04.12.2021
5147 Clouds -5 1017 52 10000 2.06 170 17:39 04.12.2021
5148 Clouds -5 1018 56 10000 1.54 80 16:51 04.12.2021
5149 Clouds -6 1018 55 10000 1.54 80 16:30 04.12.2021
5150 Snow -6 1018 59 10000 1.03 140 15:40 04.12.2021
5151 Clouds -9 1019 61 10000 1.03 290 11:51 04.12.2021
5152 Clouds -8 1019 61 10000 1.03 290 11:32 04.12.2021
5153 Clouds -8 1018 58 10000 0.51 320 10:53 04.12.2021
5154 Clouds -8 1018 57 10000 1.54 330 08:48 04.12.2021
5155 Clouds -7 1018 54 10000 2.57 360 06:28 04.12.2021
5156 Clouds -7 1018 51 10000 3.09 360 04:42 04.12.2021
5157 Clear -5 1016 50 10000 1.54 210 00:35 04.12.2021
5158 Clear -5 1015 50 10000 1.54 220 23:27 03.12.2021
5159 Clear -5 1014 49 10000 1.54 220 22:47 03.12.2021
5160 Clear -4 1014 47 10000 1.03 210 21:26 03.12.2021
5161 Clear -3 1013 47 10000 1.54 210 20:54 03.12.2021
5162 Clear -3 1013 47 10000 1.54 210 20:26 03.12.2021
5163 Clear -3 1012 46 10000 2.06 340 18:44 03.12.2021
5164 Clouds -3 1012 52 10000 1.54 350 17:59 03.12.2021
5165 Clouds -3 1012 56 10000 2.06 350 16:33 03.12.2021
5166 Snow -3 1010 62 10000 3.09 360 13:27 03.12.2021
5167 Clouds -2 1008 68 10000 1.03 20 12:20 03.12.2021
5168 Clouds -1 1006 64 10000 3.6 350 10:56 03.12.2021
5169 Clouds 1 1001 70 10000 1.54 10 08:29 03.12.2021
5170 Clouds 1 1000 75 10000 2.06 150 07:43 03.12.2021
5171 Clouds 1 1000 75 10000 2.06 150 07:43 03.12.2021
5172 Clouds 1 1000 75 10000 2.06 150 07:43 03.12.2021
5173 Clouds 3 997 80 10000 1.54 200 05:42 03.12.2021
5174 Mist 5 993 88 9656 3.6 190 00:48 03.12.2021
5175 Rain 5 993 93 10000 2.06 180 23:47 02.12.2021
5176 Mist 5 993 94 4828 2.57 180 22:38 02.12.2021
5177 Rain 5 993 93 4023 2.06 180 21:41 02.12.2021
5178 Clouds 4 994 92 10000 1.54 190 20:44 02.12.2021
5179 Clouds 4 994 92 10000 1.54 190 20:22 02.12.2021
5180 Rain 4 996 91 10000 1.54 190 18:47 02.12.2021
5181 Clouds 3 1000 87 10000 2.06 180 16:35 02.12.2021
5182 Clouds 3 1001 89 10000 2.06 180 15:41 02.12.2021
5183 Clouds 2 1002 89 10000 2.06 170 14:52 02.12.2021
5184 Rain 1 1004 92 8047 2.57 180 13:39 02.12.2021
5185 Rain 1 1005 91 10000 2.06 180 12:36 02.12.2021
5186 Snow 0 1009 76 10000 2.06 180 10:42 02.12.2021
5187 Clouds -1 1011 77 10000 1.54 180 09:26 02.12.2021
5188 Clouds -3 1013 74 10000 1.34 143 07:20 02.12.2021
5189 Clouds -4 1019 64 10000 0.51 200 01:28 02.12.2021
5190 Clouds -4 1019 64 10000 0.51 330 00:35 02.12.2021
5191 Clear -3 1019 59 10000 1.03 210 22:32 01.12.2021
5192 Clear -2 1018 57 10000 2.06 220 21:44 01.12.2021
5193 Clouds -1 1018 61 10000 1.54 170 20:24 01.12.2021
5194 Clouds 0 1018 64 10000 2.06 220 19:46 01.12.2021
5195 Clouds 0 1018 65 10000 1.54 230 18:55 01.12.2021
5196 Clouds 0 1017 63 10000 1.54 190 17:31 01.12.2021
5197 Snow 0 1016 62 10000 1.54 340 16:36 01.12.2021
5198 Clouds 0 1013 82 10000 1.03 190 14:39 01.12.2021
5199 Snow 0 1012 83 10000 1.54 260 13:37 01.12.2021
5200 Snow 0 1010 92 9656 1.54 190 11:26 01.12.2021
5201 Snow -1 1009 93 8047 2.06 200 10:40 01.12.2021
5202 Snow -1 1010 91 6437 1.54 170 08:53 01.12.2021
5203 Clouds -2 1010 91 10000 1.54 170 08:26 01.12.2021
5204 Clouds -2 1009 91 10000 2.06 170 07:32 01.12.2021
5205 Snow -2 1010 83 4828 1.03 200 04:18 01.12.2021
5206 Snow -2 1011 79 10000 1.54 210 03:32 01.12.2021
5207 Clouds -3 1011 76 10000 0.51 240 00:45 01.12.2021
5208 Clouds -3 1011 73 10000 0.51 290 23:35 30.11.2021
5209 Clouds -2 1011 72 10000 0.51 230 22:39 30.11.2021
5210 Clouds -1 1011 71 10000 1.03 250 20:53 30.11.2021
5211 Clouds -1 1011 71 10000 1.03 250 20:34 30.11.2021
5212 Clouds -1 1011 70 10000 1.54 250 19:51 30.11.2021
5213 Clouds -1 1011 69 10000 1.54 250 19:24 30.11.2021
5214 Clouds -1 1011 66 10000 1.03 270 18:24 30.11.2021
5215 Snow -2 1012 77 10000 0.51 350 16:25 30.11.2021
5216 Snow -4 1013 86 1609 1.03 310 14:35 30.11.2021
5217 Snow -4 1013 85 2816 1.03 300 13:52 30.11.2021
5218 Snow -4 1013 84 2816 1.03 300 13:23 30.11.2021
5219 Snow -4 1013 83 8047 1.03 310 12:44 30.11.2021
5220 Snow -4 1013 83 10000 1.54 300 11:26 30.11.2021
5221 Clouds -5 1013 84 10000 1.03 270 10:47 30.11.2021
5222 Clouds -5 1013 84 10000 1.03 270 10:29 30.11.2021
5223 Clouds -5 1014 82 10000 1.54 280 08:51 30.11.2021
5224 Clouds -5 1014 80 10000 1.54 280 08:20 30.11.2021
5225 Clouds -5 1014 79 10000 1.03 260 07:39 30.11.2021
5226 Clouds -4 1015 77 10000 0.51 230 01:52 30.11.2021
5227 Clouds -5 1015 77 10000 0.51 230 01:32 30.11.2021
5228 Clear -4 1015 71 10000 1.03 280 23:57 29.11.2021
5229 Clear -5 1015 71 10000 1.03 280 23:21 29.11.2021
5230 Clouds -4 1014 68 10000 0.51 280 22:44 29.11.2021
5231 Clouds -4 1014 67 10000 0.51 280 22:25 29.11.2021
5232 Clear -3 1014 64 10000 2.06 340 21:22 29.11.2021
5233 Clear -3 1014 63 10000 1.54 320 20:56 29.11.2021
5234 Clear -3 1014 62 10000 1.54 320 20:22 29.11.2021
5235 Clouds -3 1014 62 10000 1.54 350 19:44 29.11.2021
5236 Clouds -3 1014 62 10000 1.54 350 19:26 29.11.2021
5237 Clouds -3 1015 65 10000 1.79 15 18:47 29.11.2021
5238 Clouds -3 1015 69 10000 1.66 341 17:22 29.11.2021
5239 Clouds -3 1015 69 10000 1.66 341 16:56 29.11.2021
5240 Clouds -3 1015 73 10000 1.47 8 16:25 29.11.2021
5241 Clouds -4 1015 79 10000 1.75 34 15:27 29.11.2021
5242 Clouds -4 1015 79 10000 1.75 34 14:42 29.11.2021
5243 Clouds -5 1014 87 10000 1.9 19 13:28 29.11.2021
5244 Clouds -5 1014 88 10000 2.17 11 12:22 29.11.2021
5245 Clouds -5 1014 88 10000 2.17 11 11:31 29.11.2021
5246 Clouds -4 1013 88 10000 2.2 25 10:32 29.11.2021
5247 Clouds -5 1012 75 10000 2.06 360 08:45 29.11.2021
5248 Clouds -4 1012 72 10000 1.54 350 05:58 29.11.2021
5249 Clouds -4 1011 74 10000 0.51 250 01:35 29.11.2021
5250 Clouds -4 1011 69 10000 0.51 260 00:36 29.11.2021
5251 Clouds -4 1010 64 10000 1.03 260 23:42 28.11.2021
5252 Clouds -3 1010 67 10000 1.03 270 22:42 28.11.2021
5253 Clouds -3 1010 69 10000 1.03 270 21:41 28.11.2021
5254 Clouds -2 1010 58 10000 1.03 220 20:58 28.11.2021
5255 Clear -3 1010 63 10000 1.54 270 19:55 28.11.2021
5256 Clear -3 1010 62 10000 2.06 260 18:45 28.11.2021
5257 Clear -3 1010 62 10000 2.06 260 18:27 28.11.2021
5258 Snow -4 1011 66 10000 1.03 220 17:49 28.11.2021
5259 Snow -4 1011 66 10000 1.03 220 17:30 28.11.2021
5260 Clear -5 1011 68 10000 1.54 220 16:28 28.11.2021
5261 Clear -6 1011 73 10000 2.57 270 15:53 28.11.2021
5262 Clear -7 1011 81 10000 2.57 260 14:57 28.11.2021
5263 Clear -7 1011 81 10000 2.57 260 14:35 28.11.2021
5264 Clear -8 1010 84 10000 1.54 240 12:58 28.11.2021
5265 Clear -8 1010 84 10000 1.54 240 12:29 28.11.2021
5266 Clear -7 1010 73 10000 1.54 250 10:53 28.11.2021
5267 Clear -7 1010 73 10000 1.54 250 10:20 28.11.2021
5268 Clear -7 1010 73 10000 1.03 250 09:37 28.11.2021
5269 Clear -6 1010 71 10000 1.03 170 06:29 28.11.2021
5270 Clear -4 1008 67 10000 1.54 230 23:37 27.11.2021
5271 Clouds -3 1006 70 10000 1.54 180 20:44 27.11.2021
5272 Clouds -4 1006 70 10000 1.54 250 18:57 27.11.2021
5273 Snow -4 1006 74 10000 1.54 20 16:52 27.11.2021
5274 Clouds -4 1005 74 10000 2.06 290 15:55 27.11.2021
5275 Clouds -4 1005 80 10000 1.03 150 13:47 27.11.2021
5276 Snow -4 1004 78 10000 1.54 90 12:31 27.11.2021
5277 Clouds -3 1003 80 10000 1.54 30 10:42 27.11.2021
5278 Clouds -2 1003 76 10000 1.54 10 09:51 27.11.2021
5279 Clouds -2 1002 78 10000 1.03 160 08:40 27.11.2021
5280 Snow 0 1000 93 3219 2.57 340 04:58 27.11.2021
5281 Snow 1 1000 95 3219 2.06 340 01:55 27.11.2021
5282 Snow 1 999 95 6437 2.06 310 23:35 26.11.2021
5283 Snow 1 999 97 2816 1.03 320 22:25 26.11.2021
5284 Snow 1 999 97 2414 1.54 360 21:36 26.11.2021
5285 Snow 1 998 95 2816 2.06 360 20:53 26.11.2021
5286 Snow 1 998 95 2816 2.06 360 20:19 26.11.2021
5287 Snow 1 999 95 2816 2.06 340 19:47 26.11.2021
5288 Snow 1 999 95 4828 2.57 350 18:39 26.11.2021
5289 Rain 2 1000 97 9656 2.06 360 17:23 26.11.2021
5290 Rain 2 1000 100 3219 2.06 360 15:57 26.11.2021
5291 Rain 2 1001 94 3219 1.54 90 13:36 26.11.2021
5292 Rain 2 1002 95 2012 1.03 170 12:40 26.11.2021
5293 Mist 2 1003 94 3219 1.54 190 10:38 26.11.2021
5294 Rain 2 1004 94 4023 2.06 140 08:59 26.11.2021
5295 Mist 2 1005 93 8047 1.54 150 08:21 26.11.2021
5296 Mist 2 1005 93 9656 1.54 190 07:33 26.11.2021
5297 Rain 1 1006 94 8047 1.03 190 06:28 26.11.2021
5298 Rain 1 1008 92 10000 0.45 156 04:51 26.11.2021
5299 Rain 1 1009 91 10000 1.03 20 03:26 26.11.2021
5300 Clouds 2 1011 80 10000 1.54 150 23:27 25.11.2021
5301 Clouds 3 1012 79 10000 1.03 70 21:50 25.11.2021
5302 Clouds 3 1013 78 10000 0.51 20 20:40 25.11.2021
5303 Clouds 2 1014 78 10000 0 0 18:49 25.11.2021
5304 Clouds 2 1015 78 10000 1.03 190 17:58 25.11.2021
5305 Clouds 2 1015 78 10000 1.03 190 17:26 25.11.2021
5306 Clouds 2 1016 78 10000 1.03 150 16:38 25.11.2021
5307 Clouds 1 1017 78 10000 1.03 180 15:58 25.11.2021
5308 Clouds 0 1018 79 10000 1.03 180 14:19 25.11.2021
5309 Clouds -1 1018 78 10000 1.54 200 12:48 25.11.2021
5310 Clouds -1 1019 78 10000 1.54 200 11:55 25.11.2021
5311 Clouds -2 1019 78 10000 1.54 210 10:25 25.11.2021
5312 Clouds -2 1021 74 10000 1.03 220 06:24 25.11.2021
5313 Clouds -1 1024 71 10000 1.03 170 02:54 25.11.2021
5314 Clear 0 1025 67 10000 1.03 220 23:39 24.11.2021
5315 Clear 1 1025 64 10000 0.51 210 22:28 24.11.2021
5316 Clear 2 1025 60 10000 1.54 190 21:45 24.11.2021
5317 Clear 2 1025 59 10000 2.06 190 20:58 24.11.2021
5318 Clear 2 1025 58 10000 2.06 190 20:26 24.11.2021
5319 Clear 1 1025 60 10000 2.57 170 18:58 24.11.2021
5320 Clear 1 1025 60 10000 2.57 170 18:18 24.11.2021
5321 Clear -2 1027 67 10000 1.03 220 16:20 24.11.2021
5322 Clouds -4 1026 80 10000 1.54 260 14:57 24.11.2021
5323 Clear -5 1026 83 10000 1.54 260 14:21 24.11.2021
5324 Clear -7 1025 83 10000 1.03 210 12:51 24.11.2021
5325 Clear -7 1025 85 10000 1.03 0 11:24 24.11.2021
5326 Clear -7 1024 84 10000 0 0 10:52 24.11.2021
5327 Clear -7 1024 84 10000 0 0 10:52 24.11.2021
5328 Clear -6 1024 80 10000 1.03 220 10:34 24.11.2021
5329 Clear -6 1023 77 10000 1.54 290 08:35 24.11.2021
5330 Clear -5 1022 75 10000 1.03 290 07:31 24.11.2021
5331 Clear -5 1022 74 10000 1.54 320 05:23 24.11.2021
5332 Clouds -3 1021 68 10000 1.03 350 02:44 24.11.2021
5333 Clouds -3 1019 59 10000 3.09 350 23:33 23.11.2021
5334 Clouds -2 1018 57 10000 2.06 330 22:38 23.11.2021
5335 Clouds -2 1018 56 10000 2.06 340 21:45 23.11.2021
5336 Clouds -2 1018 54 10000 2.57 360 20:22 23.11.2021
5337 Clouds -2 1017 55 10000 2.06 350 19:29 23.11.2021
5338 Clouds -2 1017 55 10000 3.09 340 18:33 23.11.2021
5339 Snow -3 1017 60 10000 2.06 340 17:31 23.11.2021
5340 Clouds -3 1017 65 10000 2.57 350 16:35 23.11.2021
5341 Snow -4 1017 71 2816 3.09 340 15:27 23.11.2021
5342 Snow -4 1016 73 9656 1.54 10 14:54 23.11.2021
5343 Snow -4 1015 75 10000 1.54 320 13:20 23.11.2021
5344 Clouds -4 1013 70 10000 1.03 350 10:28 23.11.2021
5345 Clear -3 1013 71 10000 2.24 352 09:47 23.11.2021
5346 Clear -2 1012 71 10000 1.03 180 07:58 23.11.2021
5347 Clear -1 1011 68 10000 1.03 180 04:53 23.11.2021
5348 Clear 0 1011 69 10000 1.03 190 03:35 23.11.2021
5349 Clouds 2 1010 66 10000 1.54 210 23:41 22.11.2021
5350 Rain 2 1010 65 10000 1.54 210 23:20 22.11.2021
5351 Clear 2 1009 60 10000 2.06 200 22:30 22.11.2021
5352 Clouds 3 1009 57 10000 1.03 230 21:45 22.11.2021
5353 Clouds 3 1009 56 10000 1.03 230 21:19 22.11.2021
5354 Clouds 4 1008 53 10000 2.06 210 20:42 22.11.2021
5355 Clouds 4 1008 51 10000 2.57 200 19:21 22.11.2021
5356 Clouds 4 1008 51 10000 2.06 220 18:41 22.11.2021
5357 Clouds 4 1008 53 10000 2.06 220 18:21 22.11.2021
5358 Clouds 3 1008 53 10000 2.57 190 16:41 22.11.2021
5359 Clouds 3 1007 71 10000 1.54 220 15:29 22.11.2021
5360 Clouds 7 1004 83 10000 1.54 180 12:51 22.11.2021
5361 Clouds 7 1004 85 10000 1.54 180 11:39 22.11.2021
5362 Clouds 6 1004 87 10000 1.54 180 10:26 22.11.2021
5363 Clouds 6 1006 86 10000 1.54 180 08:44 22.11.2021
5364 Clouds 6 1006 86 10000 1.54 180 08:24 22.11.2021
5365 Clouds 5 1014 76 10000 0.51 170 01:40 22.11.2021
5366 Clouds 4 1017 78 10000 1.54 100 23:21 21.11.2021
5367 Clear 5 1018 76 10000 2.06 100 22:45 21.11.2021
5368 Clear 6 1019 71 10000 1.54 150 21:22 21.11.2021
5369 Clouds 7 1020 69 10000 2.06 120 20:36 21.11.2021
5370 Clouds 6 1022 78 10000 1.03 150 19:35 21.11.2021
5371 Clouds 5 1024 84 10000 1.54 160 17:59 21.11.2021
5372 Clouds 5 1024 85 10000 1.54 160 17:36 21.11.2021
5373 Clouds 3 1025 92 10000 1.03 170 15:21 21.11.2021
5374 Clouds 2 1025 92 10000 2.06 200 14:42 21.11.2021
5375 Clouds 2 1025 90 10000 1.54 180 13:23 21.11.2021
5376 Clouds 2 1025 90 10000 2.06 180 12:27 21.11.2021
5377 Clouds 2 1025 90 10000 2.57 190 11:38 21.11.2021
5378 Clouds 3 1024 84 10000 2.06 190 10:19 21.11.2021
5379 Clouds 3 1024 77 10000 1.54 190 09:47 21.11.2021
5380 Clouds 3 1024 69 10000 1.54 190 08:34 21.11.2021
5381 Clouds 3 1024 68 10000 1.54 190 07:54 21.11.2021
5382 Clouds 3 1024 68 10000 1.54 190 07:33 21.11.2021
5383 Clouds 3 1024 66 10000 1.54 190 05:47 21.11.2021
5384 Clouds 3 1025 68 10000 1.54 170 04:35 21.11.2021
5385 Clouds 3 1025 68 10000 1.54 170 04:35 21.11.2021
5386 Clouds 3 1025 67 10000 1.03 170 03:18 21.11.2021
5387 Clouds 3 1026 65 10000 1.54 160 02:42 21.11.2021
5388 Clouds 3 1027 66 10000 1.54 160 00:51 21.11.2021
5389 Clouds 3 1028 65 10000 1.54 170 23:22 20.11.2021
5390 Clouds 4 1029 58 10000 2.57 180 21:39 20.11.2021
5391 Clouds 5 1029 55 10000 1.03 170 20:39 20.11.2021
5392 Clear 4 1031 58 10000 2.57 160 18:46 20.11.2021
5393 Clear 4 1031 58 10000 2.57 160 18:46 20.11.2021
5394 Clear 4 1031 60 10000 2.57 160 18:25 20.11.2021
5395 Clouds 3 1032 66 10000 1.54 170 17:22 20.11.2021
5396 Clouds 1 1033 80 10000 1.03 190 15:54 20.11.2021
5397 Clear -1 1033 82 10000 1.54 190 14:40 20.11.2021
5398 Clear -2 1033 82 10000 1.54 190 14:21 20.11.2021
5399 Clear -3 1032 82 10000 0.45 101 11:56 20.11.2021
5400 Clear -2 1032 79 10000 0.51 210 10:29 20.11.2021
5401 Clear -2 1030 77 10000 0.51 200 08:57 20.11.2021
5402 Clear -1 1030 78 10000 0.89 58 07:20 20.11.2021
5403 Clear 0 1029 76 10000 0.89 356 05:25 20.11.2021
5404 Clear 0 1028 74 10000 1.03 170 04:50 20.11.2021
5405 Clouds 1 1026 74 10000 1.54 110 01:41 20.11.2021
5406 Clouds 1 1024 75 10000 1.03 160 00:38 20.11.2021
5407 Clouds 2 1022 73 10000 1.03 210 22:55 19.11.2021
5408 Clouds 3 1021 70 10000 1.54 190 21:58 19.11.2021
5409 Clouds 3 1020 66 10000 2.06 350 20:57 19.11.2021
5410 Clouds 3 1020 67 10000 2.06 350 20:36 19.11.2021
5411 Clouds 4 1019 63 10000 2.57 360 19:50 19.11.2021
5412 Clouds 4 1018 68 10000 1.54 40 18:53 19.11.2021
5413 Clouds 4 1018 73 10000 2.68 312 18:22 19.11.2021
5414 Clouds 3 1017 75 10000 1.54 200 16:47 19.11.2021
5415 Clouds 2 1016 80 10000 1.54 200 15:32 19.11.2021
5416 Clouds 2 1015 84 10000 1.54 180 13:25 19.11.2021
5417 Clouds 2 1012 81 10000 1.03 160 10:27 19.11.2021
5418 Clouds 2 1012 81 10000 1.03 160 10:27 19.11.2021
5419 Clear 2 1013 81 10000 1.54 160 09:37 19.11.2021
5420 Clear 3 1012 79 10000 2.06 180 07:41 19.11.2021
5421 Clouds 5 1012 79 10000 1.54 160 04:51 19.11.2021
5422 Clouds 6 1011 89 10000 1.54 170 02:27 19.11.2021
5423 Clouds 6 1011 92 10000 1.54 180 23:51 18.11.2021
5424 Rain 7 1010 93 10000 1.03 160 21:56 18.11.2021
5425 Rain 7 1009 94 9656 1.03 210 20:49 18.11.2021
5426 Mist 7 1009 94 9656 1.03 210 20:31 18.11.2021
5427 Rain 7 1008 95 9656 1.03 70 19:52 18.11.2021
5428 Mist 7 1008 95 4828 1.03 70 19:33 18.11.2021
5429 Rain 7 1008 96 2816 0.51 100 18:33 18.11.2021
5430 Rain 7 1007 94 4023 1.03 170 17:51 18.11.2021
5431 Clouds 9 1008 93 10000 2.06 190 16:44 18.11.2021
5432 Clouds 9 1008 94 10000 1.54 190 15:46 18.11.2021
5433 Clouds 8 1008 93 10000 1.54 180 13:40 18.11.2021
5434 Clouds 7 1008 92 10000 0 0 12:34 18.11.2021
5435 Clouds 6 1009 93 10000 0.51 360 11:43 18.11.2021
5436 Clouds 6 1009 93 10000 0.51 360 11:24 18.11.2021
5437 Clouds 6 1009 93 10000 0.51 360 11:24 18.11.2021
5438 Mist 5 1010 95 9656 0 0 09:59 18.11.2021
5439 Mist 4 1012 98 4023 1.03 350 07:35 18.11.2021
5440 Mist 3 1013 93 4828 1.54 350 05:57 18.11.2021
5441 Mist 3 1013 93 4828 1.54 350 05:38 18.11.2021
5442 Clouds 2 1017 78 10000 2.06 360 01:24 18.11.2021
5443 Clouds 2 1017 78 10000 2.06 360 01:24 18.11.2021
5444 Rain 1 1019 77 10000 2.06 10 23:19 17.11.2021
5445 Rain 1 1019 75 10000 2.57 60 22:34 17.11.2021
5446 Clouds 1 1020 73 10000 2.06 70 21:54 17.11.2021
5447 Clouds 1 1020 72 10000 2.06 70 21:34 17.11.2021
5448 Clouds 2 1022 69 10000 2.06 110 19:22 17.11.2021
5449 Clouds 1 1024 70 10000 1.54 120 17:31 17.11.2021
5450 Clear -1 1026 80 10000 0 0 14:53 17.11.2021
5451 Clear -4 1026 87 10000 0.51 290 12:42 17.11.2021
5452 Clear -4 1025 85 10000 0.51 290 11:52 17.11.2021
5453 Clear -3 1025 78 10000 1.54 320 10:50 17.11.2021
5454 Clear -3 1025 76 10000 0.89 39 09:27 17.11.2021
5455 Clear -2 1024 74 10000 0.51 260 07:46 17.11.2021
5456 Clear -2 1023 72 10000 0.51 190 06:42 17.11.2021
5457 Clear -1 1021 70 10000 0.51 250 02:43 17.11.2021
5458 Clouds 1 1020 65 10000 1.03 180 23:27 16.11.2021
5459 Clouds 2 1017 60 10000 2.06 350 21:51 16.11.2021
5460 Clouds 3 1016 59 10000 1.03 20 20:19 16.11.2021
5461 Clouds 3 1016 65 10000 1.03 90 19:23 16.11.2021
5462 Clouds 2 1016 78 8047 2.06 350 18:38 16.11.2021
5463 Rain 2 1015 75 10000 1.54 230 17:44 16.11.2021
5464 Clouds 2 1015 72 10000 1.54 300 16:59 16.11.2021
5465 Clouds 2 1015 71 10000 1.54 300 16:19 16.11.2021
5466 Clouds 2 1015 70 10000 1.03 170 15:42 16.11.2021
5467 Clouds 1 1014 73 10000 0.51 40 13:42 16.11.2021
5468 Clouds 1 1013 85 10000 1.03 190 10:22 16.11.2021
5469 Clouds 1 1012 83 10000 1.03 260 09:39 16.11.2021
5470 Clouds 1 1011 84 10000 2.06 180 07:41 16.11.2021
5471 Clouds 1 1010 80 10000 1.03 230 06:43 16.11.2021
5472 Clouds 3 1006 88 10000 1.03 30 23:26 15.11.2021
5473 Clouds 4 1005 87 10000 0.51 330 22:41 15.11.2021
5474 Rain 4 1005 86 10000 1.03 230 21:57 15.11.2021
5475 Clouds 4 1005 86 10000 1.03 230 21:31 15.11.2021
5476 Clouds 4 1004 85 10000 1.03 260 20:35 15.11.2021
5477 Clouds 4 1004 88 10000 1.54 360 19:25 15.11.2021
5478 Clouds 3 1003 91 10000 1.54 340 17:33 15.11.2021
5479 Clouds 3 1003 92 10000 0.51 300 15:52 15.11.2021
5480 Clouds 3 1003 93 10000 0.51 300 15:33 15.11.2021
5481 Mist 3 1003 94 6437 0.51 200 14:27 15.11.2021
5482 Clouds 3 1003 93 10000 2.06 200 12:37 15.11.2021
5483 Rain 3 1004 93 10000 0.51 120 09:59 15.11.2021
5484 Rain 3 1004 93 10000 0.51 120 09:19 15.11.2021
5485 Rain 3 1006 93 10000 0.51 140 07:23 15.11.2021
5486 Clouds 4 1008 72 10000 0.51 260 00:56 15.11.2021
5487 Clouds 5 1008 65 10000 1.03 200 22:44 14.11.2021
5488 Clear 6 1008 63 10000 1.03 210 21:45 14.11.2021
5489 Clouds 6 1008 65 10000 2.06 220 19:22 14.11.2021
5490 Clear 5 1008 65 10000 2.06 200 18:55 14.11.2021
5491 Clear 6 1008 65 10000 2.06 200 18:36 14.11.2021
5492 Clear 6 1008 66 10000 2.06 200 18:18 14.11.2021
5493 Clouds 5 1008 69 10000 2.06 180 17:58 14.11.2021
5494 Clouds 5 1008 69 10000 2.06 180 17:40 14.11.2021
5495 Clouds 5 1008 69 10000 2.06 180 17:21 14.11.2021
5496 Clouds 4 1009 71 10000 2.06 220 16:58 14.11.2021
5497 Clouds 4 1009 72 10000 2.06 220 16:40 14.11.2021
5498 Clouds 4 1009 74 10000 2.06 220 16:18 14.11.2021
5499 Clear 4 1008 77 10000 1.54 200 15:19 14.11.2021
5500 Clouds 3 1007 80 10000 2.06 180 14:45 14.11.2021
5501 Clouds 3 1007 81 10000 2.06 180 14:20 14.11.2021
5502 Clouds 3 1006 81 10000 2.06 200 13:52 14.11.2021
5503 Clouds 3 1006 81 10000 2.06 200 13:27 14.11.2021
5504 Clouds 3 1005 83 10000 2.06 190 12:23 14.11.2021
5505 Clouds 4 1004 85 10000 2.06 190 11:25 14.11.2021
5506 Clouds 4 1004 84 10000 1.54 200 10:37 14.11.2021
5507 Clouds 3 1004 85 10000 1.54 190 09:27 14.11.2021
5508 Clear 3 1004 87 10000 2.06 190 08:51 14.11.2021
5509 Clouds 4 1003 86 10000 0.89 279 04:47 14.11.2021
5510 Rain 5 1003 91 10000 1.54 190 23:20 13.11.2021
5511 Rain 6 1002 92 10000 1.54 190 22:20 13.11.2021
5512 Clouds 6 1002 92 10000 1.54 230 21:35 13.11.2021
5513 Mist 7 1002 91 9656 1.54 270 20:43 13.11.2021
5514 Clouds 8 1002 88 10000 2.06 170 19:32 13.11.2021
5515 Clouds 8 1003 89 10000 2.06 160 18:32 13.11.2021
5516 Clouds 7 1004 91 10000 1.03 160 17:41 13.11.2021
5517 Rain 6 1007 87 10000 1.54 180 15:55 13.11.2021
5518 Mist 6 1008 87 9656 1.54 190 14:45 13.11.2021
5519 Mist 5 1007 87 8047 1.54 190 13:47 13.11.2021
5520 Mist 4 1007 88 8047 2.06 200 12:43 13.11.2021
5521 Clouds 4 1008 87 10000 1.54 200 11:51 13.11.2021
5522 Clouds 4 1008 88 10000 1.54 200 11:22 13.11.2021
5523 Clouds 4 1008 88 10000 1.54 200 10:34 13.11.2021
5524 Clear 3 1009 84 10000 2.06 200 09:49 13.11.2021
5525 Clear 4 1009 84 10000 2.06 200 09:28 13.11.2021
5526 Clear 3 1010 84 10000 1.03 210 08:49 13.11.2021
5527 Clear 4 1010 82 10000 1.03 200 07:54 13.11.2021
5528 Clear 6 1012 79 10000 1.54 200 04:43 13.11.2021
5529 Clear 6 1012 81 10000 1.54 200 04:20 13.11.2021
5530 Clouds 9 1009 93 10000 1.34 266 00:18 13.11.2021
5531 Clouds 10 1008 93 10000 2.06 180 22:42 12.11.2021
5532 Mist 10 1008 94 9656 1.54 180 20:54 12.11.2021
5533 Rain 10 1009 94 10000 1.54 150 19:40 12.11.2021
5534 Rain 10 1009 93 10000 1.54 150 19:22 12.11.2021
5535 Mist 9 1011 92 9656 1.54 180 18:20 12.11.2021
5536 Rain 9 1013 89 10000 1.54 140 16:18 12.11.2021
5537 Rain 9 1015 81 10000 1.54 160 14:46 12.11.2021
5538 Clouds 9 1015 76 10000 1.54 140 11:31 12.11.2021
5539 Rain 9 1017 72 10000 1.03 150 10:48 12.11.2021
5540 Clouds 8 1019 65 10000 1.03 120 09:27 12.11.2021
5541 Clouds 7 1019 63 10000 1.03 100 08:35 12.11.2021
5542 Clouds 7 1023 59 10000 2.06 10 02:19 12.11.2021
5543 Clouds 6 1025 59 10000 2.57 40 23:31 11.11.2021
5544 Clouds 7 1025 58 10000 2.06 30 22:28 11.11.2021
5545 Clouds 8 1026 56 10000 1.54 70 21:26 11.11.2021
5546 Clear 8 1026 54 10000 1.54 40 20:26 11.11.2021
5547 Clear 7 1027 57 10000 2.06 80 18:54 11.11.2021
5548 Clear 7 1027 59 10000 2.06 50 17:42 11.11.2021
5549 Clear 6 1028 65 10000 1.34 103 16:38 11.11.2021
5550 Clear 3 1028 75 10000 2.06 10 14:44 11.11.2021
5551 Clear 2 1028 75 10000 2.06 10 14:26 11.11.2021
5552 Clear 1 1027 77 10000 2.06 350 13:36 11.11.2021
5553 Clear 0 1026 79 10000 1.34 37 12:48 11.11.2021
5554 Clear -1 1025 82 10000 2.57 20 10:35 11.11.2021
5555 Clouds 0 1025 78 10000 1.03 0 09:33 11.11.2021
5556 Clouds 1 1024 82 10000 1.03 0 07:36 11.11.2021
5557 Clear 6 1022 61 10000 0.89 306 02:36 11.11.2021
5558 Clear 10 1019 44 10000 1.03 30 22:59 10.11.2021
5559 Clear 11 1019 42 10000 1.03 30 22:22 10.11.2021
5560 Clear 12 1018 40 10000 1.54 230 21:18 10.11.2021
5561 Clear 12 1017 41 10000 1.54 300 20:45 10.11.2021
5562 Clear 12 1017 42 10000 1.54 240 19:46 10.11.2021
5563 Clear 11 1017 49 10000 2.06 250 17:50 10.11.2021
5564 Clear 10 1017 55 10000 1.03 250 16:33 10.11.2021
5565 Clouds 6 1016 72 10000 1.54 310 14:52 10.11.2021
5566 Clouds 4 1016 75 10000 2.57 330 13:41 10.11.2021
5567 Clouds 4 1016 70 10000 1.03 360 12:47 10.11.2021
5568 Clouds 5 1015 71 10000 1.54 10 10:48 10.11.2021
5569 Clouds 5 1015 69 10000 2.06 20 08:45 10.11.2021
5570 Clouds 6 1016 65 10000 3.6 340 07:44 10.11.2021
5571 Clouds 7 1016 63 10000 0.45 304 06:26 10.11.2021
5572 Clouds 7 1016 62 10000 0.89 300 05:51 10.11.2021
5573 Clouds 11 1018 61 10000 1.03 190 23:55 09.11.2021
5574 Clear 14 1018 60 10000 1.03 260 21:50 09.11.2021
5575 Clear 14 1018 60 10000 1.03 260 21:50 09.11.2021
5576 Clouds 15 1017 60 10000 1.54 350 20:32 09.11.2021
5577 Clouds 15 1017 60 10000 1.54 350 20:32 09.11.2021
5578 Clouds 15 1017 66 10000 1.54 340 19:25 09.11.2021
5579 Clouds 14 1018 75 10000 1.54 300 17:57 09.11.2021
5580 Clouds 11 1018 81 10000 1.54 280 16:24 09.11.2021
5581 Clouds 10 1018 85 10000 1.54 260 14:44 09.11.2021
5582 Clouds 9 1016 86 10000 3.09 270 12:53 09.11.2021
5583 Clouds 9 1016 85 10000 3.09 260 11:58 09.11.2021
5584 Clouds 9 1016 85 10000 2.57 240 10:45 09.11.2021
5585 Clouds 8 1016 88 10000 2.06 230 09:35 09.11.2021
5586 Clear 7 1015 88 10000 1.03 190 08:27 09.11.2021
5587 Clear 8 1016 85 10000 1.54 180 05:57 09.11.2021
5588 Clear 9 1017 75 10000 2.06 190 02:25 09.11.2021
5589 Clear 10 1017 75 10000 2.06 190 01:46 09.11.2021
5590 Clear 11 1018 72 10000 1.03 180 23:59 08.11.2021
5591 Clear 13 1018 68 10000 0.51 240 22:59 08.11.2021
5592 Clear 13 1018 66 10000 0.51 240 22:28 08.11.2021
5593 Clear 15 1019 63 10000 1.54 190 21:20 08.11.2021
5594 Clear 15 1020 62 10000 1.03 170 19:56 08.11.2021
5595 Clear 14 1020 63 10000 1.03 230 18:57 08.11.2021
5596 Clear 13 1021 67 10000 1.54 190 17:22 08.11.2021
5597 Clouds 10 1022 77 10000 1.03 200 15:31 08.11.2021
5598 Clouds 9 1022 80 10000 0.51 250 14:53 08.11.2021
5599 Clouds 8 1021 80 10000 0.51 200 13:56 08.11.2021
5600 Clouds 8 1020 80 10000 1.03 210 12:44 08.11.2021
5601 Clouds 8 1020 79 10000 1.03 200 11:27 08.11.2021
5602 Clouds 8 1019 78 10000 1.87 259 10:00 08.11.2021
5603 Clouds 8 1020 77 10000 0.51 240 08:56 08.11.2021
5604 Clouds 7 1019 79 10000 0.51 190 07:38 08.11.2021
5605 Clouds 7 1019 75 10000 1.03 180 06:50 08.11.2021
5606 Clouds 8 1019 69 10000 1.54 170 03:34 08.11.2021
5607 Clouds 10 1018 57 10000 1.54 190 23:51 07.11.2021
5608 Clouds 12 1018 53 10000 1.54 190 22:30 07.11.2021
5609 Clouds 12 1018 51 10000 1.54 180 21:22 07.11.2021
5610 Clear 13 1019 51 10000 2.06 190 19:55 07.11.2021
5611 Clear 11 1020 53 10000 2.06 190 18:26 07.11.2021
5612 Clear 10 1021 55 10000 2.06 160 17:38 07.11.2021
5613 Clear 7 1022 67 10000 1.54 160 15:55 07.11.2021
5614 Clear 4 1022 79 10000 1.54 200 14:42 07.11.2021
5615 Mist 2 1022 85 9656 1.03 190 13:55 07.11.2021
5616 Clouds 2 1022 83 10000 1.54 210 11:53 07.11.2021
5617 Clear 1 1022 83 10000 1.03 200 10:19 07.11.2021
5618 Clear 1 1023 80 10000 1.03 220 08:48 07.11.2021
5619 Clear 4 1023 73 10000 1.03 200 02:49 07.11.2021
5620 Clear 7 1024 63 10000 1.03 290 23:42 06.11.2021
5621 Clear 9 1024 55 10000 0.51 260 22:52 06.11.2021
5622 Clear 10 1024 52 10000 1.54 210 21:36 06.11.2021
5623 Clear 10 1025 55 10000 2.57 190 20:52 06.11.2021
5624 Clouds 10 1026 56 10000 2.57 200 19:36 06.11.2021
5625 Clear 9 1028 63 10000 2.57 190 17:25 06.11.2021
5626 Clear 6 1028 71 10000 1.54 190 15:39 06.11.2021
5627 Clear 1 1029 82 10000 0.51 140 13:39 06.11.2021
5628 Clear 1 1028 82 10000 1.03 180 12:36 06.11.2021
5629 Clear 1 1028 78 10000 1.54 180 09:49 06.11.2021
5630 Clear 1 1028 77 10000 1.54 180 08:24 06.11.2021
5631 Clear 3 1028 68 10000 2.06 160 03:20 06.11.2021
5632 Clear 5 1026 60 10000 0.51 250 23:40 05.11.2021
5633 Clear 6 1026 54 10000 1.03 200 22:52 05.11.2021
5634 Clear 8 1026 52 10000 1.54 290 21:55 05.11.2021
5635 Clear 8 1026 56 10000 1.03 230 20:21 05.11.2021
5636 Clouds 8 1027 59 10000 1.54 190 19:49 05.11.2021
5637 Clouds 7 1027 64 10000 1.54 240 18:42 05.11.2021
5638 Clouds 6 1028 70 10000 1.54 240 17:42 05.11.2021
5639 Clouds 5 1028 73 10000 1.54 190 16:35 05.11.2021
5640 Clouds 1 1027 85 10000 0.89 149 13:59 05.11.2021
5641 Clouds 0 1027 87 10000 0.89 141 11:43 05.11.2021
5642 Clouds -1 1026 87 10000 0.45 112 09:22 05.11.2021
5643 Clouds -1 1026 85 10000 0.45 64 07:46 05.11.2021
5644 Clear -1 1026 83 10000 0.45 95 05:33 05.11.2021
5645 Clouds 2 1026 68 10000 0.51 280 02:27 05.11.2021
5646 Clouds 3 1026 66 10000 0.51 300 00:54 05.11.2021
5647 Clouds 4 1025 62 10000 1.03 300 23:45 04.11.2021
5648 Clouds 5 1025 54 10000 1.03 290 22:21 04.11.2021
5649 Clouds 6 1025 52 10000 2.06 210 21:52 04.11.2021
5650 Clouds 6 1025 51 10000 2.06 210 21:22 04.11.2021
5651 Clouds 6 1026 49 10000 1.03 170 20:25 04.11.2021
5652 Clear 6 1026 52 10000 2.06 190 19:49 04.11.2021
5653 Clear 7 1026 52 10000 2.06 190 19:22 04.11.2021
5654 Clouds 6 1027 56 10000 2.57 210 18:22 04.11.2021
5655 Clouds 5 1027 64 10000 2.06 170 17:26 04.11.2021
5656 Clouds 3 1027 77 10000 1.03 10 15:36 04.11.2021
5657 Clear -2 1027 89 10000 1.03 280 13:45 04.11.2021
5658 Clear -2 1027 85 10000 0 0 10:22 04.11.2021
5659 Clear -2 1027 83 10000 1.54 150 08:31 04.11.2021
5660 Clear -2 1026 82 10000 1.03 230 07:36 04.11.2021
5661 Clear -1 1026 79 10000 2.06 240 06:38 04.11.2021
5662 Clouds 5 1023 58 10000 1.03 200 22:54 03.11.2021
5663 Clouds 6 1023 55 10000 1.54 250 21:57 03.11.2021
5664 Clouds 6 1023 54 10000 1.54 250 21:35 03.11.2021
5665 Clouds 6 1023 53 10000 1.03 300 20:39 03.11.2021
5666 Clouds 6 1023 53 10000 1.03 300 20:39 03.11.2021
5667 Clouds 6 1023 53 10000 1.03 300 20:19 03.11.2021
5668 Clouds 6 1022 51 10000 2.06 350 19:28 03.11.2021
5669 Clear 6 1023 53 10000 2.57 350 18:26 03.11.2021
5670 Clear 6 1023 54 10000 2.06 330 17:41 03.11.2021
5671 Clouds 5 1023 61 10000 2.57 10 16:42 03.11.2021
5672 Clouds 4 1022 72 10000 1.54 360 15:47 03.11.2021
5673 Clouds 4 1022 74 10000 1.54 360 15:29 03.11.2021
5674 Clouds 2 1022 91 10000 1.54 310 13:18 03.11.2021
5675 Clouds 2 1020 91 10000 1.54 320 11:34 03.11.2021
5676 Clouds 3 1020 92 10000 2.57 310 10:49 03.11.2021
5677 Clouds 3 1020 92 10000 1.54 270 09:40 03.11.2021
5678 Clouds 3 1020 93 10000 1.03 290 08:41 03.11.2021
5679 Clouds 3 1020 92 10000 1.03 250 07:40 03.11.2021
5680 Clouds 4 1019 91 10000 1.03 270 05:45 03.11.2021
5681 Clouds 4 1019 91 10000 1.03 260 04:22 03.11.2021
5682 Rain 5 1019 80 10000 0.51 340 00:55 03.11.2021
5683 Clouds 6 1018 72 10000 2.06 190 22:52 02.11.2021
5684 Clouds 8 1018 69 10000 2.06 180 21:47 02.11.2021
5685 Clouds 8 1018 65 10000 1.03 240 20:35 02.11.2021
5686 Clouds 8 1018 67 10000 2.57 210 19:56 02.11.2021
5687 Clouds 8 1018 67 10000 2.57 210 19:26 02.11.2021
5688 Clouds 8 1018 67 10000 2.06 210 18:34 02.11.2021
5689 Clouds 8 1018 69 10000 3.09 180 17:43 02.11.2021
5690 Clouds 7 1019 72 10000 2.06 220 16:34 02.11.2021
5691 Clouds 7 1019 73 10000 1.03 200 15:49 02.11.2021
5692 Clouds 5 1019 79 10000 1.03 160 14:51 02.11.2021
5693 Clouds 3 1018 85 10000 1.03 180 13:29 02.11.2021
5694 Clouds 3 1018 86 10000 1.54 180 12:46 02.11.2021
5695 Clear 3 1018 85 10000 1.03 160 11:38 02.11.2021
5696 Clouds 3 1018 84 10000 1.03 170 10:55 02.11.2021
5697 Clouds 3 1018 83 10000 1.03 170 10:32 02.11.2021
5698 Clouds 4 1018 82 10000 1.54 180 09:40 02.11.2021
5699 Clear 4 1018 80 10000 1.54 190 07:45 02.11.2021
5700 Clear 6 1017 72 10000 2.06 180 04:39 02.11.2021
5701 Clear 7 1016 68 10000 2.06 170 03:20 02.11.2021
5702 Clouds 9 1014 63 10000 2.06 180 23:39 01.11.2021
5703 Clouds 11 1013 45 10000 2.06 220 21:29 01.11.2021
5704 Clear 11 1013 44 10000 1.54 220 20:42 01.11.2021
5705 Clear 11 1013 44 10000 2.06 210 19:58 01.11.2021
5706 Clear 11 1013 45 10000 2.06 210 19:38 01.11.2021
5707 Clear 10 1012 50 10000 2.57 220 18:23 01.11.2021
5708 Clear 9 1012 55 10000 2.57 190 17:36 01.11.2021
5709 Clear 9 1012 60 10000 1.54 200 16:51 01.11.2021
5710 Clouds 8 1011 64 10000 2.68 308 15:57 01.11.2021
5711 Clouds 8 1010 66 10000 2.68 282 15:27 01.11.2021
5712 Clouds 7 1010 70 10000 2.06 200 14:45 01.11.2021
5713 Clouds 7 1010 71 10000 2.06 200 14:23 01.11.2021
5714 Clouds 7 1008 73 10000 2.06 180 13:50 01.11.2021
5715 Clouds 8 1006 75 10000 3.09 180 12:34 01.11.2021
5716 Clouds 10 1004 75 10000 2.57 190 11:27 01.11.2021
5717 Clouds 10 1003 83 10000 1.54 190 09:47 01.11.2021
5718 Clouds 10 1002 83 10000 2.06 180 08:18 01.11.2021
5719 Clear 10 1002 84 10000 2.57 180 07:45 01.11.2021
5720 Clouds 11 1000 90 10000 2.06 170 03:49 01.11.2021
5721 Clouds 11 999 95 10000 2.06 170 01:43 01.11.2021
5722 Rain 9 996 96 10000 1.03 170 22:42 31.10.2021
5723 Rain 9 995 95 10000 1.03 190 20:50 31.10.2021
5724 Rain 9 994 95 10000 1.03 190 19:22 31.10.2021
5725 Rain 9 994 95 10000 1.03 190 19:22 31.10.2021
5726 Rain 9 994 95 4828 0.51 340 18:40 31.10.2021
5727 Rain 9 994 96 4828 2.06 330 17:52 31.10.2021
5728 Mist 8 995 96 8047 3.6 350 15:51 31.10.2021
5729 Rain 8 996 95 6437 2.57 360 14:24 31.10.2021
5730 Mist 8 998 96 3621 2.57 360 12:50 31.10.2021
5731 Rain 8 999 97 10000 2.06 10 11:41 31.10.2021
5732 Clouds 8 1000 97 10000 2.57 10 10:44 31.10.2021
5733 Rain 9 1001 96 9656 2.06 10 09:22 31.10.2021
5734 Rain 9 1002 95 9656 2.57 10 08:29 31.10.2021
5735 Clouds 10 1008 91 10000 1.54 10 01:57 31.10.2021
5736 Clouds 12 1008 80 10000 2.06 40 22:47 30.10.2021
5737 Clouds 12 1008 74 10000 2.57 40 21:35 30.10.2021
5738 Clouds 11 1008 74 10000 2.06 40 20:50 30.10.2021
5739 Clouds 10 1010 74 10000 2.06 10 18:48 30.10.2021
5740 Clouds 8 1011 76 10000 1.54 10 17:27 30.10.2021
5741 Clouds 6 1011 78 10000 1.54 340 15:21 30.10.2021
5742 Clouds 4 1012 80 10000 1.54 340 13:40 30.10.2021
5743 Clouds 4 1012 79 10000 1.54 340 13:21 30.10.2021
5744 Clouds 4 1012 79 10000 2.06 350 12:51 30.10.2021
5745 Clouds 4 1012 79 10000 1.54 360 11:44 30.10.2021
5746 Clear 3 1012 80 10000 1.54 350 10:32 30.10.2021
5747 Clear 4 1011 74 10000 2.57 340 08:53 30.10.2021
5748 Clear 5 1011 72 10000 2.57 340 07:29 30.10.2021
5749 Clear 6 1012 70 10000 2.06 360 05:39 30.10.2021
5750 Clear 10 1013 65 10000 2.06 10 00:56 30.10.2021
5751 Clear 13 1013 57 10000 2.57 20 22:53 29.10.2021
5752 Clear 13 1013 57 10000 2.57 20 22:32 29.10.2021
5753 Clear 13 1015 59 10000 2.06 40 20:46 29.10.2021
5754 Clear 12 1015 59 10000 2.06 40 20:24 29.10.2021
5755 Clear 10 1016 67 10000 2.06 20 18:36 29.10.2021
5756 Clear 7 1017 78 10000 2.57 350 16:54 29.10.2021
5757 Clear 4 1017 86 10000 2.57 350 15:21 29.10.2021
5758 Clear 2 1017 91 10000 2.06 340 12:26 29.10.2021
5759 Clear 2 1016 89 10000 2.06 350 10:46 29.10.2021
5760 Clear 3 1017 88 10000 3.09 350 08:47 29.10.2021
5761 Clear 8 1017 71 10000 1.54 360 00:37 29.10.2021
5762 Clear 10 1017 64 10000 2.06 30 23:41 28.10.2021
5763 Clear 11 1016 60 10000 1.54 40 22:19 28.10.2021
5764 Clear 11 1017 61 10000 3.09 10 20:56 28.10.2021
5765 Clear 10 1017 61 10000 2.57 20 19:52 28.10.2021
5766 Clouds 9 1018 66 10000 2.57 50 18:30 28.10.2021
5767 Clouds 8 1019 70 10000 2.57 30 17:20 28.10.2021
5768 Clouds 7 1019 74 10000 2.57 50 16:24 28.10.2021
5769 Clouds 5 1018 82 10000 3.09 20 14:40 28.10.2021
5770 Clouds 5 1018 84 10000 3.09 10 13:30 28.10.2021
5771 Clouds 5 1018 85 10000 3.6 10 12:47 28.10.2021
5772 Clouds 5 1018 86 10000 3.09 10 11:20 28.10.2021
5773 Clouds 5 1018 83 10000 3.09 10 09:55 28.10.2021
5774 Clouds 5 1018 83 10000 3.09 10 09:35 28.10.2021
5775 Clouds 6 1017 82 10000 2.57 10 08:36 28.10.2021
5776 Clouds 6 1017 80 10000 2.57 20 07:40 28.10.2021
5777 Clear 11 1015 63 10000 0.89 1 00:41 28.10.2021
5778 Clear 12 1015 58 10000 2.57 10 22:45 27.10.2021
5779 Clear 13 1015 58 10000 3.09 20 21:52 27.10.2021
5780 Clear 13 1015 59 10000 3.09 20 21:18 27.10.2021
5781 Clear 13 1015 61 10000 4.12 10 20:40 27.10.2021
5782 Clear 12 1015 61 10000 3.6 30 19:45 27.10.2021
5783 Clear 12 1015 62 10000 3.6 20 18:55 27.10.2021
5784 Clear 9 1015 68 10000 3.6 20 16:55 27.10.2021
5785 Clear 9 1015 68 10000 3.6 20 16:24 27.10.2021
5786 Clear 8 1015 72 10000 4.12 20 15:24 27.10.2021
5787 Clear 7 1015 72 10000 3.6 10 14:19 27.10.2021
5788 Clear 8 1013 69 10000 4.12 10 11:18 27.10.2021
5789 Clear 8 1012 67 10000 4.12 20 10:36 27.10.2021
5790 Clear 8 1012 68 10000 4.63 10 09:21 27.10.2021
5791 Clear 9 1012 67 10000 3.6 10 07:39 27.10.2021
5792 Clear 10 1012 70 10000 4.12 10 05:38 27.10.2021
5793 Clouds 10 1010 78 10000 4.63 10 01:21 27.10.2021
5794 Clouds 10 1010 80 10000 4.63 10 00:54 27.10.2021
5795 Clouds 10 1009 84 10000 4.12 10 23:54 26.10.2021
5796 Clouds 10 1009 87 10000 3.6 360 22:44 26.10.2021
5797 Rain 10 1009 87 10000 3.6 360 22:21 26.10.2021
5798 Clouds 10 1009 83 10000 3.6 20 21:32 26.10.2021
5799 Clouds 9 1009 89 10000 3.6 20 19:54 26.10.2021
5800 Rain 9 1010 90 10000 3.6 20 19:18 26.10.2021
5801 Clouds 8 1011 89 10000 2.57 10 17:58 26.10.2021
5802 Clouds 8 1011 85 10000 2.57 20 15:49 26.10.2021
5803 Clouds 8 1011 81 10000 3.09 360 13:21 26.10.2021
5804 Clouds 8 1011 83 10000 2.57 360 10:54 26.10.2021
5805 Clouds 7 1013 84 10000 2.57 20 08:42 26.10.2021
5806 Clouds 7 1013 84 10000 2.06 30 07:22 26.10.2021
5807 Rain 7 1016 79 10000 2.57 30 00:19 26.10.2021
5808 Rain 7 1017 78 10000 2.57 20 23:37 25.10.2021
5809 Clouds 8 1017 79 10000 2.57 30 22:33 25.10.2021
5810 Clouds 8 1018 80 10000 2.06 50 21:43 25.10.2021
5811 Clouds 8 1018 82 10000 2.06 50 20:38 25.10.2021
5812 Rain 7 1019 84 10000 1.54 50 19:43 25.10.2021
5813 Rain 7 1020 83 10000 1.54 50 19:23 25.10.2021
5814 Rain 7 1020 81 10000 1.54 30 18:38 25.10.2021
5815 Rain 7 1020 77 10000 1.54 10 17:34 25.10.2021
5816 Clouds 6 1020 78 10000 1.54 20 14:53 25.10.2021
5817 Clouds 5 1020 83 10000 2.06 350 12:33 25.10.2021
5818 Clouds 4 1020 86 10000 2.57 20 10:54 25.10.2021
5819 Clouds 4 1021 86 10000 1.03 90 08:59 25.10.2021
5820 Clouds 4 1021 85 10000 1.54 110 07:19 25.10.2021
5821 Clear 5 1020 80 10000 0.51 220 04:35 25.10.2021
5822 Clear 8 1020 65 10000 0.51 280 00:52 25.10.2021
5823 Clear 9 1020 62 10000 0.51 280 00:33 25.10.2021
5824 Clouds 11 1019 54 10000 0.51 240 23:41 24.10.2021
5825 Clouds 12 1019 52 10000 1.03 240 22:39 24.10.2021
5826 Clouds 12 1019 53 10000 1.03 240 22:19 24.10.2021
5827 Clouds 12 1019 53 10000 1.54 330 21:18 24.10.2021
5828 Clouds 12 1019 53 10000 1.54 210 20:36 24.10.2021
5829 Clouds 11 1020 54 10000 2.57 170 19:40 24.10.2021
5830 Clouds 10 1020 55 10000 1.54 240 18:29 24.10.2021
5831 Clouds 10 1020 58 10000 2.06 250 17:45 24.10.2021
5832 Clouds 6 1020 72 10000 1.03 210 15:56 24.10.2021
5833 Clouds 6 1020 75 10000 1.03 210 15:19 24.10.2021
5834 Clouds 4 1019 80 10000 0 0 13:19 24.10.2021
5835 Clouds 4 1018 75 10000 1.03 180 11:56 24.10.2021
5836 Clouds 4 1018 75 10000 1.03 180 11:26 24.10.2021
5837 Clouds 4 1018 73 10000 1.03 190 10:30 24.10.2021
5838 Clouds 3 1017 78 10000 2.57 290 08:00 24.10.2021
5839 Clouds 6 1016 68 10000 0.51 290 01:26 24.10.2021
5840 Clouds 7 1015 64 10000 1.03 280 23:51 23.10.2021
5841 Clouds 8 1015 62 10000 1.54 300 22:40 23.10.2021
5842 Clouds 8 1015 60 10000 1.54 250 20:39 23.10.2021
5843 Clouds 7 1016 66 10000 1.03 10 19:00 23.10.2021
5844 Clouds 7 1016 68 10000 1.03 10 18:31 23.10.2021
5845 Clouds 6 1016 70 10000 1.54 350 17:44 23.10.2021
5846 Clouds 5 1017 77 10000 1.54 360 16:45 23.10.2021
5847 Clouds 3 1016 82 10000 2.06 350 14:45 23.10.2021
5848 Clouds 4 1016 81 10000 1.54 300 09:45 23.10.2021
5849 Clouds 7 1015 72 10000 1.03 150 00:28 23.10.2021
5850 Clouds 7 1014 75 10000 1.03 210 23:28 22.10.2021
5851 Clouds 8 1012 78 10000 1.54 240 20:56 22.10.2021
5852 Clouds 8 1010 82 10000 2.06 280 18:57 22.10.2021
5853 Clouds 8 1009 85 10000 2.06 210 17:44 22.10.2021
5854 Clouds 10 1007 91 10000 2.06 230 15:57 22.10.2021
5855 Rain 12 1004 94 10000 1.54 320 14:31 22.10.2021
5856 Rain 13 1002 96 6437 1.54 190 12:41 22.10.2021
5857 Rain 13 1002 96 6437 1.54 190 12:41 22.10.2021
5858 Rain 13 1002 97 4828 1.54 190 10:50 22.10.2021
5859 Rain 13 1003 96 3219 0.51 170 09:56 22.10.2021
5860 Rain 13 1003 96 3219 0.51 170 09:56 22.10.2021
5861 Rain 13 1003 95 4828 0.51 170 09:32 22.10.2021
5862 Clouds 13 1003 94 10000 1.03 210 07:28 22.10.2021
5863 Clouds 13 1004 94 10000 1.03 200 06:19 22.10.2021
5864 Mist 11 1008 95 4828 1.54 10 00:31 22.10.2021
5865 Mist 12 1008 94 8047 1.03 10 23:48 21.10.2021
5866 Clouds 12 1008 94 10000 1.54 350 22:22 21.10.2021
5867 Clouds 11 1009 94 10000 1.03 10 21:19 21.10.2021
5868 Drizzle 11 1010 94 10000 0.51 80 20:21 21.10.2021
5869 Clouds 10 1012 93 10000 1.03 20 19:31 21.10.2021
5870 Rain 10 1012 93 10000 1.54 10 18:59 21.10.2021
5871 Mist 10 1013 92 8047 1.54 10 18:27 21.10.2021
5872 Rain 10 1013 90 10000 2.06 40 17:47 21.10.2021
5873 Rain 10 1013 90 10000 2.06 40 17:47 21.10.2021
5874 Clouds 11 1013 83 10000 2.06 30 16:40 21.10.2021
5875 Clouds 11 1013 79 10000 2.06 10 15:22 21.10.2021
5876 Clouds 11 1013 78 10000 1.54 20 14:50 21.10.2021
5877 Clouds 11 1013 78 10000 1.54 50 13:39 21.10.2021
5878 Clouds 12 1013 84 10000 1.03 340 11:47 21.10.2021
5879 Clouds 12 1012 88 10000 1.03 210 09:24 21.10.2021
5880 Clear 13 1012 87 10000 1.03 170 07:33 21.10.2021
5881 Clear 13 1012 85 10000 1.03 200 05:33 21.10.2021
5882 Clouds 16 1012 68 10000 2.06 110 00:22 21.10.2021
5883 Clear 18 1012 58 10000 1.54 180 22:22 20.10.2021
5884 Clear 18 1012 57 10000 0.45 192 21:46 20.10.2021
5885 Clear 17 1012 54 10000 1.54 90 20:58 20.10.2021
5886 Clear 17 1012 54 10000 1.54 90 20:37 20.10.2021
5887 Clear 17 1013 55 10000 1.03 200 19:59 20.10.2021
5888 Clear 16 1013 56 10000 1.03 200 19:18 20.10.2021
5889 Clear 15 1013 58 10000 1.03 10 18:29 20.10.2021
5890 Clear 15 1013 58 10000 1.03 10 18:29 20.10.2021
5891 Clear 11 1013 76 10000 1.03 50 15:57 20.10.2021
5892 Clear 5 1012 92 10000 1.03 180 13:46 20.10.2021
5893 Clouds 8 1010 84 10000 4.12 300 09:50 20.10.2021
5894 Clouds 8 1009 83 10000 0.45 305 05:29 20.10.2021
5895 Clear 9 1009 75 10000 1.03 210 01:24 20.10.2021
5896 Clear 10 1008 72 10000 1.54 160 00:32 20.10.2021
5897 Clouds 11 1008 67 10000 2.06 230 22:28 19.10.2021
5898 Clouds 10 1008 67 10000 1.03 150 21:33 19.10.2021
5899 Clouds 10 1008 69 10000 1.54 240 20:26 19.10.2021
5900 Clouds 9 1009 70 10000 2.06 180 19:51 19.10.2021
5901 Clouds 9 1009 70 10000 2.06 180 19:29 19.10.2021
5902 Clouds 8 1010 73 10000 1.54 170 18:31 19.10.2021
5903 Clouds 8 1011 76 10000 2.06 200 17:20 19.10.2021
5904 Clouds 7 1011 76 10000 1.54 200 15:26 19.10.2021
5905 Clouds 7 1011 75 10000 1.54 210 14:31 19.10.2021
5906 Clouds 7 1011 76 10000 1.54 230 13:49 19.10.2021
5907 Clouds 7 1011 79 10000 1.03 280 11:59 19.10.2021
5908 Clouds 7 1011 79 10000 1.03 280 11:23 19.10.2021
5909 Clouds 7 1010 80 10000 1.03 20 09:42 19.10.2021
5910 Clouds 7 1011 81 10000 0.51 130 08:56 19.10.2021
5911 Clouds 10 1009 67 10000 1.54 310 00:39 19.10.2021
5912 Clouds 11 1009 67 10000 1.03 270 23:57 18.10.2021
5913 Clouds 11 1009 67 10000 1.03 270 23:36 18.10.2021
5914 Clouds 11 1009 70 10000 0.51 190 22:55 18.10.2021
5915 Clouds 11 1009 72 10000 0.51 190 22:18 18.10.2021
5916 Clouds 11 1008 71 10000 1.54 300 20:46 18.10.2021
5917 Clouds 11 1008 69 10000 1.54 300 20:21 18.10.2021
5918 Clouds 11 1009 72 10000 2.57 330 19:31 18.10.2021
5919 Clouds 10 1009 76 10000 2.06 340 18:58 18.10.2021
5920 Rain 9 1008 87 10000 1.54 340 16:38 18.10.2021
5921 Clouds 8 1008 88 10000 2.06 340 14:44 18.10.2021
5922 Mist 8 1006 90 9656 0.51 350 11:59 18.10.2021
5923 Clouds 9 1006 90 10000 1.03 220 09:48 18.10.2021
5924 Mist 9 1006 89 9656 1.03 300 08:21 18.10.2021
5925 Clouds 12 1005 74 10000 0.51 290 00:30 18.10.2021
5926 Clouds 14 1004 69 10000 1.03 250 22:48 17.10.2021
5927 Clouds 14 1004 67 10000 1.03 240 21:44 17.10.2021
5928 Clouds 14 1005 65 10000 1.54 290 20:57 17.10.2021
5929 Clouds 14 1005 64 10000 1.54 290 20:25 17.10.2021
5930 Clouds 13 1005 66 10000 1.03 310 19:38 17.10.2021
5931 Clouds 13 1005 69 10000 1.79 313 18:35 17.10.2021
5932 Clouds 11 1006 77 10000 1.54 250 16:49 17.10.2021
5933 Clouds 9 1006 87 10000 1.03 210 14:42 17.10.2021
5934 Clouds 9 1006 88 10000 1.03 210 14:22 17.10.2021
5935 Clouds 9 1005 86 10000 1.54 240 13:33 17.10.2021
5936 Clouds 11 1004 82 10000 1.54 290 11:54 17.10.2021
5937 Clouds 11 1003 83 10000 1.54 230 10:20 17.10.2021
5938 Clouds 11 1003 85 10000 1.54 200 09:22 17.10.2021
5939 Clouds 12 1003 86 10000 2.06 200 06:55 17.10.2021
5940 Rain 16 1000 93 10000 1.54 190 00:49 17.10.2021
5941 Rain 17 999 93 10000 1.54 190 23:43 16.10.2021
5942 Rain 19 996 96 10000 2.57 170 21:29 16.10.2021
5943 Rain 20 997 94 4828 2.06 170 20:30 16.10.2021
5944 Rain 20 997 94 10000 2.06 170 19:43 16.10.2021
5945 Clouds 20 997 95 10000 2.06 170 19:21 16.10.2021
5946 Clouds 20 998 94 10000 2.57 180 18:51 16.10.2021
5947 Mist 20 998 94 6437 2.57 180 18:29 16.10.2021
5948 Rain 20 999 93 10000 2.06 170 17:53 16.10.2021
5949 Rain 20 999 92 10000 2.06 170 17:21 16.10.2021
5950 Mist 19 1002 95 9656 1.54 180 14:48 16.10.2021
5951 Mist 17 1004 97 6437 0.51 90 11:31 16.10.2021
5952 Rain 17 1006 96 3219 0.51 350 10:25 16.10.2021
5953 Mist 17 1008 95 4828 0.51 20 06:51 16.10.2021
5954 Mist 18 1010 93 6437 1.54 360 01:25 16.10.2021
5955 Clouds 18 1010 89 10000 1.54 10 23:50 15.10.2021
5956 Clouds 19 1009 88 10000 1.54 340 22:24 15.10.2021
5957 Clouds 19 1009 86 10000 0.51 60 21:56 15.10.2021
5958 Clouds 20 1009 86 10000 0.51 60 21:25 15.10.2021
5959 Clouds 20 1010 84 10000 0.51 210 20:45 15.10.2021
5960 Clouds 19 1010 86 10000 0.51 150 19:26 15.10.2021
5961 Mist 19 1011 90 10000 1.03 10 18:40 15.10.2021
5962 Mist 17 1012 95 9656 1.54 340 16:28 15.10.2021
5963 Mist 17 1012 94 9656 0.51 190 15:36 15.10.2021
5964 Mist 15 1012 96 2012 1.03 10 12:42 15.10.2021
5965 Mist 15 1012 97 2816 1.03 10 11:31 15.10.2021
5966 Mist 16 1012 95 2816 0.51 350 10:46 15.10.2021
5967 Mist 16 1012 94 2816 1.03 350 09:46 15.10.2021
5968 Mist 18 1013 91 8047 0.51 170 05:32 15.10.2021
5969 Clouds 19 1013 88 10000 0.51 260 01:45 15.10.2021
5970 Clouds 19 1013 86 10000 0 0 00:21 15.10.2021
5971 Clouds 20 1013 84 10000 0 0 22:51 14.10.2021
5972 Clouds 20 1013 84 10000 1.54 210 21:44 14.10.2021
5973 Clouds 20 1013 86 10000 2.57 240 20:48 14.10.2021
5974 Clouds 20 1014 86 10000 2.06 240 20:18 14.10.2021
5975 Clouds 20 1014 87 10000 0.45 311 19:35 14.10.2021
5976 Mist 18 1014 92 4828 0.45 296 17:31 14.10.2021
5977 Mist 18 1014 93 4023 0.89 292 16:49 14.10.2021
5978 Mist 17 1014 94 4023 0.45 269 15:44 14.10.2021
5979 Mist 17 1015 96 3219 0.45 296 14:43 14.10.2021
5980 Mist 17 1014 96 2012 2.06 10 14:21 14.10.2021
5981 Mist 17 1013 97 4828 0 0 11:44 14.10.2021
5982 Mist 17 1013 96 4023 1.03 170 09:55 14.10.2021
5983 Mist 17 1013 96 4023 1.03 170 09:55 14.10.2021
5984 Clouds 17 1013 95 10000 1.32 214 06:56 14.10.2021
5985 Clouds 18 1014 91 10000 0.89 237 01:29 14.10.2021
5986 Clouds 18 1014 91 10000 0.16 304 00:28 14.10.2021
5987 Clouds 20 1014 80 10000 0.89 306 21:58 13.10.2021
5988 Clouds 20 1014 81 10000 1.34 301 21:32 13.10.2021
5989 Clouds 21 1014 76 10000 0.89 218 20:21 13.10.2021
5990 Clouds 21 1015 71 10000 1.03 170 18:57 13.10.2021
5991 Clouds 21 1015 72 10000 1.03 170 18:35 13.10.2021
5992 Clouds 17 1015 86 10000 1.03 190 15:32 13.10.2021
5993 Clouds 15 1015 91 10000 1.03 200 14:46 13.10.2021
5994 Clouds 15 1015 92 10000 1.03 200 14:22 13.10.2021
5995 Clear 14 1015 93 10000 0.51 200 12:22 13.10.2021
5996 Clear 14 1015 92 10000 1.03 190 11:35 13.10.2021
5997 Clouds 15 1015 89 10000 1.03 210 08:48 13.10.2021
5998 Clouds 15 1015 86 10000 1.03 190 07:36 13.10.2021
5999 Clouds 19 1015 75 10000 1.03 160 02:29 13.10.2021
6000 Clouds 19 1016 74 10000 0.51 180 01:46 13.10.2021
6001 Clouds 22 1016 65 10000 1.03 140 23:31 12.10.2021
6002 Clouds 22 1016 65 10000 1.03 140 23:31 12.10.2021
6003 Clear 23 1016 62 10000 2.57 140 22:47 12.10.2021
6004 Clear 24 1016 61 10000 2.57 140 22:23 12.10.2021
6005 Clouds 23 1017 64 10000 1.54 180 20:46 12.10.2021
6006 Clouds 23 1017 65 10000 1.54 180 20:18 12.10.2021
6007 Clear 22 1018 66 10000 1.03 180 18:45 12.10.2021
6008 Clouds 21 1019 70 10000 1.54 150 17:57 12.10.2021
6009 Clouds 19 1019 79 10000 1.03 170 16:44 12.10.2021
6010 Clouds 17 1020 88 10000 1.54 180 15:58 12.10.2021
6011 Clear 15 1019 92 10000 1.54 190 14:46 12.10.2021
6012 Clear 14 1019 94 10000 1.54 200 13:44 12.10.2021
6013 Clear 13 1019 95 10000 1.03 190 12:40 12.10.2021
6014 Mist 14 1019 95 2414 1.03 210 10:20 12.10.2021
6015 Clear 14 1018 91 10000 1.54 190 08:44 12.10.2021
6016 Clear 15 1018 90 10000 1.54 190 07:54 12.10.2021
6017 Clear 15 1017 88 10000 1.54 190 06:40 12.10.2021
6018 Clear 16 1017 83 10000 1.54 180 04:33 12.10.2021
6019 Clear 18 1018 76 10000 1.03 180 01:28 12.10.2021
6020 Clear 21 1017 68 10000 2.06 100 23:41 11.10.2021
6021 Clear 21 1018 68 10000 2.06 130 22:59 11.10.2021
6022 Clouds 21 1018 68 10000 1.03 150 21:46 11.10.2021
6023 Clouds 21 1018 69 10000 1.03 150 21:18 11.10.2021
6024 Clouds 20 1019 71 10000 1.03 160 19:46 11.10.2021
6025 Clouds 20 1020 73 10000 1.54 110 18:44 11.10.2021
6026 Clouds 19 1020 77 10000 1.54 140 17:59 11.10.2021
6027 Clouds 17 1021 81 10000 1.54 140 16:39 11.10.2021
6028 Clouds 16 1020 84 10000 1.54 170 15:52 11.10.2021
6029 Clouds 16 1020 84 10000 1.54 170 15:32 11.10.2021
6030 Clouds 15 1020 86 10000 1.54 190 14:46 11.10.2021
6031 Clouds 15 1020 87 10000 1.03 190 13:38 11.10.2021
6032 Clouds 15 1020 86 10000 1.03 170 11:52 11.10.2021
6033 Clouds 15 1019 85 10000 1.54 190 10:43 11.10.2021
6034 Clouds 15 1019 84 10000 1.54 190 09:44 11.10.2021
6035 Clouds 15 1020 85 10000 1.03 190 07:29 11.10.2021
6036 Clouds 16 1020 75 10000 1.54 170 01:41 11.10.2021
6037 Clouds 17 1021 71 10000 2.06 170 00:50 11.10.2021
6038 Clouds 17 1021 70 10000 2.06 170 00:28 11.10.2021
6039 Clouds 18 1021 70 10000 1.54 160 21:57 10.10.2021
6040 Clouds 18 1021 71 10000 1.54 160 21:32 10.10.2021
6041 Clouds 17 1022 74 10000 2.06 170 20:48 10.10.2021
6042 Clouds 17 1022 75 10000 2.06 170 20:21 10.10.2021
6043 Clouds 17 1022 78 10000 2.06 170 19:59 10.10.2021
6044 Clouds 16 1022 79 10000 2.06 170 19:36 10.10.2021
6045 Clouds 15 1023 84 10000 1.03 150 18:37 10.10.2021
6046 Rain 14 1024 85 10000 1.54 190 16:57 10.10.2021
6047 Clouds 14 1024 83 10000 2.06 190 15:47 10.10.2021
6048 Clouds 13 1024 82 10000 1.54 180 14:42 10.10.2021
6049 Clouds 13 1023 84 10000 1.54 190 13:34 10.10.2021
6050 Clouds 13 1023 85 10000 2.06 180 12:35 10.10.2021
6051 Clouds 13 1023 83 10000 1.03 170 10:44 10.10.2021
6052 Clouds 13 1023 82 10000 1.54 170 09:31 10.10.2021
6053 Clouds 13 1024 81 10000 1.54 170 08:54 10.10.2021
6054 Clouds 13 1024 80 10000 1.54 180 07:53 10.10.2021
6055 Clouds 15 1024 73 10000 1.54 180 03:20 10.10.2021
6056 Clouds 17 1024 67 10000 2.06 160 01:28 10.10.2021
6057 Clear 17 1023 65 10000 1.54 140 00:33 10.10.2021
6058 Clouds 19 1023 62 10000 2.57 180 23:20 09.10.2021
6059 Clear 21 1023 58 10000 2.57 170 21:48 09.10.2021
6060 Clear 21 1023 58 10000 2.57 170 21:29 09.10.2021
6061 Clear 20 1024 59 10000 3.09 140 19:45 09.10.2021
6062 Clear 20 1024 60 10000 3.09 140 19:20 09.10.2021
6063 Clear 19 1024 62 10000 2.57 180 18:33 09.10.2021
6064 Clear 19 1024 62 10000 2.57 180 18:33 09.10.2021
6065 Clear 18 1025 66 10000 3.09 170 17:21 09.10.2021
6066 Clear 16 1025 73 10000 2.57 150 16:19 09.10.2021
6067 Clouds 11 1024 92 10000 0.51 20 13:46 09.10.2021
6068 Clouds 10 1024 91 10000 1.03 360 12:54 09.10.2021
6069 Mist 10 1024 92 9656 1.03 350 11:48 09.10.2021
6070 Mist 10 1024 91 9656 1.03 360 10:42 09.10.2021
6071 Mist 10 1023 89 4828 1.03 340 09:53 09.10.2021
6072 Mist 11 1023 87 4828 1.54 360 08:30 09.10.2021
6073 Mist 12 1023 87 4828 2.57 350 07:49 09.10.2021
6074 Mist 14 1022 83 8047 2.57 350 05:39 09.10.2021
6075 Clear 16 1022 80 10000 2.57 350 03:44 09.10.2021
6076 Clear 17 1022 80 10000 1.54 360 02:41 09.10.2021
6077 Clear 21 1021 63 10000 2.06 360 23:52 08.10.2021
6078 Clear 22 1021 58 10000 1.54 10 22:59 08.10.2021
6079 Clear 23 1021 57 10000 1.54 10 22:24 08.10.2021
6080 Clear 23 1021 56 10000 1.54 70 21:35 08.10.2021
6081 Clear 21 1022 63 10000 1.54 80 19:39 08.10.2021
6082 Clear 19 1023 71 10000 1.03 60 17:36 08.10.2021
6083 Clouds 17 1023 78 10000 1.03 60 16:53 08.10.2021
6084 Clouds 16 1023 81 10000 1.03 60 16:24 08.10.2021
6085 Mist 10 1022 95 8047 0.51 230 13:58 08.10.2021
6086 Mist 10 1022 95 6437 0.51 230 13:35 08.10.2021
6087 Mist 10 1021 94 6437 0.51 260 11:33 08.10.2021
6088 Mist 11 1021 93 4828 0.51 280 10:41 08.10.2021
6089 Mist 11 1021 91 2012 0.89 267 09:44 08.10.2021
6090 Clear 19 1022 64 10000 0.51 300 00:34 08.10.2021
6091 Clear 22 1022 57 10000 1.03 240 23:22 07.10.2021
6092 Clear 22 1023 55 10000 1.54 300 21:46 07.10.2021
6093 Clear 22 1023 55 10000 1.54 300 21:27 07.10.2021
6094 Clear 22 1024 56 10000 2.06 180 20:28 07.10.2021
6095 Clear 21 1025 60 10000 1.54 170 19:30 07.10.2021
6096 Clear 20 1025 69 10000 1.03 160 18:24 07.10.2021
6097 Clear 17 1026 78 10000 1.54 150 17:27 07.10.2021
6098 Clouds 14 1026 91 10000 1.03 160 15:55 07.10.2021
6099 Mist 11 1027 97 1207 2.06 180 14:24 07.10.2021
6100 Fog 10 1026 97 201 1.54 190 13:43 07.10.2021
6101 Fog 10 1026 96 604 1.03 210 12:48 07.10.2021
6102 Fog 10 1026 95 402 0 0 10:57 07.10.2021
6103 Fog 10 1026 94 402 0 0 10:20 07.10.2021
6104 Mist 10 1026 91 2414 0.51 220 09:34 07.10.2021
6105 Mist 10 1026 90 8047 0.51 230 08:52 07.10.2021
6106 Clear 10 1026 92 10000 1.54 140 07:56 07.10.2021
6107 Clear 10 1026 90 10000 0 0 07:36 07.10.2021
6108 Clear 12 1027 83 10000 0 0 03:54 07.10.2021
6109 Clear 19 1026 60 10000 1.03 260 00:29 07.10.2021
6110 Clear 21 1027 55 10000 1.03 320 22:55 06.10.2021
6111 Clear 21 1027 54 10000 1.03 320 22:23 06.10.2021
6112 Clear 21 1028 63 10000 1.03 190 20:43 06.10.2021
6113 Clear 21 1028 65 10000 1.03 190 20:20 06.10.2021
6114 Clear 19 1029 74 10000 1.54 150 18:43 06.10.2021
6115 Mist 16 1030 85 4828 0.51 20 16:58 06.10.2021
6116 Mist 16 1030 85 4828 0.51 20 16:58 06.10.2021
6117 Fog 13 1030 93 201 0.51 30 15:33 06.10.2021
6118 Fog 10 1029 97 10000 0 0 14:30 06.10.2021
6119 Mist 9 1029 95 9656 1.03 200 13:24 06.10.2021
6120 Fog 9 1029 96 604 0.51 250 12:45 06.10.2021
6121 Fog 9 1028 97 402 0.51 250 12:23 06.10.2021
6122 Fog 8 1028 96 604 0.51 220 10:36 06.10.2021
6123 Fog 9 1028 95 10000 1.03 210 09:39 06.10.2021
6124 Clouds 9 1028 96 10000 1.54 150 08:57 06.10.2021
6125 Mist 9 1028 94 2012 0 0 07:54 06.10.2021
6126 Mist 10 1027 93 2816 0 0 05:37 06.10.2021
6127 Clear 14 1026 82 10000 0.51 210 01:37 06.10.2021
6128 Clouds 17 1026 74 10000 1.03 160 00:20 06.10.2021
6129 Clouds 17 1025 72 10000 0 0 23:50 05.10.2021
6130 Clouds 18 1025 71 10000 0 0 23:29 05.10.2021
6131 Clouds 17 1025 73 10000 1.03 340 22:30 05.10.2021
6132 Clouds 17 1025 73 10000 1.54 340 21:56 05.10.2021
6133 Clouds 17 1025 73 10000 1.54 340 21:56 05.10.2021
6134 Clouds 17 1025 72 10000 1.54 340 21:19 05.10.2021
6135 Clouds 17 1025 74 10000 1.03 340 20:26 05.10.2021
6136 Clouds 16 1025 75 10000 2.06 350 19:50 05.10.2021
6137 Clouds 16 1025 75 10000 2.06 350 19:23 05.10.2021
6138 Clouds 15 1026 77 10000 1.54 350 18:20 05.10.2021
6139 Clouds 12 1025 84 10000 2.57 360 15:28 05.10.2021
6140 Clouds 12 1023 85 10000 2.57 350 13:49 05.10.2021
6141 Clouds 12 1023 85 10000 2.57 350 13:18 05.10.2021
6142 Clouds 12 1023 85 10000 2.57 350 12:33 05.10.2021
6143 Clouds 12 1023 84 10000 2.06 360 11:41 05.10.2021
6144 Clouds 12 1022 84 10000 2.06 360 10:34 05.10.2021
6145 Clouds 14 1021 83 10000 1.03 10 07:38 05.10.2021
6146 Clouds 16 1020 78 10000 0.51 80 01:28 05.10.2021
6147 Clouds 17 1019 73 10000 1.03 70 22:53 04.10.2021
6148 Clouds 16 1019 72 10000 1.54 40 21:23 04.10.2021
6149 Clouds 14 1019 77 10000 2.06 30 18:48 04.10.2021
6150 Clouds 12 1020 77 10000 2.57 10 17:26 04.10.2021
6151 Clear 9 1019 84 10000 2.57 20 15:32 04.10.2021
6152 Clear 8 1019 86 10000 3.6 360 14:46 04.10.2021
6153 Clouds 8 1018 87 10000 3.09 360 13:59 04.10.2021
6154 Clear 7 1018 88 10000 3.09 360 13:31 04.10.2021
6155 Clear 7 1018 87 10000 2.57 10 12:50 04.10.2021
6156 Clear 8 1018 88 10000 3.09 360 11:33 04.10.2021
6157 Clouds 8 1017 88 10000 3.09 10 10:45 04.10.2021
6158 Clear 8 1017 88 10000 3.6 360 09:35 04.10.2021
6159 Clear 9 1017 87 10000 3.6 350 07:53 04.10.2021
6160 Clear 10 1017 86 10000 2.57 360 06:50 04.10.2021
6161 Clouds 16 1015 64 10000 1.54 20 22:51 03.10.2021
6162 Clouds 16 1015 65 10000 2.06 30 21:54 03.10.2021
6163 Clouds 16 1015 65 10000 2.06 30 21:31 03.10.2021
6164 Clouds 16 1015 68 10000 2.06 20 20:45 03.10.2021
6165 Clouds 15 1016 73 10000 2.06 20 19:46 03.10.2021
6166 Clouds 14 1016 80 10000 1.54 20 18:29 03.10.2021
6167 Clouds 13 1016 85 10000 2.06 10 17:37 03.10.2021
6168 Clouds 11 1016 90 10000 2.57 350 15:29 03.10.2021
6169 Clouds 10 1016 93 10000 2.57 360 14:31 03.10.2021
6170 Clouds 10 1016 94 10000 1.54 350 13:36 03.10.2021
6171 Clouds 10 1016 93 10000 2.06 350 12:47 03.10.2021
6172 Rain 10 1016 93 10000 2.06 360 11:37 03.10.2021
6173 Clouds 11 1016 93 10000 1.03 30 09:58 03.10.2021
6174 Clouds 11 1016 94 10000 1.54 360 06:42 03.10.2021
6175 Clouds 12 1015 94 10000 1.54 30 22:59 02.10.2021
6176 Clouds 12 1015 94 10000 1.03 60 21:59 02.10.2021
6177 Rain 12 1015 94 10000 1.03 60 20:33 02.10.2021
6178 Rain 12 1016 95 8047 1.54 90 18:57 02.10.2021
6179 Clouds 12 1016 94 10000 1.54 90 18:20 02.10.2021
6180 Mist 12 1016 94 8047 1.03 150 17:38 02.10.2021
6181 Clouds 12 1016 95 10000 1.54 150 16:39 02.10.2021
6182 Clouds 12 1019 83 10000 0.89 278 07:51 02.10.2021
6183 Clear 11 1020 77 10000 2.06 350 15:37 30.09.2021
6184 Clear 9 1020 85 10000 2.06 340 14:22 30.09.2021
6185 Clouds 8 1019 89 10000 2.06 340 11:59 30.09.2021
6186 Clouds 8 1019 89 10000 2.06 340 11:23 30.09.2021
6187 Clouds 8 1019 87 10000 2.06 350 10:25 30.09.2021
6188 Clouds 8 1019 87 10000 2.06 350 10:25 30.09.2021
6189 Clouds 9 1018 84 10000 2.06 360 08:32 30.09.2021
6190 Clouds 9 1018 85 10000 0.89 295 07:45 30.09.2021
6191 Clouds 10 1018 86 10000 1.54 310 05:25 30.09.2021
6192 Clouds 11 1017 80 10000 0.51 310 02:33 30.09.2021
6193 Clouds 12 1016 76 10000 1.54 360 00:33 30.09.2021
6194 Clouds 13 1016 70 10000 2.57 330 22:42 29.09.2021
6195 Clouds 13 1016 68 10000 1.54 330 21:52 29.09.2021
6196 Clouds 13 1016 70 10000 1.54 280 20:38 29.09.2021
6197 Clouds 13 1016 71 10000 1.54 280 20:19 29.09.2021
6198 Clouds 12 1016 71 10000 1.03 280 19:22 29.09.2021
6199 Clouds 13 1016 69 10000 1.54 320 18:18 29.09.2021
6200 Clouds 12 1016 72 10000 1.54 320 16:55 29.09.2021
6201 Clouds 12 1016 73 10000 1.54 320 16:27 29.09.2021
6202 Clouds 11 1016 75 10000 0.51 300 15:24 29.09.2021
6203 Clouds 10 1015 79 10000 1.54 350 14:37 29.09.2021
6204 Clouds 9 1015 83 10000 2.06 340 13:33 29.09.2021
6205 Clouds 9 1014 81 10000 2.06 340 12:38 29.09.2021
6206 Clouds 10 1014 82 10000 2.06 350 11:20 29.09.2021
6207 Clouds 9 1014 87 10000 0.89 294 10:28 29.09.2021
6208 Clouds 9 1013 86 10000 0.89 295 09:41 29.09.2021
6209 Clouds 10 1013 82 10000 0.89 293 07:51 29.09.2021
6210 Clouds 10 1013 81 10000 1.34 285 06:46 29.09.2021
6211 Clouds 14 1012 60 10000 1.03 280 00:28 29.09.2021
6212 Clouds 15 1012 54 10000 2.06 340 22:26 28.09.2021
6213 Clouds 15 1012 55 10000 1.03 260 21:54 28.09.2021
6214 Clouds 15 1012 55 10000 1.03 260 21:19 28.09.2021
6215 Clouds 15 1012 57 10000 2.06 330 19:49 28.09.2021
6216 Clouds 15 1012 57 10000 2.06 330 19:29 28.09.2021
6217 Clouds 14 1013 59 10000 1.54 360 18:41 28.09.2021
6218 Clear 12 1013 68 10000 2.06 360 16:57 28.09.2021
6219 Clear 10 1013 79 10000 2.06 340 15:21 28.09.2021
6220 Clear 7 1012 89 10000 2.57 330 13:27 28.09.2021
6221 Clear 7 1011 87 10000 2.06 330 12:25 28.09.2021
6222 Clear 8 1011 86 10000 2.57 340 11:48 28.09.2021
6223 Clear 8 1010 86 10000 2.57 340 11:27 28.09.2021
6224 Clear 8 1010 84 10000 2.06 350 10:30 28.09.2021
6225 Clear 9 1010 82 10000 2.57 340 09:29 28.09.2021
6226 Clear 10 1010 83 10000 2.06 10 08:44 28.09.2021
6227 Clear 10 1010 84 10000 2.06 10 08:20 28.09.2021
6228 Clouds 13 1009 92 10000 2.06 320 06:46 28.09.2021
6229 Clouds 15 1007 91 10000 1.03 220 01:38 28.09.2021
6230 Clouds 16 1006 90 10000 1.54 190 00:34 28.09.2021
6231 Clouds 16 1006 91 10000 1.54 180 23:52 27.09.2021
6232 Clouds 16 1006 89 10000 1.54 180 23:25 27.09.2021
6233 Clouds 16 1006 89 10000 1.54 180 22:31 27.09.2021
6234 Clouds 16 1006 89 10000 1.03 190 21:38 27.09.2021
6235 Rain 16 1006 86 10000 1.54 180 20:29 27.09.2021
6236 Rain 16 1006 83 10000 2.06 190 19:40 27.09.2021
6237 Clouds 16 1007 78 10000 1.54 210 18:54 27.09.2021
6238 Clouds 16 1007 77 10000 2.06 190 17:41 27.09.2021
6239 Clouds 16 1007 78 10000 2.06 190 17:21 27.09.2021
6240 Clouds 16 1007 78 10000 2.06 190 17:21 27.09.2021
6241 Clouds 15 1008 76 10000 1.54 190 16:37 27.09.2021
6242 Clouds 15 1008 74 10000 2.06 170 15:39 27.09.2021
6243 Clouds 13 1009 76 10000 2.06 180 13:57 27.09.2021
6244 Clouds 13 1009 77 10000 1.03 180 12:26 27.09.2021
6245 Clouds 13 1009 78 10000 1.54 180 10:51 27.09.2021
6246 Clear 12 1009 82 10000 1.03 190 09:46 27.09.2021
6247 Clouds 13 1009 78 10000 2.06 190 08:26 27.09.2021
6248 Clear 13 1010 71 10000 0.51 190 04:51 27.09.2021
6249 Clear 18 1007 56 10000 1.54 250 00:21 27.09.2021
6250 Clouds 19 1007 54 10000 2.06 200 22:27 26.09.2021
6251 Clouds 19 1007 52 10000 2.06 180 21:31 26.09.2021
6252 Clouds 19 1008 51 10000 1.54 280 20:45 26.09.2021
6253 Clouds 19 1008 51 10000 1.54 280 20:18 26.09.2021
6254 Clouds 19 1009 52 10000 2.57 280 19:37 26.09.2021
6255 Clouds 19 1009 54 10000 1.03 260 18:45 26.09.2021
6256 Clear 18 1010 58 10000 1.54 200 17:50 26.09.2021
6257 Clear 17 1010 58 10000 1.54 200 17:21 26.09.2021
6258 Clouds 16 1010 69 10000 2.06 250 16:28 26.09.2021
6259 Clouds 15 1010 76 10000 1.03 200 15:56 26.09.2021
6260 Clouds 14 1010 81 10000 1.03 210 14:45 26.09.2021
6261 Clouds 14 1010 83 10000 1.03 200 13:45 26.09.2021
6262 Clouds 14 1009 86 10000 1.54 170 12:33 26.09.2021
6263 Clear 15 1009 87 10000 1.54 200 11:59 26.09.2021
6264 Clear 15 1009 88 10000 1.54 200 11:37 26.09.2021
6265 Clouds 14 1009 86 10000 1.54 210 10:23 26.09.2021
6266 Clear 14 1009 88 10000 1.03 200 08:55 26.09.2021
6267 Clouds 16 1012 78 10000 0 0 03:26 26.09.2021
6268 Clear 20 1012 59 10000 2.06 170 00:20 26.09.2021
6269 Clear 21 1013 55 10000 1.03 130 23:23 25.09.2021
6270 Clear 22 1013 54 10000 1.54 140 22:37 25.09.2021
6271 Clear 22 1014 53 10000 2.06 140 21:55 25.09.2021
6272 Clear 22 1014 53 10000 2.06 140 21:30 25.09.2021
6273 Clear 22 1015 55 10000 2.06 220 20:45 25.09.2021
6274 Clear 20 1016 59 10000 1.03 180 18:47 25.09.2021
6275 Clear 19 1017 63 10000 1.54 160 17:47 25.09.2021
6276 Clear 16 1017 78 10000 0 0 15:41 25.09.2021
6277 Clear 13 1017 88 10000 1.03 270 13:57 25.09.2021
6278 Clear 12 1017 88 10000 1.03 270 13:30 25.09.2021
6279 Clear 12 1017 85 10000 0.51 250 12:25 25.09.2021
6280 Clouds 14 1017 78 10000 1.03 300 10:34 25.09.2021
6281 Clouds 15 1017 72 10000 0.51 290 09:26 25.09.2021
6282 Clouds 16 1016 71 10000 2.06 200 07:56 25.09.2021
6283 Clouds 17 1016 69 10000 2.06 180 05:46 25.09.2021
6284 Clear 19 1014 57 10000 3.09 240 23:51 24.09.2021
6285 Clouds 21 1013 55 10000 2.06 230 21:42 24.09.2021
6286 Clouds 21 1013 59 10000 2.06 200 20:34 24.09.2021
6287 Clouds 20 1013 63 10000 1.54 250 19:47 24.09.2021
6288 Clouds 18 1014 67 10000 1.54 190 18:33 24.09.2021
6289 Clouds 17 1014 74 10000 1.54 190 17:54 24.09.2021
6290 Clouds 17 1014 76 10000 1.54 190 17:36 24.09.2021
6291 Clouds 17 1014 80 10000 1.54 190 17:18 24.09.2021
6292 Rain 16 1014 92 8047 0.51 130 13:58 24.09.2021
6293 Rain 16 1014 93 9656 0.51 130 13:18 24.09.2021
6294 Mist 16 1014 93 8047 0.51 190 12:39 24.09.2021
6295 Rain 16 1014 94 8047 0.51 190 12:20 24.09.2021
6296 Rain 18 1012 93 4828 1.54 190 10:27 24.09.2021
6297 Rain 20 1012 89 10000 1.54 200 08:55 24.09.2021
6298 Clouds 21 1012 85 10000 0.51 200 07:35 24.09.2021
6299 Clouds 22 1012 83 10000 0.51 210 06:46 24.09.2021
6300 Clouds 23 1013 75 10000 1.03 150 04:55 24.09.2021
6301 Clouds 26 1012 59 10000 1.54 150 00:26 24.09.2021
6302 Clouds 28 1013 53 10000 2.06 180 22:30 23.09.2021
6303 Clear 29 1013 53 10000 2.57 170 21:56 23.09.2021
6304 Clouds 29 1014 53 10000 2.57 170 20:34 23.09.2021
6305 Clouds 28 1014 57 10000 3.6 170 19:48 23.09.2021
6306 Clear 27 1014 63 10000 3.09 170 17:47 23.09.2021
6307 Clear 23 1014 80 10000 1.54 170 15:32 23.09.2021
6308 Clear 22 1014 85 10000 1.03 160 14:59 23.09.2021
6309 Clear 21 1013 86 10000 1.03 170 13:46 23.09.2021
6310 Clear 21 1013 86 10000 1.03 170 13:21 23.09.2021
6311 Clear 21 1013 87 10000 1.54 190 12:52 23.09.2021
6312 Clear 21 1013 87 10000 1.54 190 12:22 23.09.2021
6313 Clear 21 1013 88 10000 1.54 200 11:40 23.09.2021
6314 Clouds 20 1013 91 10000 0.51 190 10:27 23.09.2021
6315 Clouds 21 1014 90 10000 1.03 190 09:52 23.09.2021
6316 Rain 21 1014 83 10000 1.54 190 08:25 23.09.2021
6317 Clouds 22 1014 85 10000 1.54 190 04:40 23.09.2021
6318 Clouds 24 1014 72 10000 1.54 180 23:35 22.09.2021
6319 Clouds 24 1014 74 10000 1.54 190 22:37 22.09.2021
6320 Clouds 24 1015 72 10000 1.54 150 21:56 22.09.2021
6321 Clouds 25 1015 71 10000 1.54 150 21:34 22.09.2021
6322 Clouds 24 1015 71 10000 2.06 180 20:57 22.09.2021
6323 Clouds 24 1016 71 10000 2.06 170 19:33 22.09.2021
6324 Clouds 24 1017 72 10000 1.03 160 18:40 22.09.2021
6325 Clouds 24 1017 72 10000 1.03 160 18:39 22.09.2021
6326 Clouds 23 1017 75 10000 1.34 171 17:48 22.09.2021
6327 Clouds 20 1018 79 10000 1.34 189 16:38 22.09.2021
6328 Clouds 19 1018 79 10000 0.89 203 15:29 22.09.2021
6329 Clouds 19 1019 80 10000 1.54 180 13:58 22.09.2021
6330 Clouds 18 1019 80 10000 1.54 190 12:19 22.09.2021
6331 Clouds 18 1019 79 10000 1.54 180 10:53 22.09.2021
6332 Clear 18 1020 77 10000 1.03 180 09:25 22.09.2021
6333 Clouds 18 1020 76 10000 1.03 170 08:30 22.09.2021
6334 Clouds 18 1020 76 10000 1.03 170 08:30 22.09.2021
6335 Clear 18 1021 75 10000 1.54 180 07:25 22.09.2021
6336 Clouds 18 1021 73 10000 2.06 180 06:18 22.09.2021
6337 Clouds 18 1022 71 10000 1.54 180 05:36 22.09.2021
6338 Clear 19 1022 65 10000 1.54 190 03:52 22.09.2021
6339 Clear 22 1021 56 10000 1.54 170 00:37 22.09.2021
6340 Clear 23 1022 55 10000 1.54 170 23:24 21.09.2021
6341 Clouds 24 1022 54 10000 2.57 150 21:37 21.09.2021
6342 Clouds 23 1022 60 10000 5.38 163 20:27 21.09.2021
6343 Clouds 23 1023 61 10000 1.79 195 19:22 21.09.2021
6344 Clouds 22 1024 64 10000 1.79 202 17:49 21.09.2021
6345 Clear 21 1024 69 10000 2.57 180 16:38 21.09.2021
6346 Clear 20 1025 72 10000 2.06 160 15:52 21.09.2021
6347 Clear 18 1025 79 10000 1.54 170 14:58 21.09.2021
6348 Clear 17 1025 84 10000 1.54 180 13:57 21.09.2021
6349 Clear 16 1025 85 10000 1.54 180 13:39 21.09.2021
6350 Clear 15 1025 86 10000 1.54 190 12:40 21.09.2021
6351 Clear 16 1024 84 10000 1.54 190 10:33 21.09.2021
6352 Clear 16 1025 77 10000 1.54 180 08:40 21.09.2021
6353 Clear 17 1024 75 10000 1.54 190 07:18 21.09.2021
6354 Clear 23 1025 44 10000 1.54 170 00:48 21.09.2021
6355 Clear 24 1025 41 10000 1.54 140 22:37 20.09.2021
6356 Clear 24 1025 42 10000 1.54 160 21:41 20.09.2021
6357 Clear 23 1025 43 10000 1.03 140 20:58 20.09.2021
6358 Clear 23 1026 52 10000 2.06 150 19:40 20.09.2021
6359 Clear 20 1027 59 10000 1.54 140 17:52 20.09.2021
6360 Clear 18 1027 67 10000 2.06 160 16:50 20.09.2021
6361 Clear 16 1027 75 10000 1.54 160 15:57 20.09.2021
6362 Clear 15 1027 78 10000 1.54 160 15:33 20.09.2021
6363 Clear 12 1027 86 10000 1.03 160 14:25 20.09.2021
6364 Clear 9 1026 88 10000 1.03 210 12:44 20.09.2021
6365 Clear 9 1026 88 10000 1.03 210 12:21 20.09.2021
6366 Clear 10 1025 86 10000 0.51 290 10:36 20.09.2021
6367 Clear 10 1025 85 10000 1.54 120 09:44 20.09.2021
6368 Clear 10 1025 84 10000 1.54 120 09:25 20.09.2021
6369 Clear 10 1024 82 10000 0.45 210 08:31 20.09.2021
6370 Clear 15 1023 61 10000 1.54 270 02:29 20.09.2021
6371 Clear 21 1023 44 10000 1.54 170 22:47 19.09.2021
6372 Clear 21 1023 45 10000 1.54 30 21:48 19.09.2021
6373 Clear 20 1023 46 10000 1.54 30 20:59 19.09.2021
6374 Clear 19 1024 49 10000 2.57 330 19:54 19.09.2021
6375 Clear 18 1024 53 10000 2.57 350 18:42 19.09.2021
6376 Clear 17 1025 57 10000 2.06 10 17:33 19.09.2021
6377 Clear 16 1025 63 10000 3.09 350 16:33 19.09.2021
6378 Clear 14 1025 66 10000 2.57 350 15:31 19.09.2021
6379 Clear 13 1025 70 10000 2.57 360 14:48 19.09.2021
6380 Clear 11 1024 76 10000 2.57 350 13:49 19.09.2021
6381 Clear 10 1023 79 10000 2.57 350 12:52 19.09.2021
6382 Clear 11 1023 77 10000 2.57 350 11:46 19.09.2021
6383 Clear 11 1023 77 10000 2.57 350 11:22 19.09.2021
6384 Clear 12 1022 74 10000 3.09 360 09:51 19.09.2021
6385 Clear 12 1022 73 10000 3.09 360 09:21 19.09.2021
6386 Clear 13 1021 72 10000 0.45 8 06:48 19.09.2021
6387 Clear 13 1021 72 10000 0.45 8 06:48 19.09.2021
6388 Clear 22 1018 45 10000 1.03 10 00:40 19.09.2021
6389 Clear 23 1018 41 10000 2.57 340 22:58 18.09.2021
6390 Clear 24 1018 42 10000 3.09 340 21:56 18.09.2021
6391 Clouds 23 1019 46 10000 2.57 360 20:46 18.09.2021
6392 Haze 22 1019 52 9656 1.03 50 19:42 18.09.2021
6393 Haze 22 1019 52 9656 1.03 50 19:22 18.09.2021
6394 Haze 21 1019 57 4828 1.54 30 18:52 18.09.2021
6395 Clouds 21 1019 59 10000 1.54 30 18:29 18.09.2021
6396 Clouds 19 1019 72 10000 3.09 10 16:35 18.09.2021
6397 Clouds 20 1017 90 10000 1.54 160 13:53 18.09.2021
6398 Clouds 19 1017 90 10000 1.54 160 13:31 18.09.2021
6399 Clouds 19 1017 91 10000 1.03 160 12:52 18.09.2021
6400 Clear 19 1016 91 10000 1.54 200 11:59 18.09.2021
6401 Clear 19 1016 91 10000 1.54 200 11:29 18.09.2021
6402 Clouds 19 1016 89 10000 1.03 180 10:23 18.09.2021
6403 Clouds 19 1017 88 10000 1.54 180 09:23 18.09.2021
6404 Clear 20 1017 85 10000 1.54 190 08:24 18.09.2021
6405 Clouds 24 1019 74 10000 1.34 199 00:52 18.09.2021
6406 Clouds 25 1019 70 10000 2.68 191 23:55 17.09.2021
6407 Clouds 27 1020 65 10000 1.79 187 22:45 17.09.2021
6408 Clouds 26 1020 65 10000 1.79 169 22:22 17.09.2021
6409 Clouds 27 1021 63 10000 2.06 180 21:32 17.09.2021
6410 Clouds 27 1021 63 10000 2.06 180 21:32 17.09.2021
6411 Clouds 26 1023 64 10000 2.06 140 19:31 17.09.2021
6412 Clouds 25 1023 64 10000 1.54 180 18:30 17.09.2021
6413 Clear 21 1024 73 10000 1.54 160 16:35 17.09.2021
6414 Clear 16 1025 85 10000 1.03 170 14:48 17.09.2021
6415 Clear 13 1024 88 10000 1.54 200 11:48 17.09.2021
6416 Clear 13 1024 88 10000 1.54 200 10:21 17.09.2021
6417 Clear 13 1024 82 10000 1.03 130 07:46 17.09.2021
6418 Clear 15 1025 76 10000 0.51 260 05:27 17.09.2021
6419 Clear 22 1024 48 10000 1.03 210 00:31 17.09.2021
6420 Clear 23 1024 48 10000 1.34 172 22:42 16.09.2021
6421 Clear 24 1024 47 10000 0.89 173 22:23 16.09.2021
6422 Clear 23 1025 50 10000 0.45 65 21:35 16.09.2021
6423 Clear 23 1025 51 10000 0.45 198 20:29 16.09.2021
6424 Clear 22 1025 59 10000 0.45 151 18:46 16.09.2021
6425 Clear 22 1025 60 10000 0.45 152 18:18 16.09.2021
6426 Clear 19 1025 70 10000 0.45 297 16:37 16.09.2021
6427 Clear 15 1025 86 10000 0.51 70 14:49 16.09.2021
6428 Clear 12 1024 92 10000 0 0 13:33 16.09.2021
6429 Mist 10 1024 92 6437 0.45 264 12:42 16.09.2021
6430 Mist 11 1022 91 2816 0.51 270 11:49 16.09.2021
6431 Clear 11 1021 91 10000 1.03 120 10:54 16.09.2021
6432 Clear 12 1021 90 10000 0.45 137 10:21 16.09.2021
6433 Clear 12 1020 88 10000 0 0 09:18 16.09.2021
6434 Clear 14 1020 83 10000 1.03 290 07:47 16.09.2021
6435 Clouds 14 1019 82 10000 0 0 06:56 16.09.2021
6436 Clouds 14 1019 82 10000 0 0 06:37 16.09.2021
6437 Clouds 16 1017 72 10000 1.03 300 03:22 16.09.2021
6438 Clouds 19 1013 65 10000 1.03 10 00:46 16.09.2021
6439 Clouds 20 1012 63 10000 1.03 250 23:24 15.09.2021
6440 Clouds 21 1011 63 10000 1.54 270 22:26 15.09.2021
6441 Clouds 22 1010 66 10000 1.54 300 21:30 15.09.2021
6442 Clouds 21 1010 70 10000 1.54 320 20:34 15.09.2021
6443 Clouds 21 1010 70 10000 1.54 270 19:31 15.09.2021
6444 Clouds 21 1010 74 10000 1.54 220 18:41 15.09.2021
6445 Clouds 21 1009 81 10000 1.54 210 17:33 15.09.2021
6446 Clouds 21 1009 87 10000 1.54 210 16:29 15.09.2021
6447 Clouds 20 1008 91 10000 1.54 190 14:59 15.09.2021
6448 Clouds 20 1008 92 10000 1.54 190 14:40 15.09.2021
6449 Clouds 19 1007 94 10000 1.54 190 13:45 15.09.2021
6450 Clouds 19 1007 94 10000 1.54 190 13:26 15.09.2021
6451 Mist 19 1008 94 8047 1.54 200 12:29 15.09.2021
6452 Clouds 19 1008 94 10000 1.54 200 11:50 15.09.2021
6453 Rain 20 1008 91 6437 2.06 340 10:57 15.09.2021
6454 Clouds 21 1006 85 10000 2.57 200 09:59 15.09.2021
6455 Clouds 21 1005 81 10000 2.57 190 08:46 15.09.2021
6456 Clouds 21 1006 76 10000 2.57 190 07:25 15.09.2021
6457 Clouds 21 1013 58 10000 1.54 130 00:41 15.09.2021
6458 Clouds 22 1014 53 10000 2.57 140 22:24 14.09.2021
6459 Clouds 21 1016 54 10000 1.54 190 21:21 14.09.2021
6460 Clouds 21 1016 54 10000 1.54 190 21:21 14.09.2021
6461 Clouds 21 1016 54 10000 1.54 140 20:18 14.09.2021
6462 Clear 20 1018 58 10000 1.54 120 18:44 14.09.2021
6463 Clear 18 1019 63 10000 2.06 80 17:32 14.09.2021
6464 Clear 17 1020 65 10000 1.54 90 16:37 14.09.2021
6465 Clear 13 1020 78 10000 2.06 60 14:32 14.09.2021
6466 Clear 12 1019 83 10000 1.54 360 13:53 14.09.2021
6467 Clear 11 1019 85 10000 0.89 295 11:41 14.09.2021
6468 Clouds 12 1019 79 10000 1.54 340 10:20 14.09.2021
6469 Clouds 13 1019 75 10000 1.03 260 09:45 14.09.2021
6470 Clouds 13 1018 75 10000 1.03 320 07:50 14.09.2021
6471 Clouds 18 1017 53 10000 1.54 360 01:28 14.09.2021
6472 Clouds 21 1016 48 10000 2.57 360 23:27 13.09.2021
6473 Clouds 21 1016 48 10000 2.57 360 22:27 13.09.2021
6474 Clouds 21 1016 49 10000 3.6 360 21:55 13.09.2021
6475 Clouds 21 1016 49 10000 3.6 360 21:23 13.09.2021
6476 Clouds 21 1016 48 10000 3.6 360 19:34 13.09.2021
6477 Clouds 21 1016 48 10000 3.09 10 18:44 13.09.2021
6478 Clouds 19 1017 57 10000 2.57 360 17:21 13.09.2021
6479 Clouds 18 1017 64 10000 2.06 360 16:23 13.09.2021
6480 Clear 16 1016 72 10000 2.57 350 14:43 13.09.2021
6481 Clouds 14 1014 80 10000 0.89 292 11:43 13.09.2021
6482 Clouds 15 1014 76 10000 1.03 300 10:26 13.09.2021
6483 Clouds 15 1014 73 10000 1.03 310 07:57 13.09.2021
6484 Clouds 23 1012 52 10000 1.34 271 00:18 13.09.2021
6485 Clouds 23 1011 50 10000 1.54 250 22:42 12.09.2021
6486 Clouds 24 1011 49 10000 1.54 250 22:21 12.09.2021
6487 Clear 24 1011 47 10000 1.54 330 20:47 12.09.2021
6488 Clear 24 1011 50 10000 2.06 240 19:56 12.09.2021
6489 Clear 23 1011 49 10000 2.06 240 19:29 12.09.2021
6490 Clouds 23 1011 55 10000 2.06 230 18:53 12.09.2021
6491 Clouds 22 1010 69 10000 1.54 320 16:58 12.09.2021
6492 Clouds 21 1010 78 10000 1.03 210 15:41 12.09.2021
6493 Clouds 20 1009 80 10000 1.54 200 14:37 12.09.2021
6494 Clouds 18 1009 85 10000 1.54 190 12:28 12.09.2021
6495 Clouds 19 1009 72 10000 1.54 190 10:19 12.09.2021
6496 Clouds 20 1010 67 10000 2.06 190 08:38 12.09.2021
6497 Clouds 19 1012 67 10000 1.54 190 04:59 12.09.2021
6498 Clouds 22 1014 60 10000 2.06 190 00:46 12.09.2021
6499 Clouds 22 1015 57 10000 2.06 220 22:29 11.09.2021
6500 Clouds 21 1016 58 10000 2.06 200 21:38 11.09.2021
6501 Clear 22 1017 59 10000 2.06 210 19:35 11.09.2021
6502 Clear 21 1017 63 10000 2.57 210 17:56 11.09.2021
6503 Clear 20 1017 65 10000 2.57 210 17:21 11.09.2021
6504 Clouds 17 1017 75 10000 2.57 210 15:24 11.09.2021
6505 Clouds 14 1017 81 10000 0.51 260 13:22 11.09.2021
6506 Clouds 14 1016 78 10000 2.57 270 11:40 11.09.2021
6507 Clouds 14 1016 73 10000 0.51 230 09:42 11.09.2021
6508 Clouds 14 1016 72 10000 1.03 240 08:31 11.09.2021
6509 Clouds 14 1015 71 10000 1.03 250 07:34 11.09.2021
6510 Clear 16 1013 57 10000 0.51 180 02:29 11.09.2021
6511 Clouds 20 1011 51 10000 1.54 360 22:27 10.09.2021
6512 Clouds 20 1011 54 10000 1.54 20 21:56 10.09.2021
6513 Clouds 20 1011 55 10000 1.54 20 21:35 10.09.2021
6514 Clouds 18 1012 65 10000 3.09 360 18:47 10.09.2021
6515 Clouds 17 1012 71 10000 2.06 360 17:42 10.09.2021
6516 Clouds 16 1011 78 10000 2.57 360 15:38 10.09.2021
6517 Clouds 15 1009 89 10000 2.57 330 13:19 10.09.2021
6518 Clouds 15 1008 92 10000 1.34 302 10:32 10.09.2021
6519 Clouds 15 1008 92 10000 1.34 302 10:32 10.09.2021
6520 Clouds 16 1008 91 10000 0.89 309 07:51 10.09.2021
6521 Clouds 17 1008 88 10000 1.54 220 05:23 10.09.2021
6522 Clouds 21 1007 73 10000 1.54 200 23:52 09.09.2021
6523 Clouds 23 1007 68 10000 2.06 200 21:47 09.09.2021
6524 Clouds 23 1007 70 10000 2.06 170 20:47 09.09.2021
6525 Clouds 23 1008 70 10000 2.06 170 20:24 09.09.2021
6526 Clouds 22 1008 73 10000 1.54 210 18:39 09.09.2021
6527 Clear 21 1008 75 10000 2.06 190 17:41 09.09.2021
6528 Clouds 20 1008 79 10000 1.03 170 16:27 09.09.2021
6529 Clear 16 1007 90 10000 1.03 210 13:35 09.09.2021
6530 Mist 16 1007 91 8047 1.03 220 11:50 09.09.2021
6531 Clear 16 1007 93 10000 0.51 220 10:54 09.09.2021
6532 Clear 16 1006 92 10000 1.03 220 09:27 09.09.2021
6533 Clear 17 1006 93 10000 1.54 220 06:55 09.09.2021
6534 Clouds 18 1006 92 10000 1.03 190 04:47 09.09.2021
6535 Clouds 20 1005 86 10000 1.03 170 22:58 08.09.2021
6536 Rain 20 1005 88 10000 1.03 200 21:47 08.09.2021
6537 Clouds 20 1004 87 10000 1.54 180 20:21 08.09.2021
6538 Clouds 20 1005 87 10000 1.03 190 19:44 08.09.2021
6539 Clouds 19 1005 89 10000 1.54 200 18:34 08.09.2021
6540 Rain 18 1005 90 10000 1.03 190 17:58 08.09.2021
6541 Rain 18 1005 91 10000 1.03 190 17:39 08.09.2021
6542 Clouds 18 1006 83 10000 2.06 190 14:50 08.09.2021
6543 Clouds 18 1006 85 10000 2.06 200 13:25 08.09.2021
6544 Clouds 17 1005 86 10000 1.54 200 12:41 08.09.2021
6545 Clouds 17 1005 86 10000 1.54 200 12:21 08.09.2021
6546 Clouds 17 1006 86 10000 1.54 200 11:23 08.09.2021
6547 Clouds 18 1007 82 10000 1.54 200 10:29 08.09.2021
6548 Clouds 17 1007 83 10000 1.54 180 09:36 08.09.2021
6549 Clouds 16 1008 78 10000 1.54 200 07:43 08.09.2021
6550 Clouds 16 1010 78 10000 0.51 210 05:46 08.09.2021
6551 Clouds 22 1011 55 10000 0.51 280 23:18 07.09.2021
6552 Clouds 22 1011 54 10000 1.54 210 22:19 07.09.2021
6553 Clouds 21 1012 57 10000 1.03 350 20:40 07.09.2021
6554 Clouds 20 1012 64 10000 1.54 250 18:52 07.09.2021
6555 Clouds 20 1012 64 10000 1.54 250 18:24 07.09.2021
6556 Clouds 18 1012 72 10000 2.06 230 16:59 07.09.2021
6557 Clear 17 1012 77 10000 2.06 210 15:56 07.09.2021
6558 Clear 15 1012 86 10000 1.54 200 14:47 07.09.2021
6559 Clear 14 1011 91 10000 1.03 200 13:29 07.09.2021
6560 Clear 13 1010 91 10000 1.54 200 11:58 07.09.2021
6561 Clear 14 1009 90 10000 1.03 180 10:45 07.09.2021
6562 Clear 15 1008 87 10000 1.03 180 08:47 07.09.2021
6563 Clear 14 1008 86 10000 1.54 170 07:46 07.09.2021
6564 Clear 15 1008 87 10000 1.03 180 06:19 07.09.2021
6565 Clear 16 1006 84 10000 1.54 190 02:38 07.09.2021
6566 Clouds 18 1005 79 10000 1.03 200 00:55 07.09.2021
6567 Clouds 18 1005 79 10000 1.03 230 23:43 06.09.2021
6568 Clouds 18 1005 81 10000 1.03 230 23:21 06.09.2021
6569 Rain 18 1004 81 10000 2.06 210 22:46 06.09.2021
6570 Clouds 19 1004 79 10000 1.03 210 21:52 06.09.2021
6571 Rain 17 1005 88 10000 1.03 210 19:44 06.09.2021
6572 Rain 17 1005 88 10000 1.03 210 19:18 06.09.2021
6573 Rain 18 1005 83 9656 1.03 230 18:33 06.09.2021
6574 Clouds 20 1005 76 10000 1.54 180 17:50 06.09.2021
6575 Clouds 19 1005 87 10000 1.03 180 16:20 06.09.2021
6576 Clouds 19 1005 87 10000 1.03 180 16:20 06.09.2021
6577 Clouds 17 1006 92 10000 1.03 160 14:37 06.09.2021
6578 Mist 15 1005 94 9656 1.03 220 12:49 06.09.2021
6579 Clear 15 1005 94 10000 1.54 200 11:43 06.09.2021
6580 Clouds 16 1005 95 10000 2.57 240 10:19 06.09.2021
6581 Clouds 16 1005 95 10000 0.45 146 07:35 06.09.2021
6582 Clouds 18 1005 93 10000 1.03 200 02:54 06.09.2021
6583 Mist 18 1004 90 8047 0.51 190 23:20 05.09.2021
6584 Rain 19 1004 92 10000 1.03 180 22:32 05.09.2021
6585 Rain 20 1004 87 8047 0.51 120 21:55 05.09.2021
6586 Rain 21 1004 78 10000 0.51 120 21:19 05.09.2021
6587 Clouds 22 1006 64 10000 1.54 180 19:30 05.09.2021
6588 Clouds 20 1007 76 10000 1.03 180 17:51 05.09.2021
6589 Clouds 18 1008 86 10000 1.03 190 15:43 05.09.2021
6590 Clouds 17 1008 87 10000 1.54 200 14:56 05.09.2021
6591 Clouds 17 1008 82 10000 1.54 200 12:44 05.09.2021
6592 Clouds 17 1009 80 10000 1.54 190 11:31 05.09.2021
6593 Clouds 17 1009 78 10000 1.54 190 10:36 05.09.2021
6594 Clouds 17 1009 75 10000 1.54 190 09:33 05.09.2021
6595 Clouds 17 1010 72 10000 1.03 210 08:28 05.09.2021
6596 Clouds 19 1012 64 10000 0.51 260 03:22 05.09.2021
6597 Clouds 23 1012 49 10000 1.03 230 00:37 05.09.2021
6598 Clouds 24 1012 48 10000 2.06 220 23:54 04.09.2021
6599 Clouds 24 1012 46 10000 2.06 220 23:21 04.09.2021
6600 Clear 25 1012 42 10000 1.54 320 22:34 04.09.2021
6601 Clear 24 1014 42 10000 2.06 270 20:21 04.09.2021
6602 Clear 23 1014 44 10000 1.54 140 19:33 04.09.2021
6603 Clear 21 1016 56 10000 1.03 230 17:21 04.09.2021
6604 Clear 16 1016 78 10000 0.51 20 14:29 04.09.2021
6605 Clouds 14 1015 82 10000 1.03 350 11:22 04.09.2021
6606 Clear 15 1015 81 10000 2.06 330 10:32 04.09.2021
6607 Clear 16 1015 77 10000 2.06 320 07:32 04.09.2021
6608 Clouds 22 1014 61 10000 1.54 360 00:49 04.09.2021
6609 Clouds 22 1014 61 10000 1.54 360 00:49 04.09.2021
6610 Clouds 23 1014 56 10000 2.06 270 23:39 03.09.2021
6611 Clouds 23 1014 57 10000 2.06 270 23:19 03.09.2021
6612 Clouds 23 1015 52 10000 1.03 320 21:41 03.09.2021
6613 Clouds 23 1016 54 10000 2.57 280 20:54 03.09.2021
6614 Clouds 22 1016 56 10000 2.57 280 20:24 03.09.2021
6615 Clouds 21 1016 61 10000 1.54 300 19:33 03.09.2021
6616 Clouds 21 1016 61 10000 1.54 300 19:33 03.09.2021
6617 Clouds 21 1017 64 10000 0.51 360 18:21 03.09.2021
6618 Clouds 19 1017 70 10000 1.54 30 16:47 03.09.2021
6619 Clouds 17 1017 75 10000 2.06 10 15:38 03.09.2021
6620 Clear 14 1016 85 10000 2.06 350 13:48 03.09.2021
6621 Clear 13 1016 86 10000 2.57 330 11:21 03.09.2021
6622 Clouds 14 1015 84 10000 2.57 310 09:21 03.09.2021
6623 Clouds 15 1015 80 10000 2.06 310 08:18 03.09.2021
6624 Clouds 15 1015 77 10000 2.06 320 06:48 03.09.2021
6625 Clouds 19 1012 57 10000 2.57 350 23:56 02.09.2021
6626 Clouds 20 1012 53 10000 1.54 350 21:55 02.09.2021
6627 Clouds 20 1012 53 10000 2.06 340 20:40 02.09.2021
6628 Clouds 19 1012 54 10000 2.57 20 18:27 02.09.2021
6629 Clear 17 1012 62 10000 2.57 40 16:30 02.09.2021
6630 Clouds 15 1012 67 10000 3.09 20 15:30 02.09.2021
6631 Clear 12 1011 75 10000 3.6 360 13:28 02.09.2021
6632 Clear 12 1011 74 10000 3.6 10 11:43 02.09.2021
6633 Clear 12 1011 72 10000 3.09 10 10:53 02.09.2021
6634 Clear 14 1011 64 10000 3.09 10 08:57 02.09.2021
6635 Clear 16 1011 60 10000 2.57 20 07:22 02.09.2021
6636 Clear 16 1011 60 10000 2.57 20 07:22 02.09.2021
6637 Clear 17 1011 54 10000 2.06 360 05:31 02.09.2021
6638 Clear 19 1011 48 10000 1.03 300 02:36 02.09.2021
6639 Clear 20 1011 44 10000 1.54 340 01:48 02.09.2021
6640 Clear 22 1010 38 10000 1.03 270 23:41 01.09.2021
6641 Clouds 23 1010 40 10000 1.03 270 22:44 01.09.2021
6642 Clouds 23 1010 39 10000 1.54 200 21:58 01.09.2021
6643 Clouds 23 1010 40 10000 1.54 200 21:29 01.09.2021
6644 Clear 23 1011 47 10000 1.54 300 19:33 01.09.2021